# Wetter Temperatur Luftdruck Luftfeuchtigkeit Sichtweite Windgeschwindigkeit Windrichtung Zeit
1 Mist 11 1024 87 5000 2 140 19:59 17.10.2019
2 Mist 11 1024 87 5000 2 150 19:40 17.10.2019
3 Mist 11 1024 87 5000 2 150 19:20 17.10.2019
4 Mist 11 1024 93 5000 2 130 18:58 17.10.2019
5 Mist 11 1024 87 5000 1 110 18:38 17.10.2019
6 Mist 12 1024 87 5000 1 110 18:20 17.10.2019
7 Mist 12 1024 87 5000 2 170 17:42 17.10.2019
8 Mist 12 1025 82 5000 1 0 17:23 17.10.2019
9 Mist 12 1025 82 5000 2 200 16:57 17.10.2019
10 Clouds 13 1025 82 6000 2 180 16:39 17.10.2019
11 Clouds 13 1025 82 6000 2 180 16:18 17.10.2019
12 Clouds 13 1025 82 6000 2 0 15:56 17.10.2019
13 Clouds 13 1025 82 6000 2 0 15:38 17.10.2019
14 Clouds 13 1025 82 6000 2 0 15:20 17.10.2019
15 Clouds 13 1025 82 6000 2 180 14:55 17.10.2019
16 Clouds 13 1024 76 6000 2 170 14:37 17.10.2019
17 Clouds 13 1024 76 6000 2 170 14:18 17.10.2019
18 Clouds 13 1024 71 7000 3 180 13:39 17.10.2019
19 Clouds 13 1024 71 7000 3 180 13:19 17.10.2019
20 Clouds 13 1024 71 8000 2 190 12:55 17.10.2019
21 Clouds 13 1024 71 8000 2 190 12:55 17.10.2019
22 Clouds 13 1024 67 8000 2 190 12:36 17.10.2019
23 Clouds 13 1024 67 8000 2 190 12:18 17.10.2019
24 Clouds 15 1024 62 9000 2 160 11:41 17.10.2019
25 Clouds 14 1024 62 9000 2 160 11:22 17.10.2019
26 Clouds 15 1024 58 9000 2 190 10:58 17.10.2019
27 Clouds 14 1024 58 9000 2 220 10:39 17.10.2019
28 Clouds 14 1024 58 9000 2 220 10:19 17.10.2019
29 Clouds 15 1024 58 9000 2 190 09:55 17.10.2019
30 Clouds 15 1024 58 9000 2 190 09:55 17.10.2019
31 -273 0 0 0 0 0 09:55 17.10.2019
32 Clouds 15 1024 55 8000 2 200 09:37 17.10.2019
33 Clouds 15 1024 55 8000 2 200 09:19 17.10.2019
34 Clouds 16 1024 55 7000 2 210 08:46 17.10.2019
35 Clouds 16 1024 55 7000 1 0 08:26 17.10.2019
36 Clouds 16 1024 58 6000 1 0 07:58 17.10.2019
37 Clouds 16 1025 59 6000 1 0 07:40 17.10.2019
38 Clouds 16 1025 59 6000 1 0 07:20 17.10.2019
39 Clouds 16 1025 59 6000 1 0 07:20 17.10.2019
40 Clouds 16 1026 62 6000 1 0 06:42 17.10.2019
41 Clouds 15 1026 62 6000 1 0 06:23 17.10.2019
42 Clouds 15 1026 71 7000 1 0 05:58 17.10.2019
43 Clouds 15 1026 67 8000 1 0 05:34 17.10.2019
44 Clouds 13 1027 66 8000 1 0 04:57 17.10.2019
45 Rain 14 1027 71 7000 1 0 03:58 17.10.2019
46 Rain 13 1027 76 7000 1 0 03:38 17.10.2019
47 Clouds 11 1026 93 7000 1 0 01:55 17.10.2019
48 Clouds 10 1025 87 10000 1 150 00:41 17.10.2019
49 Clouds 10 1025 87 10000 1 150 00:20 17.10.2019
50 Clouds 11 1026 87 10000 1 150 23:42 16.10.2019
51 Clouds 10 1026 87 10000 1 100 23:22 16.10.2019
52 Clouds 10 1025 87 10000 1 140 22:58 16.10.2019
53 Clouds 11 1025 87 10000 1 100 22:38 16.10.2019
54 Clouds 11 1025 87 10000 1 100 22:20 16.10.2019
55 Clouds 11 1025 87 10000 1 60 21:58 16.10.2019
56 Clouds 11 1025 87 10000 1 60 21:58 16.10.2019
57 Clouds 11 1025 87 10000 1 70 21:38 16.10.2019
58 Clouds 11 1025 87 10000 1 70 21:20 16.10.2019
59 Clouds 11 1026 87 10000 1 80 20:59 16.10.2019
60 Clouds 11 1026 87 10000 1 80 20:59 16.10.2019
61 Clouds 11 1026 81 10000 1 80 20:41 16.10.2019
62 Clouds 11 1026 81 10000 1 80 20:22 16.10.2019
63 Clouds 11 1026 81 10000 1 0 19:59 16.10.2019
64 Clouds 11 1026 81 10000 2 120 19:40 16.10.2019
65 Clouds 11 1026 81 10000 2 120 19:21 16.10.2019
66 Clouds 11 1026 76 10000 2 140 18:56 16.10.2019
67 Clouds 11 1026 76 10000 2 140 18:56 16.10.2019
68 Clouds 11 1026 76 10000 2 140 18:56 16.10.2019
69 -273 0 0 0 0 0 18:56 16.10.2019
70 Clouds 11 1026 76 10000 2 160 18:37 16.10.2019
71 Clouds 11 1026 76 10000 2 160 18:18 16.10.2019
72 Clouds 11 1026 76 10000 2 160 18:18 16.10.2019
73 Clouds 11 1026 76 10000 2 160 18:18 16.10.2019
74 Clouds 11 1026 81 10000 1 140 17:55 16.10.2019
75 Clouds 11 1026 81 10000 1 140 17:55 16.10.2019
76 Clouds 11 1027 76 10000 2 160 17:36 16.10.2019
77 Clouds 11 1027 76 10000 2 160 17:18 16.10.2019
78 Clouds 11 1027 76 10000 1 0 16:43 16.10.2019
79 Clouds 12 1027 71 10000 1 150 16:22 16.10.2019
80 Clouds 12 1027 66 10000 2 140 15:59 16.10.2019
81 Clouds 12 1027 58 10000 3 180 15:39 16.10.2019
82 Clouds 12 1027 58 10000 3 180 15:39 16.10.2019
83 Clouds 12 1027 58 10000 3 180 15:19 16.10.2019
84 Clouds 12 1027 58 10000 3 180 14:58 16.10.2019
85 Clouds 13 1027 58 10000 3 180 14:39 16.10.2019
86 Clouds 13 1027 58 10000 3 180 14:39 16.10.2019
87 Clouds 13 1027 62 10000 3 170 14:20 16.10.2019
88 Clouds 13 1027 62 10000 4 170 13:57 16.10.2019
89 Clouds 13 1027 62 10000 4 170 13:39 16.10.2019
90 Clouds 13 1026 62 10000 4 180 13:20 16.10.2019
91 Clouds 14 1026 58 10000 4 180 12:42 16.10.2019
92 Clouds 14 1026 54 10000 3 180 12:20 16.10.2019
93 Clouds 14 1026 47 10000 4 180 11:45 16.10.2019
94 Clouds 14 1026 47 10000 4 180 11:45 16.10.2019
95 Clouds 14 1025 47 10000 4 180 11:19 16.10.2019
96 Clouds 15 1025 44 10000 6 180 10:56 16.10.2019
97 Clouds 15 1025 33 10000 2 170 10:36 16.10.2019
98 Clouds 16 1025 33 10000 2 170 10:18 16.10.2019
99 -273 0 0 0 0 0 09:40 16.10.2019
100 Clouds 17 1025 22 10000 2 0 09:40 16.10.2019
101 Clouds 17 1025 22 10000 1 0 09:21 16.10.2019
102 Clouds 19 1025 19 10000 2 150 08:46 16.10.2019
103 Clouds 19 1026 24 10000 3 0 08:26 16.10.2019
104 Clouds 19 1026 24 10000 1 0 07:59 16.10.2019
105 Clouds 19 1026 24 10000 1 0 07:41 16.10.2019
106 Clouds 18 1026 25 10000 2 0 07:22 16.10.2019
107 Clouds 19 1027 23 10000 2 310 06:47 16.10.2019
108 Clouds 18 1027 25 10000 2 0 06:28 16.10.2019
109 Clouds 17 1028 15 10000 4 350 04:25 16.10.2019
110 Clouds 13 1029 43 10000 3 330 02:51 16.10.2019
111 Clouds 10 1028 75 10000 3 350 01:20 16.10.2019
112 Clouds 10 1028 75 10000 4 350 00:58 16.10.2019
113 Clouds 10 1028 75 10000 4 350 00:39 16.10.2019
114 Clouds 10 1028 75 10000 2 350 23:58 15.10.2019
115 Clouds 10 1028 75 10000 2 350 23:38 15.10.2019
116 Clouds 10 1028 75 10000 4 350 23:19 15.10.2019
117 Clouds 10 1028 80 10000 3 340 22:55 15.10.2019
118 Clouds 10 1028 80 10000 3 340 22:37 15.10.2019
119 Clouds 10 1028 80 10000 3 350 22:18 15.10.2019
120 Clouds 10 1028 80 10000 3 350 21:54 15.10.2019
121 Clouds 9 1029 80 10000 2 350 21:36 15.10.2019
122 Clouds 9 1029 80 10000 2 350 21:18 15.10.2019
123 -273 0 0 0 0 0 20:54 15.10.2019
124 Clouds 9 1029 86 10000 2 330 20:36 15.10.2019
125 Clouds 9 1029 86 10000 2 330 20:18 15.10.2019
126 Clouds 11 1030 93 10000 2 350 19:41 15.10.2019
127 Clouds 11 1030 93 10000 2 350 19:41 15.10.2019
128 Clouds 11 1030 93 10000 2 350 19:20 15.10.2019
129 Clouds 10 1030 93 10000 1 0 18:57 15.10.2019
130 Clouds 10 1030 93 10000 1 0 18:39 15.10.2019
131 Clouds 10 1030 93 10000 0.119 172 18:20 15.10.2019
132 Clouds 9 1030 87 10000 1 350 17:54 15.10.2019
133 Clouds 9 1030 93 10000 1 70 17:36 15.10.2019
134 Clouds 11 1030 93 10000 1 70 17:18 15.10.2019
135 Clouds 10 1030 87 10000 2 60 16:42 15.10.2019
136 Clouds 10 1030 93 10000 1 0 16:21 15.10.2019
137 Clouds 11 1030 87 10000 2 50 15:56 15.10.2019
138 Clouds 11 1030 87 10000 2 50 15:38 15.10.2019
139 Clouds 11 1030 87 10000 1 0 15:19 15.10.2019
140 Clouds 11 1030 87 10000 1 0 14:55 15.10.2019
141 Clouds 11 1030 87 10000 1 0 14:36 15.10.2019
142 Clouds 11 1030 87 10000 1 0 14:18 15.10.2019
143 Clouds 12 1030 75 10000 1 0 13:43 15.10.2019
144 Clouds 12 1030 75 10000 1 0 13:20 15.10.2019
145 Clouds 13 1030 66 10000 1 0 12:56 15.10.2019
146 Clouds 13 1030 66 10000 1 140 12:37 15.10.2019
147 Clouds 13 1030 66 10000 1 140 12:37 15.10.2019
148 Clouds 14 1030 66 10000 1 140 12:18 15.10.2019
149 Clouds 14 1030 57 10000 1 0 11:42 15.10.2019
150 Clouds 15 1030 41 10000 1 0 11:20 15.10.2019
151 Clouds 16 1030 26 10000 3 190 10:56 15.10.2019
152 Clear 16 1030 21 10000 2 210 10:37 15.10.2019
153 Clear 17 1030 21 10000 2 210 10:18 15.10.2019
154 Clear 17 1030 20 10000 3 220 09:41 15.10.2019
155 Clear 18 1030 20 10000 3 220 09:21 15.10.2019
156 Clear 18 1030 20 10000 3 220 09:21 15.10.2019
157 Clear 18 1031 18 10000 3 230 08:58 15.10.2019
158 Clear 18 1031 18 10000 3 230 08:58 15.10.2019
159 -273 0 0 0 0 0 08:58 15.10.2019
160 Clear 18 1031 18 10000 3 250 08:40 15.10.2019
161 Clear 17 1031 18 10000 3 250 08:20 15.10.2019
162 Clear 18 1031 18 10000 2 0 07:48 15.10.2019
163 Clear 19 1032 18 10000 3 240 07:23 15.10.2019
164 Clear 19 1033 17 10000 2 0 06:58 15.10.2019
165 Clear 19 1033 17 10000 2 0 06:40 15.10.2019
166 Clear 17 1034 25 10000 1 0 05:58 15.10.2019
167 Clear 16 1034 25 10000 1 0 05:37 15.10.2019
168 Clear 16 1035 33 10000 2 300 04:53 15.10.2019
169 Clear 15 1036 32 10000 1 0 04:19 15.10.2019
170 Clear 13 1036 50 10000 3 330 03:35 15.10.2019
171 Clear 13 1036 50 10000 3 330 03:35 15.10.2019
172 Clear 9 1036 80 10000 3 340 01:59 15.10.2019
173 Clear 8 1036 80 10000 3 340 01:40 15.10.2019
174 Clear 7 1035 24 10000 3 360 00:59 15.10.2019
175 Clear 7 1036 80 10000 3 350 00:26 15.10.2019
176 Clear 4 1036 30 10000 2 330 23:59 14.10.2019
177 Clear 6 1036 30 10000 2 330 23:37 14.10.2019
178 Clear 7 1036 86 10000 2 360 23:19 14.10.2019
179 Clear 7 1036 86 10000 2 360 23:19 14.10.2019
180 Clear 6 1036 30 10000 2 360 22:40 14.10.2019
181 Clear 8 1036 30 10000 2 340 22:21 14.10.2019
182 Clear 6 1036 86 10000 2 350 21:58 14.10.2019
183 Clear 7 1036 86 10000 2 350 21:40 14.10.2019
184 Clear 8 1036 93 10000 2 360 21:21 14.10.2019
185 Clear 8 1036 35 10000 2 360 20:58 14.10.2019
186 Clear 7 1037 93 10000 1 0 20:38 14.10.2019
187 Clear 7 1037 93 10000 1 0 20:19 14.10.2019
188 -273 0 0 0 0 0 19:55 14.10.2019
189 -273 0 0 0 0 0 19:54 14.10.2019
190 Clear 8 1037 93 10000 1 50 19:36 14.10.2019
191 Clear 9 1037 93 10000 1 50 19:18 14.10.2019
192 Clear 9 1037 93 10000 1 0 18:54 14.10.2019
193 Clear 9 1037 86 10000 1 30 18:36 14.10.2019
194 Clear 7 1037 86 10000 1 30 18:18 14.10.2019
195 Clear 7 1037 93 10000 1 40 17:41 14.10.2019
196 Clear 7 1037 93 10000 1 40 17:22 14.10.2019
197 Clear 8 1037 93 10000 1 0 16:54 14.10.2019
198 Clear 8 1037 93 10000 1 60 16:36 14.10.2019
199 Clear 8 1037 93 10000 1 60 16:18 14.10.2019
200 Clear 9 1037 86 10000 1 0 15:40 14.10.2019
201 Clear 9 1037 86 10000 1 0 15:40 14.10.2019
202 Clear 9 1037 86 10000 1 0 15:21 14.10.2019
203 Clear 9 1036 80 10000 2 130 14:44 14.10.2019
204 Clear 11 1036 80 10000 1 0 14:25 14.10.2019
205 Clear 10 1036 70 10000 2 180 13:57 14.10.2019
206 Clear 10 1036 70 10000 2 150 13:39 14.10.2019
207 Clear 10 1036 70 10000 2 150 13:20 14.10.2019
208 Clear 10 1036 70 10000 2 150 13:20 14.10.2019
209 Clear 11 1035 33 10000 2 160 12:41 14.10.2019
210 Clear 12 1035 24 10000 2 160 12:21 14.10.2019
211 Clear 12 1035 24 10000 2 130 11:55 14.10.2019
212 Clear 13 1035 28 10000 2 140 11:36 14.10.2019
213 Clear 14 1035 28 10000 2 140 11:18 14.10.2019
214 Clear 15 1035 19 10000 2 150 10:44 14.10.2019
215 Clear 16 1035 19 10000 2 150 10:21 14.10.2019
216 Clear 16 1035 18 10000 3 0 09:59 14.10.2019
217 -273 0 0 0 0 0 09:40 14.10.2019
218 Clear 16 1035 19 10000 1 0 09:20 14.10.2019
219 Clear 16 1036 17 10000 2 0 08:48 14.10.2019
220 Clear 16 1036 17 10000 2 30 08:23 14.10.2019
221 Clear 16 1036 19 10000 2 210 07:45 14.10.2019
222 Clear 16 1037 19 10000 1 0 07:23 14.10.2019
223 Clear 15 1038 17 10000 2 0 06:56 14.10.2019
224 Clear 15 1038 20 10000 2 0 06:28 14.10.2019
225 Clear 14 1039 24 10000 2 360 05:55 14.10.2019
226 Clear 13 1039 25 10000 2 350 04:59 14.10.2019
227 Clear 13 1039 30 10000 4 330 03:49 14.10.2019
228 Clear 10 1039 46 10000 4 350 03:22 14.10.2019
229 Clear 8 1038 64 10000 2 10 01:56 14.10.2019
230 Clear 7 1038 51 10000 3 320 01:18 14.10.2019
231 Clear 4 1038 80 10000 1 0 00:41 14.10.2019
232 Clear 5 1038 80 10000 1 0 00:18 14.10.2019
233 Clear 4 1037 31 10000 3 360 23:40 13.10.2019
234 Clear 4 1037 31 10000 3 360 23:19 13.10.2019
235 Clear 5 1037 74 10000 3 350 22:56 13.10.2019
236 Clear 6 1037 69 10000 2 340 22:38 13.10.2019
237 Clear 6 1037 69 10000 2 340 22:19 13.10.2019
238 Clear 6 1037 74 10000 1 0 21:56 13.10.2019
239 Clear 6 1037 80 10000 4 340 21:36 13.10.2019
240 Clear 6 1037 80 10000 4 340 21:36 13.10.2019
241 Clear 5 1037 80 10000 4 340 21:18 13.10.2019
242 Clear 5 1037 80 10000 4 340 21:18 13.10.2019
243 Clear 6 1037 33 10000 3 350 20:55 13.10.2019
244 Clear 6 1037 86 10000 2 360 20:37 13.10.2019
245 Clear 6 1037 86 10000 2 360 20:18 13.10.2019
246 Clear 6 1036 86 10000 3 360 19:54 13.10.2019
247 Clear 6 1036 86 10000 3 360 19:54 13.10.2019
248 Clear 6 1036 93 10000 3 360 19:36 13.10.2019
249 Clear 6 1036 93 10000 3 360 19:36 13.10.2019
250 Clear 6 1036 93 10000 3 360 19:18 13.10.2019
251 Clear 7 1036 100 10000 2 360 18:40 13.10.2019
252 Clear 7 1036 100 10000 2 360 18:40 13.10.2019
253 Clear 6 1036 100 10000 2 360 18:21 13.10.2019
254 Clear 7 1036 93 6000 1 0 17:59 13.10.2019
255 Clouds 7 1035 100 6000 1 0 17:41 13.10.2019
256 Clouds 7 1035 100 6000 1 0 17:22 13.10.2019
257 Clouds 8 1035 93 7000 1 60 16:43 13.10.2019
258 Clouds 8 1035 93 7000 1 60 16:19 13.10.2019
259 Clouds 8 1034 100 7000 1 0 15:58 13.10.2019
260 Clouds 8 1034 100 7000 1 70 15:39 13.10.2019
261 Clouds 8 1034 100 7000 1 70 15:20 13.10.2019
262 Clouds 9 1033 100 8000 1.38 15.041 14:58 13.10.2019
263 Clear 9 1032 93 10000 1 80 14:39 13.10.2019
264 Clear 8 1032 93 10000 1 80 14:20 13.10.2019
265 Clear 9 1032 93 10000 1 70 13:56 13.10.2019
266 Clear 9 1031 93 10000 1 70 13:37 13.10.2019
267 Clear 9 1031 93 10000 1 70 13:18 13.10.2019
268 Clear 9 1031 93 10000 1 10 12:55 13.10.2019
269 Clear 9 1030 93 10000 1 0 12:37 13.10.2019
270 Clear 9 1030 93 10000 1 0 12:18 13.10.2019
271 Clear 10 1029 93 10000 1 90 11:55 13.10.2019
272 Clear 10 1029 81 10000 1 0 11:37 13.10.2019
273 Clear 10 1029 81 10000 1 0 11:18 13.10.2019
274 Clear 10 1029 87 10000 2 70 10:41 13.10.2019
275 Clear 10 1029 87 10000 2 70 10:22 13.10.2019
276 Clear 10 1029 87 10000 2 70 10:22 13.10.2019
277 Clouds 10 1029 93 10000 2 360 09:41 13.10.2019
278 Clouds 10 1029 93 10000 2 360 09:21 13.10.2019
279 Rain 10 1029 93 8000 2 20 08:58 13.10.2019
280 Rain 10 1029 93 7000 2 30 08:38 13.10.2019
281 Rain 10 1029 93 7000 2 30 08:19 13.10.2019
282 Rain 10 1029 87 10000 1 0 07:46 13.10.2019
283 Rain 10 1029 81 10000 2 70 06:59 13.10.2019
284 Rain 10 1028 76 10000 1 0 06:41 13.10.2019
285 Rain 11 1028 76 10000 2 80 05:39 13.10.2019
286 Rain 11 1028 76 10000 2 50 04:46 13.10.2019
287 Rain 12 1027 66 10000 2 50 03:51 13.10.2019
288 Clouds 13 1025 58 10000 1 0 02:41 13.10.2019
289 Clouds 14 1025 54 10000 1 0 01:53 13.10.2019
290 Clouds 14 1024 58 10000 1 80 01:26 13.10.2019
291 Clouds 14 1024 62 10000 1 0 00:47 13.10.2019
292 Clouds 14 1024 62 10000 1 0 00:47 13.10.2019
293 Clouds 14 1024 54 10000 1 0 00:21 13.10.2019
294 Clouds 14 1023 50 10000 3 130 23:56 12.10.2019
295 Clouds 14 1023 54 10000 2 120 23:37 12.10.2019
296 Clouds 15 1023 54 10000 2 120 23:19 12.10.2019
297 Clouds 15 1023 51 10000 3 130 22:57 12.10.2019
298 Clouds 15 1023 54 10000 3 140 22:38 12.10.2019
299 Clouds 15 1023 54 10000 3 140 22:20 12.10.2019
300 Clouds 15 1023 54 10000 2 140 21:54 12.10.2019
301 Clouds 15 1023 62 10000 2 140 21:36 12.10.2019
302 Clouds 15 1023 62 10000 2 140 21:18 12.10.2019
303 Clouds 15 1023 62 10000 2 130 20:39 12.10.2019
304 Clouds 15 1023 62 10000 2 130 20:21 12.10.2019
305 Clouds 15 1023 67 10000 2 70 19:37 12.10.2019
306 Clouds 15 1023 67 10000 2 70 19:19 12.10.2019
307 Clouds 15 1023 71 10000 2 60 18:56 12.10.2019
308 Clouds 15 1023 67 10000 1 80 18:37 12.10.2019
309 Clouds 15 1023 67 10000 1 80 18:19 12.10.2019
310 Clouds 15 1023 67 10000 2.34 183.993 17:42 12.10.2019
311 Clouds 15 1023 67 10000 2.34 183.993 17:19 12.10.2019
312 Clouds 15 1023 67 10000 2.34 183.993 16:54 12.10.2019
313 Clouds 15 1023 67 10000 2.34 183.993 16:54 12.10.2019
314 Clouds 16 1023 58 10000 1 0 16:36 12.10.2019
315 Clouds 16 1023 58 10000 1 0 16:18 12.10.2019
316 Clouds 16 1024 76 10000 1 160 15:40 12.10.2019
317 Clouds 16 1024 76 10000 1 160 15:22 12.10.2019
318 Clouds 16 1023 82 10000 1.31 179.956 14:43 12.10.2019
319 Clouds 16 1023 76 10000 1.31 179.956 14:22 12.10.2019
320 Clouds 16 1023 76 10000 1.31 179.956 13:57 12.10.2019
321 Clouds 16 1023 77 10000 1 0 13:38 12.10.2019
322 Clouds 16 1023 77 10000 1 0 13:20 12.10.2019
323 Clouds 16 1022 72 10000 1 90 12:39 12.10.2019
324 Clouds 16 1022 72 10000 1 90 12:21 12.10.2019
325 Clouds 16 1022 72 10000 1 40 11:58 12.10.2019
326 Clouds 17 1022 63 10000 1 0 11:38 12.10.2019
327 Clouds 17 1022 63 10000 1 0 11:19 12.10.2019
328 Clear 17 1023 48 10000 1 0 10:41 12.10.2019
329 Clear 17 1023 48 10000 1 0 10:23 12.10.2019
330 Clear 17 1023 48 10000 1 0 09:58 12.10.2019
331 -273 0 0 0 0 0 09:57 12.10.2019
332 Clear 17 1023 48 10000 1 0 09:57 12.10.2019
333 Clear 18 1023 45 10000 1 0 09:38 12.10.2019
334 Clear 17 1023 45 10000 1 0 09:19 12.10.2019
335 -273 0 0 0 0 0 08:44 12.10.2019
336 Clear 18 1023 48 10000 1 0 08:44 12.10.2019
337 Clear 18 1023 45 10000 1 0 08:24 12.10.2019
338 Clear 18 1023 45 10000 1 0 07:57 12.10.2019
339 Clear 18 1023 48 10000 1 0 07:31 12.10.2019
340 Clear 16 1024 48 10000 2 200 06:28 12.10.2019
341 Clear 16 1025 51 10000 1 0 05:43 12.10.2019
342 Clear 17 1025 51 10000 2 200 04:34 12.10.2019
343 Clear 17 1025 55 10000 2 200 03:54 12.10.2019
344 Clouds 15 1024 67 10000 2 150 02:50 12.10.2019
345 Clouds 15 1023 82 10000 1.4 116.382 01:33 12.10.2019
346 Clouds 15 1023 87 10000 1 90 00:56 12.10.2019
347 Clouds 15 1023 82 10000 1.4 116.382 00:37 12.10.2019
348 Clouds 15 1023 76 10000 1.03 120.392 23:55 11.10.2019
349 Clouds 15 1022 76 10000 1.03 120.392 23:36 11.10.2019
350 Clouds 15 1022 76 10000 1.03 120.392 23:18 11.10.2019
351 Clouds 15 1022 82 10000 1 20 22:38 11.10.2019
352 Clouds 15 1022 82 10000 1 20 22:19 11.10.2019
353 Clouds 15 1022 76 10000 1 0 21:43 11.10.2019
354 Clouds 15 1022 76 10000 1 0 21:22 11.10.2019
355 Clouds 15 1022 71 10000 1 30 20:59 11.10.2019
356 Clouds 16 1022 76 10000 1 30 20:41 11.10.2019
357 Clouds 15 1022 76 10000 1 30 20:23 11.10.2019
358 Clouds 16 1022 62 10000 1 0 19:55 11.10.2019
359 Clouds 16 1022 62 10000 1 0 19:37 11.10.2019
360 Clouds 16 1022 62 10000 1 0 19:18 11.10.2019
361 Clouds 16 1022 62 10000 1 0 19:18 11.10.2019
362 Clouds 16 1022 62 10000 1 0 19:18 11.10.2019
363 Clouds 16 1022 62 10000 1 0 19:18 11.10.2019
364 Clouds 16 1022 62 10000 1 0 19:18 11.10.2019
365 Clouds 16 1022 62 10000 1 0 18:56 11.10.2019
366 Clouds 16 1022 58 10000 1 0 18:37 11.10.2019
367 Clouds 16 1022 58 10000 1 0 18:18 11.10.2019
368 Clouds 16 1022 62 10000 1 0 17:55 11.10.2019
369 Clouds 16 1022 62 10000 1 70 17:36 11.10.2019
370 Clouds 16 1022 62 10000 1 70 17:18 11.10.2019
371 Clouds 16 1021 62 10000 1 0 16:40 11.10.2019
372 Clouds 16 1021 62 10000 1 0 16:20 11.10.2019
373 Clouds 16 1021 62 10000 1 0 16:20 11.10.2019
374 Clouds 16 1021 67 10000 1 100 15:59 11.10.2019
375 Clouds 16 1021 62 10000 1 0 15:38 11.10.2019
376 Clouds 16 1021 62 10000 1 0 15:19 11.10.2019
377 Clouds 17 1020 59 10000 1 0 14:47 11.10.2019
378 Clouds 16 1020 67 10000 1 0 14:29 11.10.2019
379 Clouds 17 1020 62 10000 1 0 13:56 11.10.2019
380 Clear 17 1020 62 10000 2 110 13:37 11.10.2019
381 Clear 17 1020 62 10000 2 110 13:19 11.10.2019
382 Clear 17 1020 51 10000 2 130 12:54 11.10.2019
383 Clear 17 1019 55 10000 2 120 12:36 11.10.2019
384 Clear 18 1019 59 10000 2 110 12:18 11.10.2019
385 Clear 18 1019 52 10000 2 130 11:41 11.10.2019
386 Clear 19 1019 52 10000 2 130 11:22 11.10.2019
387 Clear 19 1019 52 10000 1 0 10:56 11.10.2019
388 Clear 19 1019 42 10000 2 150 10:38 11.10.2019
389 Clear 19 1019 42 10000 2 150 10:20 11.10.2019
390 Clouds 20 1019 42 10000 2 120 09:55 11.10.2019
391 Clouds 20 1019 45 10000 2 110 09:37 11.10.2019
392 Clouds 20 1019 45 10000 2 110 09:18 11.10.2019
393 Clouds 20 1019 45 10000 2 110 09:18 11.10.2019
394 Clouds 20 1020 42 10000 3 140 08:54 11.10.2019
395 Clouds 20 1020 39 10000 3 140 08:36 11.10.2019
396 Clouds 20 1020 39 10000 3 140 08:18 11.10.2019
397 Clouds 20 1020 45 10000 4 180 07:41 11.10.2019
398 Clouds 20 1020 45 10000 4 180 07:22 11.10.2019
399 Clouds 20 1021 55 10000 3 150 06:47 11.10.2019
400 Clouds 19 1021 55 10000 3 150 06:22 11.10.2019
401 Mist 18 1022 72 4500 2 0 05:37 11.10.2019
402 Mist 17 1022 77 4500 2 200 04:59 11.10.2019
403 Mist 17 1022 77 4500 2 180 04:24 11.10.2019
404 Mist 16 1021 93 4000 1 80 02:19 11.10.2019
405 Mist 15 1020 93 4500 1 0 00:43 11.10.2019
406 Mist 15 1020 93 4500 1 0 00:25 11.10.2019
407 Mist 14 1019 93 4500 1 360 23:43 10.10.2019
408 Mist 14 1019 93 4500 2.13 107.115 23:21 10.10.2019
409 Mist 14 1019 93 4500 1 0 22:57 10.10.2019
410 Mist 14 1019 93 4500 1 0 22:39 10.10.2019
411 Mist 16 1019 93 4500 1 0 22:20 10.10.2019
412 Mist 15 1019 100 4500 1 0 21:57 10.10.2019
413 Mist 15 1019 100 4500 2.13 107.115 21:38 10.10.2019
414 Mist 15 1019 100 4500 0.44 61.275 21:20 10.10.2019
415 Mist 14 1018 100 4500 1 0 20:42 10.10.2019
416 Mist 15 1018 100 4500 1 0 20:21 10.10.2019
417 Mist 15 1018 93 4500 1 80 19:58 10.10.2019
418 Mist 15 1018 93 4500 0.88 49.42 19:40 10.10.2019
419 Mist 15 1018 93 4500 0.88 49.42 19:40 10.10.2019
420 Mist 15 1018 93 4500 0.88 49.42 19:20 10.10.2019
421 Mist 15 1018 93 4500 0.88 49.42 19:20 10.10.2019
422 Mist 15 1018 93 4200 0.88 49.42 18:57 10.10.2019
423 Mist 16 1018 93 4200 0.88 49.42 18:38 10.10.2019
424 Mist 16 1018 93 4200 0.55 90.936 18:19 10.10.2019
425 Mist 16 1018 93 4200 1 50 17:54 10.10.2019
426 Mist 16 1018 93 4200 0.55 90.936 17:36 10.10.2019
427 Mist 16 1018 93 4200 0.55 90.936 17:36 10.10.2019
428 Mist 16 1018 93 4200 0.55 90.936 17:18 10.10.2019
429 Mist 17 1018 93 4500 1 10 16:41 10.10.2019
430 Mist 17 1018 93 4500 1 10 16:22 10.10.2019
431 Mist 17 1017 93 5000 2 70 15:44 10.10.2019
432 Mist 17 1017 93 5000 2 70 15:25 10.10.2019
433 Mist 17 1016 87 5000 2 80 14:59 10.10.2019
434 Mist 17 1016 93 5000 1 90 14:38 10.10.2019
435 Mist 17 1016 93 5000 1 90 14:38 10.10.2019
436 Mist 17 1016 93 5000 1 90 14:19 10.10.2019
437 Mist 17 1016 87 5000 1 100 13:59 10.10.2019
438 Mist 17 1016 87 5000 1 100 13:59 10.10.2019
439 Mist 18 1015 93 5000 1 0 13:41 10.10.2019
440 Mist 17 1015 93 5000 1 0 13:20 10.10.2019
441 Mist 18 1015 93 5000 1 0 12:57 10.10.2019
442 Mist 18 1014 87 5000 1 0 12:39 10.10.2019
443 Mist 18 1014 87 5000 1 0 12:19 10.10.2019
444 Haze 18 1014 77 5000 2 10 11:55 10.10.2019
445 Haze 19 1014 72 5000 3 20 11:37 10.10.2019
446 Haze 19 1014 72 5000 3 20 11:18 10.10.2019
447 Haze 20 1013 63 5000 1 0 10:44 10.10.2019
448 Haze 21 1013 63 5000 1 0 10:25 10.10.2019
449 Haze 20 1013 63 5000 1 0 09:56 10.10.2019
450 Clouds 20 1013 63 6000 1 0 09:38 10.10.2019
451 Clouds 20 1013 63 6000 1 0 09:19 10.10.2019
452 Haze 20 1013 63 5000 1 0 08:41 10.10.2019
453 Haze 20 1013 63 5000 1 0 08:23 10.10.2019
454 Haze 22 1014 63 5000 1 0 07:59 10.10.2019
455 Haze 22 1014 63 5000 1 0 07:40 10.10.2019
456 Haze 22 1014 63 5000 1 0 07:20 10.10.2019
457 Haze 20 1014 67 5000 2 130 06:45 10.10.2019
458 Haze 20 1014 67 5000 2 130 06:24 10.10.2019
459 Clouds 18 1015 77 6000 1 0 05:24 10.10.2019
460 Clouds 18 1015 77 7000 2 150 04:37 10.10.2019
461 Clouds 17 1015 82 8000 1 0 03:42 10.10.2019
462 Clouds 15 1014 82 8000 2 140 01:42 10.10.2019
463 Clouds 15 1014 82 8000 2 140 01:24 10.10.2019
464 Clouds 15 1014 82 10000 2 130 00:45 10.10.2019
465 Clear 14 1014 82 10000 2 120 00:21 10.10.2019
466 Clear 14 1014 82 10000 1 130 23:39 09.10.2019
467 Clear 15 1014 82 10000 1 130 23:20 09.10.2019
468 Clear 15 1013 82 10000 2 140 22:43 09.10.2019
469 Clear 15 1013 82 10000 2 140 22:24 09.10.2019
470 Clear 15 1013 87 10000 2 130 21:59 09.10.2019
471 Clear 15 1013 87 10000 2 130 21:59 09.10.2019
472 Clear 15 1013 87 10000 1 140 21:40 09.10.2019
473 Clear 14 1013 87 10000 1 140 21:20 09.10.2019
474 Clear 15 1014 87 10000 2 150 20:56 09.10.2019
475 Clear 15 1014 87 10000 2 150 20:56 09.10.2019
476 Clear 15 1014 82 10000 2 170 20:37 09.10.2019
477 Clear 15 1014 82 10000 2 170 20:18 09.10.2019
478 Clear 15 1014 82 10000 3 170 19:46 09.10.2019
479 Clear 16 1014 72 10000 4 180 19:24 09.10.2019
480 Clear 16 1014 72 10000 4 180 18:58 09.10.2019
481 Clear 16 1013 67 10000 5 180 18:38 09.10.2019
482 Clear 16 1013 67 10000 5 180 18:18 09.10.2019
483 Clear 17 1014 63 10000 5 180 17:56 09.10.2019
484 Clear 17 1014 63 10000 5 170 17:37 09.10.2019
485 Clear 17 1014 63 10000 5 170 17:18 09.10.2019
486 Clear 17 1014 55 10000 5 180 16:42 09.10.2019
487 Clear 18 1014 55 10000 5 180 16:23 09.10.2019
488 Clear 19 1014 52 10000 5 190 15:58 09.10.2019
489 Clear 18 1013 55 10000 5 190 15:39 09.10.2019
490 Clear 19 1013 55 10000 5 190 15:20 09.10.2019
491 Clear 19 1013 56 10000 4 190 14:59 09.10.2019
492 Clear 18 1013 82 10000 1 0 14:41 09.10.2019
493 Clear 18 1013 82 10000 1 0 14:18 09.10.2019
494 Clear 19 1013 87 10000 1 70 13:40 09.10.2019
495 Clear 19 1013 87 10000 1 70 13:22 09.10.2019
496 Clear 19 1012 82 10000 2 350 12:59 09.10.2019
497 Clear 19 1012 82 10000 1 120 12:41 09.10.2019
498 Clear 20 1012 82 10000 1 120 12:21 09.10.2019
499 Clear 21 1012 72 10000 1 0 11:55 09.10.2019
500 Clear 22 1012 60 10000 1 0 11:37 09.10.2019
501 Clear 22 1012 60 10000 1 0 11:19 09.10.2019
502 Clear 23 1012 46 10000 1 0 10:44 09.10.2019
503 Clear 23 1012 46 10000 1 0 10:22 09.10.2019
504 Clear 23 1013 43 10000 3 230 09:59 09.10.2019
505 Clear 23 1013 43 10000 3 210 09:41 09.10.2019
506 Clear 23 1013 43 10000 3 210 09:19 09.10.2019
507 Clear 24 1013 43 10000 3 0 08:43 09.10.2019
508 Clear 23 1014 40 10000 2 0 08:23 09.10.2019
509 Clear 24 1014 43 10000 1 0 07:59 09.10.2019
510 Clear 24 1015 45 10000 2 0 07:39 09.10.2019
511 Clear 24 1015 45 10000 2 0 07:20 09.10.2019
512 Clear 23 1015 45 10000 2 0 06:51 09.10.2019
513 Clear 22 1017 45 10000 2 0 05:56 09.10.2019
514 Clear 21 1017 45 10000 1 0 05:37 09.10.2019
515 Clear 20 1018 55 10000 1 0 04:25 09.10.2019
516 Clear 16 1019 66 10000 1 0 02:53 09.10.2019
517 Clear 13 1019 93 10000 1 10 01:43 09.10.2019
518 Clear 13 1019 93 10000 1 10 01:20 09.10.2019
519 Clear 12 1019 93 10000 1 0 00:57 09.10.2019
520 Clear 12 1019 93 10000 0.47 134.129 00:38 09.10.2019
521 Clear 11 1019 93 10000 0.05 132.58 00:20 09.10.2019
522 Clear 11 1019 93 10000 1 0 23:39 08.10.2019
523 Clear 10 1019 93 10000 1 0 23:19 08.10.2019
524 Clear 10 1019 93 10000 1 0 23:19 08.10.2019
525 Clear 11 1019 93 10000 1 0 22:57 08.10.2019
526 Clear 11 1019 93 10000 0.05 132.58 22:38 08.10.2019
527 Clear 11 1019 93 10000 0.05 132.58 22:19 08.10.2019
528 Clear 9 1019 93 10000 0.05 132.58 21:57 08.10.2019
529 Clear 11 1020 93 10000 1 60 21:39 08.10.2019
530 Clear 12 1020 93 10000 1 60 21:19 08.10.2019
531 Clear 12 1020 93 10000 0.74 264.56 20:56 08.10.2019
532 Clear 12 1020 93 10000 0.74 264.56 20:56 08.10.2019
533 Clear 12 1020 93 10000 0.51 258.47 20:37 08.10.2019
534 Clear 12 1020 93 10000 0.51 258.47 20:19 08.10.2019
535 Clear 12 1020 93 10000 1 0 19:57 08.10.2019
536 Clear 14 1020 93 10000 1 0 19:38 08.10.2019
537 Clear 14 1020 93 10000 1 0 19:20 08.10.2019
538 Clear 14 1020 87 10000 2 350 18:46 08.10.2019
539 Clear 13 1020 87 10000 1 0 18:28 08.10.2019
540 Clear 14 1021 81 10000 1 0 17:59 08.10.2019
541 Clear 13 1021 81 10000 1 30 17:40 08.10.2019
542 Clear 13 1021 81 10000 1 30 17:20 08.10.2019
543 Clear 13 1021 87 10000 1 0 16:57 08.10.2019
544 Clear 13 1022 87 10000 1 0 16:38 08.10.2019
545 Clear 14 1022 87 10000 1 0 16:20 08.10.2019
546 Clear 13 1022 81 10000 1 150 15:40 08.10.2019
547 Clear 14 1022 81 10000 1 150 15:21 08.10.2019
548 Clear 14 1022 81 10000 1 150 14:57 08.10.2019
549 Clear 15 1022 76 10000 2 150 14:39 08.10.2019
550 Clear 15 1022 76 10000 2 150 14:20 08.10.2019
551 Clear 16 1021 62 10000 2 160 13:56 08.10.2019
552 Clear 16 1021 41 10000 2 190 13:38 08.10.2019
553 Clear 17 1021 41 10000 2 190 13:18 08.10.2019
554 Clear 18 1021 48 10000 3 210 12:56 08.10.2019
555 Clear 18 1021 48 10000 4 200 12:37 08.10.2019
556 Clear 18 1021 48 10000 4 200 12:37 08.10.2019
557 Clear 19 1021 34 10000 4 200 12:18 08.10.2019
558 Clear 20 1021 34 10000 4 200 11:41 08.10.2019
559 Clear 21 1021 34 10000 4 200 11:23 08.10.2019
560 Clear 21 1021 22 10000 5 200 10:56 08.10.2019
561 Clear 22 1021 21 10000 4 200 10:37 08.10.2019
562 Clear 22 1021 21 10000 4 200 10:19 08.10.2019
563 Clear 22 1022 22 10000 4 200 09:55 08.10.2019
564 Clear 22 1022 21 10000 4 200 09:37 08.10.2019
565 Clear 22 1022 21 10000 4 200 09:18 08.10.2019
566 Clear 22 1023 21 10000 3 200 08:42 08.10.2019
567 Clear 22 1023 21 10000 3 200 08:23 08.10.2019
568 Clear 22 1024 19 10000 2 0 07:44 08.10.2019
569 Clear 22 1024 19 10000 2 0 07:21 08.10.2019
570 Clear 22 1025 19 10000 2 10 06:50 08.10.2019
571 Clear 22 1026 20 10000 2 0 06:28 08.10.2019
572 Clear 21 1026 24 10000 3 300 05:46 08.10.2019
573 Clear 20 1026 22 10000 3 320 05:25 08.10.2019
574 Clear 19 1028 27 10000 4 50 03:57 08.10.2019
575 Clear 17 1028 31 10000 2 60 03:24 08.10.2019
576 Clear 17 1027 35 10000 3 20 02:35 08.10.2019
577 Clear 14 1027 35 10000 2 30 01:45 08.10.2019
578 Clear 14 1027 35 10000 2 30 01:26 08.10.2019
579 Clear 12 1026 40 10000 3 10 00:46 08.10.2019
580 Clear 12 1026 34 10000 4 20 00:20 08.10.2019
581 Clear 14 1025 37 10000 3 20 23:39 07.10.2019
582 Clear 14 1025 37 10000 3 20 23:20 07.10.2019
583 Clear 13 1025 37 10000 4 20 22:56 07.10.2019
584 Clear 13 1024 37 10000 4 30 22:38 07.10.2019
585 Clear 13 1024 37 10000 4 30 22:20 07.10.2019
586 Clear 14 1024 35 10000 3 40 21:56 07.10.2019
587 Clear 14 1024 33 10000 4 30 21:37 07.10.2019
588 Clear 14 1024 33 10000 4 30 21:37 07.10.2019
589 Clear 14 1024 33 10000 4 30 21:19 07.10.2019
590 Clear 14 1024 33 10000 4 30 21:19 07.10.2019
591 Clear 14 1024 33 10000 4 30 21:19 07.10.2019
592 Clear 15 1024 33 10000 5 30 20:57 07.10.2019
593 Clear 15 1023 33 10000 5 30 20:39 07.10.2019
594 Clear 15 1023 33 10000 5 30 20:20 07.10.2019
595 Clear 16 1023 44 10000 6 20 19:57 07.10.2019
596 Clear 16 1023 36 10000 6 30 19:39 07.10.2019
597 Clear 16 1023 36 10000 6 30 19:18 07.10.2019
598 Clear 16 1022 38 10000 7 30 18:56 07.10.2019
599 Clear 17 1021 48 10000 7 20 18:38 07.10.2019
600 Clear 17 1021 76 10000 4 360 18:18 07.10.2019
601 Clear 17 1020 81 10000 1 0 17:42 07.10.2019
602 Clear 16 1020 81 10000 1 0 17:20 07.10.2019
603 Clear 17 1019 81 10000 2 350 16:56 07.10.2019
604 Clear 17 1019 87 10000 2 20 16:38 07.10.2019
605 Clear 17 1019 87 10000 2 20 16:19 07.10.2019
606 Clear 17 1018 82 10000 3 360 15:43 07.10.2019
607 Clear 18 1018 82 10000 3 360 15:25 07.10.2019
608 Clear 18 1017 87 10000 1 0 14:43 07.10.2019
609 -273 0 0 0 0 0 14:24 07.10.2019
610 Clear 18 1017 82 10000 1 0 14:24 07.10.2019
611 Clear 19 1016 76 10000 1 0 13:59 07.10.2019
612 Clear 19 1016 72 10000 1 0 13:41 07.10.2019
613 Clear 19 1016 72 10000 1 0 13:19 07.10.2019
614 Clear 20 1015 63 10000 1 0 12:55 07.10.2019
615 Clear 22 1015 45 10000 2 180 12:37 07.10.2019
616 Clear 21 1015 45 10000 2 180 12:18 07.10.2019
617 Clear 22 1014 37 10000 4 210 11:56 07.10.2019
618 Clear 23 1014 35 10000 5 210 11:37 07.10.2019
619 Clear 23 1014 35 10000 5 210 11:18 07.10.2019
620 Clear 24 1014 31 10000 5 190 10:41 07.10.2019
621 Clear 24 1014 31 10000 5 190 10:20 07.10.2019
622 Clear 24 1015 35 10000 5 190 09:42 07.10.2019
623 Clear 24 1015 35 10000 5 190 09:23 07.10.2019
624 Clear 24 1015 40 10000 5 200 08:56 07.10.2019
625 Clear 24 1016 38 10000 5 190 08:38 07.10.2019
626 Clear 24 1016 38 10000 5 190 08:19 07.10.2019
627 Clear 24 1017 46 10000 5 200 07:41 07.10.2019
628 Clear 23 1017 46 10000 5 200 07:21 07.10.2019
629 Clear 23 1017 46 10000 3 200 06:49 07.10.2019
630 Clear 22 1018 40 10000 4 210 06:27 07.10.2019
631 Clear 21 1018 45 10000 2 0 05:47 07.10.2019
632 Clear 20 1019 52 10000 2 0 05:21 07.10.2019
633 Clear 19 1020 59 10000 1 0 04:24 07.10.2019
634 Clear 18 1021 67 10000 2 310 03:44 07.10.2019
635 Clear 18 1021 67 10000 2 310 03:44 07.10.2019
636 Clear 17 1021 67 10000 2 310 03:20 07.10.2019
637 Clear 15 1021 71 10000 2 320 02:20 07.10.2019
638 Clear 13 1020 87 10000 2 360 01:50 07.10.2019
639 Clear 12 1020 87 10000 2 10 01:21 07.10.2019
640 Clear 11 1020 93 10000 2 350 00:39 07.10.2019
641 Clear 12 1020 93 10000 2 350 00:20 07.10.2019
642 Clear 12 1020 93 10000 2 360 23:42 06.10.2019
643 Clear 12 1020 93 10000 2 360 23:42 06.10.2019
644 Clear 12 1020 93 10000 2 360 23:42 06.10.2019
645 Clear 12 1020 93 10000 2 360 23:21 06.10.2019
646 Clear 12 1020 100 10000 1 360 22:59 06.10.2019
647 Clear 12 1020 100 10000 1 20 22:41 06.10.2019
648 Clear 12 1020 100 10000 1 20 22:22 06.10.2019
649 Clear 12 1021 93 10000 1 360 21:57 06.10.2019
650 Clear 13 1021 93 10000 1 40 21:37 06.10.2019
651 Clear 13 1021 93 10000 1 40 21:19 06.10.2019
652 Clear 13 1021 93 10000 0.56 302.981 20:57 06.10.2019
653 Clear 13 1021 93 10000 1 0 20:39 06.10.2019
654 Clear 13 1021 93 10000 1 0 20:20 06.10.2019
655 Clear 13 1022 93 10000 1 0 19:57 06.10.2019
656 Clear 13 1022 93 10000 1 0 19:57 06.10.2019
657 Clear 13 1022 93 10000 1 130 19:37 06.10.2019
658 Clear 14 1022 93 10000 1 130 19:19 06.10.2019
659 Clear 14 1022 93 10000 1 130 19:19 06.10.2019
660 Clear 14 1022 87 10000 1 0 18:56 06.10.2019
661 Clear 14 1022 81 10000 2 150 18:38 06.10.2019
662 Clear 14 1022 81 10000 2 150 18:19 06.10.2019
663 Clear 15 1022 76 10000 2 160 17:57 06.10.2019
664 Clear 15 1022 82 10000 2 160 17:38 06.10.2019
665 Clear 15 1022 82 10000 2 160 17:18 06.10.2019
666 Clear 15 1022 76 10000 1 150 16:42 06.10.2019
667 Clear 15 1022 76 10000 1 150 16:23 06.10.2019
668 Clear 15 1022 82 10000 1 0 15:45 06.10.2019
669 Clear 15 1022 76 10000 1 140 15:23 06.10.2019
670 Clear 15 1022 67 10000 2 160 14:59 06.10.2019
671 Clear 15 1022 67 10000 3 170 14:41 06.10.2019
672 Clear 15 1022 67 10000 3 170 14:23 06.10.2019
673 Clear 16 1022 67 10000 4 170 13:55 06.10.2019
674 Clear 16 1022 62 10000 3 180 13:37 06.10.2019
675 Clear 16 1022 62 10000 3 180 13:19 06.10.2019
676 Clear 16 1022 62 10000 4 170 12:56 06.10.2019
677 Clear 16 1022 62 10000 4 180 12:37 06.10.2019
678 Clear 16 1022 62 10000 4 180 12:19 06.10.2019
679 Clear 16 1022 48 10000 4 180 11:43 06.10.2019
680 Clear 17 1022 48 10000 4 180 11:25 06.10.2019
681 Clear 17 1022 48 10000 4 180 11:25 06.10.2019
682 Clear 17 1022 42 10000 4 180 10:58 06.10.2019
683 Clear 17 1023 42 10000 4 190 10:39 06.10.2019
684 Clear 17 1023 42 10000 4 190 10:21 06.10.2019
685 Clear 18 1023 36 10000 5 190 09:42 06.10.2019
686 Clear 18 1023 36 10000 5 190 09:21 06.10.2019
687 Clear 18 1023 36 10000 5 190 09:21 06.10.2019
688 Clear 18 1023 42 10000 4 170 08:59 06.10.2019
689 Clear 18 1023 42 10000 3 200 08:39 06.10.2019
690 Clear 18 1023 42 10000 3 200 08:19 06.10.2019
691 Clear 19 1024 45 10000 3 190 07:42 06.10.2019
692 Clear 19 1024 45 10000 3 190 07:18 06.10.2019
693 Clear 19 1025 48 10000 2 0 06:18 06.10.2019
694 Clear 18 1025 51 10000 1 0 05:27 06.10.2019
695 Clear 15 1026 66 10000 1 0 03:23 06.10.2019
696 Clear 14 1026 66 10000 1 0 02:40 06.10.2019
697 Clear 14 1026 93 10000 1 50 01:57 06.10.2019
698 Clear 13 1025 93 10000 1 0 01:37 06.10.2019
699 Clear 12 1025 93 10000 1 0 01:18 06.10.2019
700 Clear 12 1025 87 10000 1 100 00:45 06.10.2019
701 Clear 12 1025 93 10000 1 30 00:21 06.10.2019
702 Clear 12 1025 87 10000 1 0 23:42 05.10.2019
703 Clear 12 1025 93 10000 0.67 60.962 23:21 05.10.2019
704 Clear 13 1025 87 10000 1 0 22:57 05.10.2019
705 Clear 11 1025 93 10000 1 0 22:38 05.10.2019
706 Clear 11 1025 93 10000 1 0 22:38 05.10.2019
707 Clear 11 1025 93 10000 1 0 22:38 05.10.2019
708 Clear 12 1025 93 10000 1 0 22:19 05.10.2019
709 Clear 12 1025 93 10000 1 0 21:42 05.10.2019
710 Clear 12 1025 87 10000 1 0 21:42 05.10.2019
711 Clear 12 1025 87 10000 1 0 21:24 05.10.2019
712 Clear 12 1025 87 10000 1 350 20:59 05.10.2019
713 Clear 12 1026 87 10000 1 20 20:40 05.10.2019
714 Clear 12 1026 87 10000 1 20 20:20 05.10.2019
715 Clear 12 1025 81 10000 1 0 19:58 05.10.2019
716 Clear 12 1026 81 10000 1 50 19:37 05.10.2019
717 Clear 13 1026 81 10000 1 50 19:18 05.10.2019
718 Clear 13 1026 93 10000 2 70 18:55 05.10.2019
719 Clear 13 1026 93 10000 1 40 18:36 05.10.2019
720 Clear 13 1026 93 10000 1 40 18:18 05.10.2019
721 Clear 14 1026 93 10000 1 80 17:42 05.10.2019
722 Clear 14 1026 93 10000 1 80 17:22 05.10.2019
723 Clear 14 1026 93 10000 1 0 16:56 05.10.2019
724 Clear 14 1026 93 10000 1 0 16:56 05.10.2019
725 Clear 14 1026 87 10000 1 0 16:37 05.10.2019
726 Clear 14 1026 87 10000 1 0 16:19 05.10.2019
727 Clear 14 1026 87 10000 1 0 15:56 05.10.2019
728 Clear 15 1026 66 10000 2 0 15:37 05.10.2019
729 Clear 15 1026 66 10000 2 0 15:19 05.10.2019
730 Clear 15 1025 76 10000 2 170 14:42 05.10.2019
731 Clear 15 1025 76 10000 2 170 14:23 05.10.2019
732 Clear 15 1025 81 10000 1 0 13:44 05.10.2019
733 Clear 15 1025 81 10000 1 0 13:26 05.10.2019
734 Clear 15 1025 81 10000 1 0 13:26 05.10.2019
735 Clear 16 1025 76 10000 1 160 12:59 05.10.2019
736 Clear 16 1025 76 10000 1 160 12:59 05.10.2019
737 Clear 17 1025 66 10000 1 0 12:41 05.10.2019
738 Clear 17 1025 66 10000 1 0 12:19 05.10.2019
739 Clear 19 1025 39 10000 2 160 11:41 05.10.2019
740 Clear 20 1025 39 10000 2 160 11:20 05.10.2019
741 Clear 19 1025 31 10000 2 150 10:57 05.10.2019
742 Clear 20 1025 24 10000 3 0 10:38 05.10.2019
743 Clear 20 1025 24 10000 3 0 10:38 05.10.2019
744 Clear 20 1025 24 10000 3 0 10:20 05.10.2019
745 Clear 21 1026 24 10000 2 310 09:41 05.10.2019
746 Clear 20 1026 24 10000 2 310 09:23 05.10.2019
747 Clear 21 1026 25 10000 2 40 08:43 05.10.2019
748 Clear 21 1026 25 10000 2 40 08:24 05.10.2019
749 Clear 20 1027 24 10000 3 20 07:59 05.10.2019
750 Clear 20 1028 24 10000 3 360 07:40 05.10.2019
751 Clear 20 1028 24 10000 3 360 07:21 05.10.2019
752 Clear 20 1028 27 10000 3 10 06:52 05.10.2019
753 Clear 20 1029 25 10000 3 0 06:21 05.10.2019
754 Clear 19 1030 29 10000 3 290 04:46 05.10.2019
755 Clear 16 1031 38 10000 3 350 03:32 05.10.2019
756 Clear 15 1031 44 10000 3 340 02:29 05.10.2019
757 Clear 13 1030 87 10000 1 0 01:26 05.10.2019
758 Clear 11 1030 93 10000 1 350 00:48 05.10.2019
759 Clear 11 1030 87 10000 1 0 00:27 05.10.2019
760 Clear 11 1029 81 10000 2 340 23:57 04.10.2019
761 Clear 11 1029 75 10000 2 330 23:39 04.10.2019
762 Clear 11 1029 75 10000 2 330 23:21 04.10.2019
763 Clear 12 1029 70 10000 3 350 22:42 04.10.2019
764 Clear 12 1029 70 10000 3 350 22:24 04.10.2019
765 Clear 12 1029 66 10000 2 10 21:59 04.10.2019
766 Clear 13 1028 66 10000 3 30 21:40 04.10.2019
767 Clear 13 1028 66 10000 3 30 21:22 04.10.2019
768 Clear 13 1028 62 10000 3 30 20:59 04.10.2019
769 Clear 13 1028 66 10000 2 20 20:40 04.10.2019
770 Clear 13 1028 66 10000 2 20 20:22 04.10.2019
771 Clear 14 1028 62 10000 2 20 19:56 04.10.2019
772 Clear 12 1028 66 10000 2 30 19:37 04.10.2019
773 Clear 14 1028 66 10000 2 30 19:19 04.10.2019
774 Clear 13 1028 93 10000 1 30 18:54 04.10.2019
775 Clear 12 1028 93 10000 1 0 18:36 04.10.2019
776 Clear 12 1028 93 10000 1 0 18:18 04.10.2019
777 Clear 13 1028 87 10000 1.64 67.426 17:39 04.10.2019
778 Clear 13 1028 87 10000 1.64 67.426 17:21 04.10.2019
779 Clear 13 1028 87 10000 1 0 16:58 04.10.2019
780 Clear 14 1027 82 10000 1 0 16:39 04.10.2019
781 Clear 15 1027 82 10000 1 0 16:18 04.10.2019
782 Clear 15 1027 82 10000 1 0 15:56 04.10.2019
783 Clear 15 1027 82 10000 1 0 15:37 04.10.2019
784 Clear 15 1027 82 10000 1 0 15:19 04.10.2019
785 Clear 15 1026 87 10000 1 0 14:55 04.10.2019
786 Clear 15 1026 87 10000 1 0 14:55 04.10.2019
787 Clear 15 1026 87 10000 2.09 82.235 14:36 04.10.2019
788 Clear 15 1026 87 10000 2.09 82.235 14:18 04.10.2019
789 Clear 16 1026 82 10000 1 60 13:43 04.10.2019
790 Clear 16 1025 82 10000 1 80 13:21 04.10.2019
791 Clear 16 1025 76 10000 1 100 12:47 04.10.2019
792 Clear 16 1025 71 10000 1 0 12:29 04.10.2019
793 Clear 16 1024 58 10000 1 70 11:59 04.10.2019
794 Clear 16 1024 51 10000 2 100 11:41 04.10.2019
795 Clear 17 1024 51 10000 2 100 11:20 04.10.2019
796 Clear 17 1024 51 10000 2 100 11:20 04.10.2019
797 Clear 17 1024 51 10000 2 100 11:20 04.10.2019
798 Clear 16 1023 55 10000 2 60 10:41 04.10.2019
799 Clear 16 1023 55 10000 2 60 10:21 04.10.2019
800 Clear 17 1023 51 10000 2 50 09:50 04.10.2019
801 Clear 17 1023 48 10000 4 20 09:31 04.10.2019
802 Clouds 17 1023 51 10000 4 40 08:57 04.10.2019
803 Clouds 17 1023 55 10000 3 20 08:38 04.10.2019
804 Clouds 16 1023 55 10000 3 20 08:38 04.10.2019
805 Clouds 16 1023 55 10000 3 20 08:20 04.10.2019
806 Clouds 15 1023 58 10000 6 40 07:46 04.10.2019
807 Clouds 15 1023 58 10000 6 40 07:23 04.10.2019
808 Clouds 15 1023 58 10000 6 30 06:47 04.10.2019
809 Clear 15 1024 62 10000 5 20 06:27 04.10.2019
810 Rain 14 1024 71 10000 3 20 05:52 04.10.2019
811 Rain 14 1024 76 10000 5 20 05:19 04.10.2019
812 Rain 13 1023 87 10000 4 30 03:56 04.10.2019
813 Rain 14 1023 87 10000 5 20 02:54 04.10.2019
814 Rain 14 1022 87 10000 6 30 02:21 04.10.2019
815 Rain 14 1021 87 10000 4 40 01:43 04.10.2019
816 Rain 14 1021 87 10000 4 40 01:24 04.10.2019
817 Rain 15 1019 87 10000 5 30 00:18 04.10.2019
818 Rain 15 1019 87 10000 5 20 23:37 03.10.2019
819 Rain 15 1019 87 10000 5 20 23:18 03.10.2019
820 Rain 16 1018 93 10000 4 40 22:57 03.10.2019
821 Rain 16 1018 93 10000 4 40 22:57 03.10.2019
822 Rain 16 1018 93 8000 5 50 22:39 03.10.2019
823 Rain 16 1018 93 8000 5 50 22:21 03.10.2019
824 Rain 16 1017 93 6000 7 30 21:56 03.10.2019
825 Rain 18 1017 88 6000 2 20 21:37 03.10.2019
826 Rain 18 1017 88 6000 2 20 21:19 03.10.2019
827 Rain 19 1015 68 10000 6 130 20:56 03.10.2019
828 Clouds 20 1015 72 10000 6 130 20:37 03.10.2019
829 Clouds 20 1015 72 10000 6 130 20:19 03.10.2019
830 Clouds 20 1015 77 10000 4 130 19:55 03.10.2019
831 Clouds 20 1015 77 10000 4 130 19:55 03.10.2019
832 Rain 20 1015 77 8000 5 140 19:36 03.10.2019
833 Rain 21 1015 77 8000 5 140 19:18 03.10.2019
834 Rain 21 1015 73 8000 2 120 18:40 03.10.2019
835 Clouds 22 1015 73 8000 2 120 18:19 03.10.2019
836 Clouds 22 1015 77 8000 3 130 18:19 03.10.2019
837 Clouds 22 1015 77 8000 3 130 17:59 03.10.2019
838 Clouds 22 1015 73 8000 5 130 17:41 03.10.2019
839 Clouds 22 1015 73 8000 5 130 17:20 03.10.2019
840 Clouds 22 1014 73 6000 6 140 16:44 03.10.2019
841 Clouds 23 1014 78 6000 5 130 16:26 03.10.2019
842 Clouds 23 1014 78 6000 6 130 15:57 03.10.2019
843 Clouds 23 1013 78 7000 6 140 15:39 03.10.2019
844 Clouds 24 1013 78 7000 6 140 15:20 03.10.2019
845 Clouds 24 1013 78 8000 6 140 14:47 03.10.2019
846 Clear 25 1012 69 10000 5 130 14:27 03.10.2019
847 Clear 25 1012 57 10000 6 130 13:59 03.10.2019
848 Clear 25 1012 50 10000 4 130 13:41 03.10.2019
849 Clear 27 1012 50 10000 4 130 13:19 03.10.2019
850 Clear 27 1011 64 10000 2 110 12:57 03.10.2019
851 Clear 28 1011 57 10000 2 110 12:38 03.10.2019
852 Clear 28 1011 57 10000 2 110 12:19 03.10.2019
853 Clear 30 1010 45 10000 3 130 11:42 03.10.2019
854 Clear 30 1010 45 10000 3 130 11:23 03.10.2019
855 Clear 30 1010 45 10000 2 140 10:59 03.10.2019
856 Clear 31 1010 42 10000 3 140 10:40 03.10.2019
857 Clear 31 1010 42 10000 3 140 10:19 03.10.2019
858 Clear 32 1010 45 10000 2 140 09:58 03.10.2019
859 Clear 31 1010 45 10000 3 130 09:40 03.10.2019
860 Clear 31 1010 45 10000 3 130 09:21 03.10.2019
861 Clear 31 1010 42 10000 3 120 08:46 03.10.2019
862 Clear 31 1011 45 10000 2 130 08:27 03.10.2019
863 Clear 32 1011 45 10000 2 150 07:59 03.10.2019
864 Clear 32 1011 45 10000 2 150 07:59 03.10.2019
865 Clear 32 1011 45 10000 2 0 07:41 03.10.2019
866 Clear 32 1011 45 10000 2 0 07:19 03.10.2019
867 Clear 32 1011 48 10000 1 0 06:50 03.10.2019
868 Clear 31 1012 48 10000 1 0 06:24 03.10.2019
869 Clear 30 1012 48 10000 2 0 05:46 03.10.2019
870 Clear 29 1012 48 10000 1 0 05:19 03.10.2019
871 Clear 28 1013 53 8000 1 0 04:27 03.10.2019
872 Clouds 26 1013 60 8000 1 0 03:24 03.10.2019
873 Clouds 24 1013 77 8000 1 360 02:39 03.10.2019
874 Clouds 22 1012 88 8000 2 360 01:52 03.10.2019
875 Clouds 22 1012 93 8000 1 30 01:33 03.10.2019
876 Clouds 20 1012 93 8000 2 360 00:49 03.10.2019
877 Clear 21 1012 88 10000 1 360 00:19 03.10.2019
878 Clear 20 1012 88 10000 2 350 23:43 02.10.2019
879 Clear 20 1012 88 10000 2 350 23:22 02.10.2019
880 Clear 20 1011 93 10000 1 360 22:44 02.10.2019
881 Clear 20 1011 93 10000 1 360 22:44 02.10.2019
882 Clear 21 1011 93 10000 1 360 22:22 02.10.2019
883 Clear 20 1011 93 10000 1 360 21:58 02.10.2019
884 Clear 20 1011 93 10000 1 0 21:38 02.10.2019
885 Clear 20 1011 93 10000 1 0 21:20 02.10.2019
886 Clear 20 1011 93 10000 1 0 21:20 02.10.2019
887 Clear 21 1012 93 10000 1 350 20:57 02.10.2019
888 Clear 20 1012 93 10000 1 20 20:38 02.10.2019
889 Clear 21 1012 93 10000 1 20 20:20 02.10.2019
890 Clear 21 1012 93 10000 1 20 19:55 02.10.2019
891 Clear 21 1012 93 10000 0.39 315.415 19:37 02.10.2019
892 Clear 22 1012 93 10000 0.39 315.415 19:18 02.10.2019
893 Clear 22 1011 88 10000 1 10 18:56 02.10.2019
894 Clear 22 1011 93 10000 1 40 18:37 02.10.2019
895 Clear 21 1011 93 10000 1 90 18:19 02.10.2019
896 Clear 22 1012 88 10000 1 50 17:42 02.10.2019
897 Clear 22 1012 88 10000 1 50 17:21 02.10.2019
898 Clear 22 1012 93 10000 1 70 16:59 02.10.2019
899 Clear 22 1011 93 10000 1 60 16:39 02.10.2019
900 Clear 23 1011 93 10000 1 60 16:20 02.10.2019
901 Clear 23 1011 93 10000 1 60 15:57 02.10.2019
902 Clear 24 1011 88 10000 1 0 15:38 02.10.2019
903 Clear 23 1011 88 10000 1 0 15:18 02.10.2019
904 Clear 23 1011 88 10000 1 0 15:18 02.10.2019
905 Clear 24 1011 88 10000 1.61 256.395 14:45 02.10.2019
906 Clear 24 1011 88 10000 1.61 256.395 14:27 02.10.2019
907 Clear 24 1011 82 10000 1 0 13:59 02.10.2019
908 Clear 25 1010 73 10000 1 0 13:40 02.10.2019
909 Clear 25 1010 73 10000 1 0 13:22 02.10.2019
910 Clear 25 1010 73 10000 1 0 12:54 02.10.2019
911 Clear 26 1010 69 10000 1 150 12:36 02.10.2019
912 Clear 27 1010 61 10000 1 150 12:18 02.10.2019
913 Clear 27 1010 61 10000 1 150 12:18 02.10.2019
914 Clear 28 1010 51 10000 2 150 11:41 02.10.2019
915 Clear 29 1010 51 10000 2 150 11:21 02.10.2019
916 Clear 30 1010 39 10000 3 210 10:40 02.10.2019
917 Clear 31 1010 39 10000 3 210 10:19 02.10.2019
918 Clear 31 1010 39 10000 3 210 10:19 02.10.2019
919 Clear 31 1011 42 10000 2 170 09:42 02.10.2019
920 Clear 31 1011 42 10000 2 170 09:21 02.10.2019
921 Clear 31 1011 45 10000 2 230 08:59 02.10.2019
922 Clear 31 1011 42 10000 2 210 08:41 02.10.2019
923 Clear 31 1011 42 10000 2 210 08:22 02.10.2019
924 Clear 31 1012 45 10000 3 220 07:55 02.10.2019
925 Clear 31 1012 47 10000 2 0 07:37 02.10.2019
926 Clear 31 1012 47 10000 2 0 07:37 02.10.2019
927 Clear 31 1013 47 10000 1 0 07:18 02.10.2019
928 Clear 29 1014 50 10000 2 190 06:28 02.10.2019
929 Clear 28 1015 53 10000 1 0 05:51 02.10.2019
930 Clear 27 1015 53 10000 1 0 05:22 02.10.2019
931 Clear 26 1015 60 10000 1 0 04:18 02.10.2019
932 Clear 25 1015 60 10000 1 0 03:50 02.10.2019
933 Clear 23 1015 72 8000 1 0 02:38 02.10.2019
934 Clear 23 1015 72 8000 1 0 02:20 02.10.2019
935 Clear 20 1015 87 8000 1 0 00:55 02.10.2019
936 Clear 20 1015 82 8000 2 90 00:30 02.10.2019
937 Clear 20 1015 77 10000 2 90 23:57 01.10.2019
938 Clear 20 1015 82 10000 2 90 23:39 01.10.2019
939 Clear 20 1015 82 10000 2 90 23:21 01.10.2019
940 Clear 19 1014 87 10000 1 70 22:58 01.10.2019
941 Clear 19 1014 87 10000 1 70 22:58 01.10.2019
942 Clear 20 1014 77 10000 2 80 22:38 01.10.2019
943 Clear 20 1014 88 10000 2 100 22:18 01.10.2019
944 Clear 20 1014 93 10000 1 80 21:43 01.10.2019
945 Clear 20 1014 93 10000 1 80 21:43 01.10.2019
946 Clear 20 1014 93 10000 1 80 21:23 01.10.2019
947 Clear 20 1014 93 10000 1 80 21:23 01.10.2019
948 Clear 20 1014 93 10000 1 0 20:59 01.10.2019
949 Clear 20 1014 93 10000 1 0 20:59 01.10.2019
950 Clear 21 1014 88 10000 0.82 322.921 20:39 01.10.2019
951 Clear 21 1014 88 10000 0.82 322.921 20:20 01.10.2019
952 Clear 21 1014 88 10000 1 0 19:58 01.10.2019
953 Clear 21 1014 88 10000 2 90 19:40 01.10.2019
954 Clear 21 1014 88 10000 2 90 19:21 01.10.2019
955 Clear 21 1014 82 10000 2 80 18:56 01.10.2019
956 Clear 22 1015 88 10000 1 80 18:38 01.10.2019
957 Clear 21 1015 82 10000 1 0 18:19 01.10.2019
958 Clear 19 1015 77 10000 1 0 17:43 01.10.2019
959 Clear 20 1015 77 10000 1 0 17:21 01.10.2019
960 Clear 23 1015 77 10000 2 140 16:59 01.10.2019
961 Clear 24 1015 68 10000 2 160 16:41 01.10.2019
962 Clear 24 1015 68 10000 2 160 16:22 01.10.2019
963 Clear 25 1015 64 10000 2 150 15:49 01.10.2019
964 Clear 24 1015 72 10000 1 0 15:25 01.10.2019
965 Clear 24 1015 82 10000 2 90 14:58 01.10.2019
966 Clear 24 1014 77 10000 1 0 14:40 01.10.2019
967 Clear 24 1014 77 10000 1 0 14:19 01.10.2019
968 Clear 24 1014 77 10000 1 0 13:56 01.10.2019
969 Clear 25 1014 73 10000 1 120 13:37 01.10.2019
970 Clear 25 1014 73 10000 1 120 13:18 01.10.2019
971 Clear 26 1014 64 10000 2 140 12:55 01.10.2019
972 Clear 26 1014 64 10000 2 140 12:55 01.10.2019
973 Clear 27 1014 53 10000 2 140 12:37 01.10.2019
974 Clear 28 1014 44 10000 2 150 12:18 01.10.2019
975 Clear 28 1014 44 10000 2 150 11:54 01.10.2019
976 Clear 29 1013 45 10000 3 160 11:36 01.10.2019
977 Clear 29 1013 45 10000 3 160 11:36 01.10.2019
978 Clear 29 1013 45 10000 3 160 11:18 01.10.2019
979 Clear 30 1014 42 10000 5 170 10:44 01.10.2019
980 Clear 30 1014 42 10000 5 170 10:25 01.10.2019
981 Clear 31 1014 40 10000 5 170 09:44 01.10.2019
982 Clear 31 1014 40 10000 5 170 09:25 01.10.2019
983 Clear 31 1014 42 10000 3 160 08:44 01.10.2019
984 Clear 31 1014 42 10000 3 160 08:25 01.10.2019
985 Clear 31 1014 42 10000 3 160 07:50 01.10.2019
986 Clear 31 1015 48 10000 3 150 07:26 01.10.2019
987 Clear 30 1015 47 8000 2 140 06:51 01.10.2019
988 Clear 29 1015 47 8000 2 140 06:25 01.10.2019
989 Clear 28 1016 54 8000 2 120 05:59 01.10.2019
990 Clear 29 1016 54 7000 1 0 05:38 01.10.2019
991 Clear 29 1016 61 6000 1 0 04:42 01.10.2019
992 Haze 25 1016 69 5000 1 0 03:34 01.10.2019
993 Mist 23 1015 88 4000 2 90 02:19 01.10.2019
994 Mist 23 1015 88 4000 2 90 01:55 01.10.2019
995 Clear 19 1015 100 7000 1 50 00:44 01.10.2019
996 Clear 19 1015 100 7000 1 50 00:44 01.10.2019
997 Clear 19 1015 100 7000 1 50 00:25 01.10.2019
998 Clear 20 1014 93 8000 1 0 23:42 30.09.2019
999 Clear 20 1014 93 8000 1 0 23:22 30.09.2019
1000 Clear 17 1014 93 8000 1 60 22:56 30.09.2019
1001 Clear 17 1014 93 10000 2 10 22:37 30.09.2019
1002 Clear 21 1014 88 10000 1 0 22:19 30.09.2019
1003 Clear 21 1014 88 10000 1 0 21:55 30.09.2019
1004 Clear 21 1014 82 10000 1 0 21:36 30.09.2019
1005 Clear 21 1014 82 10000 1 0 21:18 30.09.2019
1006 Clear 22 1014 82 10000 1 0 20:54 30.09.2019
1007 Clear 22 1014 82 10000 1.27 267.704 20:36 30.09.2019
1008 Clear 22 1014 82 10000 1.27 267.704 20:18 30.09.2019
1009 Clear 24 1014 72 10000 1 150 19:54 30.09.2019
1010 Clear 23 1014 77 10000 2 140 19:36 30.09.2019
1011 Clear 22 1014 82 10000 2 120 19:18 30.09.2019
1012 Clear 23 1014 82 10000 2 130 18:41 30.09.2019
1013 Clear 23 1014 82 10000 2 130 18:21 30.09.2019
1014 Clear 24 1014 77 10000 2 160 17:57 30.09.2019
1015 Clear 24 1014 77 10000 2 160 17:57 30.09.2019
1016 Clear 23 1014 77 10000 2 130 17:39 30.09.2019
1017 Clear 23 1014 77 10000 2 130 17:19 30.09.2019
1018 Clear 23 1014 82 10000 2 160 16:54 30.09.2019
1019 -273 0 0 0 0 0 16:36 30.09.2019
1020 Clear 23 1014 88 10000 1 70 16:18 30.09.2019
1021 Clear 24 1013 82 10000 1 100 15:39 30.09.2019
1022 Clear 24 1013 82 10000 1 100 15:39 30.09.2019
1023 Clear 24 1013 82 10000 1 100 15:20 30.09.2019
1024 Clear 24 1013 82 10000 1 70 14:59 30.09.2019
1025 Clear 25 1013 77 10000 1.82 225.4 14:38 30.09.2019
1026 Clear 25 1013 77 10000 1.82 225.4 14:19 30.09.2019
1027 Clear 25 1013 77 10000 1 0 14:00 30.09.2019
1028 Clear 25 1012 77 10000 1 0 13:41 30.09.2019
1029 Clear 25 1012 73 10000 2 150 13:22 30.09.2019
1030 Clear 26 1012 73 10000 2 150 12:57 30.09.2019
1031 Clear 28 1012 54 10000 2 160 12:38 30.09.2019
1032 Clear 28 1012 47 10000 3 180 12:18 30.09.2019
1033 Clear 29 1012 42 10000 4 180 11:43 30.09.2019
1034 Clear 30 1012 42 10000 4 180 11:21 30.09.2019
1035 Clear 30 1012 42 10000 5 170 10:58 30.09.2019
1036 Clear 31 1012 40 10000 4 170 10:38 30.09.2019
1037 Clear 32 1012 37 10000 4 180 10:18 30.09.2019
1038 Clear 32 1012 37 10000 4 180 09:57 30.09.2019
1039 Clear 32 1012 40 10000 4 170 09:38 30.09.2019
1040 Clear 32 1012 40 10000 4 170 09:18 30.09.2019
1041 Clear 31 1012 45 8000 4 170 08:46 30.09.2019
1042 Clear 31 1012 45 8000 4 170 08:27 30.09.2019
1043 Haze 31 1013 45 5000 3 0 07:40 30.09.2019
1044 Haze 30 1014 48 5000 2 0 07:20 30.09.2019
1045 Haze 30 1014 54 5000 2 130 06:50 30.09.2019
1046 Haze 30 1014 54 5000 2 130 06:31 30.09.2019
1047 Haze 28 1014 57 4000 2 160 05:45 30.09.2019
1048 Mist 24 1015 83 3000 1 0 02:55 30.09.2019
1049 Mist 24 1015 88 2800 1 0 02:37 30.09.2019
1050 Mist 21 1014 100 2700 1 30 01:31 30.09.2019
1051 Mist 19 1014 93 3200 1 30 00:38 30.09.2019
1052 Mist 19 1014 93 3200 1 30 00:20 30.09.2019
1053 Mist 19 1013 100 4500 1 30 23:44 29.09.2019
1054 Mist 19 1013 100 4500 1 30 23:21 29.09.2019
1055 Mist 20 1013 93 5000 1 90 22:55 29.09.2019
1056 Mist 20 1013 93 5000 1 90 22:55 29.09.2019
1057 Mist 20 1013 93 5000 0.83 8.218 22:36 29.09.2019
1058 Mist 20 1014 93 5000 1 360 22:18 29.09.2019
1059 Mist 20 1014 93 5000 1 360 21:56 29.09.2019
1060 Clear 20 1014 93 6000 0.83 8.218 21:37 29.09.2019
1061 Clear 21 1014 93 6000 0.36 321.97 21:18 29.09.2019
1062 Clear 21 1014 82 6000 2 70 20:43 29.09.2019
1063 Clear 22 1014 82 6000 2 70 20:20 29.09.2019
1064 Clear 22 1014 82 7000 2 90 20:20 29.09.2019
1065 Clear 22 1014 82 7000 2 90 19:58 29.09.2019
1066 Clear 22 1014 82 7000 2 90 19:37 29.09.2019
1067 Clear 22 1014 82 7000 2 90 19:19 29.09.2019
1068 Clear 22 1014 82 7000 2 90 18:55 29.09.2019
1069 Clear 22 1014 82 7000 2 90 18:55 29.09.2019
1070 Clear 23 1014 82 7000 3 100 18:37 29.09.2019
1071 Clear 23 1014 82 7000 3 100 18:19 29.09.2019
1072 Clear 23 1014 88 8000 1 60 17:56 29.09.2019
1073 Clear 20 1014 88 8000 1 0 17:38 29.09.2019
1074 Clear 20 1014 88 10000 2 60 17:19 29.09.2019
1075 Clear 20 1014 88 10000 2 60 16:57 29.09.2019
1076 Clear 21 1014 82 10000 1 60 16:39 29.09.2019
1077 Clear 24 1014 82 10000 1 60 16:18 29.09.2019
1078 Clear 24 1014 82 10000 1 60 15:41 29.09.2019
1079 Clear 24 1014 82 10000 1 60 15:19 29.09.2019
1080 Clear 24 1014 82 10000 1 60 14:59 29.09.2019
1081 Clear 24 1014 88 10000 1 60 14:39 29.09.2019
1082 Clear 25 1014 88 10000 1 60 14:20 29.09.2019
1083 Clear 25 1013 88 10000 1 80 13:57 29.09.2019
1084 Clear 26 1013 77 10000 1 80 13:39 29.09.2019
1085 Clear 26 1013 77 10000 1 80 13:19 29.09.2019
1086 Clear 27 1013 78 10000 1 80 12:57 29.09.2019
1087 Clear 28 1013 69 10000 1 80 12:39 29.09.2019
1088 Clear 28 1013 69 10000 1 80 12:39 29.09.2019
1089 Clear 28 1013 57 10000 2 110 12:21 29.09.2019
1090 Clear 29 1013 57 10000 2 110 11:55 29.09.2019
1091 Clear 30 1013 51 10000 1 130 11:37 29.09.2019
1092 Clear 30 1013 51 10000 1 130 11:18 29.09.2019
1093 Clear 31 1013 45 10000 2 130 10:55 29.09.2019
1094 Clear 32 1013 42 10000 3 140 10:36 29.09.2019
1095 Clear 32 1013 42 10000 3 130 10:18 29.09.2019
1096 Clear 31 1013 42 8000 2 130 09:42 29.09.2019
1097 Clear 31 1013 42 8000 2 130 09:20 29.09.2019
1098 Clear 31 1013 42 8000 2 130 09:20 29.09.2019
1099 Clear 32 1014 42 8000 3 0 08:55 29.09.2019
1100 Clear 31 1014 45 7000 3 140 08:37 29.09.2019
1101 Clear 31 1014 45 7000 3 140 08:18 29.09.2019
1102 Clear 32 1014 48 7000 3 180 07:41 29.09.2019
1103 Clear 31 1015 51 7000 1 0 07:22 29.09.2019
1104 Clear 31 1015 54 7000 1 0 06:41 29.09.2019
1105 Clear 28 1016 61 7000 2 70 04:56 29.09.2019
1106 Clear 28 1017 64 7000 2 60 04:25 29.09.2019
1107 Clear 25 1017 69 8000 1 0 03:49 29.09.2019
1108 Clear 23 1016 88 6000 2 360 02:28 29.09.2019
1109 Mist 21 1016 88 5000 2 360 01:51 29.09.2019
1110 Mist 21 1016 93 5000 2 360 01:29 29.09.2019
1111 Mist 21 1016 93 5000 2 360 01:29 29.09.2019
1112 Clear 19 1016 93 6000 2 360 00:41 29.09.2019
1113 Clear 19 1016 93 6000 2 360 00:19 29.09.2019
1114 Clear 19 1015 100 7000 1 0 23:40 28.09.2019
1115 Clear 19 1015 100 7000 1 0 23:21 28.09.2019
1116 Clear 19 1015 100 7000 1 0 22:56 28.09.2019
1117 Clear 20 1015 93 7000 0.45 343.473 22:37 28.09.2019
1118 Clear 20 1015 93 7000 1 0 22:19 28.09.2019
1119 Clear 19 1015 93 7000 1 0 21:54 28.09.2019
1120 Clear 19 1015 93 7000 1 50 21:36 28.09.2019
1121 Clear 19 1016 93 7000 1 0 21:18 28.09.2019
1122 Clear 20 1016 93 7000 1 0 20:54 28.09.2019
1123 Clear 19 1016 93 7000 1 360 20:36 28.09.2019
1124 Clear 19 1016 93 7000 1 360 20:36 28.09.2019
1125 Clear 20 1016 93 7000 1 10 20:18 28.09.2019
1126 Clear 20 1016 93 7000 1 0 19:42 28.09.2019
1127 Clear 20 1016 93 7000 1 0 19:22 28.09.2019
1128 Clear 21 1016 88 6000 1 50 18:58 28.09.2019
1129 Clear 22 1016 93 6000 1 0 18:40 28.09.2019
1130 Clear 21 1016 93 6000 1 0 18:21 28.09.2019
1131 Clear 21 1016 93 6000 1 0 18:21 28.09.2019
1132 Clear 21 1016 93 6000 1 0 18:21 28.09.2019
1133 Clear 22 1016 88 6000 1 0 17:57 28.09.2019
1134 Clear 22 1016 88 6000 1 0 17:57 28.09.2019
1135 Clear 22 1016 88 6000 1 0 17:38 28.09.2019
1136 Clear 22 1016 88 6000 1 0 17:20 28.09.2019
1137 Clear 22 1016 93 7000 2 70 16:48 28.09.2019
1138 Clear 22 1016 93 8000 1 0 16:28 28.09.2019
1139 Clear 23 1016 88 8000 1 70 15:57 28.09.2019
1140 Clear 23 1016 88 8000 1 0 15:38 28.09.2019
1141 Clear 23 1016 88 8000 1 0 15:20 28.09.2019
1142 Clear 24 1015 88 10000 1 80 14:54 28.09.2019
1143 Clear 24 1015 88 10000 1 80 14:36 28.09.2019
1144 Clear 25 1015 88 10000 1 80 14:18 28.09.2019
1145 Clear 25 1015 77 10000 1 0 13:42 28.09.2019
1146 Clear 26 1014 53 10000 2 180 13:20 28.09.2019
1147 Clear 26 1014 69 10000 2 160 12:55 28.09.2019
1148 Clear 27 1014 69 10000 2 160 12:36 28.09.2019
1149 Clear 27 1014 61 10000 1 0 12:18 28.09.2019
1150 Clear 29 1014 54 10000 1 0 11:40 28.09.2019
1151 Clear 29 1014 54 10000 1 0 11:40 28.09.2019
1152 Clear 30 1014 42 10000 2 180 11:19 28.09.2019
1153 Clear 30 1014 39 10000 3 190 10:44 28.09.2019
1154 Clear 30 1014 39 10000 3 190 10:21 28.09.2019
1155 Clear 31 1014 39 10000 3 190 09:59 28.09.2019
1156 Clear 31 1014 39 10000 3 190 09:40 28.09.2019
1157 Clear 30 1014 39 10000 3 190 09:18 28.09.2019
1158 Clear 30 1015 45 10000 2 200 08:47 28.09.2019
1159 Clear 30 1015 45 8000 3 200 08:29 28.09.2019
1160 Clear 31 1015 45 8000 2 0 07:56 28.09.2019
1161 Clear 31 1016 51 8000 2 0 07:38 28.09.2019
1162 Clear 30 1016 51 8000 2 180 07:18 28.09.2019
1163 Clear 29 1017 50 8000 1 0 06:37 28.09.2019
1164 Clear 27 1017 57 8000 1 0 06:18 28.09.2019
1165 Clear 27 1018 60 8000 1 0 05:25 28.09.2019
1166 Clear 26 1018 69 6000 1 0 04:45 28.09.2019
1167 Clear 26 1018 69 6000 1 0 04:26 28.09.2019
1168 Clear 23 1019 77 6000 2 0 03:35 28.09.2019
1169 Clear 23 1019 77 6000 1 0 02:58 28.09.2019
1170 Clear 22 1018 82 6000 1 0 02:37 28.09.2019
1171 Clear 21 1018 93 6000 1 0 02:18 28.09.2019
1172 Mist 20 1018 93 5000 1 10 01:41 28.09.2019
1173 Mist 19 1018 93 5000 1 10 01:19 28.09.2019
1174 Mist 17 1018 93 5000 2 350 00:44 28.09.2019
1175 Mist 17 1018 93 5000 2 350 00:26 28.09.2019
1176 Clear 17 1018 100 6000 1 360 23:39 27.09.2019
1177 Clear 18 1018 100 6000 1 360 23:21 27.09.2019
1178 Clear 19 1018 93 6000 1 0 22:49 27.09.2019
1179 Clear 18 1018 93 6000 1 0 22:21 27.09.2019
1180 Clear 19 1018 93 6000 1 0 21:59 27.09.2019
1181 Clear 19 1018 87 6000 2 90 21:40 27.09.2019
1182 Clear 19 1018 87 6000 2 90 21:21 27.09.2019
1183 Clear 19 1018 93 7000 2 30 20:58 27.09.2019
1184 Clear 20 1018 88 7000 1 0 20:40 27.09.2019
1185 Clear 20 1018 88 7000 1 0 20:20 27.09.2019
1186 Clear 20 1018 88 7000 1 0 20:20 27.09.2019
1187 Clear 20 1018 88 7000 3 70 19:57 27.09.2019
1188 Clear 20 1018 88 7000 3 80 19:39 27.09.2019
1189 Clear 21 1018 88 7000 3 80 19:20 27.09.2019
1190 Clear 20 1018 88 8000 2 60 18:43 27.09.2019
1191 Clear 21 1018 88 8000 2 60 18:24 27.09.2019
1192 Clear 21 1018 93 8000 2 70 17:57 27.09.2019
1193 Clear 21 1018 93 8000 2 160 17:38 27.09.2019
1194 Clear 21 1018 93 8000 2 160 17:20 27.09.2019
1195 Clear 21 1019 82 8000 1 0 16:57 27.09.2019
1196 Clear 22 1019 82 10000 2 150 16:38 27.09.2019
1197 Clear 22 1019 82 10000 2 150 16:18 27.09.2019
1198 Clear 23 1019 82 10000 1 140 15:47 27.09.2019
1199 Clear 22 1019 88 10000 1 0 15:21 27.09.2019
1200 Clear 22 1019 82 10000 1 0 14:59 27.09.2019
1201 Clear 22 1019 82 10000 1 80 14:41 27.09.2019
1202 Clear 23 1019 82 10000 1 80 14:22 27.09.2019
1203 Clear 23 1018 72 10000 1 110 13:58 27.09.2019
1204 Clear 23 1018 72 10000 2 130 13:40 27.09.2019
1205 Clear 24 1018 72 10000 2 130 13:21 27.09.2019
1206 Clear 24 1018 72 10000 2 120 12:56 27.09.2019
1207 Clear 25 1018 68 10000 1 150 12:37 27.09.2019
1208 Clear 27 1018 47 10000 1 140 12:18 27.09.2019
1209 Clear 28 1018 34 10000 3 180 11:39 27.09.2019
1210 Clear 28 1018 34 10000 3 180 11:39 27.09.2019
1211 Clear 29 1018 34 10000 3 180 11:20 27.09.2019
1212 Clear 29 1018 34 10000 4 180 10:54 27.09.2019
1213 Clear 29 1018 34 10000 4 180 10:54 27.09.2019
1214 Clear 29 1018 37 10000 5 170 10:36 27.09.2019
1215 Clear 30 1018 37 10000 5 170 10:18 27.09.2019
1216 Clear 30 1019 42 10000 3 180 09:41 27.09.2019
1217 Clear 30 1019 42 10000 3 180 09:20 27.09.2019
1218 Clear 30 1019 45 10000 3 0 08:55 27.09.2019
1219 Clouds 30 1019 47 8000 3 190 08:37 27.09.2019
1220 Clouds 29 1019 47 8000 3 190 08:19 27.09.2019
1221 Haze 29 1020 57 5000 2 0 07:45 27.09.2019
1222 Haze 29 1021 57 5000 2 0 07:21 27.09.2019
1223 Haze 28 1022 64 4500 2 0 06:41 27.09.2019
1224 Haze 26 1022 64 4000 2 80 06:22 27.09.2019
1225 Mist 26 1022 69 2900 2 0 05:49 27.09.2019
1226 Mist 26 1022 69 2900 2 0 05:30 27.09.2019
1227 Mist 23 1023 88 2800 1 0 03:53 27.09.2019
1228 Mist 20 1023 93 4000 1 30 01:58 27.09.2019
1229 Mist 20 1023 93 4000 1 30 01:58 27.09.2019
1230 Mist 19 1023 93 4000 1 50 01:35 27.09.2019
1231 Mist 18 1022 93 5000 1 10 00:55 27.09.2019
1232 Mist 18 1022 93 5000 1 10 00:55 27.09.2019
1233 Mist 18 1022 93 5000 1 10 00:19 27.09.2019
1234 Clear 18 1022 93 7000 1 360 23:55 26.09.2019
1235 Clear 18 1022 93 8000 1 10 23:37 26.09.2019
1236 Clear 18 1022 93 10000 1 10 23:18 26.09.2019
1237 Clear 18 1022 93 10000 1 10 22:55 26.09.2019
1238 Clear 19 1022 93 10000 1 50 22:36 26.09.2019
1239 Clear 19 1022 93 10000 1 50 22:18 26.09.2019
1240 Clear 20 1022 82 10000 1 0 21:54 26.09.2019
1241 Clear 20 1022 82 10000 1 0 21:36 26.09.2019
1242 Clear 20 1022 82 10000 1 0 21:18 26.09.2019
1243 Clear 20 1022 77 10000 2 90 20:55 26.09.2019
1244 Clear 20 1022 77 10000 2 100 20:37 26.09.2019
1245 Clear 21 1022 77 10000 2 100 20:19 26.09.2019
1246 Clear 21 1022 77 10000 2 100 20:19 26.09.2019
1247 Clear 21 1022 72 10000 2 100 19:40 26.09.2019
1248 Clear 21 1022 77 10000 3 100 19:18 26.09.2019
1249 Clear 21 1022 77 10000 3 100 18:58 26.09.2019
1250 Clear 21 1022 82 10000 2 90 18:38 26.09.2019
1251 Clear 21 1022 82 10000 2 90 18:38 26.09.2019
1252 Clear 21 1022 82 10000 2 50 18:20 26.09.2019
1253 Clear 21 1022 82 10000 2 50 17:39 26.09.2019
1254 Clear 22 1022 82 10000 2 50 17:19 26.09.2019
1255 Clear 22 1022 82 10000 2 50 17:19 26.09.2019
1256 Clear 22 1022 77 10000 1 0 16:59 26.09.2019
1257 Clear 23 1022 68 10000 2 160 16:39 26.09.2019
1258 Clear 23 1022 72 10000 2 130 16:20 26.09.2019
1259 Clear 23 1022 72 10000 2 130 15:58 26.09.2019
1260 Clear 20 1021 88 10000 1 120 15:38 26.09.2019
1261 Clear 23 1021 88 10000 1 120 15:19 26.09.2019
1262 Clear 23 1021 77 10000 1 0 14:57 26.09.2019
1263 Clear 23 1021 82 10000 1 160 14:37 26.09.2019
1264 Clear 23 1021 82 10000 1 160 14:37 26.09.2019
1265 Clear 24 1021 82 10000 1 160 14:19 26.09.2019
1266 Clear 25 1021 68 10000 2 150 13:41 26.09.2019
1267 Clear 26 1021 68 10000 2 150 13:20 26.09.2019
1268 Clear 26 1021 68 10000 2 150 13:20 26.09.2019
1269 Clear 26 1020 73 10000 1 160 12:59 26.09.2019
1270 Clear 27 1020 64 10000 1 160 12:41 26.09.2019
1271 Clear 28 1020 64 10000 1 160 12:20 26.09.2019
1272 Clear 29 1020 42 10000 2 130 11:42 26.09.2019
1273 Clear 30 1020 42 10000 2 130 11:23 26.09.2019
1274 Clear 31 1020 33 10000 3 170 10:57 26.09.2019
1275 Clear 31 1020 37 10000 2 160 10:39 26.09.2019
1276 Clear 31 1020 37 10000 2 160 10:20 26.09.2019
1277 Clear 31 1020 37 10000 2 160 10:20 26.09.2019
1278 Clear 31 1020 35 10000 3 180 09:44 26.09.2019
1279 Clear 31 1020 35 10000 3 180 09:26 26.09.2019
1280 Clear 31 1021 40 10000 2 220 08:57 26.09.2019
1281 Clear 31 1021 42 10000 3 0 08:39 26.09.2019
1282 Clear 31 1021 42 10000 3 0 08:21 26.09.2019
1283 Clear 31 1022 48 8000 2 0 07:43 26.09.2019
1284 Clear 31 1022 48 8000 1 0 07:21 26.09.2019
1285 Clear 31 1022 51 8000 1 0 06:47 26.09.2019
1286 Clear 29 1022 51 8000 1 0 06:27 26.09.2019
1287 Clear 29 1023 54 8000 1 0 05:46 26.09.2019
1288 Clear 29 1023 54 8000 1 0 05:25 26.09.2019
1289 Clear 25 1023 68 10000 1 0 03:18 26.09.2019
1290 Clear 23 1022 82 10000 0.47 21.055 01:54 26.09.2019
1291 Clear 23 1022 82 10000 0.47 21.055 01:54 26.09.2019
1292 Clear 21 1022 93 10000 2 360 01:31 26.09.2019
1293 Clear 20 1022 87 10000 2 360 00:56 26.09.2019
1294 Clear 19 1022 93 10000 2 350 00:38 26.09.2019
1295 Clear 19 1022 93 10000 2 350 00:20 26.09.2019
1296 Clear 19 1021 100 10000 0.48 62.53 23:42 25.09.2019
1297 Clear 19 1021 100 10000 0.48 62.53 23:19 25.09.2019
1298 Clear 20 1021 93 10000 1 80 22:43 25.09.2019
1299 Clear 20 1021 93 10000 1 80 22:21 25.09.2019
1300 Clear 19 1021 93 10000 1 10 21:58 25.09.2019
1301 Clear 19 1021 93 10000 1 360 21:40 25.09.2019
1302 Clear 20 1021 93 10000 1 360 21:19 25.09.2019
1303 Clear 20 1021 93 10000 0.84 288.348 20:59 25.09.2019
1304 Clear 20 1021 87 10000 1 30 20:40 25.09.2019
1305 Clear 20 1021 87 10000 1 30 20:22 25.09.2019
1306 Clear 20 1021 87 10000 2 360 19:59 25.09.2019
1307 Clear 22 1021 77 10000 2 80 19:38 25.09.2019
1308 Clear 22 1021 88 10000 1 0 19:19 25.09.2019
1309 Clear 22 1021 88 10000 1 0 18:56 25.09.2019
1310 Clear 20 1021 82 10000 2 80 18:37 25.09.2019
1311 Clear 22 1021 88 10000 1 0 18:18 25.09.2019
1312 Clear 22 1021 77 10000 1 0 17:40 25.09.2019
1313 Clear 23 1021 77 10000 1 0 17:21 25.09.2019
1314 Clear 24 1021 77 10000 1 0 16:57 25.09.2019
1315 Clear 24 1021 82 10000 1 70 16:37 25.09.2019
1316 Clear 23 1021 82 10000 1 70 16:19 25.09.2019
1317 Clear 24 1020 77 10000 2 120 15:42 25.09.2019
1318 Clear 24 1020 77 10000 2 120 15:23 25.09.2019
1319 Clear 25 1020 68 10000 1 0 14:58 25.09.2019
1320 Clear 25 1020 46 10000 2 180 14:39 25.09.2019
1321 Clear 26 1020 46 10000 2 180 14:21 25.09.2019
1322 Clear 27 1020 34 10000 3 190 13:56 25.09.2019
1323 Clear 27 1020 32 10000 4 0 13:38 25.09.2019
1324 Clear 28 1019 34 10000 4 180 13:19 25.09.2019
1325 Clear 28 1019 39 10000 3 170 12:42 25.09.2019
1326 Clear 29 1019 39 10000 3 170 12:23 25.09.2019
1327 Clear 30 1019 37 10000 3 170 11:58 25.09.2019
1328 Clear 30 1019 35 10000 3 160 11:40 25.09.2019
1329 Clear 31 1019 35 10000 3 160 11:19 25.09.2019
1330 Clear 31 1019 33 10000 3 200 10:45 25.09.2019
1331 Clear 31 1019 33 10000 3 200 10:26 25.09.2019
1332 Clear 32 1019 31 10000 3 180 09:58 25.09.2019
1333 Clear 31 1019 35 10000 3 170 09:38 25.09.2019
1334 Clear 31 1019 35 10000 3 170 09:20 25.09.2019
1335 Clear 31 1020 37 10000 2 200 08:45 25.09.2019
1336 Clear 30 1020 37 10000 2 200 08:22 25.09.2019
1337 Clear 31 1020 37 10000 2 200 07:59 25.09.2019
1338 Clear 31 1020 37 10000 2 210 07:40 25.09.2019
1339 Clear 31 1020 37 10000 2 210 07:40 25.09.2019
1340 Clear 31 1021 42 10000 3 210 07:21 25.09.2019
1341 Clear 31 1021 39 10000 2 0 06:45 25.09.2019
1342 Clear 30 1021 39 10000 2 0 06:22 25.09.2019
1343 Clear 29 1022 44 10000 1 0 05:37 25.09.2019
1344 Clear 28 1023 47 10000 2 320 04:55 25.09.2019
1345 Clear 23 1023 77 10000 2 360 02:31 25.09.2019
1346 Clear 19 1022 93 10000 2 350 00:56 25.09.2019
1347 Clear 17 1022 100 10000 2 360 00:36 25.09.2019
1348 Clear 17 1022 93 10000 1 10 00:18 25.09.2019
1349 Clear 17 1022 93 10000 1 40 23:40 24.09.2019
1350 Clear 17 1022 93 10000 1 40 23:21 24.09.2019
1351 Clear 18 1022 87 10000 1 360 22:40 24.09.2019
1352 Clear 19 1022 87 10000 1 360 22:22 24.09.2019
1353 Clear 19 1022 87 10000 2 360 21:58 24.09.2019
1354 Clear 18 1022 87 10000 1 50 21:38 24.09.2019
1355 Clear 18 1022 87 10000 1 50 21:19 24.09.2019
1356 Clear 18 1022 87 10000 1 50 21:19 24.09.2019
1357 Clear 18 1022 87 10000 1 50 21:19 24.09.2019
1358 Clear 19 1022 93 10000 1 80 20:59 24.09.2019
1359 Clear 19 1022 87 10000 1 70 20:41 24.09.2019
1360 Clear 19 1022 87 10000 1 70 20:22 24.09.2019
1361 Clear 20 1022 82 10000 2 80 19:59 24.09.2019
1362 Clear 20 1022 77 10000 2 100 19:41 24.09.2019
1363 Clear 20 1022 77 10000 1 90 19:19 24.09.2019
1364 Clear 20 1022 77 10000 1 90 18:55 24.09.2019
1365 Clear 20 1022 68 10000 2 80 18:55 24.09.2019
1366 Clear 20 1022 68 10000 2 80 18:37 24.09.2019
1367 Clear 21 1022 72 10000 2 90 18:19 24.09.2019
1368 Clear 20 1022 77 10000 2 60 17:55 24.09.2019
1369 Clear 21 1022 77 10000 2 60 17:37 24.09.2019
1370 Clear 21 1022 72 10000 2 140 17:18 24.09.2019
1371 Clear 22 1022 68 10000 2 160 16:41 24.09.2019
1372 Clear 23 1022 68 10000 2 160 16:20 24.09.2019
1373 Clear 23 1021 68 10000 2 160 15:57 24.09.2019
1374 Clear 24 1021 64 10000 2 160 15:38 24.09.2019
1375 Clear 25 1021 64 10000 2 160 15:19 24.09.2019
1376 Clear 25 1020 44 10000 3 160 14:37 24.09.2019
1377 Clear 26 1020 44 10000 3 160 14:18 24.09.2019
1378 Clear 24 1020 49 10000 2 150 13:41 24.09.2019
1379 Clear 27 1020 49 10000 2 150 13:21 24.09.2019
1380 Clear 29 1019 36 10000 2 150 12:44 24.09.2019
1381 Clear 29 1019 34 10000 3 160 12:22 24.09.2019
1382 Clear 29 1019 34 10000 3 160 11:58 24.09.2019
1383 Clear 30 1019 30 10000 1 0 11:40 24.09.2019
1384 Clear 31 1019 30 10000 1 0 11:21 24.09.2019
1385 Clear 32 1019 19 10000 3 140 10:42 24.09.2019
1386 Clear 32 1019 19 10000 3 140 10:22 24.09.2019
1387 Clear 32 1019 19 10000 3 160 09:59 24.09.2019
1388 Clear 33 1019 21 10000 1 0 09:41 24.09.2019
1389 Clear 33 1019 21 10000 1 0 09:20 24.09.2019
1390 Clear 33 1019 19 10000 1 0 08:56 24.09.2019
1391 Clear 33 1019 21 10000 2 50 08:38 24.09.2019
1392 Clear 32 1020 18 10000 2 80 08:19 24.09.2019
1393 Clear 32 1020 20 10000 3 30 07:46 24.09.2019
1394 Clear 32 1020 20 10000 3 30 07:24 24.09.2019
1395 Clear 31 1021 22 10000 4 20 06:48 24.09.2019
1396 Clear 31 1021 22 10000 4 20 06:30 24.09.2019
1397 Clear 31 1021 23 10000 3 10 05:51 24.09.2019
1398 Clear 29 1021 23 10000 3 10 05:18 24.09.2019
1399 Clear 28 1021 32 10000 3 350 03:43 24.09.2019
1400 Clear 26 1021 43 10000 4 360 02:46 24.09.2019
1401 Clear 23 1020 56 10000 5 350 01:50 24.09.2019
1402 Clear 20 1019 82 10000 4 350 00:43 24.09.2019
1403 Clear 19 1019 82 10000 4 350 00:23 24.09.2019
1404 Clear 20 1019 77 10000 3 340 23:56 23.09.2019
1405 Clear 18 1018 77 10000 3 350 23:38 23.09.2019
1406 Clear 20 1018 77 10000 3 350 23:20 23.09.2019
1407 Clear 19 1018 77 10000 4 350 22:39 23.09.2019
1408 Clear 19 1018 77 10000 4 350 22:20 23.09.2019
1409 Clear 18 1018 82 10000 2 350 21:57 23.09.2019
1410 Clear 19 1018 82 10000 1 10 21:39 23.09.2019
1411 Clear 20 1018 82 10000 1 10 21:19 23.09.2019
1412 Clear 20 1018 87 10000 1 20 20:41 23.09.2019
1413 Clear 19 1018 87 10000 1 20 20:20 23.09.2019
1414 Clear 19 1018 87 10000 1 20 20:20 23.09.2019
1415 Clear 20 1018 72 10000 3 360 19:59 23.09.2019
1416 Clear 16 1018 77 10000 2 10 19:39 23.09.2019
1417 Clear 19 1017 77 10000 2 10 19:21 23.09.2019
1418 Clear 20 1017 59 10000 2 360 18:55 23.09.2019
1419 Clear 22 1017 59 10000 2 360 18:36 23.09.2019
1420 Clear 22 1017 59 10000 2 360 18:36 23.09.2019
1421 Clear 23 1017 60 10000 2 320 18:18 23.09.2019
1422 Clear 23 1017 60 10000 2 320 17:55 23.09.2019
1423 Clear 23 1017 60 10000 2 320 17:55 23.09.2019
1424 -273 0 0 0 0 0 17:55 23.09.2019
1425 Clear 25 1017 38 10000 2 0 17:36 23.09.2019
1426 Clear 25 1017 38 10000 2 0 17:36 23.09.2019
1427 Clear 25 1017 38 10000 2 0 17:18 23.09.2019
1428 Clear 25 1017 49 10000 1 0 16:39 23.09.2019
1429 Clear 26 1017 36 10000 3 210 16:21 23.09.2019
1430 Clear 26 1017 36 10000 3 210 15:59 23.09.2019
1431 Clear 26 1017 36 10000 4 210 15:40 23.09.2019
1432 Clear 26 1017 36 10000 4 210 15:19 23.09.2019
1433 Clear 27 1017 32 10000 4 220 14:58 23.09.2019
1434 Clear 27 1017 30 10000 4 230 14:37 23.09.2019
1435 Clear 28 1017 26 10000 4 220 14:19 23.09.2019
1436 Clear 28 1017 22 10000 5 210 13:42 23.09.2019
1437 Clear 29 1017 23 10000 4 200 13:19 23.09.2019
1438 Clear 29 1017 23 10000 4 200 12:59 23.09.2019
1439 Clear 29 1017 20 10000 4 210 12:40 23.09.2019
1440 Clear 30 1016 19 10000 3 200 12:21 23.09.2019
1441 Clear 32 1016 18 10000 4 200 11:45 23.09.2019
1442 Clear 32 1016 18 10000 4 200 11:27 23.09.2019
1443 Clear 32 1017 17 10000 3 230 10:57 23.09.2019
1444 Clear 32 1017 18 10000 3 220 10:39 23.09.2019
1445 Clear 33 1017 18 10000 3 220 10:20 23.09.2019
1446 Clear 34 1017 18 10000 3 320 09:40 23.09.2019
1447 Clear 34 1017 18 10000 3 320 09:40 23.09.2019
1448 Clear 34 1017 22 10000 1 0 09:21 23.09.2019
1449 Clear 33 1017 22 10000 1 0 08:58 23.09.2019
1450 Clear 33 1018 22 10000 3 300 08:38 23.09.2019
1451 Clear 32 1018 27 10000 2 270 08:18 23.09.2019
1452 Clear 32 1018 27 10000 2 270 08:18 23.09.2019
1453 Clear 32 1019 29 10000 2 300 07:33 23.09.2019
1454 Clear 32 1019 32 10000 2 0 06:53 23.09.2019
1455 Clear 30 1020 32 10000 2 330 06:20 23.09.2019
1456 Clear 29 1020 37 10000 3 320 05:23 23.09.2019
1457 Clear 28 1020 39 10000 3 320 04:56 23.09.2019
1458 Clear 25 1021 50 10000 3 340 03:56 23.09.2019
1459 Clear 21 1020 82 8000 3 350 01:25 23.09.2019
1460 Clear 19 1020 87 7000 3 360 00:24 23.09.2019
1461 Clear 19 1019 87 7000 3 340 23:58 22.09.2019
1462 Clear 19 1019 93 7000 3 360 23:39 22.09.2019
1463 Clear 19 1019 93 7000 3 360 23:21 22.09.2019
1464 Clear 19 1019 93 7000 3 350 22:54 22.09.2019
1465 Clear 19 1019 93 7000 3 340 22:36 22.09.2019
1466 Clear 19 1019 88 7000 3 360 22:18 22.09.2019
1467 Clear 19 1019 93 7000 2 350 21:42 22.09.2019
1468 Clear 19 1019 93 7000 2 350 21:20 22.09.2019
1469 Clear 19 1019 93 7000 0.81 341.386 20:44 22.09.2019
1470 Clear 19 1019 93 7000 0.99 359.709 20:26 22.09.2019
1471 Clear 19 1019 93 7000 0.99 359.709 19:57 22.09.2019
1472 Clear 20 1019 88 8000 0.99 359.709 19:39 22.09.2019
1473 Clear 20 1019 88 8000 0.99 359.709 19:39 22.09.2019
1474 Clear 20 1019 88 8000 1 30 19:20 22.09.2019
1475 Clear 20 1019 88 8000 1 30 18:57 22.09.2019
1476 Clear 20 1019 88 10000 1 70 18:37 22.09.2019
1477 Clear 20 1019 93 10000 1 70 18:18 22.09.2019
1478 Clear 20 1020 93 10000 1 0 17:45 22.09.2019
1479 Clear 20 1020 93 10000 1 0 17:26 22.09.2019
1480 Clear 21 1020 88 10000 1 50 16:56 22.09.2019
1481 Clear 21 1020 88 10000 1 50 16:56 22.09.2019
1482 Clear 21 1020 82 10000 1 0 16:38 22.09.2019
1483 Clear 22 1020 82 10000 1 0 16:19 22.09.2019
1484 Clear 23 1020 82 10000 1 0 15:43 22.09.2019
1485 Clear 23 1020 82 10000 1 0 15:25 22.09.2019
1486 Clear 23 1020 88 10000 1 0 14:55 22.09.2019
1487 Clear 24 1019 68 10000 2 190 14:36 22.09.2019
1488 Clear 24 1019 68 10000 2 190 14:36 22.09.2019
1489 Clear 23 1019 68 10000 2 190 14:18 22.09.2019
1490 Clear 24 1019 77 10000 2 160 13:41 22.09.2019
1491 Clear 24 1019 73 10000 2 160 13:23 22.09.2019
1492 Clear 24 1019 73 10000 2 160 12:56 22.09.2019
1493 Clear 25 1019 68 10000 1 160 12:38 22.09.2019
1494 Clear 28 1019 54 10000 1 150 12:18 22.09.2019
1495 Clear 29 1019 39 10000 2 0 11:43 22.09.2019
1496 Clear 29 1019 39 10000 2 0 11:25 22.09.2019
1497 Clear 29 1019 39 10000 2 140 10:57 22.09.2019
1498 Clear 29 1019 42 10000 2 0 10:39 22.09.2019
1499 Clear 29 1019 42 10000 2 0 10:19 22.09.2019
1500 Clear 30 1020 42 10000 2 130 09:43 22.09.2019
1501 Clear 29 1020 42 10000 2 130 09:21 22.09.2019
1502 Clear 29 1020 45 10000 1 0 08:55 22.09.2019
1503 Clear 29 1021 45 8000 2 0 08:37 22.09.2019
1504 Clear 30 1021 45 8000 2 0 08:18 22.09.2019
1505 Clear 30 1022 47 7000 1 0 07:41 22.09.2019
1506 Clear 30 1022 51 7000 2 0 07:23 22.09.2019
1507 Clear 30 1022 51 7000 2 0 06:57 22.09.2019
1508 Clear 28 1023 50 7000 2 80 06:31 22.09.2019
1509 Mist 24 1024 69 4000 2 320 03:54 22.09.2019
1510 Mist 22 1024 82 2500 3 340 02:44 22.09.2019
1511 Mist 22 1024 82 2500 3 340 02:24 22.09.2019
1512 Mist 21 1024 93 2100 2 340 01:35 22.09.2019
1513 Mist 19 1024 93 2100 1 80 00:40 22.09.2019
1514 Mist 18 1024 93 2100 1 80 00:21 22.09.2019
1515 Mist 18 1024 100 2300 1 0 00:21 22.09.2019
1516 Mist 18 1023 93 2300 0.86 354.376 23:45 21.09.2019
1517 Mist 18 1023 93 2300 0.86 354.376 23:27 21.09.2019
1518 Mist 19 1023 93 2300 1 20 22:40 21.09.2019
1519 Mist 19 1023 93 2300 1 20 22:21 21.09.2019
1520 Mist 19 1023 93 2800 1 0 21:57 21.09.2019
1521 Mist 19 1023 93 2800 1 50 21:38 21.09.2019
1522 Mist 19 1023 93 2800 1 50 21:18 21.09.2019
1523 Mist 19 1023 93 2800 1 50 21:18 21.09.2019
1524 Mist 20 1023 88 3100 0.65 36.339 20:41 21.09.2019
1525 Mist 19 1023 88 3100 0.65 36.339 20:22 21.09.2019
1526 Mist 19 1023 88 3500 1 90 19:57 21.09.2019
1527 Mist 19 1023 88 3500 1 90 19:57 21.09.2019
1528 Mist 21 1024 88 3500 2 80 19:39 21.09.2019
1529 Mist 21 1024 88 4500 3 80 19:18 21.09.2019
1530 Mist 21 1023 88 4500 1 0 18:39 21.09.2019
1531 Mist 20 1023 82 4500 1 0 18:20 21.09.2019
1532 Clear 21 1023 82 6000 2 150 17:42 21.09.2019
1533 Clear 23 1023 82 6000 2 150 17:23 21.09.2019
1534 Clear 23 1023 82 6000 2 150 17:23 21.09.2019
1535 Clear 22 1023 77 6000 2 150 16:56 21.09.2019
1536 Clear 20 1023 88 6000 1 140 16:37 21.09.2019
1537 Clear 23 1023 88 6000 1 140 16:18 21.09.2019
1538 Clear 22 1022 73 6000 2 160 15:42 21.09.2019
1539 Clear 23 1022 73 6000 2 160 15:20 21.09.2019
1540 Clear 22 1022 68 8000 2 140 14:47 21.09.2019
1541 Clear 24 1022 68 8000 2 140 14:28 21.09.2019
1542 Clear 24 1022 68 8000 2 140 14:28 21.09.2019
1543 Clear 25 1021 64 8000 2 140 13:45 21.09.2019
1544 Clear 25 1021 64 8000 2 140 13:25 21.09.2019
1545 Clear 25 1021 64 8000 2 140 13:25 21.09.2019
1546 Clear 24 1021 64 10000 2 150 12:59 21.09.2019
1547 Clear 26 1021 57 10000 2 150 12:41 21.09.2019
1548 Clear 26 1021 50 10000 2 140 12:20 21.09.2019
1549 Clear 28 1021 50 10000 2 140 11:58 21.09.2019
1550 Clear 28 1021 51 10000 2 140 11:39 21.09.2019
1551 Clear 27 1020 48 10000 2 140 11:19 21.09.2019
1552 Clear 28 1020 45 10000 3 140 10:40 21.09.2019
1553 Clear 29 1020 45 10000 3 140 10:21 21.09.2019
1554 Clear 29 1020 42 10000 3 170 09:57 21.09.2019
1555 Clear 29 1020 48 10000 2 210 09:38 21.09.2019
1556 Clear 29 1020 48 10000 2 210 09:19 21.09.2019
1557 Clear 29 1020 48 10000 2 140 08:50 21.09.2019
1558 Clear 28 1021 45 10000 3 160 08:22 21.09.2019
1559 Clear 28 1021 42 10000 2 0 07:40 21.09.2019
1560 Clear 28 1022 42 10000 2 0 07:20 21.09.2019
1561 Clear 28 1022 42 10000 2 0 06:36 21.09.2019
1562 Clear 27 1022 42 10000 4 360 05:51 21.09.2019
1563 Clear 27 1023 44 10000 4 20 04:40 21.09.2019
1564 Clear 25 1022 56 10000 3 10 03:39 21.09.2019
1565 Clear 23 1022 77 10000 3 340 02:26 21.09.2019
1566 Clear 21 1021 93 7000 1 0 01:50 21.09.2019
1567 Clear 21 1021 93 7000 1 0 01:32 21.09.2019
1568 Clear 18 1020 100 6000 1 0 00:26 21.09.2019
1569 Clear 18 1020 100 6000 1 0 23:58 20.09.2019
1570 Clear 18 1020 93 6000 1 0 23:30 20.09.2019
1571 Clear 18 1020 93 6000 1.63 325.216 22:59 20.09.2019
1572 Clear 18 1019 100 6000 1.63 325.216 22:38 20.09.2019
1573 Clear 18 1019 100 6000 1.63 325.216 22:20 20.09.2019
1574 Clear 18 1019 100 7000 1 30 21:55 20.09.2019
1575 Clear 19 1019 93 7000 1 30 21:37 20.09.2019
1576 Clouds 20 1019 93 7000 1 30 21:18 20.09.2019
1577 Clouds 20 1019 93 7000 1 0 20:41 20.09.2019
1578 Clouds 20 1019 88 7000 1 40 20:21 20.09.2019
1579 Clouds 20 1019 88 7000 1 40 19:58 20.09.2019
1580 Clouds 20 1019 93 8000 2 50 19:39 20.09.2019
1581 Clouds 21 1019 88 8000 1 80 19:20 20.09.2019
1582 Clear 21 1019 88 10000 1 80 18:40 20.09.2019
1583 Clear 21 1019 88 10000 1 0 18:20 20.09.2019
1584 Clear 21 1019 88 10000 1 0 17:59 20.09.2019
1585 Clear 21 1019 88 10000 1 20 17:41 20.09.2019
1586 Clear 22 1019 88 10000 1 20 17:22 20.09.2019
1587 Clear 22 1018 82 10000 1 0 16:43 20.09.2019
1588 Clear 22 1018 82 10000 1 0 16:19 20.09.2019
1589 Clear 22 1018 88 10000 2 80 15:56 20.09.2019
1590 Clear 22 1018 82 10000 1 0 15:37 20.09.2019
1591 Clear 22 1018 82 10000 1 0 15:19 20.09.2019
1592 Clear 23 1017 77 10000 1 130 14:42 20.09.2019
1593 Clouds 24 1012 46 0 1.84 265.608 14:19 20.09.2019
1594 Clear 24 1016 57 10000 3 140 13:48 20.09.2019
1595 Clear 25 1016 57 10000 3 140 13:28 20.09.2019
1596 Clear 26 1016 57 10000 3 140 12:57 20.09.2019
1597 Clear 26 1016 57 10000 2 120 12:37 20.09.2019
1598 Clear 26 1016 47 10000 3 140 12:18 20.09.2019
1599 Clear 27 1016 44 10000 3 140 11:49 20.09.2019
1600 Clear 29 1016 44 10000 3 140 11:21 20.09.2019
1601 Clear 27 1015 39 10000 3 150 10:43 20.09.2019
1602 Clear 27 1015 39 10000 3 150 10:24 20.09.2019
1603 Clear 28 1015 39 10000 3 140 09:59 20.09.2019
1604 Clear 29 1015 35 10000 2 140 09:38 20.09.2019
1605 Clear 29 1015 35 10000 1 0 09:18 20.09.2019
1606 Clear 28 1015 37 10000 2 0 08:42 20.09.2019
1607 Clear 28 1015 37 10000 2 0 08:23 20.09.2019
1608 Clear 27 1015 42 10000 1 0 07:47 20.09.2019
1609 Clear 28 1015 42 10000 1 0 07:28 20.09.2019
1610 Clear 27 1016 47 10000 1 0 06:45 20.09.2019
1611 Clear 28 1016 47 10000 1 0 06:25 20.09.2019
1612 Clear 25 1017 50 10000 1 0 05:47 20.09.2019
1613 Clear 23 1017 64 10000 4 340 03:42 20.09.2019
1614 Clear 23 1017 64 10000 4 340 03:19 20.09.2019
1615 Clear 20 1017 87 10000 3 350 01:45 20.09.2019
1616 Clear 18 1017 93 10000 2 10 01:18 20.09.2019
1617 Clear 17 1017 93 10000 1 20 00:26 20.09.2019
1618 Clear 17 1016 93 10000 0.73 47.504 23:44 19.09.2019
1619 Clear 17 1016 93 10000 0.73 47.504 23:20 19.09.2019
1620 Clear 17 1016 93 10000 0.73 47.504 22:57 19.09.2019
1621 Clear 17 1016 93 10000 1 360 22:37 19.09.2019
1622 Clear 17 1016 87 10000 1 0 22:19 19.09.2019
1623 Clear 17 1016 87 10000 1 0 21:56 19.09.2019
1624 Clear 18 1017 82 10000 1 60 21:37 19.09.2019
1625 Clear 18 1017 82 10000 1 60 21:18 19.09.2019
1626 Clear 18 1017 77 10000 2 50 20:43 19.09.2019
1627 Clear 18 1017 77 10000 2 50 20:22 19.09.2019
1628 Clear 18 1017 82 10000 2 50 19:56 19.09.2019
1629 Clear 18 1017 87 10000 1 140 19:38 19.09.2019
1630 Clear 18 1017 87 10000 1 140 19:19 19.09.2019
1631 Clear 19 1017 77 10000 2 150 18:43 19.09.2019
1632 Clear 19 1017 68 10000 2 160 18:24 19.09.2019
1633 Clear 19 1017 68 10000 2 160 17:57 19.09.2019
1634 Clear 19 1018 68 10000 2 160 17:39 19.09.2019
1635 Clear 20 1018 68 10000 2 160 17:21 19.09.2019
1636 Clear 20 1018 63 10000 2 160 16:57 19.09.2019
1637 Clear 20 1018 68 10000 2 150 16:38 19.09.2019
1638 Clear 21 1018 63 10000 2 160 16:18 19.09.2019
1639 Clear 21 1018 63 10000 3 160 15:38 19.09.2019
1640 Clear 21 1018 63 10000 3 160 15:18 19.09.2019
1641 Clear 22 1018 68 10000 2 160 14:42 19.09.2019
1642 Clear 22 1018 68 10000 2 160 14:23 19.09.2019
1643 Clear 22 1018 68 10000 2 160 14:23 19.09.2019
1644 Clear 22 1018 56 10000 3 150 13:59 19.09.2019
1645 Clear 23 1017 53 10000 4 180 13:39 19.09.2019
1646 Clear 23 1017 53 10000 4 180 13:39 19.09.2019
1647 Clear 23 1017 53 10000 2 0 13:19 19.09.2019
1648 Clear 23 1017 64 10000 2 50 12:39 19.09.2019
1649 Clear 24 1017 50 10000 3 190 12:19 19.09.2019
1650 Clear 24 1017 50 10000 3 190 11:56 19.09.2019
1651 Clear 25 1017 47 10000 3 200 11:38 19.09.2019
1652 Clear 25 1017 47 10000 4 200 11:19 19.09.2019
1653 Clear 25 1017 44 10000 4 220 10:40 19.09.2019
1654 Clear 26 1017 44 10000 4 220 10:22 19.09.2019
1655 Clear 26 1017 47 10000 4 190 09:58 19.09.2019
1656 Clear 26 1018 44 10000 3 0 09:40 19.09.2019
1657 Clear 26 1018 44 10000 3 0 09:20 19.09.2019
1658 Clear 27 1018 50 10000 1 0 08:52 19.09.2019
1659 Clear 25 1019 49 10000 2 0 08:27 19.09.2019
1660 Clear 26 1019 49 10000 2 200 07:55 19.09.2019
1661 Clear 26 1019 49 10000 2 200 07:55 19.09.2019
1662 Clear 26 1020 49 10000 2 0 07:36 19.09.2019
1663 Clear 25 1020 49 10000 2 210 07:18 19.09.2019
1664 Clear 25 1021 52 10000 3 140 06:42 19.09.2019
1665 Clear 23 1021 52 10000 3 140 06:24 19.09.2019
1666 Clear 23 1021 52 10000 1 0 05:50 19.09.2019
1667 Clear 22 1022 59 10000 2 10 04:24 19.09.2019
1668 Clear 19 1023 67 10000 2 10 03:21 19.09.2019
1669 Clear 18 1023 77 10000 0.73 113.835 01:50 19.09.2019
1670 Clear 17 1022 87 10000 1 0 01:20 19.09.2019
1671 Clear 16 1023 82 10000 1 0 00:45 19.09.2019
1672 Clear 15 1023 87 10000 2 60 00:24 19.09.2019
1673 Clear 15 1023 93 10000 1 0 23:39 18.09.2019
1674 Clear 16 1023 93 10000 1 0 23:20 18.09.2019
1675 Clear 16 1023 93 10000 1 0 23:20 18.09.2019
1676 Clear 15 1023 93 10000 1 60 22:43 18.09.2019
1677 Clear 15 1023 93 10000 1 60 22:20 18.09.2019
1678 Clear 16 1023 87 10000 1 40 21:58 18.09.2019
1679 Clear 16 1023 87 10000 1 40 21:58 18.09.2019
1680 Clear 16 1023 87 10000 2 50 21:40 18.09.2019
1681 Clear 16 1023 87 10000 2 50 21:40 18.09.2019
1682 Clear 15 1023 87 10000 1 0 21:19 18.09.2019
1683 Clear 16 1023 87 10000 1 0 20:58 18.09.2019
1684 Clear 16 1023 82 10000 2 20 20:40 18.09.2019
1685 Clear 16 1023 82 10000 1 10 20:22 18.09.2019
1686 Clear 17 1023 82 10000 1 10 19:57 18.09.2019
1687 Clear 17 1023 76 10000 2 60 19:38 18.09.2019
1688 Clear 18 1023 72 10000 2 80 19:19 18.09.2019
1689 Clear 18 1023 72 10000 2 80 19:19 18.09.2019
1690 Clear 18 1023 72 10000 2 80 18:56 18.09.2019
1691 Clear 17 1023 76 10000 2 80 18:37 18.09.2019
1692 Clear 17 1023 76 10000 2 80 18:19 18.09.2019
1693 Clear 17 1023 87 10000 1 90 17:57 18.09.2019
1694 Clear 17 1023 87 10000 1 90 17:57 18.09.2019
1695 Clear 17 1023 87 10000 1 90 17:57 18.09.2019
1696 Clear 17 1023 87 10000 1 90 17:57 18.09.2019
1697 Clear 18 1023 82 10000 1 0 17:39 18.09.2019
1698 Clear 18 1023 82 10000 1 90 17:18 18.09.2019
1699 Clear 18 1023 82 10000 1 90 17:18 18.09.2019
1700 Clear 18 1023 82 10000 1 90 16:55 18.09.2019
1701 Clear 19 1023 77 10000 1 0 16:37 18.09.2019
1702 Clear 19 1023 77 10000 1 0 16:18 18.09.2019
1703 Clear 19 1023 82 10000 1 110 15:54 18.09.2019
1704 Clear 19 1023 67 10000 1 140 15:36 18.09.2019
1705 Clear 19 1023 67 10000 1 140 15:36 18.09.2019
1706 Clear 19 1023 67 10000 2 130 15:18 18.09.2019
1707 Clear 20 1023 67 10000 2 130 14:57 18.09.2019
1708 Clear 20 1023 55 10000 2 150 14:37 18.09.2019
1709 Clear 22 1023 37 10000 3 170 14:19 18.09.2019
1710 Clear 23 1023 28 10000 3 180 13:42 18.09.2019
1711 Clear 24 1023 25 10000 4 190 13:19 18.09.2019
1712 Clear 24 1023 25 10000 4 190 13:19 18.09.2019
1713 Clear 24 1023 25 10000 4 190 12:53 18.09.2019
1714 Clear 24 1023 28 10000 4 170 12:32 18.09.2019
1715 Clear 24 1023 28 10000 4 170 12:32 18.09.2019
1716 Clear 26 1023 22 10000 4 180 11:59 18.09.2019
1717 Clear 26 1023 22 10000 4 170 11:39 18.09.2019
1718 Clear 27 1023 22 10000 4 170 11:19 18.09.2019
1719 Clear 26 1023 21 10000 4 180 10:40 18.09.2019
1720 Clear 26 1023 21 10000 4 180 10:40 18.09.2019
1721 Clear 28 1023 21 10000 4 180 10:21 18.09.2019
1722 Clear 28 1023 18 10000 4 200 09:58 18.09.2019
1723 Clear 28 1023 18 10000 4 200 09:58 18.09.2019
1724 Clear 27 1024 38 10000 3 0 09:39 18.09.2019
1725 Clear 28 1024 23 10000 3 0 09:21 18.09.2019
1726 Clear 27 1025 19 10000 4 190 08:45 18.09.2019
1727 Clear 26 1025 19 10000 4 190 08:26 18.09.2019
1728 Clear 26 1025 15 10000 2 0 07:59 18.09.2019
1729 Clear 26 1026 16 10000 1 0 07:40 18.09.2019
1730 Clear 26 1026 16 10000 1 0 07:40 18.09.2019
1731 Clear 26 1027 16 10000 2 200 07:22 18.09.2019
1732 Clear 27 1027 17 10000 2 0 06:41 18.09.2019
1733 Clear 24 1028 23 10000 3 20 05:51 18.09.2019
1734 Clear 25 1028 23 10000 3 20 05:21 18.09.2019
1735 Clear 22 1029 35 10000 2 20 03:21 18.09.2019
1736 Clear 21 1028 30 10000 2 10 02:39 18.09.2019
1737 Clear 18 1028 51 10000 3 360 01:34 18.09.2019
1738 Clear 19 1027 47 10000 3 350 00:50 18.09.2019
1739 Clear 17 1027 47 10000 3 350 00:25 18.09.2019
1740 Clear 17 1026 41 10000 2 20 23:46 17.09.2019
1741 Clear 17 1026 41 10000 2 20 23:46 17.09.2019
1742 Clear 18 1026 41 10000 2 20 23:23 17.09.2019
1743 Clear 18 1025 51 10000 2 40 22:43 17.09.2019
1744 Clear 19 1025 51 10000 2 40 22:24 17.09.2019
1745 Clear 20 1024 42 10000 2 30 21:56 17.09.2019
1746 Clear 20 1024 42 10000 4 10 21:37 17.09.2019
1747 Clear 21 1023 37 10000 4 10 21:19 17.09.2019
1748 Clear 21 1023 37 10000 4 10 21:19 17.09.2019
1749 Clear 21 1023 37 10000 4 10 20:58 17.09.2019
1750 Clear 21 1023 37 10000 4 10 20:58 17.09.2019
1751 Clear 21 1023 39 10000 4 360 20:40 17.09.2019
1752 Clear 21 1023 39 10000 4 360 20:40 17.09.2019
1753 Clear 21 1023 39 10000 4 360 20:40 17.09.2019
1754 Clear 21 1023 39 10000 4 360 20:22 17.09.2019
1755 Clear 21 1023 39 10000 4 360 20:22 17.09.2019
1756 Clear 21 1023 39 10000 4 360 20:22 17.09.2019
1757 Clear 22 1022 32 10000 5 10 19:58 17.09.2019
1758 Clear 22 1022 63 10000 4 10 19:39 17.09.2019
1759 Clear 22 1021 68 10000 2 20 19:20 17.09.2019
1760 Clear 22 1021 68 10000 2 20 19:20 17.09.2019
1761 Clear 22 1021 68 10000 2 20 18:57 17.09.2019
1762 Clear 23 1021 68 10000 3 10 18:57 17.09.2019
1763 Clear 23 1021 68 10000 3 10 18:38 17.09.2019
1764 Clear 23 1021 68 10000 3 10 18:20 17.09.2019
1765 Clear 23 1020 68 10000 5 340 17:46 17.09.2019
1766 Clear 23 1020 68 10000 5 340 17:20 17.09.2019
1767 Clear 23 1020 72 10000 4 360 16:58 17.09.2019
1768 Clear 23 1019 82 10000 4 340 16:40 17.09.2019
1769 Clear 24 1019 82 10000 4 340 16:21 17.09.2019
1770 Clear 23 1018 82 10000 3 360 15:40 17.09.2019
1771 Clear 23 1018 82 10000 3 360 15:21 17.09.2019
1772 Clear 23 1018 82 10000 3 360 15:21 17.09.2019
1773 Clear 24 1018 77 10000 3 350 14:57 17.09.2019
1774 Clear 24 1017 77 10000 4 350 14:39 17.09.2019
1775 Clear 24 1017 73 10000 2 10 14:19 17.09.2019
1776 Clear 24 1017 73 10000 2 10 13:57 17.09.2019
1777 Clear 25 1016 69 10000 2 10 13:38 17.09.2019
1778 Clear 26 1016 54 10000 3 310 13:20 17.09.2019
1779 Clear 27 1015 54 10000 3 210 12:42 17.09.2019
1780 Clear 27 1015 54 10000 5 190 12:20 17.09.2019
1781 Clear 28 1015 54 10000 5 190 11:47 17.09.2019
1782 Clear 28 1015 54 10000 5 190 11:28 17.09.2019
1783 Clear 29 1015 48 10000 3 280 10:59 17.09.2019
1784 Clear 29 1014 48 10000 6 190 10:41 17.09.2019
1785 Clear 29 1015 51 10000 2 240 10:21 17.09.2019
1786 Clear 29 1015 51 10000 2 240 09:56 17.09.2019
1787 Clear 29 1015 48 10000 2 180 09:37 17.09.2019
1788 Clear 29 1015 48 10000 2 180 09:19 17.09.2019
1789 Clear 29 1015 48 10000 2 0 08:43 17.09.2019
1790 Clear 28 1015 48 10000 2 0 08:25 17.09.2019
1791 Clear 29 1016 54 10000 3 0 07:45 17.09.2019
1792 Clear 29 1016 54 10000 3 0 07:27 17.09.2019
1793 Clear 29 1016 54 10000 2 0 06:57 17.09.2019
1794 Clear 28 1017 57 10000 1 0 06:35 17.09.2019
1795 Clear 26 1017 57 10000 2 0 05:54 17.09.2019
1796 Clear 26 1018 60 10000 1 0 04:56 17.09.2019
1797 Clear 23 1018 64 10000 2 160 03:49 17.09.2019
1798 Clear 23 1018 64 10000 2 160 03:49 17.09.2019
1799 Clear 22 1018 68 10000 1 0 02:40 17.09.2019
1800 Clear 19 1018 77 10000 1 0 01:50 17.09.2019
1801 Clear 19 1018 82 10000 1 90 00:56 17.09.2019
1802 Clear 19 1018 72 10000 2 90 23:42 16.09.2019
1803 Clear 19 1018 72 10000 2 90 23:20 16.09.2019
1804 Clear 19 1018 72 10000 2 90 22:59 16.09.2019
1805 Clear 18 1018 77 10000 2 90 22:41 16.09.2019
1806 Clear 18 1018 77 10000 2 90 22:23 16.09.2019
1807 Clear 18 1018 82 10000 1 0 21:58 16.09.2019
1808 Clear 18 1018 87 10000 1 80 21:38 16.09.2019
1809 Clear 19 1018 87 10000 1 80 21:20 16.09.2019
1810 Clear 19 1018 87 10000 1 80 21:20 16.09.2019
1811 Clear 19 1018 87 10000 2 0 20:55 16.09.2019
1812 Clear 19 1018 82 10000 1 0 20:37 16.09.2019
1813 Clear 19 1018 82 10000 1 0 20:18 16.09.2019
1814 Clear 19 1018 82 10000 1 80 19:42 16.09.2019
1815 Clear 19 1018 82 10000 1 80 19:20 16.09.2019
1816 Clear 19 1018 77 10000 1 0 18:57 16.09.2019
1817 Clear 20 1018 77 10000 1 0 18:39 16.09.2019
1818 Clear 20 1018 63 10000 1 0 18:20 16.09.2019
1819 Clear 21 1017 56 10000 2 150 17:43 16.09.2019
1820 Clear 20 1017 56 10000 2 150 17:24 16.09.2019
1821 Clear 21 1017 52 10000 3 160 16:58 16.09.2019
1822 Clear 21 1017 43 10000 5 180 16:39 16.09.2019
1823 Clear 22 1017 43 10000 5 180 16:20 16.09.2019
1824 Clear 22 1017 46 10000 4 170 15:56 16.09.2019
1825 Clear 22 1017 46 10000 4 170 15:56 16.09.2019
1826 -273 0 0 0 0 0 15:37 16.09.2019
1827 Clear 23 1017 46 10000 3 170 15:19 16.09.2019
1828 Clear 22 1016 43 10000 4 160 14:44 16.09.2019
1829 Clear 23 1016 43 10000 4 160 14:24 16.09.2019
1830 Clear 24 1016 43 10000 5 170 13:59 16.09.2019
1831 Clear 23 1016 41 10000 5 170 13:39 16.09.2019
1832 Clear 25 1015 41 10000 5 170 13:21 16.09.2019
1833 Clear 25 1015 38 10000 4 170 12:46 16.09.2019
1834 Clear 26 1015 38 10000 4 170 12:27 16.09.2019
1835 Clear 27 1015 34 10000 3 160 11:58 16.09.2019
1836 Clear 27 1016 30 10000 4 170 11:39 16.09.2019
1837 Clear 27 1016 30 10000 4 170 11:21 16.09.2019
1838 Clear 28 1016 34 10000 5 190 10:39 16.09.2019
1839 Clear 28 1016 34 10000 5 190 10:21 16.09.2019
1840 Clear 29 1016 34 10000 4 170 09:58 16.09.2019
1841 Clear 28 1016 39 10000 3 170 09:39 16.09.2019
1842 Clear 28 1016 39 10000 3 170 09:19 16.09.2019
1843 Clear 29 1017 32 10000 4 180 08:47 16.09.2019
1844 Clear 28 1017 32 10000 4 180 08:28 16.09.2019
1845 Clear 28 1017 30 10000 3 170 07:57 16.09.2019
1846 Clear 28 1017 30 10000 3 170 07:57 16.09.2019
1847 Clear 28 1017 32 10000 3 0 07:38 16.09.2019
1848 Clear 28 1018 30 10000 2 210 07:20 16.09.2019
1849 Clear 27 1018 32 10000 3 140 06:46 16.09.2019
1850 Clear 27 1018 32 10000 3 140 06:28 16.09.2019
1851 Clear 26 1019 36 10000 3 210 05:53 16.09.2019
1852 Clear 26 1019 36 10000 3 210 05:32 16.09.2019
1853 Clear 27 1019 47 10000 2 0 04:49 16.09.2019
1854 Clear 23 1019 56 10000 1 0 02:58 16.09.2019
1855 Clear 19 1017 87 10000 4 360 00:44 16.09.2019
1856 Clear 19 1017 87 10000 4 360 00:26 16.09.2019
1857 Clear 15 1016 93 10000 1 0 23:44 15.09.2019
1858 Clear 17 1016 93 10000 1 0 23:21 15.09.2019
1859 Clear 19 1016 93 10000 1 0 22:59 15.09.2019
1860 Clear 19 1015 87 10000 4 350 22:37 15.09.2019
1861 Clear 18 1015 87 10000 4 350 22:18 15.09.2019
1862 Clear 19 1015 93 10000 4 360 21:55 15.09.2019
1863 Clear 19 1015 88 10000 5 350 21:37 15.09.2019
1864 Clear 19 1015 88 10000 5 350 21:37 15.09.2019
1865 Clear 19 1015 88 10000 5 350 21:18 15.09.2019
1866 Clear 19 1015 88 10000 4 360 20:44 15.09.2019
1867 Clear 18 1015 88 10000 4 360 20:25 15.09.2019
1868 Clear 19 1014 88 10000 5 350 19:47 15.09.2019
1869 Clear 19 1014 88 10000 5 350 19:26 15.09.2019
1870 Clear 20 1014 88 10000 2 10 18:55 15.09.2019
1871 Clear 20 1014 100 10000 2 350 18:36 15.09.2019
1872 Clear 20 1014 93 10000 2.14 305.345 18:18 15.09.2019
1873 Clear 19 1013 93 10000 2.14 305.345 17:41 15.09.2019
1874 Clear 19 1013 93 10000 2.14 305.345 17:21 15.09.2019
1875 Clear 20 1013 93 10000 1 0 16:56 15.09.2019
1876 Clear 22 1013 88 10000 2 360 16:38 15.09.2019
1877 Clear 22 1013 88 10000 2 360 16:20 15.09.2019
1878 Clear 22 1013 93 10000 1 70 15:41 15.09.2019
1879 Clear 22 1013 93 10000 1 70 15:21 15.09.2019
1880 Clear 22 1012 88 10000 2 60 14:59 15.09.2019
1881 Clear 22 1012 88 10000 1 0 14:41 15.09.2019
1882 Clear 24 1012 88 10000 1 0 14:22 15.09.2019
1883 Clear 24 1011 77 10000 1 0 13:48 15.09.2019
1884 Clear 24 1011 77 10000 1 0 13:26 15.09.2019
1885 Clear 25 1011 64 10000 1 0 12:59 15.09.2019
1886 Clear 27 1011 47 10000 3 200 12:40 15.09.2019
1887 -273 0 0 0 0 0 12:20 15.09.2019
1888 Clear 28 1011 54 10000 3 180 11:43 15.09.2019
1889 Clear 28 1011 54 10000 3 180 11:23 15.09.2019
1890 Clear 29 1010 48 10000 4 170 10:59 15.09.2019
1891 Clear 29 1011 48 10000 3 170 10:40 15.09.2019
1892 Clear 30 1011 48 10000 3 170 10:21 15.09.2019
1893 Clear 29 1011 47 10000 3 190 09:44 15.09.2019
1894 Clear 29 1011 47 10000 3 190 09:21 15.09.2019
1895 Clear 30 1011 47 10000 2 180 08:59 15.09.2019
1896 Clear 29 1011 44 10000 2 160 08:40 15.09.2019
1897 Clear 29 1012 39 10000 2 230 08:19 15.09.2019
1898 Clear 30 1012 39 10000 2 230 07:47 15.09.2019
1899 Clear 29 1013 47 10000 2 0 06:46 15.09.2019
1900 Clear 30 1013 47 10000 2 0 06:27 15.09.2019
1901 Clouds 23 1014 73 8000 1 0 03:20 15.09.2019
1902 Clear 23 1014 82 10000 1 0 02:20 15.09.2019
1903 Clear 21 1014 93 10000 1 0 01:37 15.09.2019
1904 Clear 21 1014 93 10000 1 0 01:37 15.09.2019
1905 Clear 19 1014 100 10000 2 360 00:57 15.09.2019
1906 Clear 19 1014 100 10000 2 360 00:57 15.09.2019
1907 Clear 18 1014 100 10000 0.45 183.95 00:37 15.09.2019
1908 Clear 18 1014 93 10000 1 40 00:19 15.09.2019
1909 Clear 17 1014 93 10000 1 40 23:56 14.09.2019
1910 Clear 17 1014 100 10000 1 0 23:38 14.09.2019
1911 Clear 17 1014 100 10000 1 0 23:38 14.09.2019
1912 Clear 17 1014 100 10000 0.64 302.896 23:19 14.09.2019
1913 Clear 17 1014 100 10000 0.64 302.896 22:57 14.09.2019
1914 Clear 18 1014 93 10000 2 350 22:37 14.09.2019
1915 Clear 18 1014 93 10000 2 350 22:18 14.09.2019
1916 Clear 18 1014 93 10000 1 350 21:40 14.09.2019
1917 Clear 18 1014 93 10000 1 350 21:21 14.09.2019
1918 Clear 18 1014 93 10000 1 350 21:21 14.09.2019
1919 Clear 20 1014 93 10000 2 30 20:59 14.09.2019
1920 Clear 19 1014 93 10000 1.16 292.472 20:39 14.09.2019
1921 Clear 19 1014 93 10000 1.16 292.472 20:21 14.09.2019
1922 Clear 19 1014 88 10000 1 40 19:49 14.09.2019
1923 Clear 18 1014 93 10000 1 0 19:23 14.09.2019
1924 Clear 20 1014 93 10000 1 0 18:58 14.09.2019
1925 Clear 21 1015 88 10000 1 80 18:38 14.09.2019
1926 Clear 21 1015 88 10000 1 0 18:20 14.09.2019
1927 Clear 22 1015 82 10000 1 0 17:45 14.09.2019
1928 Clear 22 1015 82 10000 1 0 17:45 14.09.2019
1929 Clear 22 1015 82 10000 1 0 17:24 14.09.2019
1930 Clear 22 1015 82 10000 1 0 16:59 14.09.2019
1931 Clear 23 1015 77 10000 1 0 16:40 14.09.2019
1932 Clear 22 1015 88 10000 1 0 16:19 14.09.2019
1933 Clear 23 1015 77 10000 2 60 15:42 14.09.2019
1934 Clear 24 1015 77 10000 2 60 15:23 14.09.2019
1935 Clear 24 1015 73 10000 1 120 14:57 14.09.2019
1936 Clear 26 1015 44 10000 3 190 14:39 14.09.2019
1937 Clear 26 1015 44 10000 3 190 14:39 14.09.2019
1938 Clear 26 1015 44 10000 3 190 14:18 14.09.2019
1939 Clear 25 1014 64 10000 2 100 13:46 14.09.2019
1940 Clear 27 1014 36 10000 4 190 13:21 14.09.2019
1941 Clear 27 1014 36 10000 4 190 12:46 14.09.2019
1942 Clear 27 1014 36 10000 4 190 12:23 14.09.2019
1943 Clear 28 1014 37 10000 4 170 11:41 14.09.2019
1944 Clear 28 1014 37 10000 4 170 11:20 14.09.2019
1945 Clear 29 1014 39 10000 3 140 10:41 14.09.2019
1946 Clear 29 1014 39 10000 3 140 10:22 14.09.2019
1947 Clear 29 1014 39 10000 3 150 09:59 14.09.2019
1948 Clear 29 1014 32 10000 2 230 09:40 14.09.2019
1949 Clear 30 1014 32 10000 2 230 09:21 14.09.2019
1950 Clear 30 1015 30 10000 2 240 08:59 14.09.2019
1951 Clear 30 1015 30 10000 3 0 08:41 14.09.2019
1952 Clear 29 1015 30 10000 3 0 08:21 14.09.2019
1953 Clear 29 1016 34 10000 2 80 07:43 14.09.2019
1954 Clear 29 1016 34 10000 2 80 07:23 14.09.2019
1955 Clear 30 1016 32 10000 2 0 06:35 14.09.2019
1956 Clear 30 1017 32 10000 1 0 05:55 14.09.2019
1957 Clear 28 1017 41 10000 2 10 04:34 14.09.2019
1958 Clear 25 1017 47 10000 3 330 03:32 14.09.2019
1959 Clear 24 1017 68 10000 3 360 02:48 14.09.2019
1960 Clear 24 1017 68 10000 3 360 02:48 14.09.2019
1961 Clear 22 1017 82 10000 3 360 01:45 14.09.2019
1962 Clear 21 1017 88 10000 3 350 01:20 14.09.2019
1963 Clear 19 1017 87 10000 3 340 00:40 14.09.2019
1964 Clear 19 1016 88 10000 2 350 00:22 14.09.2019
1965 Clear 19 1016 88 10000 2 350 00:22 14.09.2019
1966 Clear 19 1016 88 10000 3 350 23:56 13.09.2019
1967 Clear 19 1016 88 10000 3 350 23:37 13.09.2019
1968 Clear 19 1016 88 10000 3 350 23:18 13.09.2019
1969 Clear 19 1016 88 10000 3 350 22:55 13.09.2019
1970 Clear 20 1016 88 10000 2 340 22:36 13.09.2019
1971 Clear 20 1016 88 10000 2 340 22:18 13.09.2019
1972 Clear 20 1016 88 10000 2 320 21:39 13.09.2019
1973 Clear 20 1016 88 10000 2 320 21:19 13.09.2019
1974 Clear 20 1015 82 10000 2 350 20:58 13.09.2019
1975 Clear 20 1015 93 10000 2 360 20:38 13.09.2019
1976 Clear 20 1015 93 10000 2 360 20:19 13.09.2019
1977 Clear 21 1015 93 10000 2 360 19:54 13.09.2019
1978 Clear 21 1015 93 10000 2 360 19:36 13.09.2019
1979 Clear 20 1015 100 10000 1.52 287.841 19:18 13.09.2019
1980 Clear 21 1015 93 10000 1.52 287.841 18:38 13.09.2019
1981 Clear 21 1015 93 10000 1 0 18:20 13.09.2019
1982 Clear 21 1015 93 10000 1 0 17:55 13.09.2019
1983 Clear 21 1015 93 10000 1 0 17:37 13.09.2019
1984 Clear 21 1015 88 10000 1 0 17:18 13.09.2019
1985 Clear 22 1014 77 10000 1 0 16:40 13.09.2019
1986 Clear 22 1014 77 10000 1 0 16:20 13.09.2019
1987 Clear 23 1014 73 10000 1 0 15:45 13.09.2019
1988 Clear 23 1014 73 10000 1 0 15:27 13.09.2019
1989 Clear 24 1014 57 10000 3 200 14:57 13.09.2019
1990 Clear 24 1013 57 10000 3 190 14:38 13.09.2019
1991 Clear 23 1013 64 10000 2 170 14:19 13.09.2019
1992 Clear 23 1013 78 10000 1 0 13:45 13.09.2019
1993 Clear 24 1013 78 10000 1 0 13:22 13.09.2019
1994 Clear 25 1012 53 10000 1 0 12:54 13.09.2019
1995 Clear 25 1012 53 10000 1 0 12:36 13.09.2019
1996 Clear 25 1012 78 10000 1 0 12:18 13.09.2019
1997 Clear 25 1012 78 10000 1 0 11:54 13.09.2019
1998 Clear 27 1012 65 10000 1 120 11:18 13.09.2019
1999 Clear 27 1011 61 10000 2 100 10:37 13.09.2019
2000 Clear 28 1011 61 10000 2 100 10:19 13.09.2019
2001 Clear 28 1011 51 10000 1 0 09:44 13.09.2019
2002 Clear 28 1011 51 10000 1 0 09:44 13.09.2019
2003 Clear 28 1011 51 10000 1 0 09:23 13.09.2019
2004 Clear 28 1011 51 10000 3 30 08:58 13.09.2019
2005 Clear 28 1011 54 10000 3 330 08:40 13.09.2019
2006 Clear 28 1011 54 10000 3 330 08:20 13.09.2019
2007 Clear 28 1011 54 10000 3 330 08:20 13.09.2019
2008 Clear 28 1011 65 10000 1 0 07:44 13.09.2019
2009 Clear 28 1011 65 10000 1 0 07:26 13.09.2019
2010 Clear 28 1011 61 10000 2 0 06:41 13.09.2019
2011 Clear 24 1012 64 10000 2 310 05:43 13.09.2019
2012 Clear 23 1012 69 10000 2 350 04:39 13.09.2019
2013 Clouds 21 1012 88 10000 1 0 03:38 13.09.2019
2014 Clouds 19 1011 93 6000 2 20 02:20 13.09.2019
2015 Rain 19 1011 100 4000 1 0 01:42 13.09.2019
2016 Rain 19 1011 93 3500 1 0 01:21 13.09.2019
2017 Rain 19 1011 93 3500 1 0 00:37 13.09.2019
2018 Rain 19 1011 93 3100 2 360 23:57 12.09.2019
2019 Rain 19 1010 93 2800 2 10 23:35 12.09.2019
2020 Rain 19 1010 93 2800 2 300 22:59 12.09.2019
2021 Rain 19 1010 100 2800 1 0 22:40 12.09.2019
2022 Rain 19 1010 100 2800 1 0 22:22 12.09.2019
2023 Rain 19 1010 93 2800 1 0 21:56 12.09.2019
2024 Rain 19 1010 100 2800 1 40 21:37 12.09.2019
2025 Rain 19 1010 100 2800 1 40 21:19 12.09.2019
2026 Rain 19 1010 100 2800 1 0 20:55 12.09.2019
2027 Rain 19 1010 100 2800 1 0 20:55 12.09.2019
2028 Rain 19 1010 100 2800 1 0 20:55 12.09.2019
2029 Rain 19 1011 100 5000 0.26 167.984 20:36 12.09.2019
2030 Rain 19 1011 100 5000 0.26 167.984 20:18 12.09.2019
2031 Rain 19 1011 93 5000 1 0 19:41 12.09.2019
2032 Rain 19 1011 93 5000 1 0 19:41 12.09.2019
2033 Rain 20 1011 88 5000 1 0 19:20 12.09.2019
2034 Rain 20 1011 88 5000 1 0 18:58 12.09.2019
2035 Rain 20 1011 88 5000 1 0 18:58 12.09.2019
2036 Rain 20 1011 82 7000 2 140 18:37 12.09.2019
2037 Clouds 21 1012 73 10000 3 180 18:18 12.09.2019
2038 Clouds 22 1012 73 10000 4 180 17:41 12.09.2019
2039 Clouds 21 1012 73 10000 4 180 17:22 12.09.2019
2040 Clouds 22 1012 68 10000 3 190 16:58 12.09.2019
2041 Clouds 22 1012 68 10000 3 190 16:58 12.09.2019
2042 Clouds 22 1012 68 10000 3 190 16:58 12.09.2019
2043 Clouds 22 1012 68 10000 3 190 16:58 12.09.2019
2044 Clouds 21 1012 68 10000 3 180 16:40 12.09.2019
2045 Clouds 21 1013 68 10000 2 180 16:20 12.09.2019
2046 Clouds 22 1013 77 10000 1 0 15:42 12.09.2019
2047 Clouds 22 1013 77 10000 1 0 15:42 12.09.2019
2048 Clouds 22 1013 77 10000 1 0 15:24 12.09.2019
2049 Clear 22 1013 77 10000 1 110 14:55 12.09.2019
2050 Clear 22 1013 73 10000 1 0 14:37 12.09.2019
2051 Clear 22 1013 73 10000 1 0 14:19 12.09.2019
2052 Clear 22 1013 68 10000 1 0 13:39 12.09.2019
2053 Clear 22 1013 68 10000 1 0 13:20 12.09.2019
2054 Clear 22 1013 68 10000 2 150 12:49 12.09.2019
2055 Clear 22 1013 68 10000 2 150 12:49 12.09.2019
2056 Clear 22 1013 68 10000 2 150 12:49 12.09.2019
2057 Clouds 23 1013 64 10000 2 140 12:19 12.09.2019
2058 Clouds 23 1013 64 10000 2 140 11:58 12.09.2019
2059 Clouds 23 1013 64 10000 2 140 11:39 12.09.2019
2060 Clouds 23 1013 64 10000 2 140 11:21 12.09.2019
2061 Clouds 23 1013 60 10000 2 140 10:49 12.09.2019
2062 Clouds 24 1013 60 10000 2 120 10:28 12.09.2019
2063 Clear 23 1014 53 10000 2 130 09:57 12.09.2019
2064 Clear 24 1014 53 10000 2 130 09:39 12.09.2019
2065 Clear 24 1014 53 10000 2 130 09:19 12.09.2019
2066 Clear 24 1015 53 10000 2 140 08:44 12.09.2019
2067 Clear 24 1015 53 10000 2 140 08:23 12.09.2019
2068 Clear 24 1015 53 10000 2 180 07:54 12.09.2019
2069 Clear 24 1016 56 10000 2 130 07:36 12.09.2019
2070 Clear 24 1016 53 10000 1 0 07:18 12.09.2019
2071 Clear 24 1016 60 10000 1 0 06:44 12.09.2019
2072 Clouds 24 1017 60 10000 1 0 05:59 12.09.2019
2073 Clear 24 1017 60 10000 1 0 05:39 12.09.2019
2074 Clear 24 1017 60 10000 2 290 04:47 12.09.2019
2075 Clear 22 1018 64 10000 2 130 03:23 12.09.2019
2076 Clear 21 1017 72 10000 1 360 01:43 12.09.2019
2077 Clear 21 1017 77 10000 1 350 01:24 12.09.2019
2078 Clear 21 1017 77 10000 1 0 00:48 12.09.2019
2079 Clear 21 1017 77 10000 1 0 00:29 12.09.2019
2080 Clear 20 1017 77 10000 3 360 23:44 11.09.2019
2081 Clear 20 1017 77 10000 3 360 23:25 11.09.2019
2082 Clear 20 1017 77 10000 3 350 22:58 11.09.2019
2083 Clear 20 1017 72 10000 2 360 22:38 11.09.2019
2084 Clear 21 1017 72 10000 2 360 22:20 11.09.2019
2085 Clear 21 1017 68 10000 3 350 21:58 11.09.2019
2086 Clear 21 1018 72 10000 3 340 21:40 11.09.2019
2087 Clear 21 1018 72 10000 3 340 21:22 11.09.2019
2088 Clear 21 1017 72 10000 2 350 20:55 11.09.2019
2089 Clear 21 1017 72 10000 2 350 20:37 11.09.2019
2090 Clear 21 1018 72 10000 3 360 20:18 11.09.2019
2091 Clear 21 1018 72 10000 3 360 19:55 11.09.2019
2092 Clear 21 1018 68 10000 4 340 19:37 11.09.2019
2093 Clear 21 1018 72 10000 4 10 19:19 11.09.2019
2094 Clear 22 1019 68 10000 3 260 18:42 11.09.2019
2095 Clear 22 1019 64 10000 2 280 18:23 11.09.2019
2096 Clear 22 1019 64 10000 2 280 18:23 11.09.2019
2097 Clear 22 1019 64 10000 2 280 17:58 11.09.2019
2098 Clear 22 1019 64 10000 3 320 17:40 11.09.2019
2099 Clear 22 1019 64 10000 3 320 17:21 11.09.2019
2100 Clear 22 1019 68 10000 2 340 16:56 11.09.2019
2101 Clear 22 1019 68 10000 1 10 16:36 11.09.2019
2102 Clear 22 1019 68 10000 1 10 16:18 11.09.2019
2103 Rain 23 1019 60 10000 3 320 15:46 11.09.2019
2104 Rain 23 1019 60 10000 3 320 15:23 11.09.2019
2105 Clear 23 1019 47 10000 2 250 14:57 11.09.2019
2106 Clear 23 1019 49 10000 2 200 14:38 11.09.2019
2107 Rain 23 1019 49 10000 3 210 14:19 11.09.2019
2108 Rain 23 1019 49 10000 3 210 13:55 11.09.2019
2109 Clear 23 1019 53 10000 2 190 13:36 11.09.2019
2110 Clear 23 1019 68 10000 2 170 13:18 11.09.2019
2111 Clear 24 1019 68 10000 1 150 12:41 11.09.2019
2112 Clear 24 1019 69 10000 2 150 12:21 11.09.2019
2113 Clear 24 1019 69 10000 2 150 11:55 11.09.2019
2114 Clear 24 1019 64 10000 1 0 11:36 11.09.2019
2115 Clear 24 1019 64 10000 2 120 11:18 11.09.2019
2116 Clear 25 1019 53 10000 2 120 10:40 11.09.2019
2117 Clear 25 1019 53 10000 2 120 10:21 11.09.2019
2118 Clear 25 1020 47 10000 1 0 09:40 11.09.2019
2119 Clear 26 1020 47 10000 1 0 09:20 11.09.2019
2120 Clear 26 1020 47 10000 1 0 09:20 11.09.2019
2121 Clear 26 1020 44 10000 2 120 08:59 11.09.2019
2122 Clear 26 1021 47 10000 2 150 08:39 11.09.2019
2123 Clear 26 1021 47 10000 2 150 08:20 11.09.2019
2124 Clear 25 1021 57 10000 1 0 07:45 11.09.2019
2125 Clear 25 1022 53 10000 3 170 07:23 11.09.2019
2126 Clear 25 1022 53 10000 3 170 06:53 11.09.2019
2127 Clear 25 1022 57 10000 2 0 06:35 11.09.2019
2128 Clear 24 1023 60 10000 1 0 05:49 11.09.2019
2129 Clear 24 1023 60 10000 1 0 05:28 11.09.2019
2130 Clear 24 1023 60 10000 1 0 04:51 11.09.2019
2131 Clear 23 1023 73 10000 3 360 03:36 11.09.2019
2132 Clear 21 1023 77 10000 1 0 02:56 11.09.2019
2133 Clear 21 1023 82 10000 1 0 02:26 11.09.2019
2134 Clear 20 1022 88 10000 2 350 00:53 11.09.2019
2135 Clear 20 1022 88 10000 2 350 00:29 11.09.2019
2136 Clear 20 1022 88 10000 1 0 23:56 10.09.2019
2137 Clear 20 1021 93 10000 1 0 23:38 10.09.2019
2138 Clear 20 1021 93 10000 1 0 23:20 10.09.2019
2139 Clear 20 1021 93 10000 2 350 22:41 10.09.2019
2140 Clear 20 1021 93 10000 2 350 22:20 10.09.2019
2141 Clear 21 1021 93 10000 2 360 21:56 10.09.2019
2142 Clear 21 1021 93 10000 1 350 21:38 10.09.2019
2143 Clear 21 1021 93 10000 1 350 21:20 10.09.2019
2144 Clear 21 1021 93 10000 1 0 20:58 10.09.2019
2145 Clear 21 1020 93 10000 1 10 20:39 10.09.2019
2146 Clear 21 1020 93 10000 1 10 20:21 10.09.2019
2147 Clear 21 1020 93 10000 1 20 19:57 10.09.2019
2148 Clear 21 1020 93 10000 1 340 19:37 10.09.2019
2149 Clear 21 1020 88 10000 2 360 19:19 10.09.2019
2150 Clear 21 1020 94 10000 3 360 18:55 10.09.2019
2151 Clear 21 1020 94 10000 3 360 18:37 10.09.2019
2152 Clear 21 1020 88 10000 2 360 18:19 10.09.2019
2153 Clear 21 1020 94 10000 2 340 17:43 10.09.2019
2154 Clear 22 1020 94 10000 2 340 17:23 10.09.2019
2155 Clear 22 1020 88 10000 1 0 16:59 10.09.2019
2156 Clear 22 1020 83 10000 2 350 16:39 10.09.2019
2157 Clear 22 1020 83 10000 2 350 16:21 10.09.2019
2158 Clear 22 1020 88 10000 2 360 15:58 10.09.2019
2159 Clear 22 1020 88 10000 1 0 15:39 10.09.2019
2160 Clear 22 1020 88 10000 1 0 15:20 10.09.2019
2161 Clear 22 1020 78 10000 2 300 14:41 10.09.2019
2162 Clear 22 1020 78 10000 2 300 14:23 10.09.2019
2163 Clear 22 1020 78 10000 3 280 13:54 10.09.2019
2164 Clear 22 1019 78 10000 3 290 13:36 10.09.2019
2165 Clear 22 1019 78 10000 3 290 13:36 10.09.2019
2166 Clear 22 1019 78 10000 3 290 13:18 10.09.2019
2167 Clear 22 1019 73 10000 4 320 12:42 10.09.2019
2168 Clear 22 1019 77 10000 3 360 12:24 10.09.2019
2169 Clear 22 1019 77 10000 3 360 11:56 10.09.2019
2170 Clouds 22 1018 77 10000 3 350 11:38 10.09.2019
2171 Rain 23 1018 83 10000 3 360 11:20 10.09.2019
2172 Rain 23 1018 73 10000 3 350 10:39 10.09.2019
2173 Rain 23 1018 73 10000 3 360 10:19 10.09.2019
2174 Rain 23 1018 73 10000 3 360 09:55 10.09.2019
2175 Rain 23 1019 73 10000 4 360 09:37 10.09.2019
2176 Rain 23 1019 78 10000 4 360 09:18 10.09.2019
2177 Rain 23 1019 78 10000 4 350 08:43 10.09.2019
2178 Rain 22 1019 83 10000 3 360 08:24 10.09.2019
2179 Rain 23 1019 78 10000 2 360 07:44 10.09.2019
2180 Rain 23 1019 78 10000 2 360 07:26 10.09.2019
2181 Rain 22 1019 73 10000 3 360 06:51 10.09.2019
2182 Rain 22 1019 73 10000 3 360 06:32 10.09.2019
2183 Clouds 22 1019 78 10000 4 360 04:57 10.09.2019
2184 Clouds 22 1019 83 10000 4 350 03:48 10.09.2019
2185 Rain 20 1018 93 10000 7 350 02:23 10.09.2019
2186 Clouds 21 1018 93 10000 6 360 02:23 10.09.2019
2187 Rain 20 1018 93 10000 7 350 01:55 10.09.2019
2188 Rain 20 1018 93 10000 7 350 01:55 10.09.2019
2189 Rain 20 1018 93 10000 5 310 01:37 10.09.2019
2190 Rain 20 1017 93 10000 3 340 00:46 10.09.2019
2191 Rain 20 1017 93 10000 2 10 00:25 10.09.2019
2192 Rain 20 1016 93 7000 3 350 23:47 09.09.2019
2193 Rain 20 1016 93 7000 4 320 23:20 09.09.2019
2194 Rain 20 1016 93 7000 4 320 22:56 09.09.2019
2195 Rain 21 1016 93 8000 5 340 22:38 09.09.2019
2196 Rain 20 1016 93 6000 6 340 22:20 09.09.2019
2197 Rain 20 1016 93 6000 6 340 21:57 09.09.2019
2198 Rain 21 1016 93 7000 6 330 21:38 09.09.2019
2199 Rain 21 1016 93 8000 5 350 21:20 09.09.2019
2200 Rain 21 1016 93 8000 5 350 20:56 09.09.2019
2201 Rain 21 1016 100 7000 5 360 20:37 09.09.2019
2202 Rain 20 1016 93 6000 4 360 20:19 09.09.2019
2203 Rain 20 1016 93 6000 4 360 20:19 09.09.2019
2204 Rain 21 1016 93 6000 4 360 19:58 09.09.2019
2205 Rain 21 1016 93 8000 5 350 19:39 09.09.2019
2206 Rain 21 1016 93 8000 5 350 19:19 09.09.2019
2207 Rain 21 1016 93 8000 5 350 19:19 09.09.2019
2208 Rain 21 1015 88 10000 4 20 18:57 09.09.2019
2209 Rain 21 1015 88 10000 4 20 18:39 09.09.2019
2210 Rain 21 1015 88 10000 4 30 18:21 09.09.2019
2211 Rain 22 1015 83 10000 4 10 17:58 09.09.2019
2212 Rain 20 1015 83 10000 4 10 17:40 09.09.2019
2213 Rain 21 1015 94 10000 2 20 17:21 09.09.2019
2214 Rain 20 1015 94 10000 2 20 16:55 09.09.2019
2215 Rain 23 1015 94 10000 2.15 14.658 16:37 09.09.2019
2216 Rain 23 1014 94 10000 2 10 16:19 09.09.2019
2217 Rain 23 1014 94 10000 2 80 15:55 09.09.2019
2218 Rain 23 1014 94 10000 2 10 15:55 09.09.2019
2219 Rain 24 1014 94 10000 2 80 15:36 09.09.2019
2220 Rain 24 1013 94 7000 3 70 15:18 09.09.2019
2221 Rain 24 1013 94 7000 3 70 14:54 09.09.2019
2222 Rain 25 1013 94 6000 3 90 14:36 09.09.2019
2223 Thunderstorm 25 1013 88 6000 2 0 14:18 09.09.2019
2224 Thunderstorm 27 1012 88 6000 3 0 13:43 09.09.2019
2225 Thunderstorm 26 1011 88 5000 5 20 13:19 09.09.2019
2226 Thunderstorm 27 1011 88 5000 5 20 12:57 09.09.2019
2227 Rain 29 1010 73 7000 4 40 12:38 09.09.2019
2228 Clouds 29 1010 65 10000 4 40 12:19 09.09.2019
2229 Clouds 30 1010 58 8000 4 40 11:46 09.09.2019
2230 Rain 31 1009 58 6000 3 90 11:22 09.09.2019
2231 Clouds 31 1009 58 6000 3 90 11:22 09.09.2019
2232 Rain 31 1009 58 6000 3 90 10:58 09.09.2019
2233 Rain 32 1009 52 6000 2 100 10:39 09.09.2019
2234 Clouds 32 1009 52 6000 3 120 10:20 09.09.2019
2235 Clouds 34 1009 49 6000 3 70 09:56 09.09.2019
2236 Clouds 34 1009 49 6000 3 70 09:37 09.09.2019
2237 Clouds 34 1009 52 6000 3 110 09:18 09.09.2019
2238 Clouds 34 1009 52 6000 3 80 08:38 09.09.2019
2239 Clouds 33 1009 52 6000 3 90 08:19 09.09.2019
2240 Clouds 34 1010 52 6000 2 0 07:45 09.09.2019
2241 Clouds 34 1010 52 6000 2 0 07:22 09.09.2019
2242 Clouds 34 1010 52 6000 2 0 06:56 09.09.2019
2243 Haze 33 1010 52 5000 2 40 06:31 09.09.2019
2244 Haze 32 1011 62 4000 3 70 04:54 09.09.2019
2245 Haze 28 1010 65 4000 3 110 02:43 09.09.2019
2246 Mist 27 1010 78 4600 1 40 01:50 09.09.2019
2247 Mist 25 1009 83 4500 2 10 00:39 09.09.2019
2248 Haze 25 1009 78 5000 2 90 00:21 09.09.2019
2249 Clouds 25 1009 78 6000 1 0 23:44 08.09.2019
2250 Clouds 26 1008 78 6000 1 0 23:23 08.09.2019
2251 Clouds 25 1008 73 7000 1 0 22:55 08.09.2019
2252 Clouds 25 1008 73 7000 1 0 22:36 08.09.2019
2253 Clouds 25 1008 73 7000 1 0 22:36 08.09.2019
2254 Clouds 25 1007 73 8000 2 100 22:18 08.09.2019
2255 Clear 26 1007 73 10000 2 100 21:41 08.09.2019
2256 Clear 26 1007 73 10000 2 100 21:22 08.09.2019
2257 Clear 26 1007 73 10000 2 80 20:57 08.09.2019
2258 Clear 26 1007 73 10000 2 80 20:38 08.09.2019
2259 Clear 27 1007 69 10000 2 90 20:20 08.09.2019
2260 Clear 27 1007 69 10000 2 90 19:57 08.09.2019
2261 Clear 27 1007 73 10000 2 90 19:37 08.09.2019
2262 Clear 27 1007 69 10000 2 100 19:19 08.09.2019
2263 Clear 28 1007 69 10000 2 90 18:56 08.09.2019
2264 Clear 28 1007 69 10000 2 90 18:37 08.09.2019
2265 Clear 28 1007 65 10000 2 90 18:18 08.09.2019
2266 Clear 28 1007 65 10000 2 90 17:54 08.09.2019
2267 Clear 29 1007 65 10000 2 90 17:36 08.09.2019
2268 Clear 29 1007 61 10000 2 90 17:18 08.09.2019
2269 Clear 29 1006 65 10000 1 0 16:42 08.09.2019
2270 Clear 29 1006 65 10000 2 100 16:21 08.09.2019
2271 Clear 29 1006 65 10000 2 100 15:58 08.09.2019
2272 Clear 29 1006 69 10000 2 90 15:39 08.09.2019
2273 Clear 30 1006 61 10000 2 120 15:21 08.09.2019
2274 Clear 31 1006 51 10000 2 160 14:55 08.09.2019
2275 Clear 31 1006 51 10000 2 160 14:36 08.09.2019
2276 Clear 32 1005 51 10000 2 150 14:18 08.09.2019
2277 Clear 32 1005 51 10000 2 150 13:55 08.09.2019
2278 Clear 32 1005 48 10000 2 150 13:36 08.09.2019
2279 Clear 33 1004 43 10000 2 160 13:18 08.09.2019
2280 Clear 34 1004 32 10000 5 170 12:41 08.09.2019
2281 Clear 35 1003 30 10000 5 180 12:23 08.09.2019
2282 Clear 35 1003 30 10000 5 180 11:58 08.09.2019
2283 Clear 36 1003 28 10000 5 160 11:38 08.09.2019
2284 Clear 37 1003 26 10000 4 140 11:19 08.09.2019
2285 Clear 36 1003 25 10000 2 150 10:55 08.09.2019
2286 Clear 37 1003 25 10000 2 150 10:37 08.09.2019
2287 Clear 37 1003 25 10000 2 0 10:18 08.09.2019
2288 Clear 37 1003 23 10000 2 140 09:38 08.09.2019
2289 Clear 37 1003 25 10000 3 170 09:20 08.09.2019
2290 Clear 37 1003 25 10000 3 170 08:56 08.09.2019
2291 Clear 37 1004 25 10000 2 90 08:37 08.09.2019
2292 Clear 37 1004 26 10000 2 0 08:18 08.09.2019
2293 Clear 38 1004 26 10000 2 80 07:38 08.09.2019
2294 Clear 37 1004 28 10000 1 0 07:20 08.09.2019
2295 Clear 38 1005 30 10000 3 10 06:47 08.09.2019
2296 Clear 36 1005 34 10000 2 0 06:18 08.09.2019
2297 Clear 35 1005 38 10000 2 0 05:36 08.09.2019
2298 Clear 32 1005 48 10000 1 0 03:53 08.09.2019
2299 Clear 29 1006 57 10000 2 10 02:55 08.09.2019
2300 Clouds 27 1005 65 8000 2 10 02:26 08.09.2019
2301 Clouds 26 1005 88 8000 1 30 01:39 08.09.2019
2302 Clouds 27 997 62 0 2.11 323.791 01:18 08.09.2019
2303 Clouds 25 1004 88 8000 1 360 00:42 08.09.2019
2304 Clouds 23 1004 94 8000 1 0 00:23 08.09.2019
2305 Clear 23 1004 88 10000 2 10 23:38 07.09.2019
2306 Clear 23 1003 88 10000 1 360 23:19 07.09.2019
2307 Clear 23 1003 88 10000 1 360 22:57 07.09.2019
2308 Clear 24 1003 88 10000 1 30 22:37 07.09.2019
2309 Clear 23 1003 88 10000 1 40 22:19 07.09.2019
2310 Clear 23 1003 88 10000 2 50 21:41 07.09.2019
2311 Clear 24 1003 83 10000 1 0 21:23 07.09.2019
2312 Clear 25 1003 83 10000 1 0 20:54 07.09.2019
2313 Clear 24 1002 83 10000 1 360 20:36 07.09.2019
2314 Clear 25 1002 83 10000 2 360 20:18 07.09.2019
2315 Clear 25 1002 83 10000 2 360 19:54 07.09.2019
2316 Clear 26 1002 73 10000 2 70 19:36 07.09.2019
2317 Clear 26 1002 69 10000 2 80 19:18 07.09.2019
2318 Clear 26 1002 69 10000 2 90 18:54 07.09.2019
2319 Clear 26 1002 69 10000 2 90 18:36 07.09.2019
2320 Clear 27 1002 61 10000 2 100 18:18 07.09.2019
2321 Clear 27 1002 69 10000 2 90 17:41 07.09.2019
2322 Clear 27 1001 64 10000 1 0 17:19 07.09.2019
2323 Clear 27 1001 64 10000 1 0 16:59 07.09.2019
2324 Clear 28 1001 57 10000 2 90 16:41 07.09.2019
2325 Clear 28 1001 54 10000 2 150 16:20 07.09.2019
2326 Clear 29 1001 57 10000 2 150 15:48 07.09.2019
2327 Clear 29 1001 57 10000 2 100 15:26 07.09.2019
2328 Clear 30 1001 57 10000 2 150 15:26 07.09.2019
2329 Clear 29 1001 57 10000 2 100 14:58 07.09.2019
2330 Clear 30 994 43 0 2.78 259.086 14:37 07.09.2019
2331 Clear 31 1000 38 10000 3 180 14:19 07.09.2019
2332 Clear 31 1000 38 10000 3 180 13:58 07.09.2019
2333 Clear 32 999 35 10000 4 200 13:40 07.09.2019
2334 Clear 32 999 36 10000 4 200 13:22 07.09.2019
2335 Clear 33 999 32 10000 4 200 12:44 07.09.2019
2336 Clear 33 999 32 10000 4 200 12:26 07.09.2019
2337 Clear 34 999 32 10000 5 200 11:58 07.09.2019
2338 Clear 35 998 22 10000 4 190 11:39 07.09.2019
2339 Clear 35 999 23 10000 5 170 11:19 07.09.2019
2340 Clear 36 999 23 10000 3 200 10:41 07.09.2019
2341 Clear 36 999 23 10000 3 200 10:41 07.09.2019
2342 Clear 36 999 25 10000 3 180 10:22 07.09.2019
2343 Clear 36 999 25 10000 3 180 09:56 07.09.2019
2344 Clear 36 999 25 10000 2 180 09:38 07.09.2019
2345 Clear 36 999 28 10000 2 0 09:20 07.09.2019
2346 Clear 36 1000 30 10000 1 0 08:44 07.09.2019
2347 Clear 36 1000 30 10000 1 0 08:26 07.09.2019
2348 Clear 36 1001 34 10000 2 0 07:47 07.09.2019
2349 Clear 36 1001 34 10000 2 0 07:28 07.09.2019
2350 Clear 36 1002 36 10000 2 0 06:52 07.09.2019
2351 Clear 34 1003 40 10000 2 330 06:20 07.09.2019
2352 Clear 33 1004 45 10000 2 330 04:49 07.09.2019
2353 Clear 32 1004 45 10000 2 330 04:23 07.09.2019
2354 Clear 28 1005 65 8000 4 350 02:50 07.09.2019
2355 Clear 27 1005 69 7000 2 350 02:20 07.09.2019
2356 Clear 27 997 62 0 1.23 337.262 01:26 07.09.2019
2357 Clear 23 1006 93 7000 3 350 00:42 07.09.2019
2358 Clear 22 1006 93 7000 2 360 00:19 07.09.2019
2359 Clear 22 1006 93 7000 1 350 23:41 06.09.2019
2360 Clear 22 1006 93 7000 1 360 23:22 06.09.2019
2361 Clear 22 1006 93 7000 1 360 22:58 06.09.2019
2362 Clear 22 1006 93 7000 1 0 22:38 06.09.2019
2363 Clear 22 1006 88 7000 1 350 22:19 06.09.2019
2364 Clear 23 1006 88 7000 1 350 21:58 06.09.2019
2365 Clear 23 1006 88 7000 1 0 21:39 06.09.2019
2366 Clear 23 1006 83 7000 1 0 21:21 06.09.2019
2367 Clear 24 1006 83 7000 1 0 20:58 06.09.2019
2368 Clear 23 1006 88 7000 1 0 20:39 06.09.2019
2369 Clear 23 1006 88 7000 1 70 20:21 06.09.2019
2370 Clear 23 1006 88 7000 1 70 19:57 06.09.2019
2371 Clear 23 1006 83 8000 1 20 19:39 06.09.2019
2372 Clear 24 1006 78 8000 1 10 19:20 06.09.2019
2373 Clear 25 1007 78 10000 1 60 18:46 06.09.2019
2374 Clear 25 1007 73 10000 2 80 18:25 06.09.2019
2375 Clear 25 1007 69 10000 1 0 17:59 06.09.2019
2376 Clear 25 1007 69 10000 1 0 17:59 06.09.2019
2377 Clear 25 1007 69 10000 1 0 17:38 06.09.2019
2378 Clear 27 1007 61 10000 2 120 17:19 06.09.2019
2379 Clear 25 1007 78 10000 2 110 16:41 06.09.2019
2380 Clear 27 1007 73 10000 1 0 16:19 06.09.2019
2381 Clear 28 1007 69 10000 1 150 15:44 06.09.2019
2382 Clear 28 1007 69 10000 1 150 15:26 06.09.2019
2383 Clear 28 1007 65 10000 2 150 14:59 06.09.2019
2384 Clear 28 1006 57 10000 2 160 14:39 06.09.2019
2385 Clear 28 1006 57 10000 2 140 14:18 06.09.2019
2386 Clear 30 1006 51 10000 2 150 13:43 06.09.2019
2387 Clear 31 1006 45 10000 3 150 13:22 06.09.2019
2388 Clear 32 1005 40 10000 3 140 12:39 06.09.2019
2389 Clear 33 1005 38 10000 3 140 12:21 06.09.2019
2390 Clear 33 1005 38 10000 3 140 11:57 06.09.2019
2391 Clear 34 1005 33 10000 3 180 11:39 06.09.2019
2392 Clear 34 1005 31 10000 3 180 11:20 06.09.2019
2393 Clear 34 1005 32 10000 3 160 10:42 06.09.2019
2394 Clear 35 1005 30 10000 3 180 10:22 06.09.2019
2395 Clear 34 1005 30 10000 3 180 09:58 06.09.2019
2396 Clear 34 1005 33 10000 3 140 09:37 06.09.2019
2397 Clear 35 1006 33 10000 3 0 09:18 06.09.2019
2398 Clear 34 1006 36 10000 1 0 08:44 06.09.2019
2399 Clear 34 1006 36 10000 1 0 08:26 06.09.2019
2400 Clear 35 1007 40 10000 2 0 07:51 06.09.2019
2401 Clear 34 1007 40 10000 2 0 07:28 06.09.2019
2402 Clear 34 1008 40 10000 2 0 06:59 06.09.2019
2403 Clear 34 1008 40 10000 2 0 06:33 06.09.2019
2404 Clear 33 1008 48 10000 2 100 05:45 06.09.2019
2405 Clear 32 1009 45 10000 1 0 04:54 06.09.2019
2406 Clear 32 1009 51 10000 1 0 04:25 06.09.2019
2407 Clear 27 1009 64 6000 1 0 02:44 06.09.2019
2408 Mist 24 1008 93 5000 1 30 00:58 06.09.2019
2409 Clear 21 1008 93 6000 0.56 356.706 00:22 06.09.2019
2410 Clear 21 1008 93 7000 1 0 23:41 05.09.2019
2411 Clear 21 1008 93 8000 1 10 23:22 05.09.2019
2412 Clear 21 1008 93 10000 0.56 356.706 22:46 05.09.2019
2413 Clear 21 1008 93 10000 0.56 356.706 22:46 05.09.2019
2414 Clear 21 1008 93 10000 0.56 356.706 22:26 05.09.2019
2415 Clear 21 1008 88 10000 1 350 21:58 05.09.2019
2416 Clear 22 1007 82 10000 0.56 356.706 21:39 05.09.2019
2417 Clear 22 1007 77 10000 1 10 21:20 05.09.2019
2418 Clear 22 1007 77 10000 1 10 21:20 05.09.2019
2419 Clear 22 1007 77 10000 1 10 20:58 05.09.2019
2420 Clear 22 1008 82 10000 1 0 20:39 05.09.2019
2421 Clear 22 1008 77 10000 1 0 20:20 05.09.2019
2422 Clear 22 1008 77 10000 1 0 19:57 05.09.2019
2423 Clear 23 1008 82 10000 2 90 19:39 05.09.2019
2424 Clear 23 1008 82 10000 2 50 19:20 05.09.2019
2425 Clear 23 1008 77 10000 2 70 18:45 05.09.2019
2426 Clear 24 1007 73 10000 1 140 18:27 05.09.2019
2427 Clear 24 1007 73 10000 1 140 17:59 05.09.2019
2428 Clear 24 1007 68 10000 2 160 17:40 05.09.2019
2429 Clear 25 1007 68 10000 2 160 17:22 05.09.2019
2430 Clear 25 1007 68 10000 2 160 16:57 05.09.2019
2431 Clear 25 1007 68 10000 1 150 16:39 05.09.2019
2432 Clear 27 1007 60 10000 2 160 16:19 05.09.2019
2433 Clear 28 1007 47 10000 2 190 15:40 05.09.2019
2434 Clear 28 1007 47 10000 2 190 15:40 05.09.2019
2435 Clear 29 1007 48 10000 2 190 15:19 05.09.2019
2436 Clear 29 1007 48 10000 2 190 14:58 05.09.2019
2437 Clear 29 1007 42 10000 3 190 14:40 05.09.2019
2438 Clear 30 1006 42 10000 3 190 14:20 05.09.2019
2439 Clear 30 1006 42 10000 3 190 13:43 05.09.2019
2440 Clear 30 1006 40 10000 4 190 13:23 05.09.2019
2441 Clear 31 1006 35 10000 4 200 12:54 05.09.2019
2442 Clear 31 1006 35 10000 4 200 12:36 05.09.2019
2443 Clear 31 1006 35 10000 4 200 12:36 05.09.2019
2444 Clear 31 1006 33 10000 4 210 12:18 05.09.2019
2445 Clear 33 1005 33 10000 3 170 11:43 05.09.2019
2446 Clear 33 1006 33 10000 3 200 11:19 05.09.2019
2447 Clear 33 1006 31 10000 4 230 10:42 05.09.2019
2448 Clear 34 1006 31 10000 3 210 10:23 05.09.2019
2449 Clear 33 1006 31 10000 3 210 09:58 05.09.2019
2450 Clear 33 1006 31 10000 3 0 09:40 05.09.2019
2451 Clear 33 1006 33 10000 3 230 09:19 05.09.2019
2452 Clear 34 1007 38 10000 4 130 08:46 05.09.2019
2453 Clear 33 1007 38 10000 4 130 08:27 05.09.2019
2454 Clear 33 1007 40 10000 1 0 07:48 05.09.2019
2455 Clear 33 1007 40 10000 1 0 07:29 05.09.2019
2456 Clear 33 1007 43 10000 3 200 06:58 05.09.2019
2457 Clear 33 1008 45 10000 2 260 06:32 05.09.2019
2458 Clear 32 1008 48 10000 2 280 05:51 05.09.2019
2459 Clear 32 1008 48 10000 2 280 05:32 05.09.2019
2460 Clear 32 1009 61 8000 2 10 04:55 05.09.2019
2461 Clear 31 1009 61 8000 2 10 04:29 05.09.2019
2462 Clear 28 1009 61 7000 2 360 03:40 05.09.2019
2463 Clouds 26 1009 73 6000 3 350 02:54 05.09.2019
2464 Clouds 27 1009 73 6000 3 350 02:27 05.09.2019
2465 Clouds 26 1000 71 0 1 80.029 01:41 05.09.2019
2466 Mist 23 1009 93 5000 0.78 66.484 00:48 05.09.2019
2467 Clouds 21 1009 93 6000 1 40 00:22 05.09.2019
2468 Clouds 22 1009 93 6000 1 10 23:57 04.09.2019
2469 Clouds 21 1009 93 6000 1 10 23:39 04.09.2019
2470 Clouds 21 1008 93 6000 0.77 4.302 23:18 04.09.2019
2471 Clouds 21 1008 93 6000 0.77 4.302 23:18 04.09.2019
2472 Clouds 21 1008 93 6000 0.77 4.302 22:47 04.09.2019
2473 Clouds 21 1008 93 7000 0.77 4.302 22:19 04.09.2019
2474 Clouds 21 1009 93 7000 0.73 6.549 21:41 04.09.2019
2475 Clouds 22 1009 93 6000 1 0 21:21 04.09.2019
2476 Clouds 22 1009 93 6000 1 0 20:58 04.09.2019
2477 Clouds 22 1009 93 6000 1 0 20:58 04.09.2019
2478 Clouds 22 1009 88 8000 1 60 20:40 04.09.2019
2479 Clouds 22 1009 88 8000 1 50 20:19 04.09.2019
2480 Clouds 22 1009 88 8000 1 50 19:58 04.09.2019
2481 Clear 23 1009 82 10000 1 80 19:39 04.09.2019
2482 Clear 23 1009 82 10000 1 80 19:20 04.09.2019
2483 Clear 23 1010 88 10000 2 60 18:39 04.09.2019
2484 Clear 24 1010 88 10000 1 0 18:20 04.09.2019
2485 Clear 24 1010 83 10000 1 0 17:55 04.09.2019
2486 Clear 24 1010 83 10000 1 0 17:55 04.09.2019
2487 Clear 24 1010 83 10000 1 0 17:36 04.09.2019
2488 Clear 24 1010 82 10000 1 70 17:18 04.09.2019
2489 Clear 25 1010 77 10000 1.61 256.928 16:46 04.09.2019
2490 Clear 25 1010 77 10000 1.61 256.928 16:28 04.09.2019
2491 Clear 25 1010 73 10000 1 120 15:58 04.09.2019
2492 Clear 26 1010 73 10000 1 0 15:39 04.09.2019
2493 Clear 27 1010 69 10000 1 0 15:20 04.09.2019
2494 Clear 27 1009 64 10000 2 160 14:56 04.09.2019
2495 Clear 27 1009 64 10000 2 160 14:37 04.09.2019
2496 Clear 28 1009 57 10000 2 140 14:19 04.09.2019
2497 Clear 28 1009 51 10000 3 140 13:40 04.09.2019
2498 Clear 29 1009 51 10000 3 140 13:22 04.09.2019
2499 Clear 29 1009 51 10000 3 140 12:59 04.09.2019
2500 Clear 30 1009 51 10000 3 140 12:39 04.09.2019
2501 Clear 30 1009 48 10000 4 140 12:21 04.09.2019
2502 Clear 31 1009 51 10000 3 140 11:55 04.09.2019
2503 Clear 30 1009 51 10000 3 140 11:37 04.09.2019
2504 Clear 30 1009 51 10000 4 140 11:18 04.09.2019
2505 Clear 31 1009 51 10000 4 150 10:44 04.09.2019
2506 Clear 31 1009 51 10000 4 150 10:25 04.09.2019
2507 Clear 31 1009 48 10000 5 140 09:57 04.09.2019
2508 Clear 31 1009 48 10000 4 130 09:39 04.09.2019
2509 Clear 32 1010 43 10000 1 0 09:18 04.09.2019
2510 Clear 32 1010 43 10000 2 0 08:41 04.09.2019
2511 Clear 32 1010 43 10000 2 0 08:23 04.09.2019
2512 Clear 32 1010 43 10000 2 0 08:23 04.09.2019
2513 Clear 33 1011 45 10000 2 0 07:56 04.09.2019
2514 Clear 33 1011 45 10000 2 0 07:33 04.09.2019
2515 Clear 33 1012 48 10000 2 0 06:49 04.09.2019
2516 Clear 32 1012 48 10000 2 0 06:21 04.09.2019
2517 Clouds 31 1013 54 8000 2 110 04:53 04.09.2019
2518 Clouds 31 1013 61 8000 1 0 04:19 04.09.2019
2519 Mist 25 1013 88 5000 1 60 01:49 04.09.2019
2520 Clear 24 1013 88 6000 2 350 00:55 04.09.2019
2521 Clear 22 1013 88 6000 2 350 00:35 04.09.2019
2522 Clear 22 1013 88 7000 1 0 23:56 03.09.2019
2523 Clear 22 1013 88 7000 1 0 23:38 03.09.2019
2524 Clear 22 1013 88 8000 1 0 23:19 03.09.2019
2525 Clear 22 1013 82 8000 1 0 22:40 03.09.2019
2526 Clear 23 1013 83 8000 2 80 22:22 03.09.2019
2527 Clear 23 1013 83 8000 2 80 22:22 03.09.2019
2528 Clouds 23 1013 83 8000 2 80 21:56 03.09.2019
2529 Clear 23 1013 83 10000 2 80 21:38 03.09.2019
2530 Clear 23 1013 83 10000 1 0 21:20 03.09.2019
2531 Clear 23 1013 83 10000 2 90 20:43 03.09.2019
2532 Clear 24 1013 78 10000 1 70 20:24 03.09.2019
2533 Clear 24 1013 78 10000 1 70 20:24 03.09.2019
2534 Clear 24 1013 78 10000 2 80 19:57 03.09.2019
2535 Clear 24 1013 78 10000 2 80 19:38 03.09.2019
2536 Clear 24 1013 78 10000 2 80 19:19 03.09.2019
2537 Clear 24 1013 78 10000 2 50 18:56 03.09.2019
2538 Clear 25 1013 78 10000 2 50 18:38 03.09.2019
2539 Clear 25 1013 73 10000 2 100 18:18 03.09.2019
2540 Clear 25 1013 73 10000 2 90 17:42 03.09.2019
2541 Clear 26 1013 69 10000 1 100 17:21 03.09.2019
2542 Clear 26 1013 69 10000 1 100 16:59 03.09.2019
2543 Clear 26 1013 73 10000 2 100 16:39 03.09.2019
2544 Clear 26 1013 69 10000 2 80 16:21 03.09.2019
2545 Clear 28 1013 73 10000 2 110 15:41 03.09.2019
2546 Clear 28 1012 64 10000 1 0 15:22 03.09.2019
2547 Clear 28 1012 64 10000 1 0 14:58 03.09.2019
2548 Clear 29 1012 61 10000 2 140 14:40 03.09.2019
2549 Clear 29 1012 61 10000 2 140 14:21 03.09.2019
2550 Clear 28 1012 61 10000 2 140 13:57 03.09.2019
2551 Clear 28 1012 61 10000 2 140 13:57 03.09.2019
2552 Clear 30 1011 48 10000 2 150 13:37 03.09.2019
2553 Clear 31 1011 42 10000 4 170 13:19 03.09.2019
2554 Clear 31 1011 40 10000 4 160 12:56 03.09.2019
2555 Clear 32 1011 40 10000 4 160 12:38 03.09.2019
2556 Clear 33 1011 38 10000 4 160 12:20 03.09.2019
2557 Clear 34 1011 36 10000 4 170 11:42 03.09.2019
2558 Clear 34 1011 36 10000 4 170 11:22 03.09.2019
2559 Clear 34 1011 36 10000 3 140 10:57 03.09.2019
2560 Clear 34 1011 34 10000 3 0 10:38 03.09.2019
2561 Clear 34 1011 36 10000 2 0 10:20 03.09.2019
2562 Clear 34 1012 36 10000 1 0 09:44 03.09.2019
2563 Clear 34 1012 36 10000 1 0 09:25 03.09.2019
2564 Clear 34 1012 36 10000 2 0 08:55 03.09.2019
2565 Clear 34 1013 36 10000 3 240 08:36 03.09.2019
2566 Clear 34 1013 38 10000 2 0 08:18 03.09.2019
2567 Clear 35 1013 40 8000 1 0 07:40 03.09.2019
2568 Clear 35 1013 40 8000 1 0 07:40 03.09.2019
2569 Clear 34 1014 43 8000 2 0 07:22 03.09.2019
2570 Clear 34 1014 45 8000 2 100 06:44 03.09.2019
2571 Clear 32 1015 51 8000 1 0 05:53 03.09.2019
2572 Clear 29 1016 61 10000 1 0 03:36 03.09.2019
2573 Clear 28 1016 64 8000 1 0 02:44 03.09.2019
2574 Clear 23 1016 73 8000 1 0 02:23 03.09.2019
2575 Clear 25 1016 88 8000 1 360 01:49 03.09.2019
2576 Clear 25 1016 88 8000 1 360 01:29 03.09.2019
2577 Clear 22 1016 93 8000 1 10 00:40 03.09.2019
2578 Clear 18 1015 88 8000 1 10 00:20 03.09.2019
2579 Clear 18 1015 88 10000 1 360 23:40 02.09.2019
2580 Clear 18 1015 88 10000 1 60 23:20 02.09.2019
2581 Clear 18 1015 88 10000 1 60 22:56 02.09.2019
2582 Clear 19 1015 82 10000 1 0 22:38 02.09.2019
2583 Clear 19 1015 82 10000 1 0 22:38 02.09.2019
2584 Clear 20 1015 77 10000 1 0 22:19 02.09.2019
2585 Clear 20 1015 77 10000 1 0 21:57 02.09.2019
2586 Clear 20 1015 82 10000 2 80 21:38 02.09.2019
2587 Clear 19 1015 82 10000 2 70 21:20 02.09.2019
2588 Clear 25 1015 82 10000 2 70 20:57 02.09.2019
2589 Clear 24 1015 82 10000 2 40 20:39 02.09.2019
2590 Clear 23 1015 82 10000 2 70 20:18 02.09.2019
2591 Clear 23 1015 82 10000 2 70 20:18 02.09.2019
2592 Clear 23 1015 82 10000 2 70 19:55 02.09.2019
2593 Clear 23 1015 82 10000 2 70 19:55 02.09.2019
2594 Clear 23 1015 82 10000 2 70 19:37 02.09.2019
2595 Clear 23 1015 82 10000 2 60 19:19 02.09.2019
2596 Clear 24 1015 82 10000 2 40 18:39 02.09.2019
2597 Clear 24 1015 77 10000 1 140 18:21 02.09.2019
2598 Clear 24 1015 77 10000 1 0 17:57 02.09.2019
2599 Clear 25 1015 77 10000 1 0 17:39 02.09.2019
2600 Clear 25 1015 73 10000 1 0 17:19 02.09.2019
2601 Clear 26 1015 64 10000 1 0 16:42 02.09.2019
2602 Clear 26 1015 60 10000 1 0 16:23 02.09.2019
2603 Clear 26 1015 60 10000 1 0 15:59 02.09.2019
2604 Clear 28 1015 47 10000 2 170 15:41 02.09.2019
2605 Clear 29 1015 42 10000 3 190 15:21 02.09.2019
2606 Clear 29 1015 42 10000 3 190 14:56 02.09.2019
2607 Clear 29 1014 39 10000 3 180 14:37 02.09.2019
2608 Clear 29 1014 44 10000 2 160 14:19 02.09.2019
2609 Clear 30 1014 42 10000 3 170 13:45 02.09.2019
2610 Clear 30 1013 37 10000 3 170 13:25 02.09.2019
2611 Clear 30 1013 37 10000 3 170 13:25 02.09.2019
2612 Clear 31 1013 33 10000 4 170 12:56 02.09.2019
2613 Clear 31 1013 33 10000 4 170 12:38 02.09.2019
2614 Clear 33 1013 29 10000 4 160 12:18 02.09.2019
2615 Clear 33 1013 27 10000 4 170 11:55 02.09.2019
2616 Clear 34 1013 27 10000 4 170 11:36 02.09.2019
2617 Clear 33 1013 26 10000 4 180 11:18 02.09.2019
2618 Clear 34 1013 26 10000 4 200 10:42 02.09.2019
2619 Clear 34 1013 26 10000 5 200 10:22 02.09.2019
2620 Clear 34 1013 26 10000 5 200 09:58 02.09.2019
2621 Clear 34 1014 26 10000 4 200 09:38 02.09.2019
2622 Clear 34 1014 24 10000 5 190 09:20 02.09.2019
2623 Clear 33 1014 27 10000 5 170 08:42 02.09.2019
2624 Clear 34 1015 31 10000 4 190 08:21 02.09.2019
2625 Clear 35 1015 35 10000 2 0 07:56 02.09.2019
2626 Clear 34 1015 35 10000 2 0 07:37 02.09.2019
2627 Clear 34 1015 40 10000 2 0 07:18 02.09.2019
2628 Clear 33 1016 38 10000 3 210 06:41 02.09.2019
2629 Clear 32 1016 42 10000 2 280 05:53 02.09.2019
2630 Clear 32 1016 42 10000 2 280 05:24 02.09.2019
2631 Clear 32 1017 45 10000 2 330 04:48 02.09.2019
2632 Clear 26 1017 73 10000 2 350 01:59 02.09.2019
2633 Clear 25 1017 82 10000 2 360 01:28 02.09.2019
2634 Clear 21 1016 88 10000 2 360 00:36 02.09.2019
2635 Clear 21 1016 88 10000 3 350 00:18 02.09.2019
2636 Clear 20 1016 88 10000 1 350 23:39 01.09.2019
2637 Clear 20 1016 88 10000 0.74 38.672 23:19 01.09.2019
2638 Clear 20 1016 88 10000 0.74 38.672 22:56 01.09.2019
2639 Clear 21 1016 88 10000 0.74 38.672 22:38 01.09.2019
2640 Clear 21 1016 88 10000 0.74 38.672 22:38 01.09.2019
2641 Clear 20 1016 88 10000 1 40 22:18 01.09.2019
2642 Clear 21 1016 82 10000 1 360 21:42 01.09.2019
2643 Clear 21 1016 77 10000 1 10 21:23 01.09.2019
2644 Clear 21 1016 77 10000 1 10 21:23 01.09.2019
2645 Clear 22 1016 77 10000 1 10 20:58 01.09.2019
2646 Clear 21 1015 88 10000 2 100 20:39 01.09.2019
2647 Clear 22 1016 82 10000 2 70 20:19 01.09.2019
2648 Clear 22 1016 82 10000 2 70 19:59 01.09.2019
2649 Clear 22 1016 82 10000 2 70 19:40 01.09.2019
2650 Clear 23 1016 77 10000 2 70 19:21 01.09.2019
2651 Clear 23 1015 82 10000 1 0 18:48 01.09.2019
2652 Clear 23 1015 77 10000 1 0 18:30 01.09.2019
2653 Clear 23 1016 72 10000 1 0 17:59 01.09.2019
2654 Clear 24 1016 72 10000 1 0 17:39 01.09.2019
2655 Clear 24 1016 73 10000 1 0 17:21 01.09.2019
2656 Clear 25 1015 73 10000 2 50 16:41 01.09.2019
2657 Clear 26 1015 68 10000 1 0 16:22 01.09.2019
2658 Clear 27 1015 68 10000 1 0 15:59 01.09.2019
2659 Clear 26 1015 64 10000 1 0 15:41 01.09.2019
2660 Clear 27 1015 64 10000 1 0 15:23 01.09.2019
2661 Clear 27 1015 53 10000 1 0 14:44 01.09.2019
2662 Clear 27 1015 53 10000 1 0 14:26 01.09.2019
2663 Clear 27 1014 41 10000 3 170 13:59 01.09.2019
2664 Clear 29 1014 33 10000 3 0 13:41 01.09.2019
2665 Clear 29 1013 30 10000 3 180 13:23 01.09.2019
2666 Clear 30 1013 30 10000 1 0 12:44 01.09.2019
2667 Clear 31 1013 30 10000 1 0 12:26 01.09.2019
2668 Clear 32 1013 33 10000 2 50 11:58 01.09.2019
2669 Clear 34 1013 26 10000 2 0 11:38 01.09.2019
2670 Clear 34 1013 26 10000 2 230 11:19 01.09.2019
2671 Clouds 33 1013 27 10000 3 0 10:45 01.09.2019
2672 Clouds 33 1013 24 10000 4 210 10:23 01.09.2019
2673 Clouds 34 1013 24 10000 5 190 09:48 01.09.2019
2674 Clouds 33 1013 24 10000 5 190 09:26 01.09.2019
2675 Clouds 33 1013 24 10000 5 190 09:26 01.09.2019
2676 Clouds 33 1013 26 10000 4 190 08:58 01.09.2019
2677 Clouds 33 1013 27 10000 3 0 08:39 01.09.2019
2678 Clouds 33 1014 24 10000 4 210 08:20 01.09.2019
2679 Clear 34 1014 27 10000 3 0 07:42 01.09.2019
2680 Clear 34 1014 35 10000 3 160 07:21 01.09.2019
2681 Clear 33 1015 40 10000 3 0 06:39 01.09.2019
2682 Clear 32 1016 42 10000 3 200 05:59 01.09.2019
2683 Clear 32 1016 42 10000 3 200 05:59 01.09.2019
2684 Clear 31 1016 47 10000 1 0 04:53 01.09.2019
2685 Clear 30 1016 50 10000 1 0 03:51 01.09.2019
2686 Clear 29 1016 50 10000 1 0 03:32 01.09.2019
2687 Clear 27 1015 60 10000 1 0 02:40 01.09.2019
2688 Clear 25 1015 64 10000 1 0 02:22 01.09.2019
2689 Clear 26 1015 77 10000 1 30 01:30 01.09.2019
2690 Clear 23 1015 82 10000 1 360 00:59 01.09.2019
2691 Clear 22 1015 88 10000 1 30 00:40 01.09.2019
2692 Clear 21 1014 88 10000 1 30 00:20 01.09.2019
2693 Clear 20 1014 88 10000 1 0 23:43 31.08.2019
2694 Clear 20 1014 88 10000 1 60 23:21 31.08.2019
2695 Clear 21 1014 88 10000 1 60 22:56 31.08.2019
2696 Clear 21 1014 88 10000 1 0 22:37 31.08.2019
2697 Clear 21 1014 88 10000 2 360 22:19 31.08.2019
2698 Clear 22 1014 77 10000 2 70 21:44 31.08.2019
2699 Clear 22 1014 77 10000 2 70 21:23 31.08.2019
2700 Clear 22 1014 77 10000 2 90 20:59 31.08.2019
2701 Clear 23 1014 72 10000 2 60 20:41 31.08.2019
2702 Clear 23 1014 72 10000 2 60 20:41 31.08.2019
2703 Clear 23 1014 72 10000 2 110 20:23 31.08.2019
2704 Clear 23 1014 72 10000 2 110 20:23 31.08.2019
2705 Clear 24 1014 60 10000 1 0 19:43 31.08.2019
2706 Clear 24 1014 60 10000 1 0 19:22 31.08.2019
2707 Clear 26 1014 44 10000 3 200 18:58 31.08.2019
2708 Clear 26 1014 44 10000 3 200 18:38 31.08.2019
2709 Clear 26 1014 44 10000 4 190 18:19 31.08.2019
2710 -273 0 0 0 0 0 17:55 31.08.2019
2711 Clear 27 1014 44 10000 4 180 17:37 31.08.2019
2712 Clear 27 1014 42 10000 4 190 17:18 31.08.2019
2713 Clear 27 1014 42 10000 4 180 16:55 31.08.2019
2714 Clear 27 1014 42 10000 4 180 16:36 31.08.2019
2715 Clear 27 1014 42 10000 5 180 16:18 31.08.2019
2716 Clear 27 1013 42 10000 4 170 15:41 31.08.2019
2717 Clear 28 1013 39 10000 3 190 15:19 31.08.2019
2718 Clear 28 1013 37 10000 4 200 14:44 31.08.2019
2719 Clear 29 1013 37 10000 4 200 14:26 31.08.2019
2720 Clear 29 1013 37 10000 4 200 14:26 31.08.2019
2721 Clear 29 1012 37 10000 4 200 13:59 31.08.2019
2722 Clear 29 1012 44 10000 2 160 13:39 31.08.2019
2723 Clear 29 1012 42 10000 2 160 13:21 31.08.2019
2724 Clear 30 1012 35 10000 2 120 12:56 31.08.2019
2725 Clear 30 1012 35 10000 2 120 12:38 31.08.2019
2726 Clear 31 1012 22 10000 1 0 12:18 31.08.2019
2727 Clear 33 1012 21 10000 3 0 11:44 31.08.2019
2728 Clear 33 1012 21 10000 3 0 11:26 31.08.2019
2729 Clear 33 1012 21 10000 2 180 10:57 31.08.2019
2730 Clear 33 1012 22 10000 2 240 10:39 31.08.2019
2731 Clear 33 1012 22 10000 3 200 10:18 31.08.2019
2732 Clear 33 1012 25 10000 3 150 09:40 31.08.2019
2733 Clear 33 1012 25 10000 3 220 09:22 31.08.2019
2734 Clear 33 1012 25 10000 3 220 08:58 31.08.2019
2735 Clear 33 1012 25 10000 3 220 08:58 31.08.2019
2736 Clear 33 1012 29 10000 2 0 08:39 31.08.2019
2737 Clear 33 1013 29 10000 2 230 08:20 31.08.2019
2738 Clear 33 1013 31 10000 2 280 07:39 31.08.2019
2739 Clear 32 1013 33 10000 2 0 07:18 31.08.2019
2740 Clear 32 1014 30 10000 1 0 06:27 31.08.2019
2741 Clear 32 1014 32 10000 2 0 05:55 31.08.2019
2742 Clear 30 1014 32 10000 2 0 05:29 31.08.2019
2743 Clear 31 1015 36 10000 3 30 04:29 31.08.2019
2744 Clear 28 1015 50 10000 2 360 03:42 31.08.2019
2745 Clear 24 1015 50 10000 2 350 02:23 31.08.2019
2746 Clear 26 1014 68 10000 2 350 01:49 31.08.2019
2747 Clear 26 1014 68 10000 2 350 01:49 31.08.2019
2748 Clear 25 1014 77 10000 2 360 01:31 31.08.2019
2749 Clear 23 1014 77 10000 2 360 00:47 31.08.2019
2750 Clear 21 1014 82 10000 2 360 00:27 31.08.2019
2751 Clear 21 1014 82 10000 2 360 00:27 31.08.2019
2752 Clear 20 1013 87 10000 1 350 23:51 30.08.2019
2753 Clear 20 1013 82 10000 2 360 23:20 30.08.2019
2754 Clear 20 1013 82 10000 2 360 23:20 30.08.2019
2755 Clear 20 1013 82 10000 2 360 22:59 30.08.2019
2756 Clear 20 1013 87 10000 1 360 22:39 30.08.2019
2757 Clear 20 1013 82 10000 1 350 22:21 30.08.2019
2758 Clear 21 1013 82 10000 1 350 21:57 30.08.2019
2759 Clear 21 1013 82 10000 1 350 21:57 30.08.2019
2760 Clear 21 1013 82 10000 1 20 21:37 30.08.2019
2761 Clear 21 1013 82 10000 1 20 21:37 30.08.2019
2762 Clear 21 1013 72 10000 2 350 21:18 30.08.2019
2763 Clear 22 1013 72 10000 2 350 20:56 30.08.2019
2764 Clear 22 1013 68 10000 1 0 20:38 30.08.2019
2765 Clear 22 1013 68 10000 2 90 20:19 30.08.2019
2766 Clear 23 1013 64 10000 3 70 19:55 30.08.2019
2767 Clear 23 1013 64 10000 3 70 19:36 30.08.2019
2768 Clear 23 1013 64 10000 3 70 19:18 30.08.2019
2769 Clear 23 1013 64 10000 3 70 19:18 30.08.2019
2770 Clear 25 1013 34 10000 2 230 18:44 30.08.2019
2771 Clear 26 1013 32 10000 3 210 18:24 30.08.2019
2772 Clear 26 1013 32 10000 3 210 18:24 30.08.2019
2773 Clear 26 1013 32 10000 3 200 17:57 30.08.2019
2774 Clear 26 1013 32 10000 3 200 17:39 30.08.2019
2775 Clear 26 1013 32 10000 4 210 17:19 30.08.2019
2776 Clear 26 1013 32 10000 4 210 17:19 30.08.2019
2777 Clear 27 1013 32 10000 5 200 16:49 30.08.2019
2778 Clear 27 1013 32 10000 5 200 16:29 30.08.2019
2779 Clear 27 1013 34 10000 3 200 15:59 30.08.2019
2780 Clear 27 1012 32 10000 3 190 15:39 30.08.2019
2781 Clear 28 1012 34 10000 3 200 15:20 30.08.2019
2782 Clear 28 1012 36 10000 3 170 14:45 30.08.2019
2783 Clear 28 1012 36 10000 3 170 14:26 30.08.2019
2784 Clear 28 1011 44 10000 3 170 13:56 30.08.2019
2785 Clear 27 1011 56 10000 2 90 13:38 30.08.2019
2786 Clear 29 1010 37 10000 2 100 13:20 30.08.2019
2787 Clear 30 1010 35 10000 2 110 12:44 30.08.2019
2788 Clear 31 1010 33 10000 2 120 12:25 30.08.2019
2789 -273 0 0 0 0 0 11:55 30.08.2019
2790 Clear 33 1010 25 10000 1 0 11:37 30.08.2019
2791 Clear 33 1010 29 10000 2 80 11:18 30.08.2019
2792 Clear 32 1010 29 10000 3 110 10:37 30.08.2019
2793 Clear 32 1010 27 10000 2 360 10:19 30.08.2019
2794 Clear 32 1010 27 10000 3 350 09:42 30.08.2019
2795 Clear 32 1011 27 10000 3 30 09:20 30.08.2019
2796 Clear 32 1011 27 10000 3 30 09:20 30.08.2019
2797 Clear 32 1011 27 10000 3 30 09:00 30.08.2019
2798 Clear 32 1011 27 10000 4 300 08:41 30.08.2019
2799 Clear 32 1011 29 10000 3 20 08:22 30.08.2019
2800 Clear 31 1012 25 10000 4 10 07:45 30.08.2019
2801 Clear 31 1012 27 10000 3 330 07:25 30.08.2019
2802 Clear 31 1012 33 10000 2 0 06:49 30.08.2019
2803 Clear 31 1012 33 10000 2 0 06:30 30.08.2019
2804 Clear 30 1013 35 10000 4 20 05:59 30.08.2019
2805 Clear 31 1013 32 10000 4 360 04:59 30.08.2019
2806 Clear 30 1013 39 10000 4 360 03:56 30.08.2019
2807 Clear 29 1013 36 10000 4 340 03:34 30.08.2019
2808 Clear 26 1012 44 10000 6 340 02:35 30.08.2019
2809 Clear 27 1012 46 10000 4 340 01:40 30.08.2019
2810 Clear 24 1012 63 10000 2 350 00:46 30.08.2019
2811 Clear 23 1012 59 10000 2 350 00:18 30.08.2019
2812 Clear 23 1011 59 10000 3 330 23:42 29.08.2019
2813 Clear 23 1011 56 10000 3 340 23:21 29.08.2019
2814 Clear 23 1011 56 10000 3 340 23:21 29.08.2019
2815 Clear 23 1011 56 10000 3 340 23:21 29.08.2019
2816 Clear 24 1005 47 0 0.45 315 22:45 29.08.2019
2817 Clear 24 1005 47 0 0.45 315 22:45 29.08.2019
2818 Clear 24 1005 47 0 0.45 315 22:45 29.08.2019
2819 Clear 24 1005 47 0 0.45 0 22:26 29.08.2019
2820 Clear 24 1005 47 0 0.45 0 22:26 29.08.2019
2821 Clear 24 1011 46 10000 6 330 21:58 29.08.2019
2822 Clear 24 1011 46 10000 6 330 21:58 29.08.2019
2823 Clear 24 1011 46 10000 6 330 21:58 29.08.2019
2824 Clear 24 1011 43 10000 7 320 21:40 29.08.2019
2825 Clear 24 1011 43 10000 6 330 21:21 29.08.2019
2826 Clear 24 1011 43 10000 6 330 20:57 29.08.2019
2827 Clear 24 1011 41 10000 6 320 20:38 29.08.2019
2828 Clear 24 1011 41 10000 6 320 20:18 29.08.2019
2829 Clear 24 1011 52 10000 4 340 19:47 29.08.2019
2830 Clear 24 1011 52 10000 4 340 19:26 29.08.2019
2831 Clear 24 1011 52 10000 3 350 18:57 29.08.2019
2832 Clear 24 1011 52 10000 2 360 18:39 29.08.2019
2833 Clear 24 1011 60 10000 1 0 18:18 29.08.2019
2834 Clear 24 1011 60 10000 1 0 17:54 29.08.2019
2835 Clear 25 1011 49 10000 2 360 17:36 29.08.2019
2836 Clear 25 1011 49 10000 4 340 17:18 29.08.2019
2837 Clear 25 1011 49 10000 4 340 17:18 29.08.2019
2838 Clear 26 1004 41 0 2.17 292.648 16:41 29.08.2019
2839 Clear 26 1004 41 0 2.17 292.648 16:41 29.08.2019
2840 Clear 26 1010 36 10000 6 330 16:23 29.08.2019
2841 Clear 27 1010 36 10000 6 330 15:41 29.08.2019
2842 Clear 27 1009 32 10000 5 330 15:21 29.08.2019
2843 Clear 28 1009 32 10000 5 330 14:58 29.08.2019
2844 Clear 28 1009 32 10000 6 330 14:40 29.08.2019
2845 Clear 27 1008 44 10000 3 320 14:20 29.08.2019
2846 Clear 27 1008 50 10000 1 0 13:57 29.08.2019
2847 Clear 27 1008 50 10000 1 0 13:38 29.08.2019
2848 Clear 28 1008 50 10000 1 30 13:18 29.08.2019
2849 Clear 28 1008 50 10000 1 30 12:56 29.08.2019
2850 Clear 30 1008 37 10000 1 0 12:38 29.08.2019
2851 Clear 31 1008 27 10000 3 360 12:19 29.08.2019
2852 Clear 32 1008 23 10000 4 340 11:42 29.08.2019
2853 Clear 32 1008 23 10000 5 340 11:21 29.08.2019
2854 Clear 33 1008 23 10000 5 340 10:57 29.08.2019
2855 Clear 32 1008 25 10000 5 330 10:38 29.08.2019
2856 Clear 32 1008 25 10000 5 340 10:20 29.08.2019
2857 Clear 31 1008 27 10000 3 360 09:41 29.08.2019
2858 Clear 31 1008 27 10000 3 360 09:41 29.08.2019
2859 Clear 31 1009 25 10000 3 350 09:19 29.08.2019
2860 Clear 31 1009 25 10000 3 350 08:56 29.08.2019
2861 Clear 31 1009 27 10000 4 10 08:31 29.08.2019
2862 Clear 30 1009 27 10000 3 40 07:59 29.08.2019
2863 Clear 30 1010 30 10000 5 10 07:41 29.08.2019
2864 Clear 30 1010 28 10000 5 360 07:23 29.08.2019
2865 Clear 30 1010 28 10000 5 350 06:41 29.08.2019
2866 Clear 29 1010 32 10000 5 340 05:54 29.08.2019
2867 Clear 29 1010 32 10000 5 340 05:33 29.08.2019
2868 Clear 29 1011 32 10000 6 330 04:49 29.08.2019
2869 Clear 29 1011 32 10000 6 330 04:28 29.08.2019
2870 Clear 25 1011 46 10000 2 360 02:21 29.08.2019
2871 Clear 25 1010 56 10000 1 360 01:41 29.08.2019
2872 Clear 23 1010 72 10000 2 60 00:52 29.08.2019
2873 Clear 21 1010 55 10000 2 10 00:25 29.08.2019
2874 Clear 21 1010 55 10000 2 10 23:59 28.08.2019
2875 Clear 21 1009 55 10000 3 360 23:41 28.08.2019
2876 Clear 21 1009 55 10000 4 360 23:22 28.08.2019
2877 Clear 21 1009 55 10000 4 360 22:57 28.08.2019
2878 Clear 21 1009 55 10000 2 360 22:38 28.08.2019
2879 Clear 21 1009 52 10000 2 360 22:18 28.08.2019
2880 Clear 22 1009 52 10000 2 360 21:54 28.08.2019
2881 Clear 21 1009 45 10000 3 360 21:36 28.08.2019
2882 Clear 22 1009 43 10000 5 340 21:18 28.08.2019
2883 Clear 22 1009 52 10000 4 350 20:40 28.08.2019
2884 Clear 23 1009 40 10000 5 330 20:22 28.08.2019
2885 Clear 23 1009 38 10000 5 310 19:44 28.08.2019
2886 Clear 23 1009 38 10000 5 310 19:23 28.08.2019
2887 Clear 24 1009 36 10000 6 310 18:59 28.08.2019
2888 Clear 25 1009 36 10000 6 310 18:41 28.08.2019
2889 Clear 25 1009 36 10000 6 310 18:21 28.08.2019
2890 Clear 25 1009 36 10000 6 320 17:39 28.08.2019
2891 Clear 26 1009 33 10000 7 310 17:20 28.08.2019
2892 Clear 26 1009 33 10000 7 310 16:58 28.08.2019
2893 Clear 26 1009 31 10000 7 320 16:40 28.08.2019
2894 Clear 25 1009 33 10000 8 320 16:18 28.08.2019
2895 Clear 27 1009 29 10000 7 320 15:39 28.08.2019
2896 Clear 27 1008 29 10000 8 310 15:20 28.08.2019
2897 Clear 27 1008 29 10000 8 310 14:58 28.08.2019
2898 Clear 27 1008 28 10000 8 310 14:40 28.08.2019
2899 Clear 28 1007 26 10000 10 320 14:21 28.08.2019
2900 Clear 28 1007 26 10000 10 320 13:59 28.08.2019
2901 Clear 28 1006 24 10000 9 330 13:39 28.08.2019
2902 Clear 29 1006 23 10000 8 340 13:20 28.08.2019
2903 Clear 29 1005 23 10000 9 340 12:44 28.08.2019
2904 Clear 30 1005 23 10000 9 340 12:26 28.08.2019
2905 Clear 32 1005 23 10000 8 320 11:59 28.08.2019
2906 Clear 32 1005 23 10000 7 310 11:40 28.08.2019
2907 Clear 32 1004 23 10000 8 300 11:21 28.08.2019
2908 Clear 32 1004 23 10000 8 300 10:56 28.08.2019
2909 Clear 32 1004 23 10000 8 300 10:56 28.08.2019
2910 Clear 32 1004 23 10000 8 300 10:56 28.08.2019
2911 Clear 32 1004 24 10000 8 310 10:37 28.08.2019
2912 Clear 32 1005 23 10000 8 290 10:19 28.08.2019
2913 Clear 32 1005 25 10000 7 290 09:41 28.08.2019
2914 Clear 32 1005 24 10000 8 300 09:21 28.08.2019
2915 Clear 32 1005 24 10000 8 300 08:55 28.08.2019
2916 Clear 32 1005 27 10000 5 290 08:36 28.08.2019
2917 Clear 32 1006 28 10000 6 300 08:18 28.08.2019
2918 Clear 32 1006 27 10000 7 280 07:37 28.08.2019
2919 Clear 32 1006 25 10000 8 290 07:19 28.08.2019
2920 Clear 32 1006 27 10000 7 290 06:46 28.08.2019
2921 Clear 31 1007 27 10000 9 290 05:52 28.08.2019
2922 Clear 31 1008 28 10000 6 300 04:40 28.08.2019
2923 Clear 29 1007 31 10000 5 290 01:57 28.08.2019
2924 Clear 29 1007 33 10000 6 300 01:30 28.08.2019
2925 Clear 26 1006 55 10000 2 350 00:50 28.08.2019
2926 Clear 24 1006 55 10000 2 350 00:32 28.08.2019
2927 Clear 22 1006 59 10000 3 360 23:44 27.08.2019
2928 Clear 19 1006 72 10000 1 0 23:22 27.08.2019
2929 Clear 18 1006 72 10000 1 0 22:59 27.08.2019
2930 Clear 21 1006 63 10000 1 0 22:41 27.08.2019
2931 Clear 21 1006 67 10000 1 0 22:21 27.08.2019
2932 Clear 20 1006 67 10000 1 0 21:56 27.08.2019
2933 Clear 23 1006 52 10000 1 0 21:38 27.08.2019
2934 Clear 24 1006 31 10000 3 290 21:19 27.08.2019
2935 Clear 24 1006 31 10000 3 290 20:56 27.08.2019
2936 Clear 25 1006 26 10000 3 290 20:37 27.08.2019
2937 Clear 25 1006 26 10000 3 280 20:19 27.08.2019
2938 Clear 25 1006 26 10000 4 270 19:43 27.08.2019
2939 Clear 26 1006 26 10000 4 270 19:25 27.08.2019
2940 Clear 25 1007 27 10000 4 270 18:56 27.08.2019
2941 Clear 26 1007 27 10000 4 270 18:37 27.08.2019
2942 Clear 26 1007 26 10000 3 280 18:18 27.08.2019
2943 Clear 28 1007 26 10000 4 290 17:43 27.08.2019
2944 Clear 28 1007 26 10000 4 290 17:24 27.08.2019
2945 Clear 28 1006 24 10000 5 290 16:57 27.08.2019
2946 Clear 28 1006 24 10000 4 270 16:38 27.08.2019
2947 Clear 29 1006 23 10000 3 0 16:19 27.08.2019
2948 Clear 29 1006 23 10000 3 220 15:42 27.08.2019
2949 Clear 29 1006 23 10000 3 0 15:23 27.08.2019
2950 Clear 30 1006 23 10000 3 0 14:59 27.08.2019
2951 Clear 30 1006 19 10000 5 250 14:41 27.08.2019
2952 Clear 30 1006 19 10000 5 250 14:41 27.08.2019
2953 Clear 31 1006 19 10000 5 250 14:23 27.08.2019
2954 Clear 31 1005 19 10000 5 280 13:43 27.08.2019
2955 Clear 32 1005 18 10000 6 270 13:24 27.08.2019
2956 Clear 32 1005 17 10000 7 270 12:56 27.08.2019
2957 Clear 33 1005 17 10000 7 270 12:37 27.08.2019
2958 Clear 33 1005 16 10000 8 280 12:19 27.08.2019
2959 Clear 34 1005 17 10000 7 280 11:44 27.08.2019
2960 Clear 35 1005 17 10000 7 280 11:25 27.08.2019
2961 Clear 34 1005 20 10000 7 270 10:46 27.08.2019
2962 Clear 35 1005 20 10000 7 270 10:22 27.08.2019
2963 Clear 35 1005 17 10000 5 290 09:59 27.08.2019
2964 Clear 35 1005 17 10000 5 280 09:39 27.08.2019
2965 Clear 35 1005 23 10000 4 300 09:20 27.08.2019
2966 Clear 35 1006 23 10000 3 300 08:55 27.08.2019
2967 Clear 35 1006 23 10000 3 300 08:37 27.08.2019
2968 Clear 35 1006 21 10000 3 340 08:18 27.08.2019
2969 Clear 35 1006 23 10000 5 350 07:40 27.08.2019
2970 Clear 34 1007 24 10000 4 350 07:19 27.08.2019
2971 Clear 34 1007 29 10000 3 340 06:54 27.08.2019
2972 Clear 34 1007 33 10000 4 330 06:25 27.08.2019
2973 Clear 33 1008 35 10000 5 320 05:42 27.08.2019
2974 Clear 32 1008 48 10000 4 330 04:43 27.08.2019
2975 Clear 29 1008 61 10000 3 340 03:35 27.08.2019
2976 Mist 25 1009 88 4500 3 340 02:23 27.08.2019
2977 Mist 25 1009 94 3000 3 350 01:40 27.08.2019
2978 Mist 24 1009 93 2900 3 350 01:21 27.08.2019
2979 Mist 23 1009 100 2900 1 10 00:41 27.08.2019
2980 Mist 21 1009 93 3000 2 360 00:22 27.08.2019
2981 Mist 20 1009 93 3500 2 350 23:38 26.08.2019
2982 Mist 19 1008 93 4000 2 360 23:19 26.08.2019
2983 Mist 21 1008 93 4000 2 360 22:40 26.08.2019
2984 Mist 21 1008 93 4000 2 360 22:20 26.08.2019
2985 Mist 21 1009 100 4000 2 360 21:58 26.08.2019
2986 Mist 22 1009 93 5000 1 20 21:38 26.08.2019
2987 Mist 22 1009 100 5000 1 0 21:19 26.08.2019
2988 Mist 22 1009 100 5000 1 0 20:56 26.08.2019
2989 Mist 22 1009 100 5000 1.61 289.268 20:37 26.08.2019
2990 Mist 22 1009 94 5000 1 0 20:18 26.08.2019
2991 Mist 22 1009 94 5000 1 0 19:43 26.08.2019
2992 Mist 23 1009 94 5000 1 20 19:19 26.08.2019
2993 Mist 23 1009 94 5000 1 20 18:58 26.08.2019
2994 Mist 23 1009 94 5000 1 20 18:38 26.08.2019
2995 Mist 24 1009 94 5000 1 0 18:19 26.08.2019
2996 Mist 24 1009 94 5000 1 100 17:44 26.08.2019
2997 Mist 24 1009 94 5000 1 100 17:20 26.08.2019
2998 Mist 24 1010 94 5000 1.72 287.063 16:57 26.08.2019
2999 Mist 24 1010 94 5000 1.72 287.063 16:39 26.08.2019
3000 Mist 24 1009 88 5000 1.72 287.063 16:19 26.08.2019
3001 Mist 25 1009 88 5000 1.72 287.063 15:56 26.08.2019
3002 Mist 25 1009 88 5000 1 0 15:38 26.08.2019
3003 Mist 25 1009 88 5000 1.81 295.009 15:20 26.08.2019
3004 Mist 25 1009 88 5000 1 30 14:44 26.08.2019
3005 Mist 25 1009 88 5000 1 30 14:23 26.08.2019
3006 Mist 26 1009 83 5000 2 60 13:57 26.08.2019
3007 Mist 26 1008 78 4000 3 30 13:37 26.08.2019
3008 Mist 26 1008 73 4000 2 30 13:18 26.08.2019
3009 Haze 27 1008 69 4500 2 360 12:43 26.08.2019
3010 Haze 27 1008 69 4500 2 360 12:22 26.08.2019
3011 Haze 28 1008 61 4500 2 200 11:44 26.08.2019
3012 Haze 28 1008 61 4500 2 200 11:26 26.08.2019
3013 Haze 28 1008 65 4500 2 150 10:59 26.08.2019
3014 Haze 28 1008 65 4000 2 130 10:41 26.08.2019
3015 Haze 28 1008 69 4000 1 0 10:19 26.08.2019
3016 Haze 28 1008 69 4000 1 0 09:47 26.08.2019
3017 Haze 28 1008 69 4000 1 0 09:26 26.08.2019
3018 Haze 28 1008 69 3500 1 0 08:59 26.08.2019
3019 Haze 28 1008 69 3500 2 120 08:41 26.08.2019
3020 Haze 28 1008 69 3500 2 150 08:22 26.08.2019
3021 Haze 28 1008 69 3500 2 150 07:59 26.08.2019
3022 Mist 28 1008 69 3500 2 130 07:38 26.08.2019
3023 Mist 29 1009 69 3500 2 110 07:20 26.08.2019
3024 Mist 28 1009 73 3500 1 0 06:40 26.08.2019
3025 Mist 28 1009 73 3500 1 0 06:21 26.08.2019
3026 Mist 27 1009 73 3500 2 110 05:48 26.08.2019
3027 Mist 26 1009 78 3500 2 150 04:24 26.08.2019
3028 Mist 24 1010 88 2800 1 0 02:48 26.08.2019
3029 Mist 24 1010 94 3100 1 0 01:27 26.08.2019
3030 Mist 23 1010 94 3500 2 60 00:46 26.08.2019
3031 Mist 23 1010 94 3500 2 60 00:28 26.08.2019
3032 Mist 23 1010 94 4000 1 40 23:58 25.08.2019
3033 Mist 23 1009 94 5000 1 70 23:39 25.08.2019
3034 Clouds 23 1010 94 6000 1 70 23:18 25.08.2019
3035 Clouds 23 1010 94 6000 1 70 22:54 25.08.2019
3036 Clouds 23 1010 94 7000 1 70 22:36 25.08.2019
3037 Clouds 23 1010 88 8000 1 130 22:18 25.08.2019
3038 Clear 23 1010 88 10000 1 120 21:41 25.08.2019
3039 Clear 23 1010 88 10000 2 130 21:19 25.08.2019
3040 Clear 23 1010 88 10000 2 130 20:59 25.08.2019
3041 Clear 23 1010 83 10000 2 140 20:39 25.08.2019
3042 Clear 23 1010 83 10000 2 140 20:19 25.08.2019
3043 Clear 23 1011 78 10000 2 150 19:55 25.08.2019
3044 Clear 22 1011 83 10000 2 150 19:37 25.08.2019
3045 Clear 22 1011 83 10000 2 150 19:37 25.08.2019
3046 Clear 24 1011 83 10000 2 150 19:18 25.08.2019
3047 Clear 24 1011 83 10000 2 130 18:55 25.08.2019
3048 Clear 24 1011 83 10000 2 130 18:55 25.08.2019
3049 Clear 24 1011 83 10000 2 130 18:55 25.08.2019
3050 Clear 24 1011 83 10000 2 130 18:37 25.08.2019
3051 Clear 24 1011 83 10000 1 150 18:18 25.08.2019
3052 Clear 25 1011 73 10000 1 0 17:40 25.08.2019
3053 Clear 26 1011 73 10000 1 0 17:21 25.08.2019
3054 Clear 25 1011 69 10000 2 160 16:43 25.08.2019
3055 Clear 24 1011 69 10000 2 160 16:23 25.08.2019
3056 Clear 25 1011 57 10000 2 170 15:58 25.08.2019
3057 Clear 27 1011 51 10000 3 190 15:39 25.08.2019
3058 Clear 27 1011 54 10000 3 180 15:21 25.08.2019
3059 Clear 27 1010 54 10000 3 170 14:41 25.08.2019
3060 Clear 28 1010 54 10000 3 170 14:23 25.08.2019
3061 Clear 28 1010 51 10000 4 170 13:46 25.08.2019
3062 Clear 29 1010 51 10000 4 170 13:22 25.08.2019
3063 Clear 29 1010 48 10000 4 180 12:57 25.08.2019
3064 Clear 30 1010 45 10000 5 170 12:39 25.08.2019
3065 Clear 31 1010 40 10000 5 180 12:20 25.08.2019
3066 Clear 31 1010 40 10000 5 180 11:57 25.08.2019
3067 Clear 32 1010 40 10000 5 190 11:37 25.08.2019
3068 Clear 32 1010 40 10000 5 190 11:18 25.08.2019
3069 Clear 32 1010 40 10000 5 190 11:18 25.08.2019
3070 Clear 32 1010 40 10000 5 190 10:55 25.08.2019
3071 Clear 32 1010 40 10000 5 170 10:36 25.08.2019
3072 Clear 32 1010 38 10000 5 170 10:18 25.08.2019
3073 Clear 33 1011 35 10000 4 180 09:42 25.08.2019
3074 Clear 32 1011 35 10000 4 180 09:23 25.08.2019
3075 Clear 32 1011 35 10000 6 170 08:44 25.08.2019
3076 Clear 33 1011 35 10000 6 170 08:23 25.08.2019
3077 Clear 33 1011 38 10000 4 180 07:46 25.08.2019
3078 Clear 33 1011 38 10000 4 180 07:23 25.08.2019
3079 Clear 32 1012 38 10000 5 200 06:37 25.08.2019
3080 Clear 31 1013 51 10000 2 0 05:27 25.08.2019
3081 Clear 29 1013 61 10000 1 0 03:43 25.08.2019
3082 Clear 24 1013 64 10000 1 0 02:42 25.08.2019
3083 Clear 25 1013 83 10000 1 150 01:45 25.08.2019
3084 Clear 23 1013 93 10000 1 0 00:42 25.08.2019
3085 Clear 20 1013 93 10000 1 0 00:22 25.08.2019
3086 Clear 20 1012 93 10000 1 50 23:54 24.08.2019
3087 Clear 20 1012 93 10000 1 60 23:24 24.08.2019
3088 Clear 21 1012 88 10000 0.79 18.572 22:58 24.08.2019
3089 Clear 21 1012 88 10000 1 10 22:40 24.08.2019
3090 Clear 22 1012 82 10000 1 0 22:19 24.08.2019
3091 Clear 22 1012 82 10000 1 0 21:57 24.08.2019
3092 Clear 22 1012 77 10000 2 100 21:39 24.08.2019
3093 Clear 22 1012 77 10000 2 100 21:20 24.08.2019
3094 Clear 22 1012 77 10000 2 100 21:20 24.08.2019
3095 Clear 21 1012 82 10000 2 80 20:56 24.08.2019
3096 Clear 22 1012 77 10000 2 80 20:37 24.08.2019
3097 Clear 22 1012 77 10000 2 80 20:37 24.08.2019
3098 Clear 22 1012 73 10000 2 90 20:18 24.08.2019
3099 Clear 22 1012 73 10000 2 90 20:18 24.08.2019
3100 Clear 23 1012 73 10000 2 90 19:57 24.08.2019
3101 Clear 22 1012 82 10000 2 90 19:38 24.08.2019
3102 Clear 22 1012 77 10000 2 90 19:19 24.08.2019
3103 Clear 23 1012 73 10000 2 120 18:45 24.08.2019
3104 Clear 24 1012 73 10000 2 120 18:23 24.08.2019
3105 Clear 24 1011 57 10000 5 170 17:46 24.08.2019
3106 Clear 25 1011 57 10000 5 170 17:27 24.08.2019
3107 Clear 26 1011 57 10000 3 170 16:56 24.08.2019
3108 Clear 26 1011 50 10000 5 180 16:36 24.08.2019
3109 Clear 26 1011 44 10000 4 180 16:18 24.08.2019
3110 Clear 27 1011 42 10000 3 190 15:43 24.08.2019
3111 Clear 27 1011 42 10000 3 190 15:24 24.08.2019
3112 Clear 27 1011 42 10000 4 190 14:55 24.08.2019
3113 Clear 28 1011 42 10000 5 180 14:37 24.08.2019
3114 Clear 28 1011 45 10000 5 190 14:18 24.08.2019
3115 Clear 28 1010 42 10000 5 190 13:42 24.08.2019
3116 Clear 29 1010 42 10000 5 190 13:22 24.08.2019
3117 Clear 30 1010 37 10000 5 190 12:58 24.08.2019
3118 Clear 30 1010 37 10000 6 190 12:39 24.08.2019
3119 Clear 31 1010 40 10000 5 180 12:20 24.08.2019
3120 Clear 32 1010 38 10000 4 190 11:45 24.08.2019
3121 Clear 33 1010 38 10000 4 190 11:24 24.08.2019
3122 Clear 33 1010 35 10000 5 200 10:53 24.08.2019
3123 Clear 34 1010 33 10000 4 200 10:25 24.08.2019
3124 Clear 33 1010 33 10000 1 0 09:58 24.08.2019
3125 Clear 34 1010 33 10000 2 190 09:38 24.08.2019
3126 Clear 33 1010 35 10000 3 170 09:18 24.08.2019
3127 Clear 34 1010 38 10000 2 0 08:41 24.08.2019
3128 Clear 34 1010 38 10000 2 0 08:23 24.08.2019
3129 Clear 34 1011 38 10000 3 200 07:50 24.08.2019
3130 Clear 33 1011 43 10000 2 50 07:29 24.08.2019
3131 Clear 33 1012 40 10000 1 0 06:31 24.08.2019
3132 Clear 33 1012 45 10000 1 0 05:57 24.08.2019
3133 Clear 32 1012 45 10000 2 130 05:35 24.08.2019
3134 Clear 30 1013 57 10000 1 0 03:40 24.08.2019
3135 Clear 28 1013 69 10000 1 0 02:39 24.08.2019
3136 Clear 27 1013 73 10000 1 20 01:52 24.08.2019
3137 Clear 27 1013 78 10000 0.61 66.085 01:22 24.08.2019
3138 Clear 24 1012 93 10000 1 0 00:44 24.08.2019
3139 Clear 22 1012 93 10000 0.87 19.168 00:21 24.08.2019
3140 Clear 22 1012 93 10000 2 350 23:43 23.08.2019
3141 Clear 22 1012 93 10000 1 40 23:19 23.08.2019
3142 Clear 22 1012 93 10000 1 40 23:19 23.08.2019
3143 Clear 22 1012 88 10000 1 80 22:44 23.08.2019
3144 Clear 22 1012 88 10000 1 80 22:24 23.08.2019
3145 Clear 23 1012 94 10000 0.87 19.168 21:55 23.08.2019
3146 Clear 23 1012 83 10000 2 40 21:36 23.08.2019
3147 Clear 23 1012 83 10000 2 40 21:36 23.08.2019
3148 Clear 23 1012 83 10000 2 40 21:36 23.08.2019
3149 Clear 23 1012 88 10000 2 90 21:18 23.08.2019
3150 Clear 24 1012 83 10000 2 50 20:45 23.08.2019
3151 Clear 24 1012 83 10000 2 50 20:27 23.08.2019
3152 Clear 24 1012 83 10000 1 50 19:46 23.08.2019
3153 Clear 24 1012 83 10000 1 50 19:46 23.08.2019
3154 Clear 24 1012 88 10000 1 0 19:19 23.08.2019
3155 Clear 24 1012 88 10000 1 0 18:55 23.08.2019
3156 Clear 25 1012 73 10000 2 90 18:36 23.08.2019
3157 Clear 25 1012 83 10000 1 50 18:18 23.08.2019
3158 Clear 25 1012 78 10000 1 0 17:41 23.08.2019
3159 Clear 24 1012 78 10000 1 0 17:23 23.08.2019
3160 Clear 26 1012 73 10000 1 0 16:49 23.08.2019
3161 Clear 26 1012 78 10000 1 0 16:30 23.08.2019
3162 Clear 26 1012 78 10000 1 0 15:59 23.08.2019
3163 Clear 27 1012 73 10000 1 0 15:39 23.08.2019
3164 Clear 27 1012 73 10000 1 0 15:21 23.08.2019
3165 Clear 27 1012 69 10000 1.4 234.453 14:44 23.08.2019
3166 Clear 27 1011 60 10000 1 0 14:21 23.08.2019
3167 Clear 27 1011 60 10000 1 0 13:59 23.08.2019
3168 Clear 28 1011 42 10000 2 0 13:41 23.08.2019
3169 Clear 29 1011 42 10000 2 0 13:23 23.08.2019
3170 Clear 29 1011 69 10000 1.79 240.836 12:58 23.08.2019
3171 Clear 29 1010 48 10000 1 0 12:40 23.08.2019
3172 Clear 29 1010 51 10000 2 120 12:21 23.08.2019
3173 Clear 29 1010 51 10000 2 120 11:57 23.08.2019
3174 Clear 30 1010 51 10000 1 0 11:39 23.08.2019
3175 Clear 30 1010 51 10000 1 0 11:19 23.08.2019
3176 Clear 31 1010 45 10000 2 100 10:54 23.08.2019
3177 Clear 30 1010 45 10000 2 80 10:36 23.08.2019
3178 Clear 30 1011 42 10000 2 90 10:18 23.08.2019
3179 Clear 32 1011 39 10000 2 70 09:43 23.08.2019
3180 Clear 32 1011 39 10000 2 70 09:43 23.08.2019
3181 Clear 32 1011 39 10000 2 70 09:20 23.08.2019
3182 Clear 33 1011 37 10000 3 30 08:45 23.08.2019
3183 Clear 34 1011 37 10000 3 30 08:20 23.08.2019
3184 Clear 33 1011 35 10000 3 50 07:56 23.08.2019
3185 Clear 32 1011 35 10000 2 30 07:38 23.08.2019
3186 Clear 32 1012 31 10000 3 20 07:20 23.08.2019
3187 Clear 33 1012 33 10000 4 360 06:41 23.08.2019
3188 Clear 32 1012 39 10000 3 360 06:21 23.08.2019
3189 Clear 32 1012 39 10000 4 360 05:44 23.08.2019
3190 Clear 32 1012 39 10000 4 360 05:23 23.08.2019
3191 Clear 28 1013 50 10000 3 10 03:38 23.08.2019
3192 Clear 26 1013 64 10000 2 360 02:37 23.08.2019
3193 Clear 25 1013 60 10000 3 340 02:19 23.08.2019
3194 Clear 23 1012 88 10000 2 360 00:46 23.08.2019
3195 Clear 21 1012 88 10000 4 350 00:23 23.08.2019
3196 Clear 21 1012 88 10000 4 350 23:59 22.08.2019
3197 Clear 21 1012 93 10000 3 340 23:40 22.08.2019
3198 Clear 21 1012 93 10000 3 340 23:20 22.08.2019
3199 Clear 20 1011 88 10000 2 340 22:42 22.08.2019
3200 Clear 20 1011 88 10000 2 340 22:23 22.08.2019
3201 Clear 21 1011 88 10000 2 10 21:58 22.08.2019
3202 Clear 21 1011 93 10000 3 350 21:40 22.08.2019
3203 Clear 22 1011 93 10000 3 350 21:21 22.08.2019
3204 Clear 22 1011 88 10000 3 350 20:58 22.08.2019
3205 Clear 22 1011 88 10000 1 350 20:39 22.08.2019
3206 Clear 23 1011 88 10000 1 350 20:20 22.08.2019
3207 Clear 22 1011 93 10000 1 10 19:56 22.08.2019
3208 Clear 22 1011 93 10000 2 350 19:38 22.08.2019
3209 Clear 21 1011 88 10000 1 360 19:19 22.08.2019
3210 Clear 17 1011 88 10000 1 360 18:56 22.08.2019
3211 Clear 22 1011 88 10000 1 0 18:38 22.08.2019
3212 Clear 21 1010 88 10000 3 360 18:18 22.08.2019
3213 Clear 23 1010 88 10000 3 360 17:43 22.08.2019
3214 Clear 22 1010 88 10000 1 20 17:24 22.08.2019
3215 Clear 22 1010 88 10000 1 20 17:24 22.08.2019
3216 Clear 22 1010 77 10000 1 0 16:59 22.08.2019
3217 Clear 23 1010 77 10000 1 0 16:40 22.08.2019
3218 Clear 21 1010 82 10000 1 0 16:21 22.08.2019
3219 Clear 21 1010 82 10000 1 0 16:21 22.08.2019
3220 Clear 21 1010 77 10000 1 0 16:21 22.08.2019
3221 Clear 23 1010 82 10000 1 0 15:59 22.08.2019
3222 Clear 24 1010 88 10000 1 0 15:39 22.08.2019
3223 Clear 24 1010 88 10000 1 0 15:39 22.08.2019
3224 Clear 25 1010 88 10000 1 0 15:21 22.08.2019
3225 Clear 25 1010 88 10000 1 0 15:20 22.08.2019
3226 Clear 25 1010 82 10000 1 0 14:56 22.08.2019
3227 Clear 25 1009 82 10000 1 0 14:38 22.08.2019
3228 Clear 25 1009 73 10000 2 160 14:18 22.08.2019
3229 Clear 26 1009 73 10000 2 160 13:55 22.08.2019
3230 Clear 27 1009 73 10000 1 0 13:36 22.08.2019
3231 Clear 29 1008 37 10000 2 260 13:18 22.08.2019
3232 Clear 30 1008 33 10000 2 0 12:40 22.08.2019
3233 Clear 31 1008 33 10000 2 0 12:21 22.08.2019
3234 Clear 32 1008 29 10000 3 270 11:55 22.08.2019
3235 Clear 32 1009 30 10000 4 280 11:36 22.08.2019
3236 Clear 33 1009 29 10000 5 290 11:18 22.08.2019
3237 Clear 32 1009 29 10000 5 290 10:57 22.08.2019
3238 Clear 32 1009 29 10000 5 280 10:36 22.08.2019
3239 Clear 31 1009 30 10000 6 280 10:18 22.08.2019
3240 Clear 32 1009 33 10000 6 270 09:40 22.08.2019
3241 Clear 31 1009 33 10000 6 270 09:21 22.08.2019
3242 Clear 31 1009 30 10000 5 290 08:58 22.08.2019
3243 Clear 31 1010 32 10000 5 290 08:39 22.08.2019
3244 Clear 31 1010 30 10000 7 320 08:20 22.08.2019
3245 Clear 32 1010 30 10000 7 320 07:42 22.08.2019
3246 Clear 32 1010 28 10000 7 310 07:23 22.08.2019
3247 Clear 32 1010 28 10000 7 310 06:55 22.08.2019
3248 Clear 31 1010 37 10000 4 350 06:37 22.08.2019
3249 Clear 31 1011 37 10000 4 310 06:18 22.08.2019
3250 Clear 30 1011 51 10000 2 310 04:42 22.08.2019
3251 Clear 27 1011 69 10000 3 350 02:56 22.08.2019
3252 Clear 27 1011 73 10000 2 350 02:34 22.08.2019
3253 Clear 25 1011 73 10000 3 330 01:26 22.08.2019
3254 Clear 24 1011 77 10000 2 10 00:48 22.08.2019
3255 -273 0 0 0 0 0 00:30 22.08.2019
3256 Clear 23 1010 82 10000 2 350 23:58 21.08.2019
3257 Clear 23 1010 82 10000 3 340 23:39 21.08.2019
3258 Clear 23 1010 82 10000 3 340 23:19 21.08.2019
3259 Clear 23 1010 82 10000 3 350 22:56 21.08.2019
3260 Clear 24 1010 82 10000 1 10 22:38 21.08.2019
3261 Clear 24 1010 73 10000 2 10 22:19 21.08.2019
3262 Clear 24 1010 73 10000 2 10 21:55 21.08.2019
3263 Clear 24 1010 73 10000 2 360 21:37 21.08.2019
3264 Clear 23 1009 88 10000 1 0 21:18 21.08.2019
3265 Clear 24 1009 73 10000 2 310 20:43 21.08.2019
3266 Clear 24 1009 73 10000 2 310 20:43 21.08.2019
3267 Clear 23 1009 73 10000 2 310 20:24 21.08.2019
3268 Clear 23 1009 83 10000 1 0 19:58 21.08.2019
3269 Clear 24 1009 64 10000 3 300 19:39 21.08.2019
3270 Clear 24 1009 64 10000 3 300 19:39 21.08.2019
3271 Clear 24 1009 64 10000 3 320 19:20 21.08.2019
3272 Clear 23 1009 94 10000 2 30 18:56 21.08.2019
3273 Clear 22 1009 94 10000 2 30 18:37 21.08.2019
3274 Clear 23 1009 88 10000 2 360 18:19 21.08.2019
3275 Clear 24 1009 88 10000 1 0 17:42 21.08.2019
3276 Clear 25 1009 78 10000 1 0 17:21 21.08.2019
3277 Clear 26 1009 78 10000 1 0 16:56 21.08.2019
3278 Clear 26 1009 73 10000 1 0 16:37 21.08.2019
3279 Clear 26 1010 78 10000 2 50 16:18 21.08.2019
3280 Clear 26 1010 78 10000 2 50 15:56 21.08.2019
3281 Clear 27 1009 69 10000 2 40 15:37 21.08.2019
3282 Clear 29 1009 35 10000 3 300 15:18 21.08.2019
3283 Clear 29 1009 35 10000 3 270 14:39 21.08.2019
3284 Clear 29 1009 35 10000 3 270 14:39 21.08.2019
3285 Clear 29 1009 35 10000 3 270 14:21 21.08.2019
3286 Clear 29 1008 37 10000 3 280 13:59 21.08.2019
3287 Clear 29 1008 37 10000 3 280 13:59 21.08.2019
3288 Clear 30 1008 37 10000 2 270 13:40 21.08.2019
3289 Clear 30 1008 33 10000 3 240 13:19 21.08.2019
3290 Clear 31 1008 33 10000 3 240 12:57 21.08.2019
3291 Clear 31 1008 31 10000 2 280 12:38 21.08.2019
3292 Clear 32 1008 31 10000 4 290 12:19 21.08.2019
3293 Clear 32 1008 31 10000 5 280 11:44 21.08.2019
3294 Clear 33 1008 31 10000 5 280 11:24 21.08.2019
3295 Clear 34 1008 31 10000 4 270 10:58 21.08.2019
3296 Clear 34 1008 31 10000 5 300 10:39 21.08.2019
3297 Clear 34 1008 31 10000 5 300 10:21 21.08.2019
3298 Clear 33 1008 31 10000 5 270 09:58 21.08.2019
3299 Clear 33 1009 31 10000 5 290 09:40 21.08.2019
3300 Clear 33 1009 31 10000 5 290 09:21 21.08.2019
3301 Clear 32 1009 31 10000 4 300 08:49 21.08.2019
3302 Clear 32 1009 31 10000 4 300 08:25 21.08.2019
3303 Clear 32 1010 33 10000 5 300 07:45 21.08.2019
3304 Clear 31 1010 33 10000 5 300 07:26 21.08.2019
3305 Clear 31 1010 33 10000 6 340 06:59 21.08.2019
3306 Clear 31 1010 33 10000 6 310 06:40 21.08.2019
3307 Clear 31 1010 35 10000 5 320 06:18 21.08.2019
3308 Clear 30 1011 37 10000 4 320 05:29 21.08.2019
3309 Clear 30 1011 48 10000 5 330 04:42 21.08.2019
3310 Clear 30 1011 48 10000 5 330 04:42 21.08.2019
3311 Clear 26 1011 78 10000 3 330 02:44 21.08.2019
3312 Mist 24 1010 88 4000 3 320 01:34 21.08.2019
3313 Mist 22 1010 100 1700 3 300 00:42 21.08.2019
3314 Mist 22 1009 100 1700 3 330 00:21 21.08.2019
3315 Mist 21 1009 100 2500 3 330 23:45 20.08.2019
3316 Mist 22 1009 100 2500 3 330 23:20 20.08.2019
3317 Mist 22 1009 100 2500 3 330 22:59 20.08.2019
3318 Mist 21 1009 93 4500 3 350 22:40 20.08.2019
3319 Clear 21 1009 93 6000 3 350 22:22 20.08.2019
3320 Clear 21 1009 93 6000 3 350 21:58 20.08.2019
3321 Clear 21 1009 93 6000 1 0 21:39 20.08.2019
3322 Clear 21 1009 93 6000 1 0 21:39 20.08.2019
3323 Clear 21 1009 93 6000 2 340 21:20 20.08.2019
3324 Clear 21 1009 93 6000 2 340 20:59 20.08.2019
3325 Clear 21 1009 94 7000 1 10 20:41 20.08.2019
3326 Clear 21 1009 94 7000 1 10 20:23 20.08.2019
3327 Clouds 22 1009 94 8000 1 20 19:41 20.08.2019
3328 Clouds 22 1009 94 8000 1 20 19:22 20.08.2019
3329 Clouds 22 1009 88 8000 2 360 18:58 20.08.2019
3330 Clear 23 1003 79 0 1.36 303.702 18:40 20.08.2019
3331 Clouds 22 1009 94 10000 1 350 18:19 20.08.2019
3332 Clouds 22 1009 94 10000 1 350 17:57 20.08.2019
3333 Clouds 23 1009 94 10000 1 350 17:39 20.08.2019
3334 Clouds 23 1009 88 10000 2 350 17:20 20.08.2019
3335 Clouds 23 1009 88 10000 2 350 17:19 20.08.2019
3336 Clouds 22 1009 88 10000 1 20 16:46 20.08.2019
3337 Clouds 23 1009 88 10000 1 20 16:26 20.08.2019
3338 Clouds 23 1009 88 10000 1 0 15:57 20.08.2019
3339 Clouds 23 1009 88 10000 2 360 15:38 20.08.2019
3340 Clouds 23 1008 88 10000 1 0 15:18 20.08.2019
3341 Clouds 24 1008 94 10000 1 0 14:43 20.08.2019
3342 Clouds 24 1008 88 10000 1 0 14:22 20.08.2019
3343 Clouds 24 1008 88 10000 1 0 13:57 20.08.2019
3344 Clouds 24 1008 88 10000 1 0 13:57 20.08.2019
3345 Clouds 24 1008 88 10000 1 60 13:39 20.08.2019
3346 Clouds 24 1008 88 10000 1 0 13:20 20.08.2019
3347 Clouds 24 1008 88 10000 2 60 12:51 20.08.2019
3348 Clouds 24 1008 88 10000 2 60 12:31 20.08.2019
3349 Clouds 24 1008 88 10000 1 0 11:59 20.08.2019
3350 Clouds 24 1008 88 10000 1 0 11:40 20.08.2019
3351 Clouds 24 1007 88 10000 1 120 11:21 20.08.2019
3352 Clouds 24 1007 88 10000 1 120 11:21 20.08.2019
3353 Clouds 24 1007 88 10000 1 120 10:57 20.08.2019
3354 Clouds 24 1007 88 10000 2 70 10:38 20.08.2019
3355 Clouds 24 1007 88 10000 2 70 10:38 20.08.2019
3356 Clouds 24 1007 94 10000 1 0 10:20 20.08.2019
3357 Clouds 24 1007 94 10000 1 0 09:56 20.08.2019
3358 Clouds 24 1007 94 10000 2 80 09:38 20.08.2019
3359 Clouds 24 1007 94 10000 2 80 09:38 20.08.2019
3360 Clouds 24 1007 94 6000 2 90 09:20 20.08.2019
3361 Rain 24 1007 94 6000 3 80 08:41 20.08.2019
3362 Rain 24 1007 94 6000 3 80 08:23 20.08.2019
3363 Rain 24 1007 94 6000 2 70 07:57 20.08.2019
3364 Rain 24 1007 94 6000 2 80 07:38 20.08.2019
3365 Rain 24 1007 94 6000 2 60 07:20 20.08.2019
3366 Rain 24 1008 94 6000 2 70 06:43 20.08.2019
3367 Rain 24 1008 94 6000 2 60 06:19 20.08.2019
3368 Rain 24 1008 88 6000 1 0 05:41 20.08.2019
3369 Rain 24 1008 88 5000 2 210 04:23 20.08.2019
3370 Rain 25 1007 88 2700 2 160 02:48 20.08.2019
3371 Rain 25 1007 88 3000 2 130 01:53 20.08.2019
3372 Rain 25 1007 88 3000 3 130 01:20 20.08.2019
3373 Rain 25 1007 83 4000 3 130 00:44 20.08.2019
3374 Rain 25 1007 83 5000 3 120 00:24 20.08.2019
3375 Rain 25 1007 78 8000 3 130 23:44 19.08.2019
3376 Clouds 26 1007 73 8000 4 120 23:19 19.08.2019
3377 Clouds 25 1007 73 8000 4 120 22:58 19.08.2019
3378 Clouds 25 1007 73 8000 3 120 22:40 19.08.2019
3379 Clouds 25 1008 73 8000 3 120 22:20 19.08.2019
3380 Clouds 25 1008 73 8000 3 120 21:57 19.08.2019
3381 Clear 25 1008 73 10000 2 130 21:38 19.08.2019
3382 Clear 27 1008 73 10000 3 140 21:19 19.08.2019
3383 Clear 27 1008 73 10000 3 130 20:40 19.08.2019
3384 Clear 27 1008 65 10000 3 130 20:21 19.08.2019
3385 Clear 27 1008 65 10000 3 130 19:59 19.08.2019
3386 Clear 27 1008 65 10000 3 130 19:41 19.08.2019
3387 Clear 27 1008 65 10000 3 130 19:19 19.08.2019
3388 Clear 27 1008 65 10000 3 130 19:19 19.08.2019
3389 Clear 27 1008 65 10000 3 130 19:19 19.08.2019
3390 Clear 27 1008 65 10000 3 130 19:19 19.08.2019
3391 Clear 27 1009 65 10000 2 130 18:59 19.08.2019
3392 Clear 27 1009 65 10000 2 130 18:59 19.08.2019
3393 Clear 27 1009 65 10000 2 130 18:39 19.08.2019
3394 Clear 28 1009 65 10000 2 140 18:21 19.08.2019
3395 Clear 28 1009 65 10000 2 140 17:56 19.08.2019
3396 Clear 28 1009 65 10000 2 140 17:56 19.08.2019
3397 Clear 28 1009 61 10000 2 130 17:36 19.08.2019
3398 Clear 28 1009 69 10000 2 150 17:18 19.08.2019
3399 Clear 28 1009 69 10000 2 150 16:39 19.08.2019
3400 Clear 28 1009 69 10000 2 160 16:21 19.08.2019
3401 Clear 28 1009 61 10000 2 150 15:56 19.08.2019
3402 Clear 28 1009 61 10000 2 150 15:56 19.08.2019
3403 Clear 29 1009 58 10000 3 140 15:38 19.08.2019
3404 Clear 29 1008 65 10000 2 140 15:19 19.08.2019
3405 Clear 29 1008 61 10000 2 140 14:44 19.08.2019
3406 Clear 30 1008 61 10000 2 140 14:23 19.08.2019
3407 Clear 30 1008 58 10000 3 140 13:58 19.08.2019
3408 Clear 30 1008 58 10000 3 160 13:39 19.08.2019
3409 Clear 30 1008 58 10000 3 160 13:20 19.08.2019
3410 Clear 30 1007 54 10000 3 150 12:58 19.08.2019
3411 Clear 31 1007 51 10000 4 150 12:40 19.08.2019
3412 Clear 32 1007 51 10000 3 160 12:20 19.08.2019
3413 Clear 32 1007 45 10000 5 160 11:40 19.08.2019
3414 Clear 32 1007 45 10000 5 160 11:22 19.08.2019
3415 Clear 33 1007 48 10000 4 150 10:58 19.08.2019
3416 Clear 33 1007 46 10000 4 160 10:38 19.08.2019
3417 Clear 33 1007 46 10000 4 160 10:19 19.08.2019
3418 Clear 34 1007 46 10000 4 160 09:54 19.08.2019
3419 Clear 33 1007 49 10000 3 150 09:36 19.08.2019
3420 Clear 33 1007 46 10000 4 160 09:18 19.08.2019
3421 Clear 33 1008 46 10000 4 170 08:41 19.08.2019
3422 Clear 34 1008 46 10000 4 170 08:20 19.08.2019
3423 Clear 34 1008 43 10000 6 170 07:52 19.08.2019
3424 Clear 34 1008 46 10000 4 190 07:32 19.08.2019
3425 Clear 33 1008 52 10000 3 320 06:58 19.08.2019
3426 Clear 33 1009 55 10000 2 80 06:36 19.08.2019
3427 Clear 32 1009 55 10000 1 0 05:26 19.08.2019
3428 Clear 32 1009 61 10000 2 70 04:33 19.08.2019
3429 Clear 27 1009 65 10000 1 0 03:24 19.08.2019
3430 Clear 26 1009 69 10000 1 0 02:29 19.08.2019
3431 Clear 27 1008 83 10000 1 0 01:36 19.08.2019
3432 Clouds 26 999 68 0 1.41 58.694 00:44 19.08.2019
3433 Clear 23 1008 94 10000 1 0 00:23 19.08.2019
3434 Clear 23 1008 88 10000 1 70 23:43 18.08.2019
3435 Clear 24 1007 88 10000 0.55 284.647 23:22 18.08.2019
3436 Clear 24 1007 88 10000 0.55 284.647 22:57 18.08.2019
3437 Clear 24 1007 88 10000 1 0 22:38 18.08.2019
3438 Clear 24 1007 88 10000 1 0 22:20 18.08.2019
3439 Clear 25 1007 88 10000 1 70 21:56 18.08.2019
3440 Clear 22 1007 83 10000 1 0 21:37 18.08.2019
3441 Clear 22 1007 83 10000 1 0 21:19 18.08.2019
3442 Clear 23 1007 78 10000 2 130 20:44 18.08.2019
3443 Clear 23 1007 78 10000 2 130 20:26 18.08.2019
3444 Clear 23 1007 78 10000 2 130 20:26 18.08.2019
3445 Clear 22 1007 83 10000 2 110 19:56 18.08.2019
3446 Clear 23 1007 78 10000 2 100 19:38 18.08.2019
3447 Clear 22 1007 83 10000 1 90 19:19 18.08.2019
3448 Clear 22 1007 83 10000 1 90 18:54 18.08.2019
3449 Clear 22 1007 83 10000 1 110 18:36 18.08.2019
3450 Clear 28 1007 83 10000 2 140 18:18 18.08.2019
3451 Clear 26 1007 83 10000 1 0 17:42 18.08.2019
3452 Clear 26 1007 83 10000 1 0 17:19 18.08.2019
3453 Clear 26 1007 83 10000 1 0 16:57 18.08.2019
3454 Clear 26 1007 83 10000 1 80 16:38 18.08.2019
3455 Clear 26 1006 78 10000 1 140 16:20 18.08.2019
3456 Clear 26 1006 78 10000 1 140 15:57 18.08.2019
3457 Clear 26 1006 73 10000 2 160 15:38 18.08.2019
3458 Clear 27 1006 73 10000 1 150 15:20 18.08.2019
3459 Clear 27 1006 73 10000 1 150 14:54 18.08.2019
3460 Clear 28 1006 69 10000 2 160 14:36 18.08.2019
3461 Clear 28 1005 61 10000 2 140 14:18 18.08.2019
3462 Clear 29 1005 54 10000 2 140 13:42 18.08.2019
3463 Clear 27 1005 54 10000 2 140 13:24 18.08.2019
3464 Clear 29 1005 45 10000 2 150 12:58 18.08.2019
3465 Clear 30 1005 40 10000 2 150 12:39 18.08.2019
3466 Clear 30 1005 40 10000 2 150 12:21 18.08.2019
3467 Clear 31 1005 33 10000 4 180 11:43 18.08.2019
3468 Clear 31 1005 33 10000 4 180 11:23 18.08.2019
3469 Clear 31 1005 38 10000 3 150 10:59 18.08.2019
3470 Clear 31 1005 38 10000 3 150 10:40 18.08.2019
3471 Clear 30 1005 40 10000 3 130 10:19 18.08.2019
3472 Clear 31 1005 40 10000 2 130 09:44 18.08.2019
3473 Clear 31 1005 40 10000 2 130 09:21 18.08.2019
3474 Clear 32 1005 33 10000 2 120 08:44 18.08.2019
3475 Clear 32 1005 33 10000 2 120 08:25 18.08.2019
3476 Clear 31 1006 38 10000 2 120 07:58 18.08.2019
3477 Clear 32 1006 29 10000 2 0 07:39 18.08.2019
3478 Clear 32 1006 29 10000 2 0 07:21 18.08.2019
3479 Clear 29 1007 37 10000 2 50 05:45 18.08.2019
3480 Clear 28 1008 42 10000 2 20 04:25 18.08.2019
3481 Clear 25 1007 50 10000 3 350 03:20 18.08.2019
3482 Clear 24 1007 57 10000 3 350 02:42 18.08.2019
3483 Clear 22 1007 68 10000 3 350 02:18 18.08.2019
3484 Clear 20 1007 72 10000 3 350 01:28 18.08.2019
3485 Clear 17 1006 82 10000 3 350 00:43 18.08.2019
3486 Clear 17 1006 82 10000 3 350 00:23 18.08.2019
3487 Clear 16 1006 82 10000 4 350 23:58 17.08.2019
3488 Clear 16 1006 82 10000 3 340 23:38 17.08.2019
3489 Clear 16 1006 82 10000 3 340 23:20 17.08.2019
3490 Clear 17 1005 82 10000 3 350 22:58 17.08.2019
3491 Clear 17 1005 82 10000 2 340 22:40 17.08.2019
3492 Clear 17 1005 82 10000 3 340 22:21 17.08.2019
3493 Clear 17 1005 82 10000 3 340 21:55 17.08.2019
3494 Clear 17 1005 82 10000 3 340 21:37 17.08.2019
3495 Clear 18 1005 77 10000 3 360 21:18 17.08.2019
3496 Clear 19 1005 72 10000 2 360 20:39 17.08.2019
3497 Clear 23 1005 72 10000 2 360 20:20 17.08.2019
3498 Clear 22 1005 77 10000 3 350 19:56 17.08.2019
3499 Clear 22 1005 82 10000 1 10 19:37 17.08.2019
3500 Clear 22 1005 77 10000 1 20 19:19 17.08.2019
3501 Clear 22 1005 82 10000 2 10 18:39 17.08.2019
3502 Clear 22 1005 77 10000 1 0 18:19 17.08.2019
3503 Clear 23 1005 77 10000 1 0 17:55 17.08.2019
3504 Clear 23 1004 82 10000 1 0 17:37 17.08.2019
3505 Clear 23 1004 72 10000 1 0 17:18 17.08.2019
3506 Clear 22 1004 72 10000 1 0 16:43 17.08.2019
3507 Clear 22 1004 72 10000 1 0 16:25 17.08.2019
3508 Clear 25 1004 72 10000 1 0 15:57 17.08.2019
3509 Clear 25 1004 60 10000 1 0 15:39 17.08.2019
3510 Clear 25 1004 60 10000 1 0 15:20 17.08.2019
3511 Clear 26 1003 60 10000 1 0 14:41 17.08.2019
3512 Clear 28 1002 41 10000 2 40 14:22 17.08.2019
3513 Clear 29 1002 36 10000 3 360 13:48 17.08.2019
3514 Clear 30 1002 36 10000 3 360 13:23 17.08.2019
3515 Clear 32 1001 23 10000 6 330 12:58 17.08.2019
3516 Clear 32 1001 23 10000 6 330 12:39 17.08.2019
3517 Clear 33 1001 22 10000 6 340 12:19 17.08.2019
3518 Clear 33 1001 21 10000 8 330 11:44 17.08.2019
3519 Clear 34 1001 21 10000 8 320 11:21 17.08.2019
3520 Clear 34 1001 21 10000 8 320 10:56 17.08.2019
3521 Clear 34 1001 21 10000 8 320 10:38 17.08.2019
3522 Clear 34 1001 22 10000 7 300 10:18 17.08.2019
3523 Clear 34 1001 26 10000 6 330 09:44 17.08.2019
3524 Clear 34 1001 26 10000 6 330 09:26 17.08.2019
3525 Clear 34 1001 24 10000 6 330 08:54 17.08.2019
3526 Clear 34 1001 26 10000 7 330 08:25 17.08.2019
3527 Clear 34 1002 25 10000 7 310 07:46 17.08.2019
3528 Clear 33 1002 27 10000 8 300 07:21 17.08.2019
3529 Clear 32 1002 29 10000 8 300 06:42 17.08.2019
3530 Clear 31 1003 28 10000 8 310 05:32 17.08.2019
3531 Clear 31 1003 32 10000 6 290 04:29 17.08.2019
3532 Clear 28 1003 36 10000 8 300 03:20 17.08.2019
3533 Clear 28 1002 38 10000 7 290 01:46 17.08.2019
3534 Clear 28 1002 38 10000 7 290 01:27 17.08.2019
3535 Clear 27 1002 38 10000 5 290 00:54 17.08.2019
3536 Clear 25 1002 38 10000 6 280 00:28 17.08.2019
3537 Clear 23 1001 46 10000 4 280 23:50 16.08.2019
3538 Clear 23 1001 46 10000 4 280 23:27 16.08.2019
3539 Clear 23 1001 40 10000 4 290 22:56 16.08.2019
3540 Clear 23 1001 40 10000 5 280 22:37 16.08.2019
3541 Clear 23 1002 40 10000 3 280 22:19 16.08.2019
3542 Clear 23 1001 40 10000 4 290 21:40 16.08.2019
3543 Clear 24 1001 38 10000 5 310 21:20 16.08.2019
3544 Clear 24 1001 38 10000 5 310 20:56 16.08.2019
3545 Clear 25 1001 36 10000 6 310 20:37 16.08.2019
3546 Clear 26 1001 31 10000 6 300 20:18 16.08.2019
3547 Clear 26 1001 31 10000 6 290 19:42 16.08.2019
3548 Clear 26 1001 31 10000 6 290 19:22 16.08.2019
3549 Clear 26 1001 34 10000 5 290 18:44 16.08.2019
3550 Clear 26 1001 34 10000 5 290 18:26 16.08.2019
3551 Clear 25 1001 53 10000 2 350 17:58 16.08.2019
3552 Clear 25 1001 44 10000 3 340 17:39 16.08.2019
3553 Clear 26 1001 44 10000 3 340 17:20 16.08.2019
3554 Clear 26 1001 41 10000 4 320 16:42 16.08.2019
3555 Clear 27 1001 41 10000 4 320 16:22 16.08.2019
3556 Clear 27 1001 41 10000 5 300 15:59 16.08.2019
3557 Clear 27 1000 36 10000 6 290 15:40 16.08.2019
3558 Clear 26 1000 64 10000 1 0 15:21 16.08.2019
3559 Clear 26 1000 64 10000 1 0 14:58 16.08.2019
3560 Clear 26 1000 56 10000 1 0 14:39 16.08.2019
3561 Clear 26 1000 56 10000 1 0 14:19 16.08.2019
3562 Clear 28 999 36 10000 4 330 13:42 16.08.2019
3563 Clear 29 999 30 10000 5 310 13:23 16.08.2019
3564 Clear 29 999 30 10000 5 310 12:58 16.08.2019
3565 Clear 30 999 32 10000 6 320 12:37 16.08.2019
3566 Clear 30 999 32 10000 6 320 12:37 16.08.2019
3567 Clear 31 999 30 10000 8 320 12:19 16.08.2019
3568 Clear 31 999 32 10000 8 320 11:42 16.08.2019
3569 Clear 31 999 32 10000 8 320 11:24 16.08.2019
3570 Clear 31 999 33 10000 9 310 10:44 16.08.2019
3571 Clear 31 999 33 10000 9 310 10:26 16.08.2019
3572 Clear 31 999 33 10000 10 310 09:56 16.08.2019
3573 Clear 31 998 35 10000 9 300 09:37 16.08.2019
3574 Clear 31 998 37 10000 10 310 09:18 16.08.2019
3575 Clear 31 998 37 10000 10 310 09:18 16.08.2019
3576 Clear 31 998 37 10000 9 310 08:41 16.08.2019
3577 Clear 31 998 37 10000 9 310 08:21 16.08.2019
3578 Clear 31 998 37 10000 8 280 07:55 16.08.2019
3579 Clear 31 998 37 10000 9 300 07:33 16.08.2019
3580 Clear 30 998 35 10000 9 300 06:59 16.08.2019
3581 Clear 30 998 35 10000 8 310 06:31 16.08.2019
3582 Clear 30 998 39 10000 8 320 05:42 16.08.2019
3583 Clear 29 999 42 10000 8 290 04:31 16.08.2019
3584 Clear 27 999 44 10000 7 300 02:47 16.08.2019
3585 Clear 25 999 49 10000 6 300 01:42 16.08.2019
3586 Clear 26 999 49 10000 6 300 01:19 16.08.2019
3587 Clear 24 998 53 10000 7 300 00:41 16.08.2019
3588 Clear 24 998 53 10000 7 300 00:21 16.08.2019
3589 Clear 23 998 53 10000 5 320 23:45 15.08.2019
3590 Clear 24 998 53 10000 5 320 23:22 15.08.2019
3591 Clear 24 998 49 10000 6 310 22:58 15.08.2019
3592 Clear 24 998 49 10000 7 300 22:39 15.08.2019
3593 Clear 24 998 49 10000 7 300 22:20 15.08.2019
3594 Clear 22 998 82 10000 3 350 21:55 15.08.2019
3595 Clear 22 998 82 10000 3 10 21:37 15.08.2019
3596 Clear 23 998 77 10000 2 340 21:18 15.08.2019
3597 Clear 23 998 77 10000 2 350 20:43 15.08.2019
3598 Clear 23 998 77 10000 2 350 20:22 15.08.2019
3599 Clear 23 999 77 10000 3 350 19:57 15.08.2019
3600 Clear 23 998 73 10000 2 10 19:39 15.08.2019
3601 Clear 23 998 73 10000 2 10 19:20 15.08.2019
3602 Clear 22 998 73 10000 4 360 18:47 15.08.2019
3603 Clear 24 998 73 10000 4 360 18:23 15.08.2019
3604 Clouds 24 997 77 10000 5 10 17:58 15.08.2019
3605 Thunderstorm 24 997 83 10000 5 20 17:38 15.08.2019
3606 Thunderstorm 26 998 69 10000 4 20 17:19 15.08.2019
3607 Thunderstorm 27 998 69 10000 4 20 16:56 15.08.2019
3608 Clouds 28 998 51 10000 7 290 16:38 15.08.2019
3609 Clouds 28 998 51 10000 7 290 16:20 15.08.2019
3610 Clouds 29 994 69 10000 1 0 15:38 15.08.2019
3611 Clouds 29 994 69 10000 1 0 15:19 15.08.2019
3612 Clouds 29 994 74 10000 2 360 14:56 15.08.2019
3613 Clouds 29 994 74 10000 3 360 14:37 15.08.2019
3614 Clouds 30 994 74 10000 1 0 14:18 15.08.2019
3615 Clouds 29 994 74 10000 1 0 13:55 15.08.2019
3616 Clear 31 994 58 10000 3 180 13:36 15.08.2019
3617 Thunderstorm 31 994 55 10000 4 210 13:18 15.08.2019
3618 Clouds 31 994 55 10000 4 180 12:40 15.08.2019
3619 Clouds 32 994 55 10000 4 180 12:20 15.08.2019
3620 Clear 33 995 58 10000 4 170 11:57 15.08.2019
3621 Clear 33 995 58 10000 4 170 11:57 15.08.2019
3622 Clear 33 994 55 10000 4 140 11:38 15.08.2019
3623 Clear 34 994 55 10000 4 150 11:18 15.08.2019
3624 Clear 34 994 55 10000 4 150 10:58 15.08.2019
3625 Clear 34 995 52 10000 4 140 10:37 15.08.2019
3626 Clear 34 995 52 10000 3 140 10:18 15.08.2019
3627 Clear 34 996 52 10000 3 130 09:43 15.08.2019
3628 Clear 34 996 52 10000 3 130 09:22 15.08.2019
3629 Clear 34 996 55 10000 5 130 08:39 15.08.2019
3630 Clear 35 996 55 10000 5 130 08:21 15.08.2019
3631 Clear 35 997 41 10000 4 180 07:56 15.08.2019
3632 Clear 35 998 46 10000 3 0 07:38 15.08.2019
3633 Clear 35 998 46 10000 3 0 07:20 15.08.2019
3634 Clear 35 998 52 10000 2 160 06:47 15.08.2019
3635 Clear 33 998 52 10000 2 160 06:25 15.08.2019
3636 Clear 34 999 55 10000 1 0 05:30 15.08.2019
3637 Clear 34 1000 55 10000 1 0 04:57 15.08.2019
3638 Clear 32 1000 58 10000 1 0 03:57 15.08.2019
3639 Clear 30 1000 58 10000 1 0 03:19 15.08.2019
3640 Clear 28 1001 73 10000 2 10 02:26 15.08.2019
3641 Clear 28 1001 78 10000 3 340 01:41 15.08.2019
3642 Clear 26 1001 83 10000 3 340 00:56 15.08.2019
3643 Clear 25 1001 94 10000 2 340 00:36 15.08.2019
3644 Clear 23 1001 93 10000 1 340 00:18 15.08.2019
3645 Clear 22 1001 93 10000 1 340 23:55 14.08.2019
3646 Clear 22 1001 93 10000 1 50 23:36 14.08.2019
3647 Clear 22 1001 94 10000 1 0 23:18 14.08.2019
3648 Clear 22 1001 94 10000 2 350 22:41 14.08.2019
3649 Clear 23 1001 94 10000 2 350 22:22 14.08.2019
3650 Clear 23 1001 88 10000 1 10 21:57 14.08.2019
3651 Clear 23 1001 94 10000 2 20 21:39 14.08.2019
3652 Clear 23 1001 94 10000 2 20 21:39 14.08.2019
3653 Clear 23 1001 94 10000 2 20 21:20 14.08.2019
3654 Clear 23 1001 94 10000 1 0 20:56 14.08.2019
3655 Clear 23 1001 94 10000 0.96 309.736 20:38 14.08.2019
3656 Clear 22 1001 83 10000 2 360 20:18 14.08.2019
3657 Clear 26 1001 94 10000 2 350 19:41 14.08.2019
3658 Clear 21 1001 94 10000 2 360 19:22 14.08.2019
3659 Clear 21 1001 94 10000 2 360 18:59 14.08.2019
3660 Clear 22 1001 88 10000 2 10 18:41 14.08.2019
3661 Clear 22 1001 88 10000 2 10 18:23 14.08.2019
3662 Clear 22 1001 88 10000 1 0 17:59 14.08.2019
3663 Clear 22 1001 88 10000 1 0 17:59 14.08.2019
3664 Clear 21 1001 94 10000 1 0 17:40 14.08.2019
3665 Clear 22 1001 88 10000 1 0 17:21 14.08.2019
3666 Clear 22 1001 88 10000 1 0 16:57 14.08.2019
3667 Clear 22 1002 88 10000 1.81 262.51 16:39 14.08.2019
3668 Clear 22 1002 83 10000 1 0 16:19 14.08.2019
3669 Clear 23 1002 78 10000 1 0 15:43 14.08.2019
3670 Clear 23 1002 78 10000 1 0 15:43 14.08.2019
3671 Clear 23 1002 78 10000 1 0 15:19 14.08.2019
3672 Clear 23 1001 78 10000 2.08 214.685 14:57 14.08.2019
3673 Clear 24 1001 73 10000 1 0 14:39 14.08.2019
3674 Clear 26 1001 65 10000 2 350 14:19 14.08.2019
3675 Clear 29 1000 51 10000 3 100 13:44 14.08.2019
3676 Clear 29 1000 51 10000 3 100 13:24 14.08.2019
3677 Clear 30 1001 48 10000 2 70 12:58 14.08.2019
3678 Clear 30 1001 45 10000 2 70 12:39 14.08.2019
3679 Clear 30 1001 45 10000 2 70 12:21 14.08.2019
3680 Clear 31 1001 43 10000 2 30 11:57 14.08.2019
3681 Clear 32 1001 38 10000 4 30 11:38 14.08.2019
3682 Clear 32 1001 38 10000 4 30 11:38 14.08.2019
3683 Clear 32 1001 38 10000 4 30 11:20 14.08.2019
3684 Clear 33 1001 41 10000 2 10 10:45 14.08.2019
3685 Clear 33 1001 41 10000 2 10 10:24 14.08.2019
3686 Clear 33 1001 41 10000 2 360 09:58 14.08.2019
3687 Clear 31 1002 45 10000 3 360 09:39 14.08.2019
3688 Clear 31 1002 45 10000 3 360 09:19 14.08.2019
3689 Clear 33 1002 43 10000 3 360 08:40 14.08.2019
3690 Clear 33 1002 43 10000 3 360 08:21 14.08.2019
3691 Clear 31 1002 45 10000 4 360 07:53 14.08.2019
3692 Clear 31 1002 45 10000 4 360 07:33 14.08.2019
3693 Clear 29 1003 58 10000 2 20 06:47 14.08.2019
3694 Clear 30 1003 55 10000 2 40 05:54 14.08.2019
3695 Clear 30 1003 55 10000 2 350 05:28 14.08.2019
3696 Clear 28 1003 58 10000 3 350 03:38 14.08.2019
3697 Clear 26 1003 69 10000 3 350 02:34 14.08.2019
3698 Clear 25 1003 73 10000 2 10 01:54 14.08.2019
3699 Clear 24 1003 78 10000 2 350 01:19 14.08.2019
3700 Clear 24 1003 88 10000 3 340 23:55 13.08.2019
3701 Clear 24 1003 88 10000 3 350 23:37 13.08.2019
3702 Clear 24 1002 88 10000 2 340 23:18 13.08.2019
3703 Clear 24 1003 83 10000 1 10 22:42 13.08.2019
3704 Clear 24 1003 83 10000 1 10 22:24 13.08.2019
3705 Clear 25 1003 83 10000 2 340 21:59 13.08.2019
3706 Clear 25 1003 83 10000 2 10 21:39 13.08.2019
3707 Clear 25 1003 83 10000 2 10 21:19 13.08.2019
3708 Clear 25 1003 88 10000 1 0 20:58 13.08.2019
3709 Clear 25 1003 78 10000 2 10 20:39 13.08.2019
3710 Clear 26 1003 78 10000 2 340 20:19 13.08.2019
3711 Clear 26 1003 78 10000 2 340 19:54 13.08.2019
3712 Clear 25 1003 94 10000 1 0 19:36 13.08.2019
3713 Clear 25 1003 94 10000 1 0 19:18 13.08.2019
3714 Clear 25 1003 88 10000 1 0 18:41 13.08.2019
3715 Clear 26 1003 88 10000 1 0 18:21 13.08.2019
3716 Clear 26 1003 78 10000 1 0 17:43 13.08.2019
3717 Clear 26 1003 78 10000 1 0 17:43 13.08.2019
3718 Clear 26 1003 78 10000 1 0 17:23 13.08.2019
3719 Clear 25 1003 78 10000 2 190 16:59 13.08.2019
3720 Clear 26 1003 74 10000 3 180 16:40 13.08.2019
3721 Clear 27 1003 78 10000 3 180 16:21 13.08.2019
3722 Clear 27 1003 78 10000 3 180 15:59 13.08.2019
3723 Clear 26 1003 78 10000 2 120 15:38 13.08.2019
3724 Clear 27 1003 78 10000 2 120 15:19 13.08.2019
3725 Clear 28 1002 65 10000 1 0 14:45 13.08.2019
3726 Clear 28 1002 65 10000 1 0 14:20 13.08.2019
3727 Clear 29 1002 54 10000 2 30 13:58 13.08.2019
3728 Clear 30 1001 51 10000 3 40 13:40 13.08.2019
3729 Clear 30 1001 51 10000 3 40 13:20 13.08.2019
3730 Clear 30 1001 51 10000 4 40 12:56 13.08.2019
3731 Clear 30 1001 51 10000 4 30 12:38 13.08.2019
3732 Clear 32 1001 52 10000 3 40 12:19 13.08.2019
3733 Clear 32 1001 55 10000 2 60 11:42 13.08.2019
3734 Clear 32 1001 52 10000 3 20 11:22 13.08.2019
3735 Clear 33 1001 52 10000 3 20 10:57 13.08.2019
3736 Clear 33 1000 48 10000 4 40 10:38 13.08.2019
3737 Clear 32 1001 52 10000 4 20 10:19 13.08.2019
3738 Clear 32 1001 52 10000 4 20 10:19 13.08.2019
3739 Clear 32 1001 52 10000 4 30 09:46 13.08.2019
3740 Clear 32 1001 52 10000 4 30 09:25 13.08.2019
3741 Clear 32 1001 52 10000 5 40 08:59 13.08.2019
3742 Clear 32 1001 52 10000 5 30 08:39 13.08.2019
3743 Clear 32 1001 48 10000 5 20 08:20 13.08.2019
3744 Clear 31 1001 52 10000 4 20 07:46 13.08.2019
3745 Clear 31 1001 52 10000 4 20 07:25 13.08.2019
3746 Clear 31 1001 48 10000 6 10 06:44 13.08.2019
3747 Clear 30 1002 51 10000 7 20 05:58 13.08.2019
3748 Clear 29 1002 54 10000 7 20 05:20 13.08.2019
3749 Clear 26 1001 69 10000 2 360 02:22 13.08.2019
3750 Clear 24 1001 83 10000 2 350 01:41 13.08.2019
3751 Clear 24 1001 78 10000 3 350 00:52 13.08.2019
3752 Clear 24 1000 83 10000 3 330 00:22 13.08.2019
3753 Clear 24 1000 88 10000 3 340 23:44 12.08.2019
3754 Clear 23 1000 88 10000 3 340 23:21 12.08.2019
3755 Clear 24 1000 83 10000 2 300 22:56 12.08.2019
3756 Clear 24 1000 88 10000 2 350 22:38 12.08.2019
3757 Clear 23 1000 83 10000 2 340 22:18 12.08.2019
3758 Clear 23 1000 83 10000 2 340 21:54 12.08.2019
3759 Clear 23 1000 78 10000 3 300 21:36 12.08.2019
3760 Clear 23 1000 83 10000 3 340 21:18 12.08.2019
3761 Clear 23 1000 83 10000 3 330 20:41 12.08.2019
3762 Clear 23 1000 78 10000 4 330 20:21 12.08.2019
3763 Clear 23 1000 78 10000 4 330 19:58 12.08.2019
3764 Clear 23 1001 83 10000 4 310 19:39 12.08.2019
3765 Clear 23 1001 83 10000 4 310 19:21 12.08.2019
3766 Clear 23 1001 83 10000 4 290 18:59 12.08.2019
3767 Clear 23 1001 83 10000 4 310 18:39 12.08.2019
3768 Clear 23 1001 83 10000 4 310 18:21 12.08.2019
3769 Clear 23 1001 78 10000 4 330 17:56 12.08.2019
3770 Clouds 23 1001 78 10000 5 320 17:38 12.08.2019
3771 Clouds 23 1001 78 10000 5 320 17:20 12.08.2019
3772 Rain 23 1001 78 10000 5 320 16:55 12.08.2019
3773 Clear 23 1001 88 10000 5 320 16:36 12.08.2019
3774 Clear 23 1001 88 10000 3 10 16:18 12.08.2019
3775 Clouds 23 1001 88 10000 5 330 15:42 12.08.2019
3776 Clouds 23 1001 88 10000 5 330 15:41 12.08.2019
3777 Rain 23 1001 83 10000 5 10 15:21 12.08.2019
3778 Rain 23 1001 83 10000 5 10 14:56 12.08.2019
3779 Rain 23 1001 83 10000 5 30 14:38 12.08.2019
3780 Rain 24 1000 61 10000 3 40 14:19 12.08.2019
3781 Clear 26 999 54 10000 4 20 13:43 12.08.2019
3782 Clear 26 999 54 10000 4 20 13:24 12.08.2019
3783 Clear 28 998 51 10000 5 20 12:59 12.08.2019
3784 Clear 27 998 48 10000 7 10 12:40 12.08.2019
3785 Clear 28 998 51 10000 6 10 12:18 12.08.2019
3786 -273 0 0 0 0 0 11:42 12.08.2019
3787 -273 0 0 0 0 0 11:41 12.08.2019
3788 Clear 28 998 51 10000 6 10 11:41 12.08.2019
3789 Clear 28 998 51 10000 6 10 11:23 12.08.2019
3790 Clear 28 998 51 10000 6 10 10:43 12.08.2019
3791 Clear 28 998 51 10000 6 10 10:23 12.08.2019
3792 Clear 28 998 51 10000 6 10 09:56 12.08.2019
3793 Clear 28 997 54 10000 5 10 09:38 12.08.2019
3794 Clear 28 997 54 10000 5 10 09:19 12.08.2019
3795 Clear 28 997 54 10000 5 10 09:19 12.08.2019
3796 Clear 28 997 54 10000 5 10 09:19 12.08.2019
3797 Clear 28 997 51 10000 7 10 08:58 12.08.2019
3798 Clear 28 997 54 10000 6 10 08:38 12.08.2019
3799 Clear 28 997 54 10000 6 10 08:19 12.08.2019
3800 Clear 28 997 54 10000 6 10 07:52 12.08.2019
3801 Clear 28 997 61 10000 6 360 07:27 12.08.2019
3802 Rain 26 998 78 10000 5 350 06:50 12.08.2019
3803 Clear 27 998 58 10000 4 20 05:39 12.08.2019
3804 Clear 28 997 57 10000 5 360 02:44 12.08.2019
3805 Clear 27 997 61 10000 4 350 01:55 12.08.2019
3806 Clear 26 997 69 10000 5 350 01:21 12.08.2019
3807 Clear 26 997 69 10000 5 350 00:58 12.08.2019
3808 Clear 25 997 65 10000 5 350 00:38 12.08.2019
3809 Clear 25 997 69 10000 4 360 00:19 12.08.2019
3810 Clear 26 997 69 10000 4 360 23:54 11.08.2019
3811 Clear 25 996 69 10000 4 350 23:36 11.08.2019
3812 Clear 25 996 73 10000 3 360 23:18 11.08.2019
3813 Clear 25 996 73 10000 3 360 23:18 11.08.2019
3814 Clear 25 997 73 10000 3 340 22:40 11.08.2019
3815 Clear 25 997 73 10000 3 340 22:19 11.08.2019
3816 Clear 25 997 65 10000 2 360 21:59 11.08.2019
3817 Clear 25 997 69 10000 3 10 21:40 11.08.2019
3818 Clear 25 997 69 10000 3 10 21:21 11.08.2019
3819 Clear 25 997 69 10000 3 10 20:57 11.08.2019
3820 Clear 25 997 69 10000 3 10 20:57 11.08.2019
3821 Clear 25 997 78 10000 2 350 20:39 11.08.2019
3822 Clear 24 997 78 10000 3 360 20:20 11.08.2019
3823 Clear 25 998 83 10000 2 350 19:43 11.08.2019
3824 Clear 25 998 83 10000 3 10 19:19 11.08.2019
3825 Clear 25 998 83 10000 2 350 18:42 11.08.2019
3826 Clear 25 998 83 10000 2 350 18:23 11.08.2019
3827 Clear 24 999 88 10000 2 360 17:59 11.08.2019
3828 Clear 25 999 83 10000 2 360 17:40 11.08.2019
3829 Clear 25 999 83 10000 2 360 17:20 11.08.2019
3830 Clear 25 999 78 10000 3 30 16:56 11.08.2019
3831 Clear 25 999 73 10000 3 20 16:38 11.08.2019
3832 Clear 25 999 73 10000 3 20 16:19 11.08.2019
3833 Clear 25 1000 83 10000 2 10 15:44 11.08.2019
3834 Clear 25 1000 83 10000 2 10 15:24 11.08.2019
3835 Clear 25 1000 73 10000 3 10 14:59 11.08.2019
3836 Clear 25 1000 78 10000 3 10 14:39 11.08.2019
3837 Clear 25 1000 78 10000 3 20 14:20 11.08.2019
3838 Clear 25 1000 78 10000 4 10 13:44 11.08.2019
3839 Clear 25 1000 78 10000 4 10 13:25 11.08.2019
3840 Rain 24 1000 83 10000 4 10 12:56 11.08.2019
3841 Rain 24 1000 78 10000 4 20 12:37 11.08.2019
3842 Rain 25 1000 78 10000 3 30 12:18 11.08.2019
3843 Rain 25 1000 83 10000 3 30 11:39 11.08.2019
3844 Rain 24 1000 83 10000 3 30 11:21 11.08.2019
3845 Clear 24 1000 83 10000 4 40 10:55 11.08.2019
3846 Rain 25 1000 78 10000 3 20 10:37 11.08.2019
3847 Rain 25 1000 88 10000 2 10 10:18 11.08.2019
3848 Rain 25 1000 88 10000 2 10 10:18 11.08.2019
3849 Rain 25 1001 88 10000 1 0 09:42 11.08.2019
3850 Rain 24 1001 88 10000 1 0 09:23 11.08.2019
3851 Rain 26 1001 88 10000 1 0 08:49 11.08.2019
3852 Rain 26 1001 88 10000 1 0 08:29 11.08.2019
3853 Rain 24 1001 94 10000 1 0 07:57 11.08.2019
3854 Rain 24 1001 88 10000 2 90 07:30 11.08.2019
3855 Rain 25 1002 88 10000 2 80 06:46 11.08.2019
3856 Rain 25 1002 88 10000 2 80 06:28 11.08.2019
3857 Clouds 25 1002 83 10000 3 20 04:40 11.08.2019
3858 Clouds 25 1003 83 10000 2 360 02:50 11.08.2019
3859 Clouds 25 1002 88 10000 3 340 01:56 11.08.2019
3860 Clouds 24 1002 94 10000 2 330 01:30 11.08.2019
3861 Clouds 25 1002 88 10000 1 0 00:55 11.08.2019
3862 Clouds 25 1003 88 10000 1 0 00:34 11.08.2019
3863 Clouds 24 1002 94 10000 1 0 23:49 10.08.2019
3864 Clouds 25 1002 88 10000 2 40 23:29 10.08.2019
3865 Clouds 25 1003 88 10000 2 40 22:54 10.08.2019
3866 Clouds 25 1002 88 10000 3 60 22:36 10.08.2019
3867 Clouds 25 1002 94 10000 2 70 22:18 10.08.2019
3868 Clouds 25 1003 94 10000 2 70 21:40 10.08.2019
3869 Clouds 25 1003 94 10000 2 60 21:21 10.08.2019
3870 Clouds 25 1003 94 10000 2 60 20:57 10.08.2019
3871 Clouds 25 1003 88 10000 2 90 20:39 10.08.2019
3872 Clouds 25 1004 94 10000 3 100 20:19 10.08.2019
3873 Clouds 25 1004 94 10000 2 90 19:43 10.08.2019
3874 Clouds 25 1004 94 10000 2 90 19:24 10.08.2019
3875 Clouds 25 1004 94 10000 2 90 19:24 10.08.2019
3876 Clear 26 1004 88 10000 2 90 18:42 10.08.2019
3877 Clear 26 1004 88 10000 2 90 18:24 10.08.2019
3878 Clear 26 1004 88 10000 1 80 17:57 10.08.2019
3879 Clear 25 1004 94 10000 2 60 17:38 10.08.2019
3880 Clear 25 1004 94 10000 2 60 17:19 10.08.2019
3881 Clear 26 1004 94 10000 1 70 16:43 10.08.2019
3882 Clear 25 1004 94 10000 1 70 16:24 10.08.2019
3883 Clear 26 1004 94 10000 1 0 15:48 10.08.2019
3884 Clear 26 1004 94 10000 1 0 15:22 10.08.2019
3885 Clear 26 1003 94 10000 1 90 14:44 10.08.2019
3886 Clear 26 1003 94 10000 1 90 14:44 10.08.2019
3887 Clear 26 1003 94 10000 1 90 14:21 10.08.2019
3888 Clear 26 1003 88 10000 1 60 13:41 10.08.2019
3889 Clear 27 1003 83 10000 1.71 173.378 13:20 10.08.2019
3890 Clear 28 1003 83 10000 1.71 173.378 12:55 10.08.2019
3891 Clear 28 1003 69 10000 1 0 12:37 10.08.2019
3892 Clear 28 1003 78 10000 2 140 12:18 10.08.2019
3893 Clear 28 1003 78 10000 3 120 11:41 10.08.2019
3894 Clear 28 1003 78 10000 3 120 11:22 10.08.2019
3895 Clear 29 1002 78 10000 2 110 10:55 10.08.2019
3896 Clear 29 1002 74 10000 2 80 10:37 10.08.2019
3897 Clear 28 1002 78 10000 2 90 10:19 10.08.2019
3898 Clear 28 1003 78 10000 2 110 09:42 10.08.2019
3899 Clear 28 1003 78 10000 2 110 09:23 10.08.2019
3900 Clouds 28 1003 78 10000 2 130 08:42 10.08.2019
3901 Clouds 28 1003 78 10000 2 130 08:22 10.08.2019
3902 Clouds 28 1003 74 10000 1 0 07:54 10.08.2019
3903 Clouds 29 1003 74 10000 2 320 07:29 10.08.2019
3904 Clouds 28 1003 78 10000 1 0 06:52 10.08.2019
3905 Clouds 28 1004 78 10000 1 0 06:30 10.08.2019
3906 Clouds 28 1004 88 10000 2 120 05:44 10.08.2019
3907 Clouds 27 1004 94 10000 2 130 05:18 10.08.2019
3908 Rain 25 1004 94 10000 2 360 03:32 10.08.2019
3909 Rain 25 1004 94 10000 2 100 02:32 10.08.2019
3910 Rain 25 1003 94 10000 2 360 01:44 10.08.2019
3911 Rain 25 1003 94 10000 2 360 01:23 10.08.2019
3912 Rain 25 1003 94 8000 3 350 00:58 10.08.2019
3913 Rain 25 1003 94 8000 2 330 00:39 10.08.2019
3914 Rain 25 1003 94 8000 2 330 00:18 10.08.2019
3915 Rain 25 1002 100 8000 1 50 23:38 09.08.2019
3916 Rain 25 1002 100 8000 1 50 23:20 09.08.2019
3917 Rain 24 1003 94 8000 1 0 22:54 09.08.2019
3918 Clouds 24 1002 94 10000 0.71 238.498 22:36 09.08.2019
3919 Clouds 24 1002 88 10000 1 0 22:18 09.08.2019
3920 Clouds 24 1003 88 10000 3 310 21:40 09.08.2019
3921 Clouds 25 1003 88 10000 3 310 21:21 09.08.2019
3922 Clouds 25 1003 88 10000 3 300 20:57 09.08.2019
3923 Clouds 25 1003 94 10000 2 340 20:38 09.08.2019
3924 Clouds 25 1003 100 10000 1 60 20:18 09.08.2019
3925 Clouds 24 1003 94 10000 1 0 19:43 09.08.2019
3926 Clouds 24 1003 94 10000 1 0 19:22 09.08.2019
3927 Clouds 24 1003 88 10000 3 340 19:22 09.08.2019
3928 Clouds 24 1003 88 10000 3 340 18:56 09.08.2019
3929 Clouds 25 1004 88 10000 5 320 18:38 09.08.2019
3930 Clouds 25 1004 88 10000 5 320 18:38 09.08.2019
3931 Rain 25 1004 94 10000 5 330 18:19 09.08.2019
3932 Rain 25 1004 94 10000 5 330 18:19 09.08.2019
3933 Rain 25 1004 88 10000 5 320 17:42 09.08.2019
3934 Rain 25 1004 88 10000 5 320 17:24 09.08.2019
3935 -273 0 0 0 0 0 16:55 09.08.2019
3936 Clouds 25 1004 88 10000 2 30 16:36 09.08.2019
3937 Clouds 25 1004 94 10000 1 0 16:18 09.08.2019
3938 Clouds 25 1004 94 10000 1 0 16:18 09.08.2019
3939 Clouds 24 1004 94 10000 2 20 15:41 09.08.2019
3940 Rain 25 1004 94 10000 2 360 15:21 09.08.2019
3941 Rain 24 1004 94 10000 2 360 14:58 09.08.2019
3942 Rain 25 1004 94 10000 2 10 14:38 09.08.2019
3943 Rain 25 1004 94 10000 2 10 14:20 09.08.2019
3944 Rain 25 1004 94 10000 2 340 13:46 09.08.2019
3945 Rain 24 1004 94 10000 2 340 13:21 09.08.2019
3946 Clear 25 1004 88 10000 2 360 12:56 09.08.2019
3947 Clear 25 1003 88 10000 2 40 12:37 09.08.2019
3948 Thunderstorm 28 1003 88 10000 3 40 12:18 09.08.2019
3949 Thunderstorm 29 1004 94 2900 5 40 11:41 09.08.2019
3950 Thunderstorm 30 1004 83 2800 5 10 11:21 09.08.2019
3951 Thunderstorm 31 1004 83 2800 5 10 10:54 09.08.2019
3952 Thunderstorm 31 1003 83 3500 11 300 10:36 09.08.2019
3953 Thunderstorm 32 1003 70 8000 6 240 10:18 09.08.2019
3954 Clouds 33 1003 62 10000 5 160 09:40 09.08.2019
3955 Clouds 33 1003 62 10000 5 150 09:19 09.08.2019
3956 Clouds 33 1003 66 8000 4 150 08:45 09.08.2019
3957 Clouds 33 1003 66 8000 4 150 08:25 09.08.2019
3958 Clouds 33 1003 70 7000 5 160 07:56 09.08.2019
3959 Clouds 33 1003 70 7000 5 140 07:37 09.08.2019
3960 Clouds 32 1003 70 7000 5 130 07:19 09.08.2019
3961 Clouds 32 1004 70 7000 3 140 06:44 09.08.2019
3962 Rain 32 1004 74 6000 3 140 06:21 09.08.2019
3963 Rain 31 1005 74 6000 3 140 05:31 09.08.2019
3964 Clouds 29 1005 83 6000 3 130 02:27 09.08.2019
3965 Rain 27 1005 88 6000 2 130 01:24 09.08.2019
3966 Rain 27 1005 88 8000 2 130 00:42 09.08.2019
3967 Rain 27 1005 88 8000 2 130 00:23 09.08.2019
3968 Rain 27 1005 88 8000 2 130 23:56 08.08.2019
3969 Rain 27 1005 88 8000 3 150 23:37 08.08.2019
3970 Clouds 27 1005 78 10000 4 140 23:18 08.08.2019
3971 Clouds 27 1005 78 10000 4 140 22:54 08.08.2019
3972 Clouds 27 1005 78 8000 2 150 22:36 08.08.2019
3973 Rain 27 1005 83 6000 3 160 22:18 08.08.2019
3974 Rain 28 1005 83 6000 3 160 21:42 08.08.2019
3975 Rain 28 1005 83 6000 3 140 21:23 08.08.2019
3976 Rain 28 1005 83 6000 3 140 20:57 08.08.2019
3977 Rain 28 1005 83 7000 3 140 20:39 08.08.2019
3978 Rain 28 1005 83 7000 3 140 20:19 08.08.2019
3979 Rain 28 1005 88 8000 2 150 19:48 08.08.2019
3980 Rain 28 1005 88 8000 2 150 19:28 08.08.2019
3981 Clear 28 1006 83 10000 2 150 18:57 08.08.2019
3982 Clear 29 1006 78 10000 3 140 18:36 08.08.2019
3983 Clear 29 1005 83 10000 2 130 18:18 08.08.2019
3984 Clear 29 1005 83 10000 2 130 18:18 08.08.2019
3985 Clear 29 1005 88 10000 1 0 17:42 08.08.2019
3986 Clear 29 1005 88 10000 1 0 17:23 08.08.2019
3987 Clear 29 1005 83 10000 1 150 16:57 08.08.2019
3988 Clear 29 1005 88 10000 1 140 16:39 08.08.2019
3989 Clear 29 1006 83 10000 2 160 16:20 08.08.2019
3990 Clear 29 1006 83 10000 2 160 15:57 08.08.2019
3991 Clear 30 1006 78 10000 1 150 15:37 08.08.2019
3992 Clear 30 1005 74 10000 2 150 15:19 08.08.2019
3993 Clear 30 1005 74 10000 2 150 14:38 08.08.2019
3994 Clear 31 1005 66 10000 2 150 14:19 08.08.2019
3995 Clear 31 1004 66 10000 3 170 13:42 08.08.2019
3996 Clear 31 1004 66 10000 3 170 13:23 08.08.2019
3997 Clear 32 1004 62 10000 4 170 12:58 08.08.2019
3998 Clear 32 1004 62 10000 4 180 12:38 08.08.2019
3999 Clear 33 1004 66 10000 3 130 12:18 08.08.2019
4000 Clear 33 1004 62 10000 3 130 11:42 08.08.2019
4001 Clear 34 1004 62 10000 3 130 11:24 08.08.2019
4002 Clear 34 1004 59 10000 3 130 10:42 08.08.2019
4003 Clear 34 1004 59 10000 3 130 10:22 08.08.2019
4004 Clear 33 1004 62 10000 2 140 09:58 08.08.2019
4005 Clear 33 1005 62 10000 3 180 09:39 08.08.2019
4006 Clear 33 1005 62 10000 3 180 09:20 08.08.2019
4007 Clear 34 1005 59 10000 2 0 08:42 08.08.2019
4008 Clear 34 1006 55 10000 2 0 08:21 08.08.2019
4009 Clear 34 1005 59 10000 2 0 08:21 08.08.2019
4010 Clear 33 1006 55 10000 2 0 07:56 08.08.2019
4011 Clear 33 1006 55 10000 2 0 07:56 08.08.2019
4012 Clear 34 1006 62 10000 2 0 07:37 08.08.2019
4013 Rain 33 1006 62 8000 2 100 07:18 08.08.2019
4014 Rain 32 1006 66 7000 2 80 06:41 08.08.2019
4015 Clear 32 1007 66 8000 1 0 05:57 08.08.2019
4016 Clear 33 1007 66 7000 1 0 05:39 08.08.2019
4017 Clear 32 1007 70 6000 1 0 03:59 08.08.2019
4018 Clear 31 1007 78 6000 1 0 03:39 08.08.2019
4019 Mist 27 1006 94 5000 1 0 01:42 08.08.2019
4020 Mist 26 1006 94 5000 1 40 00:59 08.08.2019
4021 Mist 25 1006 94 5000 1 40 00:22 08.08.2019
4022 Clear 25 1006 94 7000 1 0 23:38 07.08.2019
4023 Clear 25 1005 94 8000 1 30 23:18 07.08.2019
4024 Clear 25 1005 94 10000 1 40 22:41 07.08.2019
4025 Clear 25 1005 94 10000 1 40 22:21 07.08.2019
4026 Clear 25 1005 94 10000 1 60 21:58 07.08.2019
4027 Clear 25 1005 94 10000 1 60 21:40 07.08.2019
4028 Clear 25 1005 94 10000 1 60 21:40 07.08.2019
4029 Clear 25 1005 94 10000 1 60 21:21 07.08.2019
4030 Clear 25 1005 100 10000 1 80 21:21 07.08.2019
4031 Clear 25 1005 100 10000 1 80 20:59 07.08.2019
4032 Clear 24 1005 100 10000 1 120 20:41 07.08.2019
4033 Clear 25 1005 100 10000 1 120 20:20 07.08.2019
4034 Clear 26 1005 94 10000 1 0 19:56 07.08.2019
4035 Clear 26 1005 94 10000 1 110 19:36 07.08.2019
4036 Clear 26 1005 94 10000 1 110 19:36 07.08.2019
4037 Clear 26 1005 94 10000 1 0 19:18 07.08.2019
4038 Clear 26 1005 94 10000 1 70 18:40 07.08.2019
4039 Clear 26 1005 83 10000 1 0 18:20 07.08.2019
4040 Clear 26 1005 83 10000 1 0 17:56 07.08.2019
4041 Clear 26 1005 83 10000 1 0 17:56 07.08.2019
4042 Clear 26 1005 88 10000 1 0 17:38 07.08.2019
4043 Thunderstorm 26 1005 83 10000 2 160 17:19 07.08.2019
4044 Thunderstorm 26 1005 83 10000 2 160 16:56 07.08.2019
4045 Thunderstorm 26 1005 83 10000 2 160 16:56 07.08.2019
4046 Thunderstorm 26 1005 83 10000 2 160 16:56 07.08.2019
4047 Thunderstorm 26 1005 88 10000 2 160 16:37 07.08.2019
4048 Clouds 26 1005 88 10000 1 0 16:19 07.08.2019
4049 Clear 27 1005 83 10000 2 90 15:42 07.08.2019
4050 Clear 27 1005 88 10000 2 90 15:20 07.08.2019
4051 Clear 28 1004 83 10000 1 90 14:50 07.08.2019
4052 Clear 28 1004 83 10000 1 90 14:30 07.08.2019
4053 Clear 28 1004 78 10000 2 80 13:59 07.08.2019
4054 Clouds 28 1003 83 10000 2 120 13:39 07.08.2019
4055 Clouds 29 1003 79 10000 1 0 13:19 07.08.2019
4056 Clouds 29 1003 79 10000 1 0 12:57 07.08.2019
4057 Clouds 30 1003 62 10000 2 120 12:38 07.08.2019
4058 Clouds 30 1003 62 10000 2 60 12:19 07.08.2019
4059 Clouds 31 1003 62 10000 2 60 11:57 07.08.2019
4060 Clouds 31 1003 58 10000 2 110 11:39 07.08.2019
4061 Clouds 32 1003 58 10000 1 0 11:18 07.08.2019
4062 Clouds 32 1003 66 10000 2 60 10:40 07.08.2019
4063 Clouds 32 1003 66 10000 2 60 10:20 07.08.2019
4064 Clear 33 1003 58 10000 1 0 09:55 07.08.2019
4065 Clear 32 1003 62 10000 2 140 09:37 07.08.2019
4066 Clear 32 1004 62 10000 2 80 09:18 07.08.2019
4067 Clear 31 1004 62 10000 2 60 08:45 07.08.2019
4068 Clear 33 1004 62 10000 2 60 08:24 07.08.2019
4069 Clear 30 1005 69 10000 2 30 07:50 07.08.2019
4070 Clear 32 1005 69 10000 2 30 07:30 07.08.2019
4071 Clear 31 1005 74 10000 2 30 06:44 07.08.2019
4072 Clear 30 1005 74 10000 2 30 06:22 07.08.2019
4073 Clear 30 1006 78 10000 1 0 05:42 07.08.2019
4074 Clouds 28 1006 78 10000 1 0 04:37 07.08.2019
4075 Clear 26 1005 88 10000 1 0 02:55 07.08.2019
4076 Clear 26 1005 88 10000 1 0 02:36 07.08.2019
4077 Clear 25 1005 94 10000 1 0 01:50 07.08.2019
4078 Rain 24 1004 94 8000 1 0 00:54 07.08.2019
4079 Clouds 24 1004 94 7000 1 0 00:24 07.08.2019
4080 Clouds 24 1005 94 7000 1 0 23:57 06.08.2019
4081 Clouds 24 1004 94 10000 1 50 23:36 06.08.2019
4082 Clear 24 1004 94 10000 1 0 23:18 06.08.2019
4083 Clear 24 1004 94 10000 2 340 22:40 06.08.2019
4084 Clear 24 1004 94 10000 2 340 22:21 06.08.2019
4085 Clear 23 1005 94 10000 1 0 21:57 06.08.2019
4086 Clear 23 1005 94 10000 1 0 21:38 06.08.2019
4087 Rain 24 1006 94 10000 2 10 21:19 06.08.2019
4088 Rain 24 1006 88 10000 5 330 20:45 06.08.2019
4089 Rain 24 1006 88 10000 5 330 20:27 06.08.2019
4090 Thunderstorm 25 1005 100 10000 5 350 19:56 06.08.2019
4091 Thunderstorm 25 1006 94 10000 2 70 19:37 06.08.2019
4092 Thunderstorm 26 1006 88 6000 7 340 19:18 06.08.2019
4093 Thunderstorm 26 1006 78 10000 2 0 18:41 06.08.2019
4094 Thunderstorm 26 1006 78 10000 2 0 18:21 06.08.2019
4095 Thunderstorm 27 1006 78 10000 2 90 17:57 06.08.2019
4096 Thunderstorm 27 1005 78 10000 3 100 17:37 06.08.2019
4097 Clouds 27 1006 83 10000 3 90 17:19 06.08.2019
4098 Clouds 28 1006 78 10000 3 130 16:44 06.08.2019
4099 Clouds 28 1006 78 10000 3 130 16:25 06.08.2019
4100 Thunderstorm 28 1006 83 10000 3 130 15:59 06.08.2019
4101 Thunderstorm 29 1005 83 10000 4 120 15:40 06.08.2019
4102 Thunderstorm 29 1005 83 10000 4 120 15:21 06.08.2019
4103 Clouds 29 1005 78 10000 4 130 14:59 06.08.2019
4104 Clouds 29 1004 78 10000 5 140 14:37 06.08.2019
4105 Clear 30 1004 79 10000 5 130 14:19 06.08.2019
4106 Clear 30 1004 70 10000 3 140 13:45 06.08.2019
4107 Clear 31 1004 70 10000 3 140 13:27 06.08.2019
4108 Clear 31 1004 70 10000 4 140 12:59 06.08.2019
4109 Clear 32 1003 66 10000 3 140 12:40 06.08.2019
4110 Clear 32 1003 66 10000 3 140 12:21 06.08.2019
4111 Clear 32 1003 66 10000 2 130 11:45 06.08.2019
4112 Clear 32 1003 66 10000 2 130 11:21 06.08.2019
4113 Clear 33 1003 62 10000 3 140 10:59 06.08.2019
4114 Clear 33 1003 66 10000 3 150 10:40 06.08.2019
4115 Clear 34 1003 66 10000 3 150 10:21 06.08.2019
4116 Clear 34 1004 62 10000 3 140 09:43 06.08.2019
4117 Clear 34 1004 62 10000 3 140 09:22 06.08.2019
4118 Clear 34 1004 62 10000 2 170 08:51 06.08.2019
4119 Rain 33 1004 66 7000 2 140 08:30 06.08.2019
4120 Rain 33 1005 66 7000 2 0 07:59 06.08.2019
4121 Rain 34 1005 66 7000 2 170 07:31 06.08.2019
4122 Rain 34 1005 66 7000 2 0 06:45 06.08.2019
4123 Rain 33 1005 66 7000 2 0 06:24 06.08.2019
4124 Mist 33 1006 70 5000 1 0 05:46 06.08.2019
4125 Mist 29 1007 88 3500 1 0 02:58 06.08.2019
4126 Mist 26 1007 94 3500 1 70 01:26 06.08.2019
4127 Mist 26 1007 100 3500 1 50 00:55 06.08.2019
4128 Mist 26 1007 94 3500 1 360 00:23 06.08.2019
4129 Clouds 26 1006 94 6000 1 90 23:21 05.08.2019
4130 Clouds 25 1006 100 6000 1 0 22:58 05.08.2019
4131 Clouds 25 1006 100 6000 1 0 22:39 05.08.2019
4132 Clouds 26 1006 100 6000 1 0 22:20 05.08.2019
4133 Clouds 25 1006 100 6000 1 70 21:42 05.08.2019
4134 Clouds 25 1006 100 6000 1 70 21:21 05.08.2019
4135 Clouds 25 1006 100 6000 1 0 20:58 05.08.2019
4136 Clouds 26 1006 94 6000 1 0 20:39 05.08.2019
4137 Clouds 26 1006 94 6000 1 0 20:21 05.08.2019
4138 Clouds 26 1006 100 6000 1 0 19:57 05.08.2019
4139 Clouds 26 1006 94 6000 1 50 19:38 05.08.2019
4140 Clouds 26 1006 94 6000 1 30 19:19 05.08.2019
4141 Clouds 26 1007 100 6000 2 20 18:41 05.08.2019
4142 Clouds 26 1007 94 8000 1.28 253.365 18:20 05.08.2019
4143 Clouds 26 1007 94 8000 2 130 17:48 05.08.2019
4144 Clouds 26 1007 94 8000 2 130 17:29 05.08.2019
4145 Clouds 27 1007 94 8000 1 150 16:59 05.08.2019
4146 Clouds 27 1007 94 8000 1 150 16:59 05.08.2019
4147 Clouds 27 1007 94 8000 2 90 16:41 05.08.2019
4148 Clouds 27 1007 94 8000 2 90 16:22 05.08.2019
4149 Clouds 27 1008 94 8000 2 50 15:41 05.08.2019
4150 Clouds 27 1007 94 8000 2 80 15:20 05.08.2019
4151 Clouds 27 1007 94 6000 1 0 14:42 05.08.2019
4152 Clouds 28 1007 94 6000 1 0 14:22 05.08.2019
4153 Rain 28 1007 94 4000 2 20 13:49 05.08.2019
4154 Thunderstorm 28 1006 100 3500 1 0 13:24 05.08.2019
4155 Thunderstorm 28 1006 94 6000 1 0 12:56 05.08.2019
4156 Rain 28 1006 88 10000 4 100 12:37 05.08.2019
4157 Clouds 29 1006 83 10000 2 90 12:18 05.08.2019
4158 Clouds 30 1006 74 10000 2 90 11:42 05.08.2019
4159 Clouds 30 1006 74 10000 2 90 11:24 05.08.2019
4160 Clouds 31 1006 74 10000 1 0 10:46 05.08.2019
4161 Clouds 30 1006 74 10000 1 0 10:28 05.08.2019
4162 Clouds 31 1006 70 10000 1 0 09:56 05.08.2019
4163 Clouds 31 1006 70 10000 1 0 09:56 05.08.2019
4164 Clouds 31 1006 70 10000 3.64 175.032 09:37 05.08.2019
4165 Clouds 32 1006 70 10000 1.77 166.991 09:19 05.08.2019
4166 Clear 31 1007 70 10000 2 50 08:43 05.08.2019
4167 Clear 31 1007 70 10000 2 50 08:23 05.08.2019
4168 Rain 31 1007 74 10000 2 10 07:47 05.08.2019
4169 Rain 30 1007 74 10000 2 10 07:27 05.08.2019
4170 Clouds 30 1008 74 10000 2 60 06:51 05.08.2019
4171 Clear 29 1008 69 10000 2 30 05:53 05.08.2019
4172 Clouds 28 1009 78 10000 2 50 05:23 05.08.2019
4173 Rain 27 1009 83 10000 2 360 04:35 05.08.2019
4174 Clouds 25 1009 88 10000 2 10 03:47 05.08.2019
4175 Clouds 26 1009 94 10000 3 40 02:37 05.08.2019
4176 Clouds 25 1008 88 8000 2 230 01:40 05.08.2019
4177 Clouds 25 1008 88 8000 2 230 01:40 05.08.2019
4178 Thunderstorm 24 1008 94 5000 4 140 00:56 05.08.2019
4179 Thunderstorm 25 1008 100 2000 7 230 00:37 05.08.2019
4180 Thunderstorm 24 1009 100 6000 7 310 00:18 05.08.2019
4181 Rain 25 1008 94 10000 4 20 23:41 04.08.2019
4182 Rain 25 1007 94 3500 4 360 23:21 04.08.2019
4183 Rain 25 1007 94 3500 4 360 22:57 04.08.2019
4184 Rain 25 1007 94 2800 3 120 22:37 04.08.2019
4185 Rain 25 1007 94 2800 3 120 22:19 04.08.2019
4186 Thunderstorm 25 1007 94 2800 3 100 21:45 04.08.2019
4187 Thunderstorm 25 1007 94 2800 3 100 21:24 04.08.2019
4188 Thunderstorm 25 1007 94 2800 1 0 20:57 04.08.2019
4189 Thunderstorm 25 1008 94 2800 1 0 20:38 04.08.2019
4190 Thunderstorm 25 1008 94 2500 2 120 20:18 04.08.2019
4191 Rain 25 1007 100 2500 2 0 19:48 04.08.2019
4192 Rain 25 1007 100 2500 2 0 19:26 04.08.2019
4193 Rain 25 1008 94 2500 2 100 18:57 04.08.2019
4194 Rain 25 1008 94 2500 1 0 18:39 04.08.2019
4195 Rain 25 1008 94 2500 1 40 18:19 04.08.2019
4196 Rain 25 1008 94 2800 1 30 17:41 04.08.2019
4197 Rain 25 1008 94 2800 1 30 17:21 04.08.2019
4198 Rain 25 1009 94 2800 1 0 16:44 04.08.2019
4199 Rain 25 1009 94 2800 1 0 16:26 04.08.2019
4200 Rain 26 1009 94 2800 1.08 111.022 15:55 04.08.2019
4201 Rain 26 1009 94 3200 1 0 15:37 04.08.2019
4202 Rain 26 1009 94 3200 1 20 15:18 04.08.2019
4203 Rain 26 1009 94 3500 1 0 14:42 04.08.2019
4204 Rain 26 1009 94 3500 1 0 14:20 04.08.2019
4205 Rain 26 1009 94 3500 2 200 13:43 04.08.2019
4206 Rain 26 1009 94 3500 2 200 13:24 04.08.2019
4207 Rain 26 1009 88 3500 3 160 12:55 04.08.2019
4208 Rain 27 1009 83 4500 4 140 12:37 04.08.2019
4209 Rain 27 1009 83 7000 3 140 12:18 04.08.2019
4210 Clouds 27 1009 74 8000 3 130 11:39 04.08.2019
4211 Clouds 28 1009 74 8000 3 130 11:21 04.08.2019
4212 Clouds 29 1008 66 10000 3 100 10:43 04.08.2019
4213 Clouds 29 1008 66 10000 3 120 10:21 04.08.2019
4214 Clouds 30 1008 70 10000 3 100 09:46 04.08.2019
4215 Clouds 30 1008 70 10000 3 100 09:25 04.08.2019
4216 Clouds 30 1008 70 10000 2 90 08:57 04.08.2019
4217 Clouds 30 1009 66 10000 2 90 08:32 04.08.2019
4218 Clouds 30 1009 70 10000 2 80 07:54 04.08.2019
4219 Clouds 31 1009 70 10000 2 70 07:23 04.08.2019
4220 Clouds 30 1010 66 10000 1 0 06:28 04.08.2019
4221 Clouds 29 1010 74 10000 1 0 05:57 04.08.2019
4222 Clear 29 1010 78 10000 1 0 03:34 04.08.2019
4223 Clear 27 1009 88 10000 1.37 133.694 01:52 04.08.2019
4224 Clear 27 1009 88 10000 1.34 142.178 01:28 04.08.2019
4225 Clear 26 1009 94 10000 1 0 00:41 04.08.2019
4226 Clear 26 1009 94 10000 1.33 25.137 00:23 04.08.2019
4227 Clear 26 1009 94 10000 1 50 23:42 03.08.2019
4228 Rain 26 1009 94 10000 2 50 23:19 03.08.2019
4229 Rain 26 1009 94 10000 2 50 22:59 03.08.2019
4230 Clear 26 1009 88 10000 2 60 22:39 03.08.2019
4231 Rain 26 1009 94 10000 2 50 22:19 03.08.2019
4232 Rain 27 1009 88 10000 2 60 21:39 03.08.2019
4233 Rain 27 1009 88 10000 2 60 21:20 03.08.2019
4234 Rain 27 1010 88 10000 2 130 20:45 03.08.2019
4235 Rain 27 1010 88 10000 2 130 20:24 03.08.2019
4236 Clear 27 1010 88 10000 1 120 19:44 03.08.2019
4237 Clear 27 1010 88 10000 1 120 19:25 03.08.2019
4238 Clear 27 1010 78 10000 2 150 18:57 03.08.2019
4239 Clear 27 1010 83 10000 1 150 18:39 03.08.2019
4240 Clear 28 1010 78 10000 1 150 18:20 03.08.2019
4241 Clear 28 1010 78 10000 2 160 17:42 03.08.2019
4242 Clear 28 1009 78 10000 2 120 17:19 03.08.2019
4243 Clear 28 1009 74 10000 2 120 16:38 03.08.2019
4244 Clear 28 1009 74 10000 2 120 16:20 03.08.2019
4245 Clear 29 1009 65 10000 2 140 15:46 03.08.2019
4246 Clear 29 1009 65 10000 2 140 15:25 03.08.2019
4247 Clear 29 1009 69 10000 2 150 14:46 03.08.2019
4248 Clear 29 1009 69 10000 2 150 14:23 03.08.2019
4249 Clear 29 1009 65 10000 2 150 13:57 03.08.2019
4250 Clear 30 1008 58 10000 2 150 13:36 03.08.2019
4251 Clear 30 1008 58 10000 2 130 13:18 03.08.2019
4252 Clear 31 1008 55 10000 2 150 12:41 03.08.2019
4253 Clear 31 1008 55 10000 2 150 12:23 03.08.2019
4254 Clear 32 1008 58 10000 3 150 11:52 03.08.2019
4255 Clear 32 1008 58 10000 3 150 11:34 03.08.2019
4256 Clear 32 1009 58 10000 3 130 10:46 03.08.2019
4257 Clear 33 1009 58 10000 3 130 10:24 03.08.2019
4258 Clear 33 1009 58 10000 3 130 10:24 03.08.2019
4259 Clear 33 1009 55 10000 2 130 09:45 03.08.2019
4260 Clear 33 1009 55 10000 2 130 09:24 03.08.2019
4261 Clear 32 1009 58 10000 2 100 08:56 03.08.2019
4262 Clear 33 1009 58 10000 1 0 08:24 03.08.2019
4263 Clear 33 1009 62 10000 2 0 07:38 03.08.2019
4264 Clouds 32 1010 62 8000 1 0 06:47 03.08.2019
4265 Clouds 32 1010 62 6000 1 0 05:47 03.08.2019
4266 Mist 28 1010 78 5000 2 190 02:43 03.08.2019
4267 Mist 27 1009 83 5000 2 140 01:54 03.08.2019
4268 Mist 25 1009 94 5000 1 0 00:57 03.08.2019
4269 Mist 25 1009 94 5000 1 0 00:29 03.08.2019
4270 Clouds 24 1009 100 8000 1 360 23:41 02.08.2019
4271 Clouds 24 1009 94 10000 1 40 23:20 02.08.2019
4272 Clouds 24 1009 94 10000 1 40 22:57 02.08.2019
4273 Clouds 24 1009 94 10000 2 360 22:39 02.08.2019
4274 Clouds 24 1009 94 10000 1 0 22:20 02.08.2019
4275 Clouds 24 1009 94 10000 1 0 21:55 02.08.2019
4276 Clouds 24 1009 94 10000 1 80 21:36 02.08.2019
4277 Clouds 24 1009 94 10000 1 90 21:18 02.08.2019
4278 Clouds 25 1009 88 10000 2 90 20:41 02.08.2019
4279 Clouds 25 1009 88 10000 2 90 20:21 02.08.2019
4280 Clear 25 1009 94 10000 2 80 19:49 02.08.2019
4281 Clear 25 1009 94 10000 2 80 19:29 02.08.2019
4282 Clear 25 1009 94 10000 1 110 18:45 02.08.2019
4283 Clear 25 1009 94 10000 1 110 18:27 02.08.2019
4284 Clear 25 1009 94 10000 1 160 17:48 02.08.2019
4285 Clear 26 1009 94 10000 1 160 17:26 02.08.2019
4286 Clear 24 1009 88 10000 2 150 16:59 02.08.2019
4287 Clear 23 1009 94 10000 2 160 16:39 02.08.2019
4288 Clear 24 1009 88 10000 1 160 16:20 02.08.2019
4289 Clear 25 1009 88 10000 2 110 15:45 02.08.2019
4290 Clear 26 1009 88 10000 2 110 15:20 02.08.2019
4291 Clear 26 1008 83 10000 1 0 14:47 02.08.2019
4292 Clear 27 1008 83 10000 1 0 14:19 02.08.2019
4293 Clear 27 1008 74 10000 1 0 13:50 02.08.2019
4294 Clear 26 1008 74 10000 1 0 13:29 02.08.2019
4295 Clear 30 1008 65 10000 2 120 12:47 02.08.2019
4296 Clear 30 1008 65 10000 2 120 12:25 02.08.2019
4297 Clear 29 1008 65 10000 2 130 11:59 02.08.2019
4298 Clear 28 1008 65 10000 2 160 11:40 02.08.2019
4299 Clear 28 1008 65 10000 2 160 11:22 02.08.2019
4300 Clear 28 1009 65 10000 2 0 10:44 02.08.2019
4301 Clear 28 1009 65 10000 2 0 10:24 02.08.2019
4302 Clear 29 1009 69 10000 2 170 09:53 02.08.2019
4303 Clear 28 1009 69 10000 2 200 09:29 02.08.2019
4304 Clear 27 1009 74 10000 2 0 08:54 02.08.2019
4305 Clear 26 1009 74 10000 1 0 08:25 02.08.2019
4306 Clear 29 1009 78 10000 2 150 07:54 02.08.2019
4307 Clear 28 1010 78 10000 2 130 07:35 02.08.2019
4308 Clear 27 1009 74 10000 2 170 06:58 02.08.2019
4309 Clear 27 1010 78 10000 1 0 06:27 02.08.2019
4310 Clouds 27 1009 78 10000 3 350 05:41 02.08.2019
4311 Rain 24 1010 88 10000 1 0 03:32 02.08.2019
4312 Rain 24 1010 94 10000 4 60 02:37 02.08.2019
4313 Thunderstorm 24 1010 94 8000 4 40 01:34 02.08.2019
4314 Rain 24 1009 94 10000 3 40 00:31 02.08.2019
4315 Thunderstorm 24 1008 83 10000 6 270 23:44 01.08.2019
4316 Thunderstorm 24 1008 83 10000 6 270 23:24 01.08.2019
4317 Thunderstorm 25 1008 78 10000 6 260 22:42 01.08.2019
4318 Thunderstorm 26 1008 78 10000 2 120 22:22 01.08.2019
4319 Thunderstorm 26 1008 78 10000 2 120 21:56 01.08.2019
4320 Thunderstorm 26 1008 78 10000 2 50 21:38 01.08.2019
4321 Rain 25 1008 78 10000 2 90 21:20 01.08.2019
4322 Thunderstorm 27 1008 78 10000 2 70 20:46 01.08.2019
4323 Thunderstorm 27 1008 78 10000 2 40 20:23 01.08.2019
4324 Clear 27 1008 78 10000 2 350 19:45 01.08.2019
4325 Clear 27 1008 78 10000 2 350 19:24 01.08.2019
4326 Clear 27 1008 83 10000 2 20 18:59 01.08.2019
4327 Clear 29 1008 88 10000 1 0 18:40 01.08.2019
4328 Clear 29 1008 83 10000 1 80 18:22 01.08.2019
4329 Clear 28 1008 78 10000 1 0 17:46 01.08.2019
4330 Clear 28 1008 78 10000 1 0 17:27 01.08.2019
4331 Clear 28 1008 78 10000 1 70 16:45 01.08.2019
4332 Clear 31 1008 78 10000 1 70 16:22 01.08.2019
4333 Clear 32 1008 74 10000 2 100 15:46 01.08.2019
4334 Clear 32 1008 74 10000 2 100 15:21 01.08.2019
4335 Clear 32 1007 66 10000 2 110 14:58 01.08.2019
4336 Clear 32 1007 66 10000 3 110 14:40 01.08.2019
4337 Clear 33 1007 58 10000 3 110 14:18 01.08.2019
4338 Clear 34 1006 58 10000 2 130 13:41 01.08.2019
4339 Clear 34 1006 58 10000 2 130 13:41 01.08.2019
4340 Clear 34 1006 58 10000 2 130 13:22 01.08.2019
4341 Clear 34 1006 55 10000 2 120 12:59 01.08.2019
4342 Clear 34 1006 55 10000 2 120 12:59 01.08.2019
4343 Clear 35 1005 55 10000 4 130 12:41 01.08.2019
4344 Clear 36 1005 52 10000 3 140 12:21 01.08.2019
4345 Clear 36 1005 49 10000 3 120 11:42 01.08.2019
4346 Clear 37 1005 49 10000 3 120 11:22 01.08.2019
4347 Clear 37 1005 49 10000 3 130 11:22 01.08.2019
4348 Clear 36 1006 49 10000 4 130 10:46 01.08.2019
4349 Clear 36 1006 49 10000 4 130 10:28 01.08.2019
4350 Clear 36 1006 46 10000 4 130 09:59 01.08.2019
4351 Clear 36 1006 49 10000 2 110 09:39 01.08.2019
4352 Clear 36 1006 49 10000 2 110 09:21 01.08.2019
4353 Clear 36 1007 52 10000 3 130 08:42 01.08.2019
4354 Clear 35 1008 49 10000 2 110 08:19 01.08.2019
4355 Clear 35 1008 49 10000 2 0 07:47 01.08.2019
4356 Clear 35 1008 49 10000 2 0 07:24 01.08.2019
4357 Clear 36 1008 55 10000 2 0 06:47 01.08.2019
4358 Clear 35 1009 55 10000 1 0 05:48 01.08.2019
4359 Clear 33 1009 66 10000 2 190 04:18 01.08.2019
4360 Clear 30 1008 74 10000 4 180 02:32 01.08.2019
4361 Clear 27 1006 83 10000 3 340 00:42 01.08.2019
4362 Clear 27 1006 83 10000 3 340 00:24 01.08.2019
4363 Clear 27 1006 73 10000 1 20 23:42 31.07.2019
4364 Clear 27 1006 73 10000 3 40 23:20 31.07.2019
4365 Clear 27 1005 73 10000 2 50 22:47 31.07.2019
4366 Clear 27 1005 73 10000 2 50 22:29 31.07.2019
4367 Clouds 28 1005 58 10000 2 180 21:45 31.07.2019
4368 Clouds 29 1005 58 10000 2 180 21:25 31.07.2019
4369 Clouds 29 1005 54 10000 4 230 20:58 31.07.2019
4370 Clouds 29 1005 54 10000 4 230 20:58 31.07.2019
4371 Clouds 29 1006 54 10000 8 220 20:39 31.07.2019
4372 Clear 28 1006 83 10000 2 160 20:21 31.07.2019
4373 Clear 28 1005 78 10000 2 70 19:41 31.07.2019
4374 Clear 29 1005 78 10000 2 70 19:23 31.07.2019
4375 Clear 30 1005 78 10000 2 70 18:53 31.07.2019
4376 Clear 30 1005 83 10000 2 70 18:25 31.07.2019
4377 Clear 30 1005 83 10000 1 80 17:57 31.07.2019
4378 Clear 30 1005 78 10000 1 0 17:39 31.07.2019
4379 Clear 30 1005 78 10000 1 0 17:19 31.07.2019
4380 Clear 31 1005 78 10000 1 130 16:43 31.07.2019
4381 Clear 32 1005 78 10000 1 130 16:20 31.07.2019
4382 Clear 33 1004 59 10000 3 180 15:45 31.07.2019
4383 Clear 34 1004 59 10000 3 180 15:25 31.07.2019
4384 Clear 34 1003 55 10000 4 170 14:43 31.07.2019
4385 Clear 34 1003 55 10000 4 170 14:22 31.07.2019
4386 Clear 34 1003 49 10000 5 180 13:58 31.07.2019
4387 Clear 34 1002 46 10000 6 180 13:38 31.07.2019
4388 Clear 35 1002 44 10000 5 180 13:20 31.07.2019
4389 Clear 37 1002 46 10000 5 180 12:45 31.07.2019
4390 Clear 37 1002 46 10000 5 180 12:27 31.07.2019
4391 Clear 37 1002 44 10000 4 160 11:59 31.07.2019
4392 Clear 37 1002 41 10000 5 170 11:38 31.07.2019
4393 Clear 37 1002 41 10000 5 170 11:19 31.07.2019
4394 Clear 37 1002 30 10000 3 190 10:41 31.07.2019
4395 Clear 37 1002 29 10000 2 0 10:20 31.07.2019
4396 Clear 37 1003 30 10000 2 0 09:44 31.07.2019
4397 Clear 37 1003 30 10000 2 0 09:24 31.07.2019
4398 Clear 36 1003 37 10000 1 0 08:57 31.07.2019
4399 Clear 36 1003 32 10000 2 110 08:39 31.07.2019
4400 Clear 36 1003 36 10000 2 0 08:20 31.07.2019
4401 Clear 36 1003 36 10000 2 110 07:35 31.07.2019
4402 Clear 38 1004 44 10000 2 120 06:34 31.07.2019
4403 Clear 36 1004 55 10000 1 0 04:52 31.07.2019
4404 Clear 29 1003 78 10000 1 0 01:48 31.07.2019
4405 Clear 25 1003 88 10000 3 350 23:58 30.07.2019
4406 Clear 22 1003 88 10000 2 350 23:40 30.07.2019
4407 Clear 24 1002 88 10000 2 350 23:19 30.07.2019
4408 Clear 23 1002 83 10000 1 350 22:45 30.07.2019
4409 Clear 23 1002 83 10000 1 350 22:25 30.07.2019
4410 Clear 25 1002 88 10000 3 360 21:54 30.07.2019
4411 Clear 25 1002 88 10000 2 360 21:36 30.07.2019
4412 Clear 25 1002 88 10000 1 10 21:18 30.07.2019
4413 Clear 23 1002 88 10000 1 360 20:41 30.07.2019
4414 Clear 26 1002 88 10000 1 360 20:23 30.07.2019
4415 Clear 26 1002 83 10000 2 360 19:58 30.07.2019
4416 Clear 26 1002 78 10000 3 360 19:38 30.07.2019
4417 Clear 27 1002 78 10000 3 350 18:58 30.07.2019
4418 Clear 26 1002 78 10000 4 350 18:38 30.07.2019
4419 Clear 28 1002 73 10000 1 360 18:18 30.07.2019
4420 Clear 28 1002 73 10000 2 20 17:41 30.07.2019
4421 Clear 28 1002 78 10000 1 0 17:19 30.07.2019
4422 Clear 29 1002 78 10000 1 0 16:51 30.07.2019
4423 Clear 29 1002 69 10000 2 360 16:21 30.07.2019
4424 Clear 30 1002 69 10000 2 360 15:58 30.07.2019
4425 Clear 30 1001 74 10000 1 0 15:37 30.07.2019
4426 Clear 31 1001 61 10000 2 110 15:18 30.07.2019
4427 Rain 31 1001 62 10000 2 40 14:42 30.07.2019
4428 Rain 31 1001 62 10000 2 40 14:20 30.07.2019
4429 Clouds 31 1000 58 10000 4 40 13:47 30.07.2019
4430 Clouds 33 1000 58 10000 4 40 13:29 30.07.2019
4431 Clear 33 1000 66 10000 2 100 12:58 30.07.2019
4432 Clear 34 999 59 10000 2 0 12:39 30.07.2019
4433 Clear 34 999 59 10000 2 0 12:21 30.07.2019
4434 Clouds 35 999 59 10000 4 180 11:40 30.07.2019
4435 Clouds 34 999 59 10000 4 180 11:20 30.07.2019
4436 Clear 34 999 52 10000 4 150 10:46 30.07.2019
4437 Clear 34 999 52 10000 4 150 10:27 30.07.2019
4438 Clear 33 999 56 10000 3 130 09:50 30.07.2019
4439 Clear 32 999 56 10000 3 130 09:31 30.07.2019
4440 Clear 32 999 59 10000 4 170 08:58 30.07.2019
4441 Clear 32 1000 55 10000 5 190 08:31 30.07.2019
4442 Clear 33 1000 55 10000 3 190 07:48 30.07.2019
4443 Clear 36 1000 55 10000 3 190 07:29 30.07.2019
4444 Clear 35 1001 66 10000 2 140 06:48 30.07.2019
4445 Clear 31 1001 66 10000 2 140 06:22 30.07.2019
4446 Clear 32 1001 70 8000 2 190 05:33 30.07.2019
4447 Clouds 29 1001 83 6000 1 0 03:28 30.07.2019
4448 Mist 26 1001 88 5000 1 0 01:21 30.07.2019
4449 Clouds 24 1001 88 6000 1 0 00:22 30.07.2019
4450 Clouds 24 1001 88 8000 2 330 23:47 29.07.2019
4451 Clouds 24 1001 88 8000 2 330 23:28 29.07.2019
4452 Clouds 24 1001 88 8000 2 330 22:58 29.07.2019
4453 Clouds 24 1001 88 8000 3 300 22:39 29.07.2019
4454 Clouds 24 1001 88 8000 2 280 22:20 29.07.2019
4455 Clouds 24 1001 88 8000 2 280 21:59 29.07.2019
4456 Clouds 24 1001 94 8000 2 290 21:40 29.07.2019
4457 Clouds 24 1001 88 8000 2 270 21:22 29.07.2019
4458 Clouds 24 1001 88 8000 2 270 20:55 29.07.2019
4459 Clouds 24 1001 88 8000 2 280 20:36 29.07.2019
4460 Clear 24 1001 94 10000 2 280 20:18 29.07.2019
4461 Clear 24 1001 94 10000 2 230 19:41 29.07.2019
4462 Clear 23 1001 94 10000 1 0 19:21 29.07.2019
4463 Clear 24 1001 88 10000 2 200 18:43 29.07.2019
4464 Clear 25 1001 88 10000 2 200 18:23 29.07.2019
4465 Clear 25 1001 88 10000 2 0 17:56 29.07.2019
4466 Clear 25 1001 94 10000 2 210 17:37 29.07.2019
4467 Clear 25 1001 94 10000 2 240 17:19 29.07.2019
4468 Clear 25 1001 94 10000 2 230 16:42 29.07.2019
4469 Clear 25 1001 94 10000 2 230 16:23 29.07.2019
4470 Clouds 26 1001 88 10000 2 260 15:53 29.07.2019
4471 Clouds 26 1001 88 10000 2 260 15:34 29.07.2019
4472 Clouds 25 1000 94 10000 1 0 14:56 29.07.2019
4473 Clouds 25 1000 94 10000 3 350 14:38 29.07.2019
4474 Clouds 25 1000 94 10000 3 350 14:19 29.07.2019
4475 Rain 25 1000 88 10000 2 20 13:43 29.07.2019
4476 Rain 25 1000 88 10000 2 20 13:23 29.07.2019
4477 Rain 25 1000 94 10000 3 360 12:43 29.07.2019
4478 Rain 25 1000 94 10000 3 360 12:24 29.07.2019
4479 Rain 25 1001 94 10000 1 0 11:44 29.07.2019
4480 Rain 25 1001 94 10000 1 0 11:23 29.07.2019
4481 Rain 25 1001 94 10000 1 0 10:57 29.07.2019
4482 -273 0 0 0 0 0 10:56 29.07.2019
4483 Rain 26 1001 94 10000 3 40 10:38 29.07.2019
4484 Rain 26 1001 94 10000 3 350 10:19 29.07.2019
4485 Rain 26 1001 88 10000 5 350 09:38 29.07.2019
4486 Rain 27 1002 88 10000 6 340 09:19 29.07.2019
4487 Rain 27 1002 94 4000 5 300 08:36 29.07.2019
4488 Clouds 27 1001 83 10000 5 320 08:18 29.07.2019
4489 Rain 27 1002 88 8000 6 310 07:41 29.07.2019
4490 Rain 28 1002 88 8000 6 310 07:20 29.07.2019
4491 Clear 28 1002 78 10000 3 10 05:50 29.07.2019
4492 Clouds 29 1003 74 10000 4 330 04:54 29.07.2019
4493 Clear 28 1003 88 10000 1 0 02:27 29.07.2019
4494 Rain 27 1002 94 7000 3 20 01:45 29.07.2019
4495 Rain 27 1002 94 7000 3 20 01:23 29.07.2019
4496 Rain 26 1002 100 8000 2 40 00:43 29.07.2019
4497 Rain 25 1003 94 8000 1 0 00:20 29.07.2019
4498 Rain 25 1002 94 10000 5 170 23:41 28.07.2019
4499 Rain 25 1002 94 10000 5 170 23:19 28.07.2019
4500 Rain 25 1001 94 10000 2 40 23:19 28.07.2019
4501 Rain 25 1001 94 10000 5 360 22:41 28.07.2019
4502 Rain 26 1001 94 10000 5 360 22:22 28.07.2019
4503 Thunderstorm 27 1004 88 7000 7 240 21:49 28.07.2019
4504 Rain 27 1003 88 10000 2 280 21:19 28.07.2019
4505 Rain 27 1002 88 10000 4 280 20:48 28.07.2019
4506 Rain 28 1002 88 10000 4 280 20:29 28.07.2019
4507 Clear 28 1002 83 10000 2 260 19:56 28.07.2019
4508 Rain 28 1001 88 10000 1 0 19:38 28.07.2019
4509 Rain 29 1002 83 10000 3 280 19:19 28.07.2019
4510 Rain 28 1003 83 10000 4 320 18:43 28.07.2019
4511 Rain 28 1003 83 10000 5 300 18:24 28.07.2019
4512 Clouds 29 1003 88 10000 5 300 17:43 28.07.2019
4513 Clouds 29 1003 88 10000 5 300 17:22 28.07.2019
4514 Clouds 28 1003 83 10000 2 220 16:58 28.07.2019
4515 Clouds 28 1003 83 10000 2 220 16:58 28.07.2019
4516 Rain 28 1003 83 10000 2 180 16:39 28.07.2019
4517 Rain 28 1003 83 10000 2 180 16:21 28.07.2019
4518 Thunderstorm 30 1003 83 10000 6 310 15:43 28.07.2019
4519 Thunderstorm 30 1003 83 10000 6 310 15:21 28.07.2019
4520 Thunderstorm 32 1002 74 6000 3 180 14:38 28.07.2019
4521 Thunderstorm 32 1001 70 7000 3 150 14:19 28.07.2019
4522 Thunderstorm 32 1001 70 7000 3 150 13:55 28.07.2019
4523 Clouds 32 1000 66 7000 3 130 13:36 28.07.2019
4524 Clouds 33 1000 66 7000 2 140 13:18 28.07.2019
4525 Clouds 34 1000 66 7000 3 130 12:40 28.07.2019
4526 Clouds 35 1000 66 7000 3 130 12:22 28.07.2019
4527 Clouds 36 1000 59 6000 4 140 11:48 28.07.2019
4528 Clouds 36 1000 59 6000 4 140 11:27 28.07.2019
4529 Clouds 36 1000 63 6000 3 140 10:42 28.07.2019
4530 Clouds 37 1000 63 6000 3 140 10:22 28.07.2019
4531 Clouds 36 1001 63 6000 4 150 09:56 28.07.2019
4532 Clouds 36 1001 59 6000 2 140 09:37 28.07.2019
4533 Haze 36 1001 66 5000 3 100 09:19 28.07.2019
4534 Haze 35 1001 66 5000 3 120 08:41 28.07.2019
4535 Haze 35 1001 59 5000 3 140 08:21 28.07.2019
4536 Haze 37 1002 63 4500 3 130 07:39 28.07.2019
4537 Haze 36 1002 70 4000 3 120 06:47 28.07.2019
4538 Mist 34 1002 70 4000 2 80 05:59 28.07.2019
4539 Mist 33 1003 79 4000 2 120 04:37 28.07.2019
4540 Mist 29 1002 83 4000 2 120 02:24 28.07.2019
4541 Mist 30 1002 83 5000 3 140 01:22 28.07.2019
4542 Mist 30 1002 83 5000 2 120 00:47 28.07.2019
4543 Mist 29 1002 83 5000 2 120 00:22 28.07.2019
4544 Clear 29 1001 88 7000 3 110 23:46 27.07.2019
4545 Clear 29 1001 88 7000 3 110 23:22 27.07.2019
4546 Clear 28 1001 83 8000 4 110 22:42 27.07.2019
4547 Clear 28 1001 83 8000 4 110 22:23 27.07.2019
4548 Clear 29 1001 83 8000 2 100 21:43 27.07.2019
4549 Clear 29 1001 83 8000 2 100 21:22 27.07.2019
4550 Clear 29 1001 83 8000 3 100 20:54 27.07.2019
4551 Clear 30 1001 83 10000 2 90 20:30 27.07.2019
4552 Clear 29 1002 83 10000 2 90 19:58 27.07.2019
4553 Clear 29 1002 83 10000 2 120 19:38 27.07.2019
4554 Clear 29 1002 83 10000 2 100 19:19 27.07.2019
4555 Clear 30 1001 74 10000 2 90 18:46 27.07.2019
4556 Clear 30 1001 74 10000 2 90 18:28 27.07.2019
4557 Clear 31 1001 74 10000 2 110 17:49 27.07.2019
4558 Clear 30 1001 74 10000 1 0 17:31 27.07.2019
4559 Clear 31 1001 74 10000 3 110 16:53 27.07.2019
4560 Clear 31 1001 66 10000 3 100 16:34 27.07.2019
4561 Clear 32 1001 66 10000 3 90 15:56 27.07.2019
4562 Clear 33 1001 62 10000 3 100 15:28 27.07.2019
4563 Clear 33 1000 62 10000 2 90 14:59 27.07.2019
4564 Clear 34 1000 59 10000 2 120 14:41 27.07.2019
4565 Clear 34 1000 59 10000 2 120 14:21 27.07.2019
4566 Clouds 35 999 49 10000 5 130 13:46 27.07.2019
4567 Clouds 35 999 49 10000 5 130 13:22 27.07.2019
4568 Clear 35 999 63 10000 3 80 12:49 27.07.2019
4569 Clear 36 999 63 10000 3 80 12:26 27.07.2019
4570 Clear 37 999 59 10000 4 100 11:46 27.07.2019
4571 Clear 37 999 59 10000 4 100 11:25 27.07.2019
4572 Clear 38 999 56 10000 6 120 10:57 27.07.2019
4573 Clear 39 999 47 10000 5 140 10:39 27.07.2019
4574 Clear 38 999 47 10000 5 140 10:19 27.07.2019
4575 Clouds 38 1000 44 10000 5 140 09:40 27.07.2019
4576 Clouds 38 1000 44 10000 5 140 09:22 27.07.2019
4577 Clouds 38 1000 47 10000 4 140 08:48 27.07.2019
4578 Clouds 38 1000 47 10000 4 140 08:29 27.07.2019
4579 Clouds 38 1000 53 10000 5 140 07:50 27.07.2019
4580 Clouds 38 1000 53 10000 5 130 07:27 27.07.2019
4581 Clouds 38 1001 53 10000 4 120 06:56 27.07.2019
4582 Clouds 38 1001 53 7000 3 130 06:30 27.07.2019
4583 Clear 37 1002 59 6000 2 140 05:49 27.07.2019
4584 Haze 37 1002 59 5000 3 150 04:59 27.07.2019
4585 Haze 37 1002 63 5000 3 160 04:25 27.07.2019
4586 Mist 32 1001 79 3000 2 10 02:44 27.07.2019
4587 Mist 33 1001 79 3000 2 10 02:26 27.07.2019
4588 Mist 31 1001 83 2400 1 0 01:44 27.07.2019
4589 Mist 31 1001 88 2100 1 0 00:58 27.07.2019
4590 Mist 30 1001 94 2100 1 0 00:32 27.07.2019
4591 Mist 29 1001 88 2300 1 0 23:53 26.07.2019
4592 Mist 29 1001 94 3000 1 70 23:32 26.07.2019
4593 Mist 29 1001 94 3200 1 0 22:56 26.07.2019
4594 Mist 30 1001 88 3500 1 0 22:38 26.07.2019
4595 Mist 30 1001 88 3500 1 0 22:20 26.07.2019
4596 Mist 30 1001 88 4000 1 0 21:44 26.07.2019
4597 Mist 30 1001 88 4000 1 0 21:44 26.07.2019
4598 Mist 30 1000 88 4000 1 0 21:19 26.07.2019
4599 Mist 31 1000 83 5000 2 100 20:42 26.07.2019
4600 Mist 31 1000 83 5000 2 100 20:22 26.07.2019
4601 Mist 31 1000 83 5000 2 100 19:43 26.07.2019
4602 Mist 31 1000 83 5000 2 100 19:24 26.07.2019
4603 Mist 32 1000 89 5000 2 100 18:56 26.07.2019
4604 Clear 32 1000 89 6000 2 100 18:36 26.07.2019
4605 Clear 32 1000 84 6000 2 90 18:18 26.07.2019
4606 Clear 32 1000 79 8000 1 100 17:42 26.07.2019
4607 Clear 33 1000 79 10000 2 100 17:19 26.07.2019
4608 Clear 33 1000 79 10000 2 100 16:56 26.07.2019
4609 Clear 33 1000 79 10000 2 100 16:56 26.07.2019
4610 Clear 33 1000 74 10000 2 100 16:37 26.07.2019
4611 Clear 33 1000 74 10000 2 100 16:19 26.07.2019
4612 Clear 34 1000 74 10000 2 140 15:45 26.07.2019
4613 Clear 34 1000 74 10000 2 140 15:26 26.07.2019
4614 Clear 34 999 74 10000 2 130 14:58 26.07.2019
4615 Clear 34 999 70 10000 2 140 14:40 26.07.2019
4616 Clear 34 999 70 10000 2 140 14:21 26.07.2019
4617 Clear 35 998 63 10000 3 140 13:40 26.07.2019
4618 Clear 35 998 63 10000 3 140 13:22 26.07.2019
4619 Clear 37 998 59 10000 4 150 12:47 26.07.2019
4620 Clear 37 998 53 10000 5 170 12:20 26.07.2019
4621 Clear 38 998 53 10000 5 180 11:40 26.07.2019
4622 Clear 38 998 53 10000 5 160 11:20 26.07.2019
4623 Clear 38 998 53 10000 5 160 10:55 26.07.2019
4624 Clear 38 999 56 10000 5 140 10:37 26.07.2019
4625 Clear 38 999 56 10000 3 150 09:55 26.07.2019
4626 Clear 37 999 53 10000 4 150 09:37 26.07.2019
4627 Clear 37 1000 52 10000 3 150 08:44 26.07.2019
4628 Clear 36 1000 52 10000 3 150 08:23 26.07.2019
4629 Clear 36 1000 55 10000 3 160 07:59 26.07.2019
4630 Clear 37 1000 55 10000 2 0 07:29 26.07.2019
4631 Clear 36 1000 55 10000 3 130 06:53 26.07.2019
4632 Clear 34 1001 55 10000 1 0 05:23 26.07.2019
4633 Clear 33 1001 58 10000 1 0 04:28 26.07.2019
4634 Clear 29 1001 69 10000 1 0 03:18 26.07.2019
4635 Clear 28 1001 73 10000 2 10 01:43 26.07.2019
4636 Clear 26 1001 83 10000 0.77 127.374 00:47 26.07.2019
4637 Clear 26 1001 78 10000 2 350 23:59 25.07.2019
4638 Clear 26 1001 78 10000 1 0 23:25 25.07.2019
4639 Clear 26 1001 78 10000 1 0 22:59 25.07.2019
4640 Clear 26 1001 83 10000 1 0 22:40 25.07.2019
4641 Clear 26 1001 83 10000 2 10 22:21 25.07.2019
4642 Clear 26 1001 83 10000 2 10 21:46 25.07.2019
4643 Clear 26 1001 83 10000 2 10 21:22 25.07.2019
4644 Clear 27 1002 83 10000 2 360 20:49 25.07.2019
4645 Clear 26 1002 83 10000 1 20 20:29 25.07.2019
4646 Clear 26 1002 83 10000 1 0 19:54 25.07.2019
4647 Clear 27 1002 78 10000 2 30 19:36 25.07.2019
4648 Clear 27 1002 83 10000 1 40 19:18 25.07.2019
4649 Clear 27 1002 78 10000 1 40 18:39 25.07.2019
4650 Clear 28 1002 78 10000 1 0 18:21 25.07.2019
4651 Clear 29 1002 78 10000 2 10 17:45 25.07.2019
4652 Clear 29 1002 78 10000 2 10 17:25 25.07.2019
4653 Clear 29 1002 73 10000 2 30 16:47 25.07.2019
4654 Clear 29 1002 73 10000 2 30 16:29 25.07.2019
4655 Clear 30 1002 73 10000 2 40 15:58 25.07.2019
4656 Clear 31 1002 74 10000 3 40 15:38 25.07.2019
4657 Clear 31 1001 69 10000 3 10 15:18 25.07.2019
4658 Clouds 33 1000 65 10000 2 100 14:41 25.07.2019
4659 Clouds 33 1000 65 10000 2 100 14:22 25.07.2019
4660 Clouds 34 999 40 10000 7 10 13:44 25.07.2019
4661 Clouds 34 999 40 10000 7 10 13:25 25.07.2019
4662 Clouds 36 998 52 10000 2 0 12:55 25.07.2019
4663 Clouds 37 997 44 10000 4 180 12:28 25.07.2019
4664 Clear 38 997 44 10000 3 160 11:43 25.07.2019
4665 Clear 38 997 44 10000 3 160 11:23 25.07.2019
4666 Clouds 38 998 41 10000 4 160 10:46 25.07.2019
4667 Clouds 39 998 41 10000 4 160 10:26 25.07.2019
4668 Clouds 38 998 44 10000 4 160 09:59 25.07.2019
4669 Clouds 37 998 39 10000 6 170 09:40 25.07.2019
4670 Clear 39 998 39 10000 5 160 08:55 25.07.2019
4671 Clear 39 998 39 10000 5 160 08:55 25.07.2019
4672 Clear 38 999 39 10000 5 150 08:37 25.07.2019
4673 Clear 38 999 41 10000 4 130 07:51 25.07.2019
4674 Clear 38 999 41 10000 4 130 07:27 25.07.2019
4675 Clear 38 1000 44 10000 4 140 06:41 25.07.2019
4676 Clear 36 1000 47 10000 3 150 05:37 25.07.2019
4677 Clear 36 1000 56 10000 3 150 04:56 25.07.2019
4678 Clear 36 1000 59 10000 2 120 04:19 25.07.2019
4679 Clouds 30 1000 78 10000 2 320 01:31 25.07.2019
4680 Clouds 30 1000 70 10000 2 300 00:42 25.07.2019
4681 Clouds 30 1000 78 10000 1 0 00:19 25.07.2019
4682 Rain 30 1000 78 10000 2 360 23:44 24.07.2019
4683 Rain 30 1000 78 10000 2 360 23:25 24.07.2019
4684 Rain 30 1000 66 10000 5 340 22:47 24.07.2019
4685 Rain 30 1000 66 10000 5 340 22:23 24.07.2019
4686 Rain 30 1000 78 10000 2 130 21:56 24.07.2019
4687 Clear 30 1001 74 10000 5 330 21:38 24.07.2019
4688 Clear 29 1001 74 10000 5 330 21:19 24.07.2019
4689 Clear 29 1000 83 10000 1 0 20:47 24.07.2019
4690 Clear 29 1000 83 10000 1 0 20:29 24.07.2019
4691 Clear 30 1000 74 10000 1 0 19:59 24.07.2019
4692 Clear 30 1000 74 10000 1 0 19:59 24.07.2019
4693 Clear 30 1000 74 10000 1 0 19:59 24.07.2019
4694 Clear 30 1000 62 10000 3 290 19:40 24.07.2019
4695 Clear 31 1000 62 10000 3 290 19:20 24.07.2019
4696 Clear 32 1000 62 10000 3 220 18:43 24.07.2019
4697 Clear 32 1000 62 10000 3 220 18:24 24.07.2019
4698 Clear 32 1000 62 10000 3 220 18:24 24.07.2019
4699 Clear 31 1000 79 10000 2 170 17:48 24.07.2019
4700 Clear 32 1000 79 10000 2 170 17:23 24.07.2019
4701 Clear 32 1000 74 10000 1 0 16:59 24.07.2019
4702 Clear 32 1000 74 10000 2 160 16:39 24.07.2019
4703 Clear 32 1000 74 10000 2 160 16:20 24.07.2019
4704 Clear 33 1000 66 10000 2 170 15:38 24.07.2019
4705 Clear 33 1000 66 10000 1 0 15:19 24.07.2019
4706 Clear 33 1000 66 10000 1 0 14:46 24.07.2019
4707 Clear 33 999 66 10000 2 150 14:22 24.07.2019
4708 Clear 35 999 59 10000 2 150 13:41 24.07.2019
4709 Clear 34 999 59 10000 2 150 13:23 24.07.2019
4710 Clear 34 999 62 10000 1 50 12:54 24.07.2019
4711 Clear 36 999 59 10000 1 70 12:35 24.07.2019
4712 Clear 37 999 49 10000 1 90 11:57 24.07.2019
4713 Clear 37 999 47 10000 2 30 11:37 24.07.2019
4714 Clear 37 999 47 10000 2 30 11:18 24.07.2019
4715 Clear 38 999 44 10000 3 350 10:41 24.07.2019
4716 Clear 38 999 44 10000 3 350 10:23 24.07.2019
4717 Clear 37 1000 47 10000 5 300 09:44 24.07.2019
4718 Clear 38 1000 47 10000 5 300 09:22 24.07.2019
4719 Clear 38 1000 47 10000 3 300 08:52 24.07.2019
4720 Clear 38 999 44 10000 2 350 08:26 24.07.2019
4721 Clear 38 999 44 10000 2 350 08:26 24.07.2019
4722 Clear 38 1000 47 10000 2 340 07:46 24.07.2019
4723 Clear 36 1000 56 10000 3 10 07:20 24.07.2019
4724 Clear 36 1000 53 10000 2 330 06:28 24.07.2019
4725 Clear 37 1000 56 7000 2 0 05:25 24.07.2019
4726 Mist 31 1000 79 5000 1 0 01:56 24.07.2019
4727 Mist 30 1000 83 4500 1 0 01:22 24.07.2019
4728 Mist 29 1000 94 4000 1 0 00:50 24.07.2019
4729 Mist 28 1000 94 4000 0.89 12.221 00:19 24.07.2019
4730 Mist 28 999 94 4500 1 0 23:37 23.07.2019
4731 Clear 28 999 94 6000 1 50 23:19 23.07.2019
4732 Clear 28 999 94 6000 1 0 22:39 23.07.2019
4733 Clear 29 999 88 8000 2 80 22:19 23.07.2019
4734 Clear 29 999 88 10000 2 90 21:46 23.07.2019
4735 Clear 29 999 88 10000 2 90 21:28 23.07.2019
4736 Clear 29 999 88 10000 2 100 20:57 23.07.2019
4737 Clear 29 999 88 10000 1 0 20:39 23.07.2019
4738 Clear 29 999 78 10000 2 100 20:19 23.07.2019
4739 Clear 30 999 83 10000 2 80 19:37 23.07.2019
4740 Clear 30 999 83 10000 2 80 19:18 23.07.2019
4741 Clear 30 999 83 10000 2 140 18:42 23.07.2019
4742 Clear 30 999 83 10000 2 140 18:22 23.07.2019
4743 Clear 31 999 74 10000 2 130 17:44 23.07.2019
4744 Clear 31 999 74 10000 2 130 17:23 23.07.2019
4745 Clear 31 999 74 10000 2 150 16:49 23.07.2019
4746 Clear 31 999 74 10000 1 0 16:27 23.07.2019
4747 Clear 32 999 70 10000 1 0 15:57 23.07.2019
4748 Clear 32 999 66 10000 4 160 15:38 23.07.2019
4749 Clear 32 999 66 10000 4 160 15:20 23.07.2019
4750 Clear 33 998 62 10000 4 160 14:37 23.07.2019
4751 Clear 33 997 62 10000 3 160 14:18 23.07.2019
4752 Clear 33 997 62 10000 3 160 13:56 23.07.2019
4753 Clear 34 997 52 10000 3 170 13:37 23.07.2019
4754 Clear 34 997 56 10000 3 130 13:19 23.07.2019
4755 Clear 35 996 49 10000 4 130 12:42 23.07.2019
4756 Clear 36 996 49 10000 4 130 12:24 23.07.2019
4757 Clear 36 996 47 10000 3 120 11:42 23.07.2019
4758 Clear 37 996 47 10000 3 120 11:23 23.07.2019
4759 Clear 36 996 44 10000 3 120 10:51 23.07.2019
4760 Clear 36 996 47 10000 3 150 10:26 23.07.2019
4761 Clear 35 996 44 10000 2 60 09:44 23.07.2019
4762 Clear 35 996 44 10000 2 60 09:22 23.07.2019
4763 Clear 37 996 44 10000 2 0 08:57 23.07.2019
4764 Clear 37 997 44 10000 2 0 08:38 23.07.2019
4765 Clear 34 997 44 10000 1 0 08:19 23.07.2019
4766 Clear 36 997 44 10000 2 290 07:50 23.07.2019
4767 Clear 36 997 44 10000 2 290 07:32 23.07.2019
4768 Clear 34 997 46 10000 3 340 06:38 23.07.2019
4769 Clear 33 998 58 10000 3 340 04:51 23.07.2019
4770 Mist 27 999 88 4000 3 10 01:57 23.07.2019
4771 Mist 26 998 94 4000 2 0 01:20 23.07.2019
4772 Mist 25 998 100 4000 1 0 00:27 23.07.2019
4773 Rain 25 998 100 6000 1 0 23:41 22.07.2019
4774 Rain 25 998 100 4000 1 0 23:21 22.07.2019
4775 Mist 25 998 88 4000 3 330 22:48 22.07.2019
4776 Mist 25 998 88 4000 3 330 22:30 22.07.2019
4777 Rain 25 998 88 4000 3 300 21:59 22.07.2019
4778 Rain 25 998 88 4000 3 300 21:41 22.07.2019
4779 Rain 26 998 88 4000 3 300 21:20 22.07.2019
4780 Rain 25 999 94 5000 1 0 20:47 22.07.2019
4781 Rain 25 999 94 5000 1 0 20:29 22.07.2019
4782 Rain 25 999 94 5000 1 0 20:29 22.07.2019
4783 Rain 25 999 94 5000 3 280 19:44 22.07.2019
4784 Rain 25 999 94 5000 5 260 19:26 22.07.2019
4785 Rain 25 999 94 5000 5 260 18:58 22.07.2019
4786 Rain 25 999 100 3500 2 20 18:39 22.07.2019
4787 Rain 25 1000 94 2500 7 280 18:21 22.07.2019
4788 Rain 26 1000 94 3200 3 310 17:41 22.07.2019
4789 Rain 26 1000 94 3200 3 310 17:23 22.07.2019
4790 Rain 26 1000 88 3200 1 0 16:41 22.07.2019
4791 Rain 26 1000 88 3200 1 0 16:21 22.07.2019
4792 Rain 26 1000 88 3500 1 0 15:58 22.07.2019
4793 Rain 28 1000 83 4000 2 130 15:37 22.07.2019
4794 Mist 28 1000 83 4000 1 0 15:18 22.07.2019
4795 Mist 29 1000 83 3500 2 100 14:43 22.07.2019
4796 Mist 30 1000 83 3500 2 100 14:20 22.07.2019
4797 Mist 30 1000 79 2800 1 90 13:46 22.07.2019
4798 Mist 30 1000 79 2800 1 90 13:28 22.07.2019
4799 Rain 31 1000 79 2800 2 90 12:46 22.07.2019
4800 Rain 31 1000 79 2800 2 90 12:27 22.07.2019
4801 Rain 31 1000 70 2800 2 190 11:45 22.07.2019
4802 Rain 32 1000 70 2800 2 190 11:25 22.07.2019
4803 Rain 32 1000 70 2800 2 140 10:53 22.07.2019
4804 Mist 32 1001 70 2800 2 130 10:30 22.07.2019
4805 Mist 33 1000 74 2800 2 90 09:45 22.07.2019
4806 Mist 33 1000 74 2800 2 90 09:25 22.07.2019
4807 Mist 33 1001 79 2800 2 90 08:47 22.07.2019
4808 Mist 34 1001 79 2800 2 90 08:26 22.07.2019
4809 Mist 34 1001 74 2800 1 0 07:59 22.07.2019
4810 Mist 33 1002 74 3000 2 100 07:40 22.07.2019
4811 Mist 33 1002 74 3000 2 100 07:21 22.07.2019
4812 Mist 32 1003 74 4000 1 0 03:58 22.07.2019
4813 Mist 31 1003 79 3800 1 0 02:45 22.07.2019
4814 Clouds 30 1002 83 6000 1 0 00:57 22.07.2019
4815 Clouds 30 1002 88 6000 2 50 00:29 22.07.2019
4816 Clouds 29 1002 88 7000 1 30 23:57 21.07.2019
4817 Clear 29 1002 83 10000 1 0 23:36 21.07.2019
4818 Clear 30 1002 83 10000 1 30 22:55 21.07.2019
4819 Clear 30 1002 83 10000 2 70 22:36 21.07.2019
4820 Clear 30 1002 83 10000 2 70 22:18 21.07.2019
4821 Clear 30 1002 83 10000 2 50 21:44 21.07.2019
4822 Clear 30 1002 83 10000 2 50 21:24 21.07.2019
4823 Clear 30 1002 83 10000 0.88 252.681 20:55 21.07.2019
4824 Clear 30 1002 78 10000 1 0 20:37 21.07.2019
4825 Clear 30 1002 78 10000 1 0 20:19 21.07.2019
4826 Clear 31 1002 69 10000 1 140 19:47 21.07.2019
4827 Clear 31 1002 69 10000 1 140 19:24 21.07.2019
4828 Clear 31 1001 69 10000 2 70 18:48 21.07.2019
4829 Clear 31 1001 69 10000 2 70 18:26 21.07.2019
4830 Clear 31 1001 69 10000 1 0 17:44 21.07.2019
4831 Clear 32 1001 58 10000 1 0 17:20 21.07.2019
4832 Clear 32 1001 58 10000 1 0 16:58 21.07.2019
4833 Clear 32 1001 66 10000 1 0 16:39 21.07.2019
4834 Clear 33 1001 62 10000 1 0 16:20 21.07.2019
4835 Clear 33 1001 58 10000 1 0 15:37 21.07.2019
4836 Clear 33 1001 62 10000 2 60 15:19 21.07.2019
4837 Clear 34 1000 55 10000 1 0 14:42 21.07.2019
4838 Clear 35 1000 55 10000 1 0 14:22 21.07.2019
4839 Clear 35 1000 50 10000 2 160 13:52 21.07.2019
4840 Clear 37 1000 47 10000 3 200 13:32 21.07.2019
4841 Clear 37 1000 39 10000 4 190 12:45 21.07.2019
4842 Clear 37 1000 39 10000 4 190 12:26 21.07.2019
4843 Clouds 38 1000 42 10000 3 0 11:52 21.07.2019
4844 Clouds 39 1000 40 10000 5 190 11:31 21.07.2019
4845 Clouds 39 1000 42 10000 6 180 10:58 21.07.2019
4846 Clouds 40 999 38 10000 6 180 10:40 21.07.2019
4847 Clear 40 1000 38 10000 6 190 10:22 21.07.2019
4848 Clear 38 1000 40 10000 5 180 09:38 21.07.2019
4849 Clear 38 1000 40 10000 5 180 09:20 21.07.2019
4850 Clear 39 1000 40 10000 3 180 08:45 21.07.2019
4851 Clear 38 1000 40 10000 3 180 08:26 21.07.2019
4852 Clear 37 1001 42 10000 4 200 07:38 21.07.2019
4853 Clouds 37 1001 47 8000 2 0 06:50 21.07.2019
4854 Clouds 35 1002 56 6000 2 200 05:41 21.07.2019
4855 Mist 29 1003 74 2800 2 10 02:43 21.07.2019
4856 Mist 27 1003 94 2800 1 0 01:19 21.07.2019
4857 Mist 26 1003 94 3200 1 0 00:39 21.07.2019
4858 Mist 25 1003 94 3200 0.16 26.882 00:18 21.07.2019
4859 Mist 26 1003 94 3500 1 360 23:40 20.07.2019
4860 Mist 26 1002 94 4000 1 10 23:21 20.07.2019
4861 Mist 25 1002 94 4000 1 30 22:44 20.07.2019
4862 Mist 26 1002 88 4500 1 0 22:21 20.07.2019
4863 Mist 26 1002 88 4500 1 70 21:45 20.07.2019
4864 Mist 26 1002 88 4500 1 70 21:26 20.07.2019
4865 Mist 27 1002 88 4500 1 0 20:57 20.07.2019
4866 Mist 27 1002 88 4500 2 90 20:38 20.07.2019
4867 Mist 27 1002 88 5000 1 80 20:18 20.07.2019
4868 Mist 27 1002 88 5000 1 80 20:18 20.07.2019
4869 Mist 27 1002 88 5000 1 60 19:44 20.07.2019
4870 Mist 27 1003 88 5000 1 0 19:19 20.07.2019
4871 Mist 27 1003 88 5000 1 80 18:41 20.07.2019
4872 Clouds 27 1003 88 6000 1 0 18:20 20.07.2019
4873 Clouds 27 1003 88 6000 1 0 17:51 20.07.2019
4874 Clouds 28 1003 83 6000 1 0 17:23 20.07.2019
4875 Clouds 28 1002 83 6000 2 80 16:44 20.07.2019
4876 Clouds 28 1002 83 6000 2 80 16:26 20.07.2019
4877 Clouds 28 1002 83 6000 2 100 15:57 20.07.2019
4878 Clouds 28 1002 83 6000 1 0 15:38 20.07.2019
4879 Clouds 28 1002 83 6000 1 50 15:19 20.07.2019
4880 Clouds 28 1001 83 6000 1 0 14:47 20.07.2019
4881 Clouds 28 1001 83 6000 1 0 14:22 20.07.2019
4882 Clouds 29 1002 78 7000 1 70 13:39 20.07.2019
4883 Clouds 29 1002 78 7000 1 0 13:20 20.07.2019
4884 Clouds 29 1002 78 7000 1 0 12:54 20.07.2019
4885 Clouds 29 1002 78 8000 1 0 12:21 20.07.2019
4886 Clouds 29 1001 74 8000 1 0 11:56 20.07.2019
4887 Clouds 29 1001 74 7000 1 0 11:24 20.07.2019
4888 Clouds 29 1002 74 7000 1 0 10:55 20.07.2019
4889 Clouds 29 1002 74 6000 1 0 10:36 20.07.2019
4890 Clouds 29 1002 74 6000 2 360 10:18 20.07.2019
4891 Clouds 29 1002 74 6000 2 20 09:45 20.07.2019
4892 Clouds 29 1002 74 7000 3 360 09:18 20.07.2019
4893 Clouds 29 1002 74 7000 3 360 09:18 20.07.2019
4894 Clouds 30 1003 74 7000 3 360 08:44 20.07.2019
4895 Clouds 30 1003 74 7000 3 360 08:20 20.07.2019
4896 Clouds 30 1003 74 7000 1 0 07:20 20.07.2019
4897 Clouds 29 1003 74 7000 2 140 06:41 20.07.2019
4898 Clouds 28 1004 69 6000 2 140 04:31 20.07.2019
4899 Mist 27 1004 83 4500 2 130 03:28 20.07.2019
4900 Mist 27 1004 88 4500 2 100 01:21 20.07.2019
4901 Rain 27 1004 88 4000 3 100 01:21 20.07.2019
4902 Mist 26 1004 88 4500 2 90 00:46 20.07.2019
4903 Mist 26 1004 88 5000 2 110 00:21 20.07.2019
4904 Rain 27 1003 83 7000 3 130 23:44 19.07.2019
4905 Rain 27 1003 83 7000 3 130 23:25 19.07.2019
4906 Rain 27 1003 83 8000 2 120 22:50 19.07.2019
4907 Clear 27 1003 78 10000 3 130 22:26 19.07.2019
4908 Clear 27 1003 78 10000 2 130 21:51 19.07.2019
4909 Clear 27 1003 78 10000 2 130 21:33 19.07.2019
4910 Clear 27 1003 78 10000 2 130 20:58 19.07.2019
4911 Clear 27 1003 78 10000 2 130 20:38 19.07.2019
4912 Clear 28 1003 74 10000 2 140 20:20 19.07.2019
4913 Clear 28 1003 74 10000 3 130 19:35 19.07.2019
4914 Clear 28 1003 74 10000 2 150 18:46 19.07.2019
4915 Clear 28 1003 74 10000 2 150 18:25 19.07.2019
4916 Clear 28 1003 74 10000 2 140 17:56 19.07.2019
4917 Clear 29 1004 69 10000 2 150 17:29 19.07.2019
4918 Clear 29 1003 69 10000 3 120 16:58 19.07.2019
4919 Clear 29 1004 69 10000 2 140 16:40 19.07.2019
4920 Clear 29 1004 69 10000 2 150 16:18 19.07.2019
4921 Clear 30 1004 66 10000 3 140 15:44 19.07.2019
4922 Clear 30 1004 66 10000 3 140 15:25 19.07.2019
4923 Clear 30 1003 70 10000 2 130 14:45 19.07.2019
4924 Clear 30 1003 70 10000 2 130 14:45 19.07.2019
4925 Clear 30 1003 70 10000 2 130 14:25 19.07.2019
4926 Clear 31 1003 62 10000 2 140 13:57 19.07.2019
4927 Clouds 31 1003 62 10000 3 140 13:38 19.07.2019
4928 Clouds 31 1003 66 10000 2 150 13:20 19.07.2019
4929 Clouds 32 1003 66 10000 2 150 12:44 19.07.2019
4930 Clouds 32 1003 62 10000 2 140 12:25 19.07.2019
4931 Clouds 32 1003 62 10000 3 140 11:46 19.07.2019
4932 Clouds 32 1003 62 10000 3 120 11:19 19.07.2019
4933 Clouds 32 1003 62 10000 2 150 10:48 19.07.2019
4934 Clouds 33 1003 62 10000 2 150 10:23 19.07.2019
4935 Clear 33 1004 62 10000 3 140 09:59 19.07.2019
4936 Clear 33 1004 62 10000 3 130 09:41 19.07.2019
4937 Clear 33 1004 62 10000 3 130 09:22 19.07.2019
4938 Clouds 32 1004 62 10000 2 130 08:50 19.07.2019
4939 Clouds 32 1004 62 10000 2 130 08:27 19.07.2019
4940 Clouds 33 1005 62 10000 3 110 07:32 19.07.2019
4941 Clouds 32 1005 70 8000 2 230 06:33 19.07.2019
4942 Clouds 28 1006 78 6000 1 0 02:58 19.07.2019
4943 Clouds 27 1006 83 7000 2 90 01:42 19.07.2019
4944 Clouds 27 1006 83 7000 2 110 00:47 19.07.2019
4945 Clouds 25 1006 83 7000 2 100 23:59 18.07.2019
4946 Clouds 25 1006 83 7000 2 100 23:40 18.07.2019
4947 Clouds 25 1006 83 8000 1 0 23:22 18.07.2019
4948 Clouds 25 1006 78 8000 1 0 22:42 18.07.2019
4949 Clouds 26 1006 78 8000 1 0 22:20 18.07.2019
4950 Clouds 27 1006 78 8000 1 0 21:56 18.07.2019
4951 Clouds 27 1006 78 8000 2 90 21:37 18.07.2019
4952 Clouds 27 1006 78 8000 1 0 21:18 18.07.2019
4953 Clouds 27 1006 78 8000 1 0 20:42 18.07.2019
4954 Clouds 27 1006 78 8000 1 0 20:23 18.07.2019
4955 Clouds 28 1006 74 8000 2 100 19:47 18.07.2019
4956 Clouds 28 1006 74 8000 2 100 19:27 18.07.2019
4957 Clouds 28 1006 74 8000 2 100 18:50 18.07.2019
4958 Clouds 28 1006 74 8000 2 100 18:22 18.07.2019
4959 Clouds 29 1006 69 8000 2 110 17:56 18.07.2019
4960 Clouds 29 1006 69 8000 2 110 17:56 18.07.2019
4961 Clouds 29 1006 69 8000 3 110 17:36 18.07.2019
4962 Clouds 29 1006 74 8000 4 110 17:18 18.07.2019
4963 Clouds 29 1006 78 7000 3 100 16:43 18.07.2019
4964 Clouds 30 1006 78 7000 2 100 16:24 18.07.2019
4965 Clouds 30 1006 78 7000 2 100 15:55 18.07.2019
4966 Clouds 30 1005 70 7000 3 110 15:36 18.07.2019
4967 Clouds 31 1005 70 7000 4 130 14:55 18.07.2019
4968 Clouds 31 1005 66 7000 3 110 14:37 18.07.2019
4969 Clouds 32 1005 66 6000 2 120 13:57 18.07.2019
4970 Clouds 32 1005 66 6000 2 120 13:36 18.07.2019
4971 Haze 32 1005 62 5000 2 120 13:18 18.07.2019
4972 Haze 33 1004 62 5000 1 0 12:42 18.07.2019
4973 Haze 34 1004 59 5000 2 140 12:18 18.07.2019
4974 Haze 34 1004 59 5000 2 130 11:50 18.07.2019
4975 Haze 34 1004 59 5000 2 130 11:32 18.07.2019
4976 Haze 34 1004 55 5000 2 0 10:52 18.07.2019
4977 Haze 35 1005 59 5000 3 150 10:23 18.07.2019
4978 Haze 34 1005 59 5000 2 150 09:44 18.07.2019
4979 Haze 35 1005 59 5000 3 180 09:23 18.07.2019
4980 Haze 34 1005 59 5000 1 0 08:46 18.07.2019
4981 Haze 34 1006 59 5000 2 0 08:19 18.07.2019
4982 Haze 34 1006 66 5000 2 70 07:37 18.07.2019
4983 Haze 34 1006 66 5000 2 70 07:19 18.07.2019
4984 Haze 33 1007 70 5000 1 0 06:35 18.07.2019
4985 Rain 30 1008 83 5000 1 0 04:20 18.07.2019
4986 Mist 28 1007 83 5000 1 0 02:52 18.07.2019
4987 Clouds 27 1007 88 6000 2 90 01:38 18.07.2019
4988 Clouds 26 1007 88 7000 2 350 00:28 18.07.2019
4989 Clouds 26 1007 88 7000 2 10 23:49 17.07.2019
4990 Clouds 25 1007 88 8000 1 20 23:19 17.07.2019
4991 Clouds 25 1007 83 8000 1 360 22:44 17.07.2019
4992 Clouds 26 1007 83 8000 1 0 22:23 17.07.2019
4993 Clouds 26 1007 83 8000 1 0 21:59 17.07.2019
4994 Clouds 26 1007 83 8000 2 340 21:40 17.07.2019
4995 Clouds 26 1007 83 8000 2 340 21:40 17.07.2019
4996 Clouds 26 1007 83 8000 2 330 21:21 17.07.2019
4997 Clouds 26 1007 83 8000 2 330 20:58 17.07.2019
4998 Clouds 26 1007 83 8000 4 330 20:39 17.07.2019
4999 Clouds 25 1007 88 8000 2 360 20:20 17.07.2019
5000 Clouds 26 1007 88 8000 2 360 19:43 17.07.2019
5001 Clouds 26 1007 88 8000 2 10 19:22 17.07.2019
5002 Clouds 26 1007 83 8000 3 360 18:56 17.07.2019
5003 Clouds 26 1007 83 8000 3 360 18:38 17.07.2019
5004 Clear 26 1008 83 10000 2 340 18:18 17.07.2019
5005 Clear 27 1008 83 10000 2 340 17:43 17.07.2019
5006 Clear 27 1008 83 10000 2 340 17:23 17.07.2019
5007 Clear 27 1008 83 10000 1 0 16:42 17.07.2019
5008 Clear 27 1008 83 10000 1 0 16:22 17.07.2019
5009 Clear 26 1008 88 10000 1.08 19.924 15:51 17.07.2019
5010 Clear 27 1008 88 10000 1.08 19.924 15:32 17.07.2019
5011 Clear 27 1008 78 10000 2 10 14:58 17.07.2019
5012 Clear 27 1007 78 10000 1 0 14:40 17.07.2019
5013 Clear 27 1007 78 10000 2 20 14:21 17.07.2019
5014 Clear 27 1007 78 10000 2 20 13:56 17.07.2019
5015 Clear 27 1007 78 10000 2 360 13:36 17.07.2019
5016 Clear 28 1007 69 10000 1 20 13:18 17.07.2019
5017 Clear 29 1006 69 10000 2 20 12:39 17.07.2019
5018 Clouds 29 1006 74 8000 2 60 12:19 17.07.2019
5019 Clouds 29 1006 78 7000 2 80 11:43 17.07.2019
5020 Clouds 29 1007 74 6000 1 50 11:19 17.07.2019
5021 Rain 29 1007 83 5000 1 0 10:49 17.07.2019
5022 Rain 29 1007 83 5000 1 0 10:24 17.07.2019
5023 Mist 29 1007 78 5000 1 0 09:46 17.07.2019
5024 Mist 29 1007 78 5000 1 0 09:28 17.07.2019
5025 Rain 28 1007 83 4500 2 110 08:58 17.07.2019
5026 Rain 28 1008 88 4000 1 0 08:39 17.07.2019
5027 Clouds 28 1008 78 6000 1 0 08:21 17.07.2019
5028 Clouds 27 1008 78 6000 1 0 07:41 17.07.2019
5029 Clouds 28 1008 78 6000 1 0 07:22 17.07.2019
5030 Mist 27 1008 83 5000 1 0 06:46 17.07.2019
5031 Mist 27 1008 83 5000 1 0 06:46 17.07.2019
5032 Mist 27 1008 83 5000 1 0 06:28 17.07.2019
5033 Mist 28 1008 83 4500 2 40 05:42 17.07.2019
5034 Mist 27 1008 83 4000 2 10 05:20 17.07.2019
5035 Mist 28 1008 88 4000 2 360 04:22 17.07.2019
5036 Rain 26 1008 88 3500 3 0 02:47 17.07.2019
5037 Clouds 26 1008 83 6000 1 0 01:58 17.07.2019
5038 Rain 25 1008 94 6000 1 0 01:24 17.07.2019
5039 Rain 25 1008 94 6000 1.38 144.737 00:43 17.07.2019
5040 Rain 25 1008 88 6000 1 0 00:23 17.07.2019
5041 Rain 25 1007 94 8000 2 50 23:49 16.07.2019
5042 Rain 25 1007 94 8000 2 50 23:28 16.07.2019
5043 Rain 25 1008 94 8000 1 0 22:57 16.07.2019
5044 Clouds 25 1008 94 10000 1 0 22:39 16.07.2019
5045 Clouds 25 1008 94 10000 1 30 22:19 16.07.2019
5046 Rain 26 1008 88 10000 3 30 21:43 16.07.2019
5047 Rain 26 1008 88 10000 3 310 21:20 16.07.2019
5048 Rain 26 1008 88 10000 3 310 20:56 16.07.2019
5049 Rain 26 1009 78 10000 2 360 20:38 16.07.2019
5050 Rain 27 1008 69 10000 2 140 20:19 16.07.2019
5051 Rain 27 1008 74 10000 1 0 19:44 16.07.2019
5052 Rain 27 1008 74 10000 1 0 19:26 16.07.2019
5053 Clear 27 1008 78 10000 1 0 18:45 16.07.2019
5054 Clear 28 1008 78 10000 1 0 18:21 16.07.2019
5055 Clear 28 1008 78 10000 1 0 17:58 16.07.2019
5056 Clear 28 1008 78 10000 1 0 17:38 16.07.2019
5057 Clear 28 1008 73 10000 1 350 17:20 16.07.2019
5058 Clear 28 1008 78 10000 1 20 16:40 16.07.2019
5059 Clear 28 1008 74 10000 1 20 16:19 16.07.2019
5060 Clear 29 1007 69 10000 2 350 15:41 16.07.2019
5061 Clear 29 1007 69 10000 3 360 15:21 16.07.2019
5062 Clear 29 1007 69 10000 3 360 14:58 16.07.2019
5063 Clear 29 1007 65 10000 3 360 14:39 16.07.2019
5064 Clear 30 1007 58 10000 3 320 14:20 16.07.2019
5065 Clear 30 1007 54 10000 3 340 13:44 16.07.2019
5066 Clear 30 1007 54 10000 3 340 13:44 16.07.2019
5067 Clear 31 1007 54 10000 4 350 13:21 16.07.2019
5068 Clear 31 1007 54 10000 3 350 12:45 16.07.2019
5069 Clear 31 1007 58 10000 5 350 12:21 16.07.2019
5070 Clear 31 1007 58 10000 5 350 11:58 16.07.2019
5071 Clouds 32 1007 51 10000 7 310 11:40 16.07.2019
5072 Clouds 33 1007 45 10000 7 260 11:22 16.07.2019
5073 Clear 34 1006 46 10000 4 140 10:45 16.07.2019
5074 Clear 34 1006 46 10000 4 140 10:45 16.07.2019
5075 Clear 34 1006 46 10000 4 140 10:22 16.07.2019
5076 Clear 34 1006 52 10000 3 120 09:56 16.07.2019
5077 Clear 35 1006 52 10000 3 120 09:36 16.07.2019
5078 Clear 34 1007 52 10000 3 150 09:18 16.07.2019
5079 Clear 33 1007 52 10000 2 120 08:41 16.07.2019
5080 Clear 33 1007 52 10000 3 0 08:19 16.07.2019
5081 Clear 34 1007 55 10000 3 0 07:41 16.07.2019
5082 Clear 33 1007 55 10000 3 0 07:23 16.07.2019
5083 Clear 34 1008 52 10000 3 110 06:47 16.07.2019
5084 Clear 32 1008 52 10000 3 110 06:26 16.07.2019
5085 Clouds 32 1008 58 8000 2 0 05:36 16.07.2019
5086 Clouds 32 1009 62 8000 1 0 05:18 16.07.2019
5087 Clouds 30 1008 69 8000 2 140 03:54 16.07.2019
5088 Clouds 29 1008 69 8000 2 130 03:20 16.07.2019
5089 Clouds 28 1008 69 8000 2 90 02:30 16.07.2019
5090 Clouds 28 1008 74 8000 3 100 01:44 16.07.2019
5091 Clouds 27 1008 78 7000 3 100 00:47 16.07.2019
5092 Clouds 26 1008 78 7000 3 100 00:20 16.07.2019
5093 Clouds 27 1007 78 8000 3 100 23:47 15.07.2019
5094 Clouds 27 1007 78 8000 3 100 23:29 15.07.2019
5095 Clear 27 1007 78 10000 2 90 22:48 15.07.2019
5096 Clear 28 1007 73 10000 2 100 22:22 15.07.2019
5097 Clear 28 1007 73 10000 2 100 21:59 15.07.2019
5098 Clear 27 1006 83 10000 1 90 21:40 15.07.2019
5099 Clear 28 1006 73 10000 1 90 21:20 15.07.2019
5100 Clear 28 1006 73 10000 1 90 20:56 15.07.2019
5101 Clear 28 1006 74 10000 2 90 20:37 15.07.2019
5102 Clear 28 1007 74 10000 2 90 20:19 15.07.2019
5103 Clear 29 1007 69 10000 2 80 19:40 15.07.2019
5104 Clear 29 1007 69 10000 1 0 19:20 15.07.2019
5105 Clear 29 1007 69 10000 2 80 18:54 15.07.2019
5106 Clear 29 1007 69 10000 2 80 18:36 15.07.2019
5107 Clear 29 1007 65 10000 2 130 18:18 15.07.2019
5108 Clear 29 1006 65 10000 3 160 17:42 15.07.2019
5109 Clear 30 1006 62 10000 3 160 17:22 15.07.2019
5110 Clear 30 1006 62 10000 3 160 16:58 15.07.2019
5111 Clear 30 1006 62 10000 3 130 16:38 15.07.2019
5112 Clear 31 1006 62 10000 4 140 16:20 15.07.2019
5113 Clear 31 1005 58 10000 4 140 15:45 15.07.2019
5114 Clear 31 1005 58 10000 4 140 15:27 15.07.2019
5115 Clear 32 1005 55 10000 2 140 14:59 15.07.2019
5116 Clear 32 1004 55 10000 2 140 14:40 15.07.2019
5117 Clear 32 1004 55 10000 3 140 14:21 15.07.2019
5118 Clear 33 1004 52 10000 3 140 13:48 15.07.2019
5119 Clear 34 1004 52 10000 3 140 13:21 15.07.2019
5120 Clear 34 1004 52 10000 3 140 12:57 15.07.2019
5121 Clear 34 1004 49 10000 3 150 12:37 15.07.2019
5122 Clear 34 1003 52 10000 4 150 12:18 15.07.2019
5123 Clear 35 1003 49 10000 4 140 11:41 15.07.2019
5124 Clear 35 1003 49 10000 4 140 11:41 15.07.2019
5125 Clear 35 1003 49 10000 4 140 11:20 15.07.2019
5126 Clear 35 1003 46 10000 4 160 10:43 15.07.2019
5127 Clear 36 1003 46 10000 4 160 10:24 15.07.2019
5128 Clear 36 1003 46 10000 4 160 10:24 15.07.2019
5129 Clear 36 1003 46 10000 4 140 09:43 15.07.2019
5130 Clear 36 1003 46 10000 4 140 09:25 15.07.2019
5131 Clouds 35 1004 49 8000 4 170 08:47 15.07.2019
5132 Clouds 35 1004 49 8000 4 170 08:27 15.07.2019
5133 Clouds 35 1004 52 8000 4 130 07:57 15.07.2019
5134 Clouds 35 1005 52 8000 2 140 07:36 15.07.2019
5135 Clouds 34 1005 58 6000 2 130 06:50 15.07.2019
5136 Clouds 34 1005 58 6000 2 130 06:30 15.07.2019
5137 Clouds 33 1006 58 6000 2 0 05:43 15.07.2019
5138 Clear 33 1006 66 6000 1 0 04:52 15.07.2019
5139 Clear 32 1006 66 6000 1 0 04:34 15.07.2019
5140 Clear 30 1006 62 8000 1 0 03:30 15.07.2019
5141 Clear 27 1005 69 10000 1 0 02:26 15.07.2019
5142 Clear 28 1005 73 10000 1 0 01:38 15.07.2019
5143 Clear 26 1005 83 10000 1.19 113.097 00:54 15.07.2019
5144 Clear 26 1005 83 10000 1.19 113.097 00:29 15.07.2019
5145 Clear 25 1004 88 10000 1 70 00:00 15.07.2019
5146 Clear 25 1004 88 10000 0.71 4.275 23:41 14.07.2019
5147 Clear 25 1004 83 10000 1 90 23:21 14.07.2019
5148 Clear 26 1004 83 10000 1 90 22:58 14.07.2019
5149 Clear 25 1004 88 10000 1 0 22:39 14.07.2019
5150 Clear 25 1004 88 10000 1 90 22:21 14.07.2019
5151 Clear 25 1004 83 10000 1 0 21:46 14.07.2019
5152 Clear 26 1004 83 10000 1 50 21:20 14.07.2019
5153 Clear 27 1004 83 10000 1 50 20:59 14.07.2019
5154 Clear 26 1004 83 10000 1 0 20:39 14.07.2019
5155 Clear 27 1004 83 10000 1 70 20:20 14.07.2019
5156 Clear 27 1004 83 10000 1 70 19:56 14.07.2019
5157 Clear 27 1004 83 10000 2 60 19:38 14.07.2019
5158 Clear 27 1004 73 10000 2 90 19:19 14.07.2019
5159 Clear 27 1004 73 10000 2 90 18:41 14.07.2019
5160 Clear 28 1004 73 10000 3 100 18:22 14.07.2019
5161 Clear 28 1003 78 10000 3 100 17:58 14.07.2019
5162 Clear 28 1003 78 10000 3 100 17:23 14.07.2019
5163 Clear 28 1003 78 10000 2 90 16:55 14.07.2019
5164 Clear 28 1003 74 10000 3 80 16:26 14.07.2019
5165 Clear 29 1003 74 10000 2 90 15:58 14.07.2019
5166 Clear 30 1003 69 10000 1 0 15:40 14.07.2019
5167 Clear 31 1002 58 10000 2 160 15:22 14.07.2019
5168 Clear 30 1002 58 10000 2 150 14:45 14.07.2019
5169 Clear 31 1002 55 10000 3 150 14:20 14.07.2019
5170 Clear 32 1001 52 10000 4 140 13:46 14.07.2019
5171 Clear 31 1001 52 10000 4 140 13:24 14.07.2019
5172 Clouds 34 1000 46 10000 4 150 12:57 14.07.2019
5173 Clouds 34 1000 46 10000 4 150 12:38 14.07.2019
5174 Clouds 35 1000 43 10000 4 120 12:18 14.07.2019
5175 Clouds 34 1000 38 10000 3 150 11:45 14.07.2019
5176 Clouds 34 1000 38 10000 4 0 11:20 14.07.2019
5177 Clouds 34 1000 41 10000 4 150 10:43 14.07.2019
5178 Clouds 33 1001 36 10000 3 140 10:21 14.07.2019
5179 Clouds 33 1001 38 10000 3 200 09:48 14.07.2019
5180 Clouds 33 1001 38 10000 3 200 09:29 14.07.2019
5181 Clouds 33 1001 38 10000 3 110 08:46 14.07.2019
5182 Clouds 35 1001 38 10000 3 110 08:27 14.07.2019
5183 Clear 36 1002 40 10000 2 0 07:43 14.07.2019
5184 Clear 34 1002 43 10000 2 140 07:19 14.07.2019
5185 Clear 32 1003 43 10000 4 10 05:46 14.07.2019
5186 Clear 31 1003 57 10000 4 10 03:53 14.07.2019
5187 Clear 28 1003 57 10000 4 10 03:34 14.07.2019
5188 Clear 29 1003 65 10000 4 360 02:52 14.07.2019
5189 Clear 28 1003 65 10000 4 360 02:22 14.07.2019
5190 Clear 27 1003 83 10000 3 350 01:45 14.07.2019
5191 Clear 27 1003 83 10000 3 350 01:24 14.07.2019
5192 Clear 24 1002 83 10000 1 350 00:41 14.07.2019
5193 Clear 23 1002 88 10000 1 0 00:20 14.07.2019
5194 Clear 22 1002 88 10000 1 0 23:56 13.07.2019
5195 Clear 22 1002 88 10000 1 0 23:37 13.07.2019
5196 Clear 21 1001 88 10000 2 40 23:19 13.07.2019
5197 Clear 21 1001 94 10000 2 350 22:41 13.07.2019
5198 Clear 22 1001 88 10000 3 360 22:21 13.07.2019
5199 Clear 22 1001 88 10000 2 350 21:45 13.07.2019
5200 Clear 22 1001 88 10000 3 350 21:20 13.07.2019
5201 Clouds 23 1001 88 10000 3 10 20:51 13.07.2019
5202 Clouds 22 1001 88 10000 3 10 20:32 13.07.2019
5203 Thunderstorm 22 1003 88 8000 1 0 19:50 13.07.2019
5204 Thunderstorm 25 1003 88 8000 1 0 19:29 13.07.2019
5205 Thunderstorm 28 1002 57 10000 8 30 18:46 13.07.2019
5206 Clouds 28 1001 74 10000 1 0 18:24 13.07.2019
5207 Clear 29 1001 65 10000 2 150 17:49 13.07.2019
5208 Clear 29 1000 61 10000 2 150 17:22 13.07.2019
5209 Clear 30 1000 61 10000 2 150 16:58 13.07.2019
5210 Clear 30 1000 65 10000 2 120 16:39 13.07.2019
5211 Clear 29 1000 62 10000 2 130 16:21 13.07.2019
5212 Clear 29 1000 62 10000 3 140 15:45 13.07.2019
5213 Clear 30 1000 58 10000 3 140 15:22 13.07.2019
5214 Clouds 31 999 58 8000 3 140 14:46 13.07.2019
5215 Clouds 31 999 58 8000 3 140 14:25 13.07.2019
5216 Clouds 31 999 58 7000 3 140 13:47 13.07.2019
5217 Clouds 32 999 58 7000 3 140 13:27 13.07.2019
5218 Clouds 33 999 55 7000 3 130 12:59 13.07.2019
5219 Clouds 33 999 49 7000 3 130 12:39 13.07.2019
5220 Clouds 34 998 55 7000 3 140 12:20 13.07.2019
5221 Clouds 34 998 49 7000 3 140 11:52 13.07.2019
5222 Clouds 34 998 52 7000 3 130 11:19 13.07.2019
5223 Clouds 34 998 49 7000 3 150 10:45 13.07.2019
5224 Clear 35 998 46 10000 3 160 10:24 13.07.2019
5225 Clear 35 998 46 10000 3 160 09:59 13.07.2019
5226 Clear 35 999 46 10000 4 150 09:40 13.07.2019
5227 Clear 36 999 44 10000 5 160 09:18 13.07.2019
5228 Clear 36 999 46 10000 4 140 08:36 13.07.2019
5229 Clear 36 999 44 10000 5 150 08:18 13.07.2019
5230 Clear 37 1000 43 10000 4 130 07:30 13.07.2019
5231 Clear 36 1001 46 10000 2 140 06:41 13.07.2019
5232 Clouds 35 1001 49 7000 3 120 05:59 13.07.2019
5233 Clouds 34 1001 52 7000 2 0 05:29 13.07.2019
5234 Clouds 33 1002 55 6000 2 40 04:24 13.07.2019
5235 Clouds 32 1002 62 6000 2 60 03:57 13.07.2019
5236 Clouds 32 1002 62 6000 3 90 03:38 13.07.2019
5237 Clouds 28 1002 69 6000 2 80 02:18 13.07.2019
5238 Clouds 29 1001 74 6000 2 70 01:41 13.07.2019
5239 Clear 28 1001 73 6000 2 50 01:19 13.07.2019
5240 Clear 28 1001 78 7000 2 60 00:54 13.07.2019
5241 Clear 26 1000 88 6000 1 0 00:19 13.07.2019
5242 Clear 26 1000 83 6000 1 40 23:48 12.07.2019
5243 Clear 26 1000 83 6000 1 40 23:29 12.07.2019
5244 Mist 26 1000 88 4500 2 30 22:46 12.07.2019
5245 Mist 26 1000 88 4500 1 20 22:24 12.07.2019
5246 Clear 27 1000 83 6000 1 0 21:43 12.07.2019
5247 Clear 27 1000 83 6000 1 0 21:22 12.07.2019
5248 Clear 27 1000 78 7000 2 90 20:57 12.07.2019
5249 Clear 28 1000 78 10000 2 90 20:38 12.07.2019
5250 Clear 28 1000 73 10000 2 90 20:20 12.07.2019
5251 Clear 28 1000 69 10000 3 80 19:42 12.07.2019
5252 Clear 28 1001 69 10000 2 80 19:23 12.07.2019
5253 Clear 28 1001 69 10000 3 70 18:46 12.07.2019
5254 Clear 29 1001 69 10000 1 0 18:22 12.07.2019
5255 Clear 29 1001 69 10000 1 0 17:53 12.07.2019
5256 Clear 29 1001 73 10000 1 0 17:29 12.07.2019
5257 Clear 30 1000 54 10000 2 170 16:52 12.07.2019
5258 Clear 30 1000 54 10000 2 170 16:25 12.07.2019
5259 Clear 31 1000 54 10000 3 160 15:56 12.07.2019
5260 Clear 31 1000 54 10000 2 160 15:36 12.07.2019
5261 Clear 31 1000 58 10000 3 130 15:18 12.07.2019
5262 Clear 32 1000 55 10000 3 150 14:43 12.07.2019
5263 Clear 32 1000 52 10000 3 150 14:20 12.07.2019
5264 Clear 32 1000 46 10000 4 160 13:43 12.07.2019
5265 Clear 34 1000 43 10000 4 150 13:21 12.07.2019
5266 Clear 34 999 36 10000 5 170 12:41 12.07.2019
5267 Clear 35 999 34 10000 5 180 12:23 12.07.2019
5268 Clear 34 999 34 10000 3 150 11:46 12.07.2019
5269 Clear 36 999 34 10000 3 150 11:24 12.07.2019
5270 Clouds 36 999 36 10000 3 140 10:55 12.07.2019
5271 Clouds 36 999 36 10000 3 160 10:37 12.07.2019
5272 Clouds 37 1000 30 10000 4 140 10:19 12.07.2019
5273 Clouds 36 1000 30 10000 4 180 09:51 12.07.2019
5274 Clouds 36 1001 30 10000 2 0 09:24 12.07.2019
5275 Clouds 36 1001 32 10000 2 210 08:42 12.07.2019
5276 Clouds 35 1002 36 10000 3 0 08:22 12.07.2019
5277 Clouds 36 1002 36 10000 3 190 07:47 12.07.2019
5278 Clouds 36 1002 36 10000 3 190 07:29 12.07.2019
5279 Clouds 33 1003 40 10000 2 0 06:29 12.07.2019
5280 Clear 33 1004 43 10000 2 0 05:50 12.07.2019
5281 Clear 32 1005 57 10000 1 0 03:46 12.07.2019
5282 Clear 28 1005 73 10000 2 350 01:50 12.07.2019
5283 Clear 27 1005 73 10000 2 350 01:32 12.07.2019
5284 Clear 24 1005 88 10000 2 360 00:34 12.07.2019
5285 Clear 24 1005 88 10000 2 350 23:56 11.07.2019
5286 Clear 24 1005 88 10000 2 350 23:37 11.07.2019
5287 Clear 24 1005 88 10000 2 350 23:37 11.07.2019
5288 Clear 24 1005 88 10000 2 350 23:37 11.07.2019
5289 Clear 23 1005 93 10000 0.42 316.444 23:18 11.07.2019
5290 Clear 23 1005 88 10000 1 350 22:42 11.07.2019
5291 Clear 23 1005 88 10000 1 350 22:23 11.07.2019
5292 Clear 23 1005 88 10000 1 350 22:23 11.07.2019
5293 Clear 24 1005 83 10000 1 360 21:43 11.07.2019
5294 Clear 24 1005 83 10000 1 20 21:20 11.07.2019
5295 Clear 24 1005 83 10000 1 20 21:20 11.07.2019
5296 Clear 24 1005 83 10000 1 20 20:58 11.07.2019
5297 Clear 24 1005 83 10000 1 10 20:40 11.07.2019
5298 Clear 24 1005 83 10000 1 30 20:22 11.07.2019
5299 Clear 25 1005 78 10000 2 10 19:48 11.07.2019
5300 Clear 25 1005 78 10000 2 10 19:30 11.07.2019
5301 Clear 25 1005 78 10000 1 30 18:57 11.07.2019
5302 Clear 26 1005 73 10000 1 20 18:38 11.07.2019
5303 Clear 26 1005 69 10000 1 50 18:20 11.07.2019
5304 Clear 27 1005 65 10000 3 60 17:43 11.07.2019
5305 Clear 27 1005 65 10000 3 60 17:25 11.07.2019
5306 Clear 28 1005 51 10000 3 170 16:52 11.07.2019
5307 Clear 28 1005 54 10000 3 170 16:24 11.07.2019
5308 Clear 29 1005 54 10000 3 170 15:55 11.07.2019
5309 Clear 29 1005 54 10000 3 170 15:36 11.07.2019
5310 Clear 29 1006 54 10000 2 130 15:18 11.07.2019
5311 Clear 30 1005 51 10000 2 130 14:43 11.07.2019
5312 Clear 30 1005 45 10000 2 140 14:21 11.07.2019
5313 Clear 30 1005 45 10000 2 140 13:47 11.07.2019
5314 Clear 31 1005 45 10000 2 140 13:28 11.07.2019
5315 Clouds 32 1004 38 10000 4 180 12:46 11.07.2019
5316 Clouds 32 1004 38 10000 4 180 12:28 11.07.2019
5317 Clouds 32 1004 38 10000 4 190 11:58 11.07.2019
5318 Clear 32 1004 35 10000 4 180 11:39 11.07.2019
5319 Clouds 33 1004 38 10000 4 190 11:21 11.07.2019
5320 Clouds 32 1005 38 10000 4 200 10:45 11.07.2019
5321 Clouds 32 1005 35 10000 3 200 10:19 11.07.2019
5322 Clouds 33 1005 38 10000 4 220 09:47 11.07.2019
5323 Clouds 32 1005 38 10000 4 220 09:28 11.07.2019
5324 Clouds 31 1005 43 10000 4 160 08:52 11.07.2019
5325 Clouds 31 1006 40 10000 5 170 08:26 11.07.2019
5326 Clouds 32 1007 42 10000 3 0 07:52 11.07.2019
5327 Clouds 32 1007 42 10000 3 0 07:34 11.07.2019
5328 Clouds 32 1007 48 10000 3 160 06:41 11.07.2019
5329 Clouds 30 1008 54 10000 2 0 05:51 11.07.2019
5330 Clouds 29 1008 54 10000 2 0 05:29 11.07.2019
5331 Clouds 30 1008 57 10000 2 0 04:54 11.07.2019
5332 Clear 26 1009 69 10000 1 0 02:41 11.07.2019
5333 Clear 26 1009 73 10000 1 0 01:38 11.07.2019
5334 Clouds 22 1009 94 8000 1 0 00:29 11.07.2019
5335 Clouds 22 1008 88 8000 1 10 23:37 10.07.2019
5336 Clear 22 1008 88 10000 1 0 23:18 10.07.2019
5337 Clear 22 1008 88 10000 2 40 22:46 10.07.2019
5338 Clear 22 1008 88 10000 2 10 22:21 10.07.2019
5339 Clear 23 1008 88 10000 2 110 21:45 10.07.2019
5340 Clear 23 1008 88 10000 2 110 21:26 10.07.2019
5341 Clear 23 1008 88 10000 1 80 20:57 10.07.2019
5342 Clear 23 1008 88 10000 2 130 20:39 10.07.2019
5343 Clear 23 1008 83 10000 2 120 20:19 10.07.2019
5344 Clear 23 1008 83 10000 2 120 19:53 10.07.2019
5345 Clear 24 1008 73 10000 3 130 19:22 10.07.2019
5346 Clear 24 1008 73 10000 3 130 18:57 10.07.2019
5347 Clear 24 1008 73 10000 3 130 18:38 10.07.2019
5348 Clear 24 1008 73 10000 2 140 18:20 10.07.2019
5349 Clear 25 1008 69 10000 3 140 17:41 10.07.2019
5350 Clear 25 1008 73 10000 2 130 17:20 10.07.2019
5351 Clear 26 1008 69 10000 2 140 16:37 10.07.2019
5352 Clear 26 1007 65 10000 2 150 16:18 10.07.2019
5353 Clear 26 1007 61 10000 2 140 15:45 10.07.2019
5354 Clear 26 1007 61 10000 3 140 15:21 10.07.2019
5355 Clear 27 1007 57 10000 3 140 14:41 10.07.2019
5356 Clear 27 1007 57 10000 3 140 14:22 10.07.2019
5357 Clear 28 1006 54 10000 3 140 13:52 10.07.2019
5358 Clear 28 1005 51 10000 4 120 13:19 10.07.2019
5359 Clear 28 1005 51 10000 4 120 13:19 10.07.2019
5360 Clear 29 1005 51 10000 4 120 12:58 10.07.2019
5361 Clear 29 1005 51 10000 4 120 12:58 10.07.2019
5362 Clear 29 1005 51 10000 4 120 12:58 10.07.2019
5363 Clear 29 1005 48 10000 5 130 12:38 10.07.2019
5364 Clear 30 1005 40 10000 3 120 12:19 10.07.2019
5365 Clear 30 1005 37 10000 2 0 11:46 10.07.2019
5366 Clear 29 1005 37 10000 2 100 11:21 10.07.2019
5367 Clear 29 1005 42 10000 3 90 10:46 10.07.2019
5368 Clear 29 1005 42 10000 3 140 10:21 10.07.2019
5369 Clear 30 1005 45 10000 3 70 09:44 10.07.2019
5370 Clear 30 1006 42 10000 2 80 09:21 10.07.2019
5371 Clear 30 1006 48 10000 2 100 08:52 10.07.2019
5372 Clear 30 1006 48 10000 2 100 08:52 10.07.2019
5373 Clear 29 1006 48 10000 2 100 08:30 10.07.2019
5374 Clear 29 1006 48 10000 2 100 08:30 10.07.2019
5375 Clouds 30 1006 51 10000 4 100 07:56 10.07.2019
5376 Clouds 29 1006 48 10000 4 130 07:33 10.07.2019
5377 Clouds 28 1007 54 10000 3 0 06:57 10.07.2019
5378 Rain 28 1007 51 8000 2 50 05:59 10.07.2019
5379 Rain 27 1008 57 8000 2 40 05:39 10.07.2019
5380 Clouds 26 1008 69 6000 2 110 04:28 10.07.2019
5381 Thunderstorm 23 1007 94 3500 1 0 00:48 10.07.2019
5382 Thunderstorm 22 1007 94 3500 1 0 00:29 10.07.2019
5383 Thunderstorm 23 1006 94 7000 2 50 23:42 09.07.2019
5384 Thunderstorm 23 1006 94 7000 1.12 31.651 23:21 09.07.2019
5385 Rain 23 1006 100 7000 1.12 31.651 22:42 09.07.2019
5386 Rain 23 1006 100 7000 1.12 31.651 22:24 09.07.2019
5387 Rain 23 1006 94 7000 1 120 21:59 09.07.2019
5388 Rain 23 1006 94 7000 1.12 31.651 21:40 09.07.2019
5389 Rain 23 1006 94 7000 0.19 18.243 21:22 09.07.2019
5390 Rain 23 1006 94 7000 0.99 125.793 20:43 09.07.2019
5391 Rain 23 1006 94 8000 1 0 20:24 09.07.2019
5392 Rain 23 1006 94 8000 1 0 19:42 09.07.2019
5393 Rain 23 1006 88 8000 1 60 19:24 09.07.2019
5394 Rain 24 1006 83 8000 1 80 18:47 09.07.2019
5395 Rain 24 1006 83 8000 1 0 18:26 09.07.2019
5396 Rain 24 1006 83 8000 1 80 18:26 09.07.2019
5397 Rain 24 1006 83 8000 1 0 17:57 09.07.2019
5398 Rain 24 1006 88 8000 1 0 17:38 09.07.2019
5399 Clear 24 1006 78 10000 1 0 17:19 09.07.2019
5400 Clear 25 1006 78 10000 2 90 16:50 09.07.2019
5401 Clear 25 1006 78 10000 2 90 16:25 09.07.2019
5402 Clear 25 1006 73 10000 1 0 15:50 09.07.2019
5403 Clear 25 1006 73 10000 1 0 15:32 09.07.2019
5404 Clear 25 1006 83 10000 2 50 14:58 09.07.2019
5405 Rain 25 1005 83 10000 1 0 14:39 09.07.2019
5406 Clear 26 1005 78 10000 1.25 131.428 14:19 09.07.2019
5407 Clear 26 1005 69 10000 1 100 13:45 09.07.2019
5408 Clear 26 1005 69 10000 1 100 13:27 09.07.2019
5409 Clear 26 1005 69 10000 1 100 13:27 09.07.2019
5410 Clear 27 1004 69 10000 1 0 12:41 09.07.2019
5411 Clear 27 1004 69 10000 1 0 12:22 09.07.2019
5412 Clear 27 1004 69 10000 1 0 12:22 09.07.2019
5413 Clear 27 1004 69 10000 1 0 11:58 09.07.2019
5414 Clear 27 1004 65 10000 1 0 11:39 09.07.2019
5415 Clear 27 1004 61 10000 1 0 11:21 09.07.2019
5416 Clear 27 1004 61 10000 1 0 11:21 09.07.2019
5417 Clear 28 1004 61 10000 1 0 10:54 09.07.2019
5418 Rain 27 1005 73 10000 1 0 10:33 09.07.2019
5419 Rain 28 1005 69 10000 2 0 09:42 09.07.2019
5420 Rain 27 1005 65 10000 1 0 09:22 09.07.2019
5421 Rain 27 1005 65 10000 1 0 08:55 09.07.2019
5422 Rain 27 1006 73 10000 1 80 08:37 09.07.2019
5423 Rain 26 999 74 7000 6 260 03:59 05.07.2019
5424 Rain 28 998 69 7000 5 260 03:38 05.07.2019
5425 Rain 28 997 69 7000 1 0 03:19 05.07.2019
5426 Rain 29 995 65 8000 3 110 02:45 05.07.2019
5427 Clear 29 996 65 10000 1 0 01:42 05.07.2019
5428 Clear 29 996 65 10000 1 0 01:23 05.07.2019
5429 Clear 28 996 69 10000 2 90 00:47 05.07.2019
5430 Clear 27 997 73 10000 1 60 00:20 05.07.2019
5431 Clear 27 997 69 10000 2 350 23:23 04.07.2019
5432 Clear 28 996 65 10000 1 0 22:58 04.07.2019
5433 Clear 28 996 69 10000 1 0 22:40 04.07.2019
5434 Clear 28 996 61 10000 1 360 22:19 04.07.2019
5435 Clear 29 996 58 10000 2 130 21:40 04.07.2019
5436 Clear 30 996 58 10000 2 130 21:22 04.07.2019
5437 Clear 30 996 58 10000 2 120 20:55 04.07.2019
5438 Clear 29 996 58 10000 2 110 20:37 04.07.2019
5439 Clear 31 996 54 10000 2 90 20:18 04.07.2019
5440 Clear 31 997 51 10000 2 80 19:41 04.07.2019
5441 Clear 31 997 54 10000 2 80 19:20 04.07.2019
5442 Clear 30 997 45 10000 2 30 18:44 04.07.2019
5443 Clear 32 997 43 10000 2 20 18:26 04.07.2019
5444 Clear 32 997 36 10000 5 310 17:47 04.07.2019
5445 Clear 32 998 38 10000 2 130 17:19 04.07.2019
5446 Clear 32 998 38 10000 4 140 16:36 04.07.2019
5447 Clear 34 998 33 10000 4 140 15:42 04.07.2019
5448 Clear 34 998 33 10000 4 140 15:24 04.07.2019
5449 Clear 35 997 32 10000 5 140 14:56 04.07.2019
5450 Clear 35 997 36 10000 3 120 14:37 04.07.2019
5451 Clear 36 997 32 10000 2 140 14:18 04.07.2019
5452 Clear 36 997 32 10000 2 140 13:55 04.07.2019
5453 Clear 37 997 28 10000 3 160 13:37 04.07.2019
5454 Clear 37 997 28 10000 2 140 13:18 04.07.2019
5455 Clear 38 997 25 10000 4 160 12:38 04.07.2019
5456 Clear 38 997 25 10000 6 170 12:19 04.07.2019
5457 Clear 39 997 22 10000 5 170 11:40 04.07.2019
5458 Clear 39 997 22 10000 6 170 11:20 04.07.2019
5459 Clear 40 998 21 10000 6 180 10:44 04.07.2019
5460 Clear 40 998 21 10000 6 180 10:25 04.07.2019
5461 Clear 40 998 21 10000 5 200 09:45 04.07.2019
5462 Clear 40 999 21 10000 5 170 09:26 04.07.2019
5463 Clear 40 999 21 10000 5 170 08:57 04.07.2019
5464 Clear 39 999 22 10000 5 160 08:29 04.07.2019
5465 Clear 40 1000 22 10000 5 200 07:57 04.07.2019
5466 Clear 40 1000 27 10000 5 200 07:37 04.07.2019
5467 Clear 39 1001 27 10000 5 210 07:18 04.07.2019
5468 Clear 37 1002 30 10000 3 0 05:59 04.07.2019
5469 Clear 37 1002 36 10000 2 0 05:41 04.07.2019
5470 Clear 35 1003 42 10000 1 0 03:48 04.07.2019
5471 Clear 31 1004 54 10000 1 0 01:46 04.07.2019
5472 Clear 30 1004 57 10000 1 0 01:26 04.07.2019
5473 Clear 28 1004 61 10000 1 0 00:39 04.07.2019
5474 Clear 26 1004 64 10000 1 0 23:52 03.07.2019
5475 Clear 26 1004 60 10000 1 30 23:20 03.07.2019
5476 Clear 26 1004 60 10000 1 30 22:56 03.07.2019
5477 Clear 26 1004 60 10000 2 50 22:37 03.07.2019
5478 Clear 27 1004 50 10000 3 80 22:18 03.07.2019
5479 Clear 27 1004 57 10000 1 90 21:50 03.07.2019
5480 Clear 27 1004 57 10000 1 90 21:31 03.07.2019
5481 Clear 28 1004 57 10000 1 50 20:47 03.07.2019
5482 Clear 28 1004 57 10000 1 50 20:29 03.07.2019
5483 Clear 28 1004 57 10000 1 50 20:29 03.07.2019
5484 Clear 28 1004 57 10000 1 0 19:57 03.07.2019
5485 Clear 28 1004 50 10000 2 70 19:39 03.07.2019
5486 Clear 30 1004 39 10000 2 200 18:56 03.07.2019
5487 Clear 30 1004 39 10000 2 200 18:37 03.07.2019
5488 Clear 31 1004 35 10000 3 190 18:19 03.07.2019
5489 Clear 31 1004 33 10000 3 180 17:49 03.07.2019
5490 Clear 32 1004 33 10000 4 180 17:19 03.07.2019
5491 Clear 32 1004 31 10000 4 180 16:44 03.07.2019
5492 Clear 32 1004 31 10000 4 180 16:44 03.07.2019
5493 Clear 33 1004 29 10000 4 170 16:24 03.07.2019
5494 Clear 33 1004 29 10000 4 180 15:54 03.07.2019
5495 Clear 33 1004 29 10000 4 180 15:36 03.07.2019
5496 Clear 34 1003 29 10000 3 180 15:18 03.07.2019
5497 Clear 33 1003 28 10000 4 200 14:42 03.07.2019
5498 Clear 35 1003 26 10000 6 200 14:20 03.07.2019
5499 Clear 35 1003 24 10000 5 200 13:43 03.07.2019
5500 Clear 36 1003 24 10000 5 200 13:24 03.07.2019
5501 Clear 37 1002 20 10000 5 180 12:51 03.07.2019
5502 Clear 37 1002 19 10000 5 170 12:19 03.07.2019
5503 Clear 37 1002 18 10000 2 190 11:43 03.07.2019
5504 Clear 38 1002 18 10000 2 190 11:23 03.07.2019
5505 Clear 37 1003 19 10000 4 190 10:57 03.07.2019
5506 Clear 38 1003 18 10000 4 200 10:37 03.07.2019
5507 Clear 39 1003 19 10000 2 0 10:18 03.07.2019
5508 Clear 39 1004 21 10000 3 0 09:40 03.07.2019
5509 Clear 38 1004 20 10000 3 190 09:20 03.07.2019
5510 Clear 37 1004 20 10000 3 170 08:52 03.07.2019
5511 Clear 37 1004 20 10000 3 170 08:31 03.07.2019
5512 Clear 37 1005 23 10000 2 270 07:45 03.07.2019
5513 Clear 36 1005 23 10000 2 270 07:27 03.07.2019
5514 Clear 36 1006 32 10000 2 0 06:30 03.07.2019
5515 Clear 35 1007 40 10000 1 0 05:35 03.07.2019
5516 Clear 34 1007 45 10000 2 320 04:44 03.07.2019
5517 Clear 29 1008 54 10000 2 30 03:26 03.07.2019
5518 Clear 27 1008 61 10000 2 350 02:27 03.07.2019
5519 Clear 26 1008 83 10000 2 360 01:21 03.07.2019
5520 Clear 25 1008 88 10000 0.49 5.131 00:52 03.07.2019
5521 Clear 23 1008 88 10000 0.49 5.131 00:32 03.07.2019
5522 Clear 24 1008 88 10000 2 360 23:38 02.07.2019
5523 Clear 24 1008 88 10000 2 360 23:38 02.07.2019
5524 Clear 23 1008 88 10000 3 340 23:20 02.07.2019
5525 Clear 24 1008 88 10000 3 340 22:57 02.07.2019
5526 Clear 24 1008 88 10000 3 340 22:38 02.07.2019
5527 Clear 24 1008 94 10000 2 360 22:20 02.07.2019
5528 Clear 21 1008 93 10000 1 360 21:46 02.07.2019
5529 Clear 21 1008 93 10000 1 360 21:46 02.07.2019
5530 Clear 24 1008 94 10000 1 360 21:24 02.07.2019
5531 Clear 24 1008 94 10000 1 360 20:58 02.07.2019
5532 Clear 24 1008 94 10000 1 360 20:40 02.07.2019
5533 Clear 25 1008 88 10000 2 10 20:21 02.07.2019
5534 Clear 24 1008 94 10000 2 10 19:44 02.07.2019
5535 Clear 24 1008 94 10000 1 0 19:23 02.07.2019
5536 Clear 25 1008 94 10000 1 0 18:58 02.07.2019
5537 Clear 26 1008 83 10000 1 0 18:19 02.07.2019
5538 Clear 25 1008 83 10000 2 10 17:45 02.07.2019
5539 Clear 25 1008 83 10000 2 10 17:45 02.07.2019
5540 Clear 26 1008 83 10000 2 10 17:25 02.07.2019
5541 Clear 26 1008 83 10000 2 360 16:57 02.07.2019
5542 Clear 26 1008 83 10000 1 360 16:39 02.07.2019
5543 Clear 27 1008 78 10000 3 360 16:21 02.07.2019
5544 Clear 27 1007 78 10000 2 360 15:40 02.07.2019
5545 Thunderstorm 27 1006 78 10000 4 120 15:22 02.07.2019
5546 Thunderstorm 27 1007 65 10000 2 30 14:46 02.07.2019
5547 Clouds 27 1006 73 10000 1 0 14:27 02.07.2019
5548 Clouds 29 1006 73 10000 1 0 13:44 02.07.2019
5549 Clouds 29 1006 61 10000 2 340 13:19 02.07.2019
5550 Clear 28 1006 69 10000 3 30 12:45 02.07.2019
5551 Clear 30 1005 61 10000 2 30 12:24 02.07.2019
5552 Clouds 30 1005 61 10000 2 40 11:55 02.07.2019
5553 Clouds 30 1005 61 10000 2 40 11:37 02.07.2019
5554 Thunderstorm 30 1005 69 10000 3 180 11:18 02.07.2019
5555 Thunderstorm 30 1005 69 10000 3 220 10:41 02.07.2019
5556 Thunderstorm 30 1005 61 10000 3 320 10:23 02.07.2019
5557 Thunderstorm 32 1004 40 10000 4 80 09:43 02.07.2019
5558 Clear 33 1004 34 10000 4 110 09:20 02.07.2019
5559 Clear 34 1004 31 10000 3 140 08:41 02.07.2019
5560 Clear 34 1005 36 10000 3 0 08:20 02.07.2019
5561 Clear 35 1005 36 10000 3 0 07:52 02.07.2019
5562 Clear 35 1005 36 10000 3 0 07:20 02.07.2019
5563 Clear 34 1006 38 10000 2 0 06:42 02.07.2019
5564 Clear 33 1007 42 10000 2 160 05:58 02.07.2019
5565 Rain 28 1006 78 10000 3 100 03:26 02.07.2019
5566 Clear 26 1006 57 10000 1 0 00:56 02.07.2019
5567 Clear 25 1006 64 10000 2 80 23:46 01.07.2019
5568 Clear 24 1006 60 10000 1 0 23:20 01.07.2019
5569 Clear 25 1006 57 10000 2 130 22:45 01.07.2019
5570 Clear 26 1006 53 10000 3 110 22:26 01.07.2019
5571 Clear 26 1006 50 10000 2 130 21:47 01.07.2019
5572 Clear 27 1006 50 10000 2 130 21:26 01.07.2019
5573 Clear 27 1006 47 10000 3 140 20:51 01.07.2019
5574 Clear 28 1006 47 10000 3 140 20:21 01.07.2019
5575 Clear 29 1006 47 10000 3 140 19:57 01.07.2019
5576 Clear 28 1006 50 10000 2 130 19:39 01.07.2019
5577 Clear 29 1006 44 10000 2 150 19:21 01.07.2019
5578 Clear 29 1006 42 10000 3 160 18:51 01.07.2019
5579 Clear 29 1006 42 10000 3 160 18:29 01.07.2019
5580 Clear 30 1006 37 10000 5 180 17:57 01.07.2019
5581 Clear 30 1006 35 10000 3 180 17:39 01.07.2019
5582 Clear 30 1006 28 10000 4 190 17:19 01.07.2019
5583 Clear 31 1006 27 10000 5 180 16:44 01.07.2019
5584 Clear 31 1005 23 10000 4 180 16:24 01.07.2019
5585 Clear 31 1005 23 10000 5 180 15:46 01.07.2019
5586 Clear 32 1005 22 10000 4 190 15:26 01.07.2019
5587 Clear 31 1005 23 10000 4 190 14:45 01.07.2019
5588 Clear 31 1005 23 10000 4 190 14:45 01.07.2019
5589 Clear 32 1005 21 10000 5 180 14:24 01.07.2019
5590 Clear 33 1005 21 10000 5 180 13:55 01.07.2019
5591 Clear 33 1004 19 10000 6 180 13:37 01.07.2019
5592 Clear 34 1004 18 10000 5 180 13:18 01.07.2019
5593 Clear 34 1004 18 10000 5 180 12:39 01.07.2019
5594 Clear 34 1004 18 10000 5 180 12:39 01.07.2019
5595 Clear 35 1004 17 10000 3 200 12:20 01.07.2019
5596 Clear 35 1004 17 10000 3 200 12:20 01.07.2019
5597 Clear 35 1004 17 10000 3 200 11:56 01.07.2019
5598 Clear 35 1004 17 10000 3 200 11:56 01.07.2019
5599 Clear 35 1004 16 10000 3 140 11:37 01.07.2019
5600 Clear 35 1004 16 10000 2 0 11:18 01.07.2019
5601 Clear 36 1004 17 10000 2 0 10:41 01.07.2019
5602 Clear 37 1005 17 10000 4 60 10:20 01.07.2019
5603 Clear 37 1005 17 10000 2 0 09:41 01.07.2019
5604 Clear 36 1005 17 10000 2 20 09:23 01.07.2019
5605 Clear 35 1006 18 10000 3 30 08:39 01.07.2019
5606 Clear 36 1006 18 10000 3 0 08:21 01.07.2019
5607 Clear 36 1006 17 10000 3 350 07:33 01.07.2019
5608 Clear 34 1007 19 10000 5 50 06:41 01.07.2019
5609 Clear 33 1008 28 10000 3 10 04:38 01.07.2019
5610 Clear 27 1008 47 10000 4 10 00:54 01.07.2019
5611 Clear 24 1007 72 10000 1.8 313.42 00:34 01.07.2019
5612 Clear 23 1007 77 10000 1 320 23:59 30.06.2019
5613 Clear 23 1006 77 10000 2 360 23:25 30.06.2019
5614 Clear 21 1006 77 10000 2 360 22:55 30.06.2019
5615 Clear 20 1006 88 10000 1 20 22:23 30.06.2019
5616 Clear 21 1006 88 10000 1 20 21:58 30.06.2019
5617 Clear 23 1006 77 10000 1.82 299.471 21:40 30.06.2019
5618 Clear 23 1006 72 10000 1 0 21:18 30.06.2019
5619 Clear 22 1006 72 10000 2 60 20:41 30.06.2019
5620 Clear 22 1006 72 10000 2 50 20:23 30.06.2019
5621 Clear 22 1006 68 10000 2 60 19:51 30.06.2019
5622 Clear 22 1006 68 10000 2 60 19:25 30.06.2019
5623 Clear 24 1005 46 10000 1 0 18:53 30.06.2019
5624 Clear 25 1005 60 10000 1 10 18:22 30.06.2019
5625 Clear 25 1005 49 10000 2 10 17:41 30.06.2019
5626 Clear 26 1005 46 10000 2 350 17:20 30.06.2019
5627 Clear 25 1005 46 10000 2 350 16:56 30.06.2019
5628 Clear 24 1005 49 10000 1 10 16:37 30.06.2019
5629 Clear 25 1005 46 10000 2 360 16:18 30.06.2019
5630 Clear 28 1004 46 10000 2 350 15:36 30.06.2019
5631 Clear 28 1004 44 10000 1 0 15:18 30.06.2019
5632 Clear 29 1003 36 10000 1 0 14:45 30.06.2019
5633 Clear 30 1003 36 10000 1 0 14:27 30.06.2019
5634 Clear 31 1003 25 10000 5 20 13:43 30.06.2019
5635 Clear 32 1003 25 10000 5 20 13:23 30.06.2019
5636 Clear 32 1002 21 10000 6 350 12:48 30.06.2019
5637 Clear 34 1002 21 10000 6 350 12:25 30.06.2019
5638 Clear 34 1002 19 10000 7 350 11:55 30.06.2019
5639 Clear 34 1002 19 10000 7 350 11:36 30.06.2019
5640 Clear 34 1002 19 10000 7 350 11:18 30.06.2019
5641 Clear 34 1002 19 10000 7 350 11:18 30.06.2019
5642 Clear 34 1002 21 10000 7 360 10:40 30.06.2019
5643 Clear 35 1002 21 10000 3 0 10:19 30.06.2019
5644 Clear 34 1002 22 10000 5 10 09:44 30.06.2019
5645 Clear 34 1002 21 10000 5 10 09:23 30.06.2019
5646 Clear 34 1002 21 10000 5 10 08:59 30.06.2019
5647 Clear 34 1002 21 10000 6 10 08:38 30.06.2019
5648 Clear 34 1002 21 10000 6 340 08:18 30.06.2019
5649 Clear 33 1002 22 10000 3 290 07:37 30.06.2019
5650 Clear 34 1002 20 10000 4 0 07:18 30.06.2019
5651 Clear 31 1003 27 10000 4 330 05:54 30.06.2019
5652 Clear 28 1003 30 10000 7 310 02:59 30.06.2019
5653 Clear 28 1002 34 10000 7 310 01:31 30.06.2019
5654 Clear 27 1002 36 10000 6 310 00:38 30.06.2019
5655 Clear 26 1002 38 10000 7 310 23:57 29.06.2019
5656 Clear 25 1001 38 10000 7 310 23:25 29.06.2019
5657 Clear 25 1001 38 10000 7 310 23:25 29.06.2019
5658 Clear 25 1001 41 10000 7 310 22:59 29.06.2019
5659 Clear 26 1001 36 10000 7 310 22:40 29.06.2019
5660 Clear 26 1000 36 10000 7 310 22:21 29.06.2019
5661 Clear 26 1000 36 10000 6 300 21:51 29.06.2019
5662 Clear 26 1000 36 10000 6 300 21:23 29.06.2019
5663 Clear 27 1000 36 10000 6 300 20:45 29.06.2019
5664 Clear 27 1000 36 10000 6 300 20:27 29.06.2019
5665 Clear 27 1000 32 10000 6 300 19:48 29.06.2019
5666 Clear 28 1000 32 10000 6 300 19:25 29.06.2019
5667 Clear 28 1000 32 10000 5 300 18:54 29.06.2019
5668 Clear 28 1000 32 10000 5 280 18:27 29.06.2019
5669 Clear 28 1000 30 10000 7 300 17:55 29.06.2019
5670 Clear 29 999 28 10000 8 310 17:36 29.06.2019
5671 Clear 29 999 30 10000 7 310 17:18 29.06.2019
5672 Clear 30 999 28 10000 7 310 16:42 29.06.2019
5673 Clear 30 998 28 10000 9 320 15:54 29.06.2019
5674 Clear 30 998 28 10000 9 320 15:31 29.06.2019
5675 Clear 31 997 25 10000 7 330 14:45 29.06.2019
5676 Clear 31 997 27 10000 5 330 14:26 29.06.2019
5677 Clear 32 996 25 10000 5 320 13:50 29.06.2019
5678 Clear 33 996 25 10000 5 320 13:27 29.06.2019
5679 Clear 34 996 24 10000 6 320 12:57 29.06.2019
5680 Clear 35 995 21 10000 6 300 12:37 29.06.2019
5681 Clear 35 995 22 10000 7 280 12:18 29.06.2019
5682 Clear 35 995 24 10000 8 300 11:40 29.06.2019
5683 Clear 35 995 24 10000 7 290 11:21 29.06.2019
5684 Clear 35 995 23 10000 7 290 10:46 29.06.2019
5685 Clear 35 995 24 10000 8 290 10:21 29.06.2019
5686 Clear 35 995 21 10000 8 290 09:50 29.06.2019
5687 Clear 35 995 21 10000 9 280 08:55 29.06.2019
5688 Clear 34 995 22 10000 10 280 08:28 29.06.2019
5689 Clear 34 995 24 10000 9 280 07:45 29.06.2019
5690 Clear 34 995 22 10000 10 280 06:48 29.06.2019
5691 Clear 34 995 22 10000 10 280 06:25 29.06.2019
5692 Clear 32 996 48 10000 2 310 03:55 29.06.2019
5693 Clear 27 996 73 10000 4 340 01:42 29.06.2019
5694 Clear 25 996 83 10000 2.82 344.228 00:41 29.06.2019
5695 Clear 23 996 83 10000 2 60 23:39 28.06.2019
5696 Clear 24 996 83 10000 3 40 23:20 28.06.2019
5697 Rain 24 996 83 10000 6 350 22:47 28.06.2019
5698 Clear 25 995 77 10000 2 360 21:59 28.06.2019
5699 Clear 25 994 83 10000 3 10 21:37 28.06.2019
5700 Thunderstorm 26 994 60 10000 5 100 21:18 28.06.2019
5701 Thunderstorm 27 996 54 10000 4 320 20:40 28.06.2019
5702 Clear 27 996 61 10000 2 30 20:19 28.06.2019
5703 Clear 27 996 65 10000 3 50 19:38 28.06.2019
5704 Clear 27 996 73 10000 1 0 19:20 28.06.2019
5705 Clear 28 996 65 10000 1 150 18:41 28.06.2019
5706 Clear 28 996 69 10000 1 0 18:21 28.06.2019
5707 Clear 28 996 69 10000 1 90 17:41 28.06.2019
5708 Clear 29 996 57 10000 2 170 17:23 28.06.2019
5709 Clear 29 996 57 10000 2 160 16:46 28.06.2019
5710 Clear 29 996 57 10000 1 0 16:18 28.06.2019
5711 Clear 29 996 48 10000 4 180 15:40 28.06.2019
5712 Clear 29 996 48 10000 5 190 15:18 28.06.2019
5713 Clear 30 996 48 10000 5 180 14:39 28.06.2019
5714 Clear 30 996 48 10000 4 160 14:21 28.06.2019
5715 Clear 31 995 45 10000 5 190 13:46 28.06.2019
5716 Clear 31 995 45 10000 5 190 13:27 28.06.2019
5717 Clear 32 995 43 10000 6 190 12:51 28.06.2019
5718 Clear 33 995 43 10000 6 190 12:32 28.06.2019
5719 Clear 33 995 40 10000 8 200 11:40 28.06.2019
5720 Clear 33 995 38 10000 7 180 11:18 28.06.2019
5721 Clear 33 995 36 10000 5 200 10:40 28.06.2019
5722 Clear 34 995 36 10000 4 180 10:18 28.06.2019
5723 Clear 34 996 32 10000 4 180 09:44 28.06.2019
5724 Clear 34 996 32 10000 4 170 09:25 28.06.2019
5725 Clear 34 996 36 10000 3 0 08:43 28.06.2019
5726 Clear 32 996 40 10000 4 220 08:24 28.06.2019
5727 Clear 33 997 43 10000 1 0 07:42 28.06.2019
5728 Clear 33 997 45 10000 1 0 06:54 28.06.2019
5729 Clear 29 999 69 10000 4 330 04:35 28.06.2019
5730 Rain 25 999 78 10000 6 330 00:48 28.06.2019
5731 Rain 25 999 78 8000 5 330 00:20 28.06.2019
5732 Rain 25 998 88 8000 3 360 23:46 27.06.2019
5733 Rain 25 998 88 8000 3 360 23:46 27.06.2019
5734 Rain 26 998 88 8000 3 360 23:24 27.06.2019
5735 Rain 26 998 83 10000 2 340 22:44 27.06.2019
5736 Rain 26 998 83 10000 2 300 22:25 27.06.2019
5737 Rain 26 998 83 10000 2 300 21:58 27.06.2019
5738 Rain 26 998 78 10000 3 340 21:40 27.06.2019
5739 Rain 26 998 78 10000 4 330 21:20 27.06.2019
5740 Rain 27 998 73 10000 6 320 20:49 27.06.2019
5741 Rain 27 998 73 10000 6 320 20:31 27.06.2019
5742 Rain 28 998 61 10000 5 320 19:50 27.06.2019
5743 Rain 29 998 61 10000 5 320 19:30 27.06.2019
5744 Clear 30 998 51 10000 5 320 18:55 27.06.2019
5745 Clear 30 998 51 10000 5 320 18:33 27.06.2019
5746 Clear 30 998 45 10000 6 320 17:58 27.06.2019
5747 Clear 31 997 43 10000 5 300 17:37 27.06.2019
5748 Clear 31 997 45 10000 2 310 17:19 27.06.2019
5749 Clear 32 997 35 10000 1 0 16:39 27.06.2019
5750 Clear 32 997 42 10000 1 0 16:19 27.06.2019
5751 Clear 32 997 42 10000 1 0 16:19 27.06.2019
5752 Clear 32 997 42 10000 1 0 15:45 27.06.2019
5753 Clear 32 997 51 10000 1 0 15:26 27.06.2019
5754 Clear 32 996 45 10000 1 0 14:52 27.06.2019
5755 Clear 32 996 45 10000 1 0 14:52 27.06.2019
5756 Clear 32 996 45 10000 1 0 14:30 27.06.2019
5757 Clear 34 996 32 10000 3 260 13:50 27.06.2019
5758 Clear 34 996 32 10000 3 260 13:32 27.06.2019
5759 Clear 34 996 32 10000 3 250 12:58 27.06.2019
5760 Clear 34 996 34 10000 3 220 12:40 27.06.2019
5761 Clear 35 996 34 10000 4 210 12:21 27.06.2019
5762 Clear 36 996 30 10000 3 210 11:42 27.06.2019
5763 Clear 36 996 32 10000 3 200 11:21 27.06.2019
5764 Clear 36 996 32 10000 3 200 10:55 27.06.2019
5765 Clear 37 996 32 10000 3 220 10:36 27.06.2019
5766 Clear 37 997 32 10000 3 200 10:18 27.06.2019
5767 Clear 37 997 34 10000 3 190 09:37 27.06.2019
5768 Clear 37 997 36 10000 3 200 09:19 27.06.2019
5769 Clear 36 998 41 10000 4 200 08:44 27.06.2019
5770 Clear 36 998 43 10000 3 170 08:22 27.06.2019
5771 Clear 35 999 45 10000 3 140 07:39 27.06.2019
5772 Clouds 34 999 45 8000 2 100 06:54 27.06.2019
5773 Clouds 34 999 48 8000 2 0 06:28 27.06.2019
5774 Clouds 30 1001 61 8000 1 0 03:50 27.06.2019
5775 Clouds 28 1001 65 6000 1 0 02:40 27.06.2019
5776 Clouds 26 1001 73 7000 1 50 01:18 27.06.2019
5777 Clouds 25 1001 78 8000 1 100 00:45 27.06.2019
5778 Clouds 23 1001 78 8000 1 100 00:24 27.06.2019
5779 Clouds 23 1001 77 8000 1 0 23:42 26.06.2019
5780 Clear 24 1001 73 10000 0.67 46.644 23:22 26.06.2019
5781 Clear 24 1001 69 10000 2 140 22:55 26.06.2019
5782 Clear 24 1001 69 10000 2 140 22:37 26.06.2019
5783 Clear 24 1001 69 10000 1 0 22:18 26.06.2019
5784 Clear 25 1001 64 10000 2 110 21:39 26.06.2019
5785 Clear 25 1001 64 10000 2 110 21:39 26.06.2019
5786 Clear 26 1002 69 10000 2 90 21:19 26.06.2019
5787 Clear 26 1002 64 10000 1 0 20:50 26.06.2019
5788 Clear 26 1002 64 10000 1 0 20:30 26.06.2019
5789 Clear 27 1002 64 10000 1 0 19:52 26.06.2019
5790 Clear 27 1002 64 10000 1 0 19:52 26.06.2019
5791 Clear 27 1002 64 10000 1 0 19:32 26.06.2019
5792 Clear 27 1002 64 10000 2 90 18:59 26.06.2019
5793 Clear 28 1002 61 10000 2 80 18:40 26.06.2019
5794 Clear 28 1003 57 10000 2 100 18:21 26.06.2019
5795 Clear 28 1003 57 10000 3 110 17:47 26.06.2019
5796 Clear 29 1003 57 10000 3 110 17:27 26.06.2019
5797 Clear 29 1003 57 10000 3 110 16:52 26.06.2019
5798 Clear 30 1003 57 10000 3 110 16:30 26.06.2019
5799 Clear 30 1003 57 10000 3 110 16:30 26.06.2019
5800 Clear 30 1003 54 10000 3 100 15:58 26.06.2019
5801 Clear 30 1003 54 10000 3 100 15:58 26.06.2019
5802 Clear 30 1002 58 10000 3 110 15:28 26.06.2019
5803 Clear 31 1002 54 10000 4 130 14:57 26.06.2019
5804 Clear 31 1002 54 10000 4 130 14:57 26.06.2019
5805 Clear 31 1002 54 10000 2 110 14:37 26.06.2019
5806 Clear 32 1002 51 10000 4 110 14:18 26.06.2019
5807 Clear 33 1001 51 10000 4 130 13:39 26.06.2019
5808 Clear 33 1001 45 10000 4 130 13:18 26.06.2019
5809 Clear 34 1001 45 10000 4 130 12:40 26.06.2019
5810 Clear 34 1001 45 10000 3 120 12:20 26.06.2019
5811 Clear 35 1001 45 10000 4 120 11:38 26.06.2019
5812 Clear 35 1001 43 10000 4 130 11:18 26.06.2019
5813 Clear 35 1002 45 10000 4 130 10:39 26.06.2019
5814 Clear 35 1002 45 10000 4 120 10:20 26.06.2019
5815 Clear 35 1003 43 10000 4 120 09:36 26.06.2019
5816 Clear 35 1003 43 10000 4 120 09:36 26.06.2019
5817 Clear 35 1003 45 10000 4 130 09:18 26.06.2019
5818 Clear 35 1004 45 10000 4 140 08:23 26.06.2019
5819 Clear 35 1004 45 10000 4 140 07:59 26.06.2019
5820 Clear 35 1004 45 10000 4 150 07:41 26.06.2019
5821 Clear 34 1005 51 10000 3 110 06:33 26.06.2019
5822 Clear 30 1006 57 10000 4 100 03:33 26.06.2019
5823 Clear 27 1006 69 10000 2 80 00:41 26.06.2019
5824 Clear 25 1006 69 10000 2 90 00:18 26.06.2019
5825 Clear 25 1006 69 10000 3 100 23:39 25.06.2019
5826 Clear 25 1006 69 10000 3 110 23:20 25.06.2019
5827 Clear 25 1006 69 10000 3 110 23:20 25.06.2019
5828 Clear 26 1006 69 10000 4 110 22:42 25.06.2019
5829 Clear 26 1006 69 10000 2 100 22:23 25.06.2019
5830 Clear 27 1006 65 10000 2 100 21:46 25.06.2019
5831 Clear 27 1006 65 10000 2 100 21:27 25.06.2019
5832 Clear 28 1006 65 10000 4 110 20:57 25.06.2019
5833 Clear 28 1006 61 10000 4 100 20:36 25.06.2019
5834 Clear 28 1006 61 10000 3 90 20:18 25.06.2019
5835 Clear 29 1006 61 10000 4 100 19:43 25.06.2019
5836 Clear 29 1007 61 10000 3 100 19:21 25.06.2019
5837 Clear 29 1007 57 10000 2 90 18:42 25.06.2019
5838 Clear 29 1006 57 10000 3 100 18:24 25.06.2019
5839 Clear 29 1006 54 10000 4 100 17:46 25.06.2019
5840 Clear 30 1006 54 10000 4 100 17:27 25.06.2019
5841 -273 0 0 0 0 0 17:27 25.06.2019
5842 -273 0 0 0 0 0 17:27 25.06.2019
5843 Clear 30 1007 51 10000 5 120 16:45 25.06.2019
5844 Clear 31 1007 51 10000 5 120 16:26 25.06.2019
5845 Clear 31 1007 51 10000 5 120 16:26 25.06.2019
5846 Clear 31 1006 51 10000 5 130 15:59 25.06.2019
5847 Clear 31 1006 48 10000 4 130 15:39 25.06.2019
5848 Clear 31 1006 48 10000 5 140 15:20 25.06.2019
5849 Clear 31 1006 48 10000 5 140 15:20 25.06.2019
5850 Clear 32 1005 45 10000 5 130 14:45 25.06.2019
5851 Clear 32 1005 45 10000 5 130 14:26 25.06.2019
5852 Clear 33 1005 46 10000 5 140 13:43 25.06.2019
5853 Clear 34 1005 46 10000 5 140 13:24 25.06.2019
5854 Clear 34 1004 43 10000 6 140 12:43 25.06.2019
5855 Clear 35 1004 41 10000 5 140 12:24 25.06.2019
5856 Clear 35 1004 41 10000 5 140 12:24 25.06.2019
5857 Clear 36 1004 32 10000 6 150 11:46 25.06.2019
5858 Clear 36 1005 32 10000 6 160 11:25 25.06.2019
5859 Clear 36 1005 28 10000 7 190 10:58 25.06.2019
5860 Clear 37 1005 28 10000 7 190 10:37 25.06.2019
5861 Clear 37 1005 30 10000 7 150 10:19 25.06.2019
5862 Clear 36 1005 34 10000 5 130 09:40 25.06.2019
5863 Clear 36 1005 36 10000 5 150 09:22 25.06.2019
5864 Clear 37 1005 36 10000 5 150 08:59 25.06.2019
5865 Clear 36 1005 36 10000 5 120 08:31 25.06.2019
5866 Clear 35 1006 41 10000 4 130 07:51 25.06.2019
5867 Clear 35 1006 41 10000 4 130 07:31 25.06.2019
5868 Clear 35 1007 43 10000 4 170 06:49 25.06.2019
5869 Clear 35 1007 43 10000 3 120 06:23 25.06.2019
5870 Clear 31 1008 58 10000 3 110 02:44 25.06.2019
5871 Clear 29 1007 57 10000 3 120 00:57 25.06.2019
5872 Clear 28 1007 57 10000 3 120 00:25 25.06.2019
5873 Clear 27 1007 61 10000 2 90 23:52 24.06.2019
5874 Clear 27 1007 61 10000 2 90 23:33 24.06.2019
5875 Clear 25 1006 69 10000 2 110 22:49 24.06.2019
5876 Clear 27 1006 64 10000 2 100 22:22 24.06.2019
5877 Clear 26 1006 64 10000 2 100 21:58 24.06.2019
5878 Clear 28 1006 57 10000 2 30 21:37 24.06.2019
5879 Clear 28 1006 57 10000 2 30 21:37 24.06.2019
5880 Clear 27 1006 54 10000 3 120 21:18 24.06.2019
5881 Clear 29 1006 51 10000 2 120 20:43 24.06.2019
5882 Clear 30 1006 48 10000 3 140 20:23 24.06.2019
5883 Clear 30 1006 48 10000 3 140 19:58 24.06.2019
5884 Clear 29 1006 48 10000 3 130 19:39 24.06.2019
5885 Clear 31 1006 45 10000 3 130 19:21 24.06.2019
5886 Clear 29 1006 42 10000 3 130 18:41 24.06.2019
5887 Clear 30 1006 42 10000 2 150 18:20 24.06.2019
5888 Clear 31 1006 40 10000 4 130 17:37 24.06.2019
5889 Clear 31 1005 38 10000 4 130 17:18 24.06.2019
5890 Clear 31 1006 38 10000 4 140 16:44 24.06.2019
5891 Clear 32 1005 38 10000 4 140 16:19 24.06.2019
5892 Clear 33 1005 38 10000 4 140 15:44 24.06.2019
5893 Clear 33 1005 38 10000 4 140 15:25 24.06.2019
5894 Clear 34 1005 36 10000 3 120 14:37 24.06.2019
5895 Clear 34 1004 27 10000 3 140 14:19 24.06.2019
5896 Clear 36 1004 20 10000 5 180 13:35 24.06.2019
5897 Clear 37 1004 20 10000 6 170 12:58 24.06.2019
5898 Clear 37 1004 20 10000 6 170 12:39 24.06.2019
5899 Clear 37 1004 19 10000 6 190 12:20 24.06.2019
5900 Clear 38 1004 19 10000 5 170 11:44 24.06.2019
5901 Clear 38 1004 18 10000 7 180 11:26 24.06.2019
5902 Clear 38 1004 18 10000 7 190 10:52 24.06.2019
5903 Clear 38 1004 18 10000 7 190 10:33 24.06.2019
5904 Clear 38 1004 22 10000 7 190 09:56 24.06.2019
5905 Clear 38 1004 19 10000 7 200 09:37 24.06.2019
5906 Clear 38 1004 21 10000 7 190 09:18 24.06.2019
5907 Clear 38 1005 19 10000 6 170 08:36 24.06.2019
5908 Clear 38 1006 28 10000 2 0 07:50 24.06.2019
5909 Clear 38 1006 28 10000 2 0 07:27 24.06.2019
5910 Clear 37 1006 32 10000 3 130 06:57 24.06.2019
5911 Clear 36 1007 41 10000 2 0 06:23 24.06.2019
5912 Clear 35 1007 43 10000 2 0 05:31 24.06.2019
5913 Clear 33 1008 45 10000 2 0 04:34 24.06.2019
5914 Clear 30 1008 51 10000 1 0 03:32 24.06.2019
5915 Clear 29 1008 57 10000 1 0 02:35 24.06.2019
5916 Clear 29 1008 57 10000 1 0 01:54 24.06.2019
5917 Clear 28 1008 57 10000 2 80 01:28 24.06.2019
5918 Clear 27 1008 73 10000 1 80 00:46 24.06.2019
5919 Clear 24 1008 77 10000 1 60 00:20 24.06.2019
5920 Clear 24 1008 73 10000 0.56 1.342 23:47 23.06.2019
5921 Clear 24 1008 73 10000 0.56 1.342 23:28 23.06.2019
5922 Clear 25 1008 73 10000 1 60 22:56 23.06.2019
5923 Clear 24 1008 73 10000 1 50 22:38 23.06.2019
5924 Clear 25 1008 68 10000 2 360 22:19 23.06.2019
5925 Clear 26 1008 64 10000 1 340 21:40 23.06.2019
5926 Clear 26 1007 60 10000 1 0 21:21 23.06.2019
5927 Clear 27 1008 57 10000 2 90 20:49 23.06.2019
5928 Clear 27 1008 57 10000 2 90 20:29 23.06.2019
5929 Clear 27 1008 53 10000 2 90 19:46 23.06.2019
5930 Clear 28 1008 53 10000 2 100 19:23 23.06.2019
5931 Clear 28 1008 53 10000 2 100 18:55 23.06.2019
5932 Clear 28 1008 57 10000 2 70 18:36 23.06.2019
5933 Clear 28 1008 57 10000 2 50 18:18 23.06.2019
5934 Clear 29 1008 57 10000 1 40 17:39 23.06.2019
5935 Clear 29 1008 51 10000 1 0 17:21 23.06.2019
5936 Clear 30 1008 48 10000 2 130 16:43 23.06.2019
5937 Clear 31 1008 45 10000 2 130 16:24 23.06.2019
5938 Clear 31 1007 45 10000 4 130 15:42 23.06.2019
5939 Clear 31 1007 42 10000 4 130 15:23 23.06.2019
5940 Clear 32 1007 42 10000 4 130 14:56 23.06.2019
5941 Clear 32 1007 42 10000 3 120 14:37 23.06.2019
5942 Clear 32 1007 40 10000 3 130 14:18 23.06.2019
5943 Clear 33 1006 40 10000 5 130 13:42 23.06.2019
5944 Clear 34 1006 40 10000 5 140 13:20 23.06.2019
5945 Clear 35 1006 38 10000 4 130 12:54 23.06.2019
5946 Clear 34 1006 38 10000 4 130 12:36 23.06.2019
5947 Clear 36 1006 36 10000 5 140 12:18 23.06.2019
5948 Clear 36 1006 30 10000 5 160 11:42 23.06.2019
5949 Clear 36 1006 30 10000 5 140 11:23 23.06.2019
5950 Clear 37 1006 29 10000 5 180 10:47 23.06.2019
5951 Clear 37 1006 30 10000 5 190 10:20 23.06.2019
5952 Clear 37 1007 30 10000 4 170 09:53 23.06.2019
5953 Clear 37 1007 30 10000 4 170 09:21 23.06.2019
5954 Clear 37 1007 36 10000 4 180 08:46 23.06.2019
5955 Clear 36 1007 36 10000 4 150 08:27 23.06.2019
5956 Clear 36 1008 36 10000 4 130 07:55 23.06.2019
5957 Clear 36 1008 38 10000 2 0 07:24 23.06.2019
5958 Clear 36 1009 38 10000 4 0 06:54 23.06.2019
5959 Clear 35 1009 35 10000 3 0 05:55 23.06.2019
5960 Clear 33 1009 40 10000 2 0 04:38 23.06.2019
5961 Clear 27 1010 54 10000 2 80 02:20 23.06.2019
5962 Clear 28 1010 57 10000 1 0 01:37 23.06.2019
5963 Clear 26 1009 57 10000 1 0 00:37 23.06.2019
5964 Clear 25 1009 57 10000 2 70 23:57 22.06.2019
5965 Clear 25 1009 57 10000 2 80 23:38 22.06.2019
5966 Clear 25 1009 57 10000 2 80 23:20 22.06.2019
5967 Clear 25 1009 57 10000 2 90 22:44 22.06.2019
5968 Clear 26 1008 53 10000 3 90 22:22 22.06.2019
5969 Clear 26 1008 53 10000 3 100 21:41 22.06.2019
5970 Clear 26 1008 57 10000 3 100 21:20 22.06.2019
5971 Clear 26 1008 57 10000 3 100 20:51 22.06.2019
5972 Clear 27 1008 50 10000 3 90 20:25 22.06.2019
5973 Clear 27 1008 47 10000 3 100 19:50 22.06.2019
5974 Clear 28 1008 47 10000 3 100 19:28 22.06.2019
5975 Clear 27 1008 53 10000 1 0 18:56 22.06.2019
5976 Clear 28 1007 42 10000 2 140 18:36 22.06.2019
5977 Clear 28 1007 44 10000 2 130 18:18 22.06.2019
5978 Clear 29 1007 39 10000 3 140 17:38 22.06.2019
5979 Clear 29 1007 39 10000 2 150 17:18 22.06.2019
5980 Clear 29 1007 44 10000 2 160 16:39 22.06.2019
5981 Clear 31 1006 44 10000 2 150 16:20 22.06.2019
5982 Clear 31 1006 29 10000 3 180 15:40 22.06.2019
5983 Clear 32 1006 27 10000 2 200 15:22 22.06.2019
5984 Clear 33 1006 26 10000 3 190 14:41 22.06.2019
5985 Clear 33 1006 26 10000 4 180 14:20 22.06.2019
5986 Clear 33 1006 24 10000 4 180 13:42 22.06.2019
5987 Clear 35 1005 23 10000 4 200 13:23 22.06.2019
5988 Clear 36 1005 20 10000 5 220 12:53 22.06.2019
5989 Clear 35 1005 20 10000 5 220 12:34 22.06.2019
5990 Clear 36 1005 20 10000 4 210 11:58 22.06.2019
5991 Clear 35 1005 20 10000 5 200 11:34 22.06.2019
5992 Clear 36 1006 19 10000 4 230 10:53 22.06.2019
5993 Clear 36 1006 20 10000 4 200 10:21 22.06.2019
5994 Clear 36 1006 20 10000 4 200 10:21 22.06.2019
5995 Clear 37 1006 20 10000 4 200 09:55 22.06.2019
5996 Clear 37 1007 23 10000 3 0 09:23 22.06.2019
5997 Clear 36 1007 24 10000 3 210 08:43 22.06.2019
5998 Clear 35 1007 26 10000 3 0 08:23 22.06.2019
5999 Clear 36 1008 28 10000 2 0 07:35 22.06.2019
6000 Clear 34 1009 33 10000 3 0 06:56 22.06.2019
6001 Clear 33 1010 38 10000 2 220 05:23 22.06.2019
6002 Clear 29 1011 54 10000 2 10 02:33 22.06.2019
6003 Clear 27 1011 69 10000 3 350 01:22 22.06.2019
6004 Clear 26 1011 73 10000 3 360 00:41 22.06.2019
6005 Clear 22 1011 77 10000 2 330 00:22 22.06.2019
6006 Clear 23 1011 82 10000 2 350 23:44 21.06.2019
6007 Clear 22 1011 77 10000 2 360 23:22 21.06.2019
6008 Clear 22 1011 72 10000 2 360 22:50 21.06.2019
6009 Clear 22 1011 72 10000 2 360 22:24 21.06.2019
6010 Clear 22 1011 72 10000 0.68 289.314 21:55 21.06.2019
6011 Clear 22 1011 72 10000 0.68 289.314 21:36 21.06.2019
6012 Clear 23 1011 72 10000 1 40 21:18 21.06.2019
6013 Clear 22 1011 68 10000 1 60 20:42 21.06.2019
6014 Clear 22 1011 68 10000 2 50 20:20 21.06.2019
6015 Clear 23 1010 64 10000 2 40 19:34 21.06.2019
6016 Clear 23 1011 60 10000 1 0 18:49 21.06.2019
6017 Clear 23 1011 60 10000 1 0 18:29 21.06.2019
6018 Clear 25 1011 47 10000 2 120 17:46 21.06.2019
6019 Clear 26 1011 47 10000 2 120 17:28 21.06.2019
6020 Clear 25 1010 49 10000 2 100 16:40 21.06.2019
6021 Clear 27 1010 36 10000 3 190 16:22 21.06.2019
6022 Clear 27 1009 34 10000 4 200 15:40 21.06.2019
6023 Clear 27 1009 42 10000 3 180 15:21 21.06.2019
6024 Clear 28 1010 39 10000 2 140 14:49 21.06.2019
6025 Clear 28 1010 39 10000 2 140 14:30 21.06.2019
6026 Clear 28 1010 42 10000 3 130 13:54 21.06.2019
6027 Clear 29 1009 39 10000 3 140 13:33 21.06.2019
6028 Clear 29 1009 37 10000 4 130 12:59 21.06.2019
6029 Clear 29 1008 39 10000 3 140 12:39 21.06.2019
6030 Clear 30 1008 39 10000 4 140 12:18 21.06.2019
6031 Clear 30 1008 39 10000 4 140 12:18 21.06.2019
6032 Clear 31 1008 37 10000 3 130 11:46 21.06.2019
6033 Clear 31 1008 37 10000 3 130 11:24 21.06.2019
6034 Clear 31 1008 37 10000 3 100 10:51 21.06.2019
6035 Clear 31 1009 40 10000 4 130 10:22 21.06.2019
6036 Clear 31 1009 40 10000 4 130 09:58 21.06.2019
6037 Clear 32 1008 40 10000 4 110 09:39 21.06.2019
6038 Clear 32 1008 37 10000 4 130 09:19 21.06.2019
6039 Clear 32 1009 40 10000 5 140 08:42 21.06.2019
6040 Clear 32 1009 45 10000 5 170 08:22 21.06.2019
6041 Clear 32 1009 45 10000 5 170 08:22 21.06.2019
6042 Clear 32 1009 45 10000 4 170 07:50 21.06.2019
6043 Clear 32 1009 45 10000 4 170 07:27 21.06.2019
6044 Clear 30 1009 51 10000 3 140 06:53 21.06.2019
6045 Clear 30 1009 51 10000 3 140 06:53 21.06.2019
6046 Clear 30 1009 54 10000 3 130 06:20 21.06.2019
6047 Clear 30 1009 54 10000 4 150 05:25 21.06.2019
6048 Clear 30 1009 54 10000 2 0 04:26 21.06.2019
6049 Clear 29 1009 61 10000 2 80 03:33 21.06.2019
6050 Clear 27 1009 57 10000 1 0 02:48 21.06.2019
6051 Rain 28 1009 65 8000 1 0 01:48 21.06.2019
6052 Rain 27 1008 69 8000 2 120 00:55 21.06.2019
6053 Rain 25 1008 69 8000 1 90 00:22 21.06.2019
6054 Rain 25 1008 69 8000 1 90 00:22 21.06.2019
6055 Rain 24 1008 78 8000 1 70 23:47 20.06.2019
6056 Clear 24 1007 69 10000 1 0 23:22 20.06.2019
6057 Clear 24 1007 69 10000 1 0 22:56 20.06.2019
6058 Clear 25 1007 69 10000 3 120 22:38 20.06.2019
6059 Clear 26 1007 64 10000 2 90 22:19 20.06.2019
6060 Clear 26 1006 73 10000 3 110 21:44 20.06.2019
6061 Clear 26 1006 78 10000 2 100 21:19 20.06.2019
6062 Clear 27 1006 69 10000 2 30 20:48 20.06.2019
6063 Clear 27 1006 69 10000 2 30 20:27 20.06.2019
6064 Clear 28 1006 69 10000 2 360 19:58 20.06.2019
6065 Clear 28 1006 73 10000 2 360 19:39 20.06.2019
6066 Clouds 28 1006 73 8000 1 360 19:18 20.06.2019
6067 Clear 29 1006 69 10000 1 360 18:43 20.06.2019
6068 Clear 28 1005 65 10000 2 80 18:23 20.06.2019
6069 Clear 29 1006 65 10000 2 90 17:55 20.06.2019
6070 Clear 29 1006 65 10000 2 90 17:37 20.06.2019
6071 Clear 30 1006 61 10000 4 110 16:56 20.06.2019
6072 Clear 30 1005 57 10000 4 100 16:37 20.06.2019
6073 Clear 31 1005 48 10000 6 100 16:18 20.06.2019
6074 Clear 30 1004 65 10000 2 90 15:41 20.06.2019
6075 Clear 31 1003 57 10000 2 80 15:22 20.06.2019
6076 Clear 31 1003 54 10000 2 50 14:47 20.06.2019
6077 Clear 32 1003 45 10000 2 30 14:23 20.06.2019
6078 Clear 34 1002 33 10000 3 180 13:42 20.06.2019
6079 Clear 34 1002 33 10000 3 180 13:42 20.06.2019
6080 Clear 34 1002 38 10000 2 120 13:21 20.06.2019
6081 Clear 34 1002 35 10000 3 110 12:50 20.06.2019
6082 Clear 34 1002 35 10000 3 110 12:25 20.06.2019
6083 Clouds 35 1002 40 10000 5 110 11:58 20.06.2019
6084 Clouds 35 1002 40 10000 8 80 11:38 20.06.2019
6085 Clouds 37 1001 27 10000 3 140 11:20 20.06.2019
6086 Clouds 38 1000 27 10000 3 190 10:41 20.06.2019
6087 Clouds 37 1000 32 10000 3 180 10:22 20.06.2019
6088 Clear 37 1001 37 10000 2 0 09:40 20.06.2019
6089 Clear 37 1001 37 10000 3 190 09:22 20.06.2019
6090 Clear 36 1001 41 10000 3 190 08:47 20.06.2019
6091 Clear 36 1001 41 10000 3 190 08:27 20.06.2019
6092 Clear 36 1002 41 10000 2 120 07:55 20.06.2019
6093 Clear 37 1002 44 10000 2 0 07:31 20.06.2019
6094 Clouds 36 1003 46 7000 3 210 06:43 20.06.2019
6095 Clouds 33 1004 52 7000 2 190 06:18 20.06.2019
6096 Clouds 30 1005 65 7000 1 0 03:37 20.06.2019
6097 Mist 26 1005 78 5000 1 0 00:43 20.06.2019
6098 Mist 24 1005 88 4500 1 30 00:24 20.06.2019
6099 Mist 24 1005 88 4500 1 0 23:42 19.06.2019
6100 Clouds 24 1005 88 7000 1 160 23:24 19.06.2019
6101 Clouds 24 1005 88 8000 1 90 22:48 19.06.2019
6102 Clouds 25 1005 88 8000 1 70 22:20 19.06.2019
6103 Clouds 25 1005 88 8000 1 70 21:55 19.06.2019
6104 Clouds 25 1005 88 8000 1 70 21:55 19.06.2019
6105 Clouds 25 1005 83 8000 1 0 21:36 19.06.2019
6106 Rain 24 1005 83 8000 1 0 21:18 19.06.2019
6107 Rain 24 1005 88 8000 1 80 20:39 19.06.2019
6108 Rain 26 1005 78 8000 1 0 20:20 19.06.2019
6109 Rain 26 1005 83 8000 2 80 19:42 19.06.2019
6110 Rain 26 1005 83 8000 1 100 19:23 19.06.2019
6111 Rain 26 1005 83 8000 2 110 18:55 19.06.2019
6112 Rain 26 1006 78 8000 1 0 18:22 19.06.2019
6113 Rain 26 1006 73 8000 2 140 17:42 19.06.2019
6114 Rain 27 1005 73 8000 2 130 17:24 19.06.2019
6115 Rain 27 1005 73 8000 2 130 17:24 19.06.2019
6116 Rain 27 1006 74 8000 3 140 16:43 19.06.2019
6117 Rain 28 1005 74 8000 3 150 16:22 19.06.2019
6118 Rain 28 1005 74 8000 3 150 15:58 19.06.2019
6119 Clear 29 1005 69 10000 3 140 15:40 19.06.2019
6120 Clear 29 1004 69 10000 3 140 15:19 19.06.2019
6121 Clear 29 1004 65 10000 3 140 14:42 19.06.2019
6122 Clear 30 1004 62 10000 2 140 14:22 19.06.2019
6123 Clear 30 1004 62 10000 3 160 13:43 19.06.2019
6124 Clear 31 1003 55 10000 3 160 13:25 19.06.2019
6125 Clear 31 1003 51 10000 3 150 12:48 19.06.2019
6126 Clear 32 1003 52 10000 3 160 12:22 19.06.2019
6127 Clear 32 1003 52 10000 3 160 11:58 19.06.2019
6128 Clear 32 1003 48 10000 4 170 11:38 19.06.2019
6129 Clear 32 1003 48 10000 3 150 11:20 19.06.2019
6130 Clear 32 1003 48 10000 3 150 11:20 19.06.2019
6131 Clear 32 1003 46 10000 4 160 10:45 19.06.2019
6132 Clear 32 1003 46 10000 4 160 10:27 19.06.2019
6133 Clear 33 1004 46 10000 4 160 09:50 19.06.2019
6134 Clear 31 1004 43 10000 4 160 09:23 19.06.2019
6135 Clear 32 1004 43 10000 4 160 08:58 19.06.2019
6136 Clear 33 1005 45 10000 3 160 08:38 19.06.2019
6137 Clouds 32 1005 48 7000 3 150 08:19 19.06.2019
6138 Clouds 32 1005 48 7000 2 0 07:43 19.06.2019
6139 Clouds 31 1006 51 7000 2 130 07:21 19.06.2019
6140 Clouds 32 1006 54 7000 3 80 06:36 19.06.2019
6141 Clouds 31 1006 58 6000 2 100 06:18 19.06.2019
6142 Clouds 30 1007 58 6000 2 50 05:24 19.06.2019
6143 Clouds 28 1007 61 6000 3 0 03:53 19.06.2019
6144 Clouds 26 1007 65 7000 2 70 02:35 19.06.2019
6145 Clouds 26 1007 69 6000 1 0 01:37 19.06.2019
6146 Clouds 25 1007 83 7000 1 0 00:54 19.06.2019
6147 Clouds 25 1007 83 7000 1 0 00:36 19.06.2019
6148 Rain 23 1006 88 7000 1 0 23:58 18.06.2019
6149 Rain 23 1006 83 8000 1 0 23:37 18.06.2019
6150 Clear 23 1006 83 10000 1 140 23:19 18.06.2019
6151 Clear 24 1006 69 10000 2 130 22:41 18.06.2019
6152 Clear 24 1006 69 10000 2 120 22:21 18.06.2019
6153 Clear 24 1006 64 10000 3 110 21:44 18.06.2019
6154 Clear 24 1006 64 10000 2 90 21:22 18.06.2019
6155 Clear 24 1006 64 10000 2 90 20:58 18.06.2019
6156 Clear 24 1006 69 10000 2 130 20:38 18.06.2019
6157 Clear 25 1006 64 10000 1 0 20:19 18.06.2019
6158 Clear 25 1006 64 10000 2 100 19:39 18.06.2019
6159 Clear 25 1006 69 10000 2 70 19:21 18.06.2019
6160 Clear 26 1006 69 10000 2 80 18:49 18.06.2019
6161 Clear 26 1005 78 10000 2 100 18:25 18.06.2019
6162 Clear 26 1005 88 10000 2 90 17:48 18.06.2019
6163 Clear 27 1004 88 10000 2 360 17:22 18.06.2019
6164 Clear 27 1004 88 10000 2 360 16:58 18.06.2019
6165 Clouds 27 1004 78 10000 2 90 16:39 18.06.2019
6166 Clouds 27 1004 88 10000 2 90 16:21 18.06.2019
6167 Clouds 27 1004 78 10000 3 70 15:41 18.06.2019
6168 Thunderstorm 27 1003 83 10000 3 70 15:22 18.06.2019
6169 Thunderstorm 28 1003 83 10000 3 70 14:56 18.06.2019
6170 Thunderstorm 29 1003 88 10000 1.33 254.839 14:37 18.06.2019
6171 Clear 28 1002 88 10000 1 0 14:18 18.06.2019
6172 Thunderstorm 30 1002 78 10000 2 110 13:46 18.06.2019
6173 Thunderstorm 30 1002 69 10000 2 40 13:28 18.06.2019
6174 Thunderstorm 33 1002 43 10000 3 50 12:46 18.06.2019
6175 Thunderstorm 33 1002 43 10000 3 50 12:46 18.06.2019
6176 Thunderstorm 34 1002 43 10000 3 50 12:27 18.06.2019
6177 Clear 34 1001 41 10000 3 70 11:50 18.06.2019
6178 Clear 33 1001 41 10000 3 70 11:24 18.06.2019
6179 Clear 35 1001 41 10000 3 90 10:59 18.06.2019
6180 Clear 34 1002 43 10000 3 80 10:40 18.06.2019
6181 Clouds 35 1002 40 10000 1 0 10:20 18.06.2019
6182 Clouds 35 1002 38 10000 2 0 09:51 18.06.2019
6183 Clouds 36 1002 36 10000 3 150 09:24 18.06.2019
6184 Clouds 34 1003 40 10000 3 0 08:50 18.06.2019
6185 Clouds 35 1003 40 10000 3 0 08:30 18.06.2019
6186 Clouds 33 1003 40 10000 2 130 07:56 18.06.2019
6187 Clear 34 1004 40 10000 1 0 07:26 18.06.2019
6188 Clear 33 1004 45 8000 2 0 06:55 18.06.2019
6189 Clear 31 1005 51 8000 1 0 05:25 18.06.2019
6190 Clear 30 1005 57 6000 2 330 04:21 18.06.2019
6191 Mist 26 1006 69 5000 2 10 02:48 18.06.2019
6192 Mist 25 1006 88 2800 3 350 01:27 18.06.2019
6193 Mist 24 1006 88 2800 2 360 00:58 18.06.2019
6194 Mist 22 1006 93 3200 1 0 00:30 18.06.2019
6195 Mist 21 1006 93 3200 1 60 23:58 17.06.2019
6196 Mist 21 1006 93 3500 2 20 23:37 17.06.2019
6197 Mist 21 1006 93 4000 2 360 23:18 17.06.2019
6198 Mist 21 1006 100 4000 2 350 22:40 17.06.2019
6199 Mist 21 1006 93 4000 1 20 22:21 17.06.2019
6200 Mist 21 1006 93 4000 2 360 21:45 17.06.2019
6201 Mist 23 1006 93 5000 2 350 21:23 17.06.2019
6202 Mist 23 1006 93 5000 1 340 20:43 17.06.2019
6203 Mist 22 1006 93 5000 1 350 20:24 17.06.2019
6204 Mist 23 1006 93 5000 1 350 19:57 17.06.2019
6205 Rain 23 1006 93 6000 1 10 19:39 17.06.2019
6206 Rain 23 1006 93 6000 1 40 19:21 17.06.2019
6207 Rain 24 1006 88 6000 2 40 18:39 17.06.2019
6208 Rain 23 1007 94 7000 1 40 18:18 17.06.2019
6209 Rain 24 1007 94 7000 1 40 17:58 17.06.2019
6210 Rain 24 1007 94 7000 1 40 17:39 17.06.2019
6211 Rain 24 1006 94 7000 1 360 17:20 17.06.2019
6212 Rain 24 1006 94 8000 1.81 310.081 16:42 17.06.2019
6213 Rain 25 1006 94 8000 2 20 16:24 17.06.2019
6214 Rain 24 1006 88 8000 1 0 15:45 17.06.2019
6215 Rain 25 1006 83 8000 1 30 15:20 17.06.2019
6216 Rain 25 1006 83 8000 1 30 14:58 17.06.2019
6217 Rain 24 1006 83 8000 1 0 14:40 17.06.2019
6218 Rain 24 1006 83 8000 2 60 14:21 17.06.2019
6219 Rain 23 1007 69 8000 3 360 13:44 17.06.2019
6220 Rain 27 1007 51 10000 6 320 13:21 17.06.2019
6221 Rain 28 1006 45 10000 4 210 12:47 17.06.2019
6222 Clear 29 1005 42 10000 4 200 12:24 17.06.2019
6223 Clear 30 1005 39 10000 3 0 11:45 17.06.2019
6224 Clear 30 1005 39 10000 3 0 11:26 17.06.2019
6225 Clear 31 1006 39 10000 3 210 10:56 17.06.2019
6226 Clear 31 1006 39 10000 1 0 10:38 17.06.2019
6227 Clear 31 1006 42 10000 2 110 10:20 17.06.2019
6228 Clear 31 1007 45 10000 3 0 09:39 17.06.2019
6229 Clear 31 1007 45 10000 1 0 09:20 17.06.2019
6230 Clear 31 1008 45 10000 1 0 08:41 17.06.2019
6231 Clear 31 1008 51 10000 2 0 08:22 17.06.2019
6232 Clear 30 1008 47 8000 2 0 07:40 17.06.2019
6233 Clear 30 1009 44 8000 2 310 07:20 17.06.2019
6234 Clear 30 1009 50 8000 1 0 06:34 17.06.2019
6235 Clear 28 1010 57 8000 1 0 05:44 17.06.2019
6236 Clouds 26 1011 64 8000 3 350 04:34 17.06.2019
6237 Clouds 26 1010 64 8000 1 0 03:45 17.06.2019
6238 Clouds 23 1011 68 8000 1 0 02:58 17.06.2019
6239 Clouds 23 1010 72 8000 1 0 02:40 17.06.2019
6240 Clouds 23 1010 77 8000 2 60 01:43 17.06.2019
6241 Clouds 23 1010 82 8000 1 0 01:25 17.06.2019
6242 Clouds 22 1010 77 8000 1 0 00:44 17.06.2019
6243 Clouds 20 1010 77 8000 1 50 00:21 17.06.2019
6244 Clear 20 1010 77 10000 1 60 23:43 16.06.2019
6245 Clear 20 1010 77 10000 1 0 23:22 16.06.2019
6246 Clear 20 1010 77 10000 1 100 22:56 16.06.2019
6247 Clear 20 1010 77 10000 1 100 22:38 16.06.2019
6248 Clear 20 1010 77 10000 2 130 22:18 16.06.2019
6249 Clear 21 1010 77 10000 1 0 21:41 16.06.2019
6250 Clear 21 1010 77 10000 2 100 21:22 16.06.2019
6251 Clear 21 1010 77 10000 2 100 20:59 16.06.2019
6252 Clear 21 1010 77 10000 2 130 20:37 16.06.2019
6253 Clear 21 1010 77 10000 4 140 20:18 16.06.2019
6254 Clear 21 1010 77 10000 4 140 20:18 16.06.2019
6255 Clouds 21 1010 77 10000 3 140 19:42 16.06.2019
6256 Clouds 21 1011 82 10000 2 130 19:22 16.06.2019
6257 Clouds 21 1011 82 10000 2 130 18:58 16.06.2019
6258 Clouds 21 1011 82 8000 2 130 18:40 16.06.2019
6259 Clouds 21 1011 82 8000 2 130 18:20 16.06.2019
6260 Clouds 21 1011 82 8000 2 110 17:48 16.06.2019
6261 Clouds 21 1011 82 8000 2 140 17:23 16.06.2019
6262 Clouds 21 1011 82 8000 2 140 16:57 16.06.2019
6263 Clouds 21 1011 88 8000 2 140 16:39 16.06.2019
6264 Clouds 21 1011 88 8000 2 140 16:39 16.06.2019
6265 Clouds 21 1011 88 8000 3 130 16:21 16.06.2019
6266 Rain 21 1011 88 7000 1 0 15:44 16.06.2019
6267 Rain 21 1011 88 7000 1 0 15:24 16.06.2019
6268 Clouds 23 1011 73 10000 1 130 14:45 16.06.2019
6269 Clouds 23 1010 73 10000 2 150 14:24 16.06.2019
6270 Clouds 23 1010 73 10000 2 150 13:52 16.06.2019
6271 Clouds 23 1010 73 10000 2 150 13:28 16.06.2019
6272 Clouds 23 1009 68 10000 3 150 12:58 16.06.2019
6273 Clouds 23 1009 68 10000 3 150 12:40 16.06.2019
6274 Clouds 23 1009 68 10000 2 140 12:20 16.06.2019
6275 Clouds 23 1009 68 10000 2 140 12:20 16.06.2019
6276 Clouds 23 1009 68 10000 3 160 11:46 16.06.2019
6277 Clouds 23 1009 68 10000 4 160 11:20 16.06.2019
6278 Clouds 23 1010 68 10000 3 140 10:54 16.06.2019
6279 Clouds 23 1010 68 10000 3 140 10:36 16.06.2019
6280 Clouds 24 1010 68 10000 3 140 10:18 16.06.2019
6281 Clouds 23 1011 72 10000 3 140 09:37 16.06.2019
6282 Clouds 23 1010 72 10000 4 130 09:19 16.06.2019
6283 Clouds 23 1011 72 10000 2 120 08:41 16.06.2019
6284 Clouds 23 1011 72 10000 3 150 08:19 16.06.2019
6285 Clouds 23 1011 82 10000 2 150 07:44 16.06.2019
6286 Clouds 23 1011 88 10000 2 190 07:19 16.06.2019
6287 Rain 22 1012 88 10000 1 0 06:43 16.06.2019
6288 Rain 20 1012 88 10000 1 0 05:51 16.06.2019
6289 Rain 20 1012 88 10000 2 160 04:56 16.06.2019
6290 Rain 20 1012 82 10000 2 190 03:57 16.06.2019
6291 Rain 20 1011 88 10000 2 130 03:32 16.06.2019
6292 Rain 20 1012 88 8000 2 90 02:36 16.06.2019
6293 Rain 22 1011 82 10000 2 140 01:47 16.06.2019
6294 Rain 20 1011 82 10000 2 140 01:27 16.06.2019
6295 Rain 21 1011 56 10000 3 140 00:41 16.06.2019
6296 Rain 21 1010 56 10000 4 140 00:22 16.06.2019
6297 Clear 22 1010 53 10000 3 140 23:46 15.06.2019
6298 Clear 22 1010 53 10000 3 140 23:25 15.06.2019
6299 Clear 23 1010 53 10000 2 130 22:50 15.06.2019
6300 Clear 23 1010 53 10000 2 90 22:28 15.06.2019
6301 Clear 23 1010 53 10000 2 90 21:58 15.06.2019
6302 Clear 23 1010 53 10000 2 110 21:40 15.06.2019
6303 Clear 23 1009 53 10000 2 100 21:20 15.06.2019
6304 Clear 23 1009 56 10000 2 110 20:43 15.06.2019
6305 Clear 23 1009 56 10000 2 100 20:22 15.06.2019
6306 Clear 23 1009 56 10000 2 100 19:46 15.06.2019
6307 Clear 23 1009 56 10000 2 100 19:46 15.06.2019
6308 Clear 24 1009 56 10000 2 100 19:24 15.06.2019
6309 Clear 23 1009 56 10000 1 0 18:42 15.06.2019
6310 Clear 23 1008 60 10000 2 120 18:23 15.06.2019
6311 Clear 23 1008 60 10000 3 100 17:44 15.06.2019
6312 Clear 23 1008 60 10000 3 100 17:25 15.06.2019
6313 Clear 25 1007 53 10000 5 110 16:49 15.06.2019
6314 Clear 25 1007 50 10000 5 130 16:20 15.06.2019
6315 Clear 26 1006 47 10000 5 120 15:45 15.06.2019
6316 Clear 28 1005 47 10000 4 130 15:24 15.06.2019
6317 Clear 28 1005 47 10000 4 130 14:54 15.06.2019
6318 Clear 28 1005 44 10000 4 140 14:36 15.06.2019
6319 Clear 29 1004 39 10000 5 140 14:18 15.06.2019
6320 Clear 29 1004 39 10000 4 140 13:42 15.06.2019
6321 Clear 30 1004 39 10000 6 140 13:20 15.06.2019
6322 Clear 32 1003 33 10000 5 140 12:52 15.06.2019
6323 Clear 32 1003 33 10000 5 140 12:27 15.06.2019
6324 -273 0 0 0 0 0 12:27 15.06.2019
6325 Clear 32 1003 29 10000 4 140 11:54 15.06.2019
6326 Clear 33 1003 29 10000 4 140 11:35 15.06.2019
6327 Clear 33 1004 31 10000 3 120 10:55 15.06.2019
6328 Clear 33 1004 31 10000 3 120 10:37 15.06.2019
6329 Clear 32 1004 29 10000 2 0 10:19 15.06.2019
6330 Clear 33 1004 33 10000 3 120 09:43 15.06.2019
6331 Clear 32 1004 31 10000 3 130 09:23 15.06.2019
6332 Clear 32 1005 33 10000 3 120 08:50 15.06.2019
6333 Clear 32 1005 33 10000 3 120 08:31 15.06.2019
6334 Clear 32 1005 30 10000 3 140 07:50 15.06.2019
6335 Clear 32 1006 33 10000 2 0 07:24 15.06.2019
6336 Clear 31 1007 33 10000 2 0 06:39 15.06.2019
6337 Clear 31 1007 33 10000 2 0 06:39 15.06.2019
6338 Clear 31 1007 35 10000 2 150 06:00 15.06.2019
6339 Clear 31 1007 37 10000 3 140 05:25 15.06.2019
6340 Clear 31 1008 37 10000 2 0 04:44 15.06.2019
6341 Clear 30 1008 41 10000 2 110 03:42 15.06.2019
6342 Clear 28 1008 41 10000 2 80 02:56 15.06.2019
6343 Clear 27 1008 47 10000 1 0 02:22 15.06.2019
6344 Clear 27 1008 60 10000 1 0 01:43 15.06.2019
6345 Clear 25 1008 72 10000 1 80 00:56 15.06.2019
6346 Clear 25 1008 72 10000 1 80 00:37 15.06.2019
6347 Clear 23 1008 68 10000 0.9 143.321 23:54 14.06.2019
6348 Clear 21 1008 68 10000 1 70 23:25 14.06.2019
6349 Clear 21 1008 68 10000 0.86 147.068 22:45 14.06.2019
6350 Clear 21 1007 68 10000 0.86 147.068 22:23 14.06.2019
6351 Clear 21 1007 68 10000 0.86 147.068 21:59 14.06.2019
6352 Clear 21 1007 68 10000 0.86 147.068 21:40 14.06.2019
6353 Clear 24 1007 63 10000 0.57 122.196 21:21 14.06.2019
6354 Clear 23 1007 60 10000 1 40 20:42 14.06.2019
6355 Clear 23 1007 52 10000 1 0 20:18 14.06.2019
6356 Clear 23 1007 46 10000 2 100 19:53 14.06.2019
6357 Clear 26 1007 41 10000 2 90 19:23 14.06.2019
6358 Clear 25 1007 41 10000 2 90 18:59 14.06.2019
6359 Clear 25 1007 41 10000 3 90 18:41 14.06.2019
6360 Clear 26 1006 44 10000 3 100 18:22 14.06.2019
6361 Clear 26 1006 50 10000 3 100 17:48 14.06.2019
6362 Clear 26 1006 50 10000 3 100 17:30 14.06.2019
6363 Clear 26 1006 47 10000 4 110 16:58 14.06.2019
6364 Clear 26 1005 54 10000 3 110 16:40 14.06.2019
6365 Clear 28 1005 54 10000 4 110 16:19 14.06.2019
6366 Clear 28 1004 54 10000 4 120 15:41 14.06.2019
6367 Clear 30 1003 54 10000 6 120 15:23 14.06.2019
6368 Clear 30 1003 54 10000 6 120 15:23 14.06.2019
6369 Clear 30 1003 54 10000 6 120 14:56 14.06.2019
6370 Clear 31 1002 37 10000 5 100 14:38 14.06.2019
6371 Clear 32 1002 30 10000 1 0 14:19 14.06.2019
6372 Clear 32 1002 30 10000 1 0 14:19 14.06.2019
6373 Clear 32 1001 21 10000 2 110 13:42 14.06.2019
6374 Clear 34 1001 14 10000 2 90 13:24 14.06.2019
6375 Clear 35 1001 13 10000 3 80 12:42 14.06.2019
6376 Clear 35 1001 13 10000 3 80 12:42 14.06.2019
6377 Clear 35 1001 14 10000 3 80 12:24 14.06.2019
6378 Clear 35 1001 14 10000 2 80 11:57 14.06.2019
6379 Clear 35 1001 14 10000 2 80 11:38 14.06.2019
6380 Clear 35 1001 13 10000 3 80 11:20 14.06.2019
6381 Clear 36 1001 14 10000 3 60 10:42 14.06.2019
6382 Clear 36 1001 13 10000 2 0 10:18 14.06.2019
6383 Clear 36 1002 15 10000 2 100 09:43 14.06.2019
6384 Clear 36 1002 14 10000 3 20 09:22 14.06.2019
6385 Clear 35 1002 15 10000 2 0 08:46 14.06.2019
6386 Clear 36 1003 14 10000 3 50 08:19 14.06.2019
6387 Clear 36 1003 15 10000 5 40 07:50 14.06.2019
6388 Clear 36 1003 15 10000 3 60 07:21 14.06.2019
6389 Clear 35 1004 18 10000 3 40 06:34 14.06.2019
6390 -273 0 0 0 0 0 05:58 14.06.2019
6391 -273 0 0 0 0 0 05:58 14.06.2019
6392 Clear 33 1005 24 10000 4 20 05:21 14.06.2019
6393 Clear 33 1005 27 10000 5 10 04:45 14.06.2019
6394 Clear 33 1005 40 10000 3 360 03:52 14.06.2019
6395 Clear 30 1005 40 10000 3 360 03:25 14.06.2019
6396 Clear 29 1005 48 10000 2 10 02:55 14.06.2019
6397 Clear 28 1005 51 10000 4 350 02:27 14.06.2019
6398 Clear 28 1005 51 10000 4 350 02:27 14.06.2019
6399 Clear 27 1004 73 8000 2 10 00:58 14.06.2019
6400 Mist 23 1004 88 5000 1 20 00:23 14.06.2019
6401 Mist 23 1004 88 5000 1 20 23:59 13.06.2019
6402 Mist 23 1004 88 5000 1 0 23:41 13.06.2019
6403 Clear 22 1004 93 6000 2 30 23:22 13.06.2019
6404 Clear 22 1004 88 7000 0.56 319.733 22:40 13.06.2019
6405 Clear 21 1004 88 7000 1 30 22:22 13.06.2019
6406 Clear 22 1004 82 8000 1 350 21:40 13.06.2019
6407 Clear 23 1004 88 10000 1 40 21:20 13.06.2019
6408 Clear 23 1004 88 10000 1 40 20:58 13.06.2019
6409 Clear 24 1004 83 10000 1 0 20:39 13.06.2019
6410 Clear 25 1004 73 10000 2 90 20:19 13.06.2019
6411 Clear 24 1004 73 10000 2 90 19:42 13.06.2019
6412 Clear 23 1004 83 10000 2 80 19:22 13.06.2019
6413 Clear 24 1004 78 10000 2 60 18:58 13.06.2019
6414 Clear 24 1004 78 10000 2 60 18:40 13.06.2019
6415 Clear 25 1004 73 10000 1 40 18:21 13.06.2019
6416 Clear 26 1004 69 10000 2 160 17:43 13.06.2019
6417 Clear 24 1004 73 10000 2 140 17:20 13.06.2019
6418 Clear 25 1004 73 10000 1 150 16:53 13.06.2019
6419 Clear 26 1004 69 10000 2 160 16:22 13.06.2019
6420 Clear 26 1004 69 10000 2 160 15:59 13.06.2019
6421 Clear 26 1004 61 10000 2 160 15:40 13.06.2019
6422 Clear 28 1003 51 10000 3 170 15:19 13.06.2019
6423 Clear 28 1003 48 10000 3 180 14:48 13.06.2019
6424 Clear 29 1003 48 10000 3 180 14:29 13.06.2019
6425 Clear 29 1003 45 10000 3 210 13:47 13.06.2019
6426 Clear 30 1003 45 10000 3 200 13:22 13.06.2019
6427 Clear 30 1003 45 10000 3 200 12:58 13.06.2019
6428 Clear 31 1002 40 10000 4 210 12:39 13.06.2019
6429 Clear 31 1003 40 10000 4 210 12:20 13.06.2019
6430 Clear 31 1003 40 10000 5 200 11:44 13.06.2019
6431 Clear 31 1002 40 10000 3 190 11:25 13.06.2019
6432 Clear 32 1003 38 10000 2 0 10:48 13.06.2019
6433 Clear 32 1003 38 10000 2 0 10:28 13.06.2019
6434 Clear 32 1003 38 10000 2 0 09:52 13.06.2019
6435 Clear 32 1003 38 10000 2 0 09:29 13.06.2019
6436 Clouds 33 1003 38 10000 2 0 08:56 13.06.2019
6437 Clouds 33 1003 38 10000 2 0 08:56 13.06.2019
6438 Clear 33 1004 43 10000 3 320 08:38 13.06.2019
6439 Clear 34 1004 40 10000 2 0 08:19 13.06.2019
6440 Clear 33 1005 43 10000 1 0 07:38 13.06.2019
6441 Clear 32 1005 45 10000 3 0 07:19 13.06.2019
6442 Clear 34 1006 43 10000 3 340 06:40 13.06.2019
6443 Clear 32 1006 42 10000 3 340 06:21 13.06.2019
6444 Clear 32 1006 45 10000 3 0 05:39 13.06.2019
6445 Clear 30 1006 51 10000 2 10 05:19 13.06.2019
6446 Rain 26 1007 78 10000 2 360 03:49 13.06.2019
6447 Rain 25 1006 69 10000 3 360 01:59 13.06.2019
6448 Clear 27 1005 50 10000 5 340 00:32 13.06.2019
6449 Clear 25 1004 57 10000 3 350 23:38 12.06.2019
6450 Clear 24 1004 57 10000 4 350 23:20 12.06.2019
6451 Clear 24 1004 57 10000 4 360 22:41 12.06.2019
6452 Clear 26 1004 50 10000 5 330 22:22 12.06.2019
6453 Clear 25 1004 53 10000 4 320 21:47 12.06.2019
6454 Clear 27 1004 53 10000 4 320 21:28 12.06.2019
6455 Clear 26 1004 60 10000 3 350 20:49 12.06.2019
6456 Clear 26 1004 60 10000 3 350 20:31 12.06.2019
6457 Clear 26 1004 57 10000 2 10 19:59 12.06.2019
6458 Clear 25 1005 53 10000 2 360 19:40 12.06.2019
6459 Clear 27 1005 53 10000 2 10 19:22 12.06.2019
6460 Clear 28 1005 50 10000 2 360 18:49 12.06.2019
6461 Clear 28 1005 50 10000 2 360 18:28 12.06.2019
6462 Clear 29 1006 45 10000 4 290 17:51 12.06.2019
6463 Clear 28 1006 44 10000 3 330 17:23 12.06.2019
6464 Clear 29 1006 44 10000 3 330 16:59 12.06.2019
6465 Clouds 29 1005 42 10000 3 320 16:39 12.06.2019
6466 Clouds 30 1005 45 10000 3 290 16:20 12.06.2019
6467 Clouds 30 1005 45 10000 4 320 15:46 12.06.2019
6468 Clouds 29 1005 45 10000 4 320 15:28 12.06.2019
6469 Clouds 29 1005 45 10000 5 300 14:39 12.06.2019
6470 Clouds 29 1005 48 10000 6 290 14:20 12.06.2019
6471 Clouds 31 1004 48 10000 6 300 13:42 12.06.2019
6472 Clouds 31 1004 45 10000 6 320 13:20 12.06.2019
6473 Clouds 31 1004 45 10000 6 320 13:20 12.06.2019
6474 Clouds 32 1004 51 10000 4 360 12:56 12.06.2019
6475 Clouds 32 1004 51 10000 4 360 12:37 12.06.2019
6476 Clouds 32 1004 45 10000 7 340 12:19 12.06.2019
6477 Clouds 32 1004 45 10000 7 340 12:19 12.06.2019
6478 Clouds 32 1003 58 10000 1 0 11:44 12.06.2019
6479 Clouds 32 1003 58 10000 1 0 11:26 12.06.2019
6480 Clouds 33 1004 48 10000 1 0 10:50 12.06.2019
6481 Clouds 33 1004 48 10000 1 0 10:25 12.06.2019
6482 Clear 34 1003 43 10000 4 140 09:45 12.06.2019
6483 Rain 34 1003 41 10000 4 160 09:23 12.06.2019
6484 Rain 34 1003 41 10000 4 160 09:23 12.06.2019
6485 Rain 34 1003 41 10000 4 160 08:53 12.06.2019
6486 Clear 34 1004 43 10000 3 130 08:21 12.06.2019
6487 Clear 34 1004 40 10000 3 140 07:39 12.06.2019
6488 Clear 34 1005 42 10000 3 210 06:54 12.06.2019
6489 Clear 30 1006 48 10000 2 0 05:27 12.06.2019
6490 Clear 31 1006 48 10000 2 120 04:34 12.06.2019
6491 Clear 26 1007 60 10000 1 0 01:32 12.06.2019
6492 Clear 25 1007 77 10000 1.31 63.65 00:40 12.06.2019
6493 Clear 22 1007 82 10000 1.06 59.981 23:48 11.06.2019
6494 Clear 22 1007 82 10000 1.06 59.981 23:29 11.06.2019
6495 Clear 22 1007 88 10000 1 0 22:44 11.06.2019
6496 Clear 22 1007 88 10000 1 0 22:20 11.06.2019
6497 Clear 22 1007 88 10000 1 0 21:57 11.06.2019
6498 Clear 22 1007 88 10000 1 80 21:38 11.06.2019
6499 Clear 22 1007 82 10000 1 0 21:20 11.06.2019
6500 Clear 23 1007 77 10000 1 0 20:48 11.06.2019
6501 Clear 23 1007 73 10000 1 10 20:26 11.06.2019
6502 Clear 23 1007 73 10000 1 0 19:55 11.06.2019
6503 Clear 24 1007 73 10000 1 0 19:34 11.06.2019
6504 Clear 24 1008 68 10000 2 60 18:58 11.06.2019
6505 Clear 25 1008 64 10000 2 50 18:23 11.06.2019
6506 Clear 26 1007 60 10000 2 30 17:57 11.06.2019
6507 Clear 25 1007 60 10000 2 30 17:39 11.06.2019
6508 Clear 26 1007 53 10000 1 0 17:19 11.06.2019
6509 Clear 26 1007 50 10000 4 130 16:42 11.06.2019
6510 Clear 27 1007 47 10000 4 130 16:23 11.06.2019
6511 Clear 28 1006 47 10000 4 140 15:43 11.06.2019
6512 Clear 28 1006 54 10000 3 120 15:24 11.06.2019
6513 Clear 28 1005 51 10000 4 110 14:54 11.06.2019
6514 Clear 29 1005 51 10000 4 120 14:23 11.06.2019
6515 Clear 30 1005 51 10000 4 120 13:57 11.06.2019
6516 Clear 31 1004 51 10000 5 130 13:37 11.06.2019
6517 Clear 31 1004 51 10000 5 130 13:18 11.06.2019
6518 Clear 32 1004 48 10000 4 120 12:40 11.06.2019
6519 Clear 33 1004 40 10000 4 140 12:21 11.06.2019
6520 Clear 34 1004 40 10000 3 130 11:41 11.06.2019
6521 Clear 34 1004 38 10000 4 130 11:21 11.06.2019
6522 Clear 34 1004 40 10000 5 130 10:50 11.06.2019
6523 Clear 34 1004 38 10000 3 160 10:26 11.06.2019
6524 Clear 34 1005 40 10000 4 120 09:50 11.06.2019
6525 Clear 34 1005 40 10000 4 120 09:25 11.06.2019
6526 Clear 34 1005 40 10000 3 0 08:49 11.06.2019
6527 Clear 33 1005 40 10000 3 0 08:30 11.06.2019
6528 Clear 33 1006 42 10000 4 130 07:57 11.06.2019
6529 Clear 33 1006 42 10000 4 130 07:31 11.06.2019
6530 Clear 32 1007 48 10000 3 120 06:51 11.06.2019
6531 Clear 30 1008 51 10000 2 160 05:20 11.06.2019
6532 Clear 29 1009 61 8000 2 0 03:55 11.06.2019
6533 Clouds 26 1009 64 7000 1 0 01:53 11.06.2019
6534 Clouds 24 1009 72 7000 1 0 00:49 11.06.2019
6535 Clouds 21 1009 88 7000 1 0 00:23 11.06.2019
6536 Clouds 20 1009 88 7000 1 0 23:44 10.06.2019
6537 Clear 20 1009 93 7000 1 40 23:19 10.06.2019
6538 Clear 19 1008 88 7000 1 30 22:42 10.06.2019
6539 Clear 22 1008 82 8000 1 10 22:24 10.06.2019
6540 Clear 22 1009 77 10000 1 0 21:41 10.06.2019
6541 Clear 23 1008 77 10000 2 80 21:23 10.06.2019
6542 Clear 23 1008 77 10000 2 80 20:59 10.06.2019
6543 Clear 23 1008 73 10000 2 100 20:40 10.06.2019
6544 Clear 23 1008 73 10000 2 100 20:20 10.06.2019
6545 Clear 24 1009 73 10000 2 90 19:43 10.06.2019
6546 Clear 25 1009 68 10000 2 90 19:22 10.06.2019
6547 Clear 25 1009 68 10000 2 90 18:56 10.06.2019
6548 Clear 25 1009 68 10000 2 90 18:38 10.06.2019
6549 Clear 24 1008 64 10000 2 100 18:19 10.06.2019
6550 Clear 25 1008 60 10000 2 80 17:43 10.06.2019
6551 Clear 25 1008 60 10000 2 80 17:23 10.06.2019
6552 Clear 26 1007 60 10000 2 80 16:48 10.06.2019
6553 Clear 26 1007 60 10000 2 80 16:30 10.06.2019
6554 Clear 26 1007 60 10000 2 80 16:30 10.06.2019
6555 Clear 27 1007 60 10000 2 60 15:57 10.06.2019
6556 Clear 27 1007 57 10000 2 100 15:38 10.06.2019
6557 Clear 27 1006 53 10000 3 130 15:20 10.06.2019
6558 Clear 28 1006 53 10000 4 130 14:41 10.06.2019
6559 Clear 28 1005 50 10000 6 120 14:23 10.06.2019
6560 Clear 30 1004 51 10000 6 120 13:46 10.06.2019
6561 Clear 31 1004 42 10000 7 120 13:24 10.06.2019
6562 Clear 32 1003 33 10000 5 140 12:53 10.06.2019
6563 Clear 32 1003 33 10000 5 140 12:30 10.06.2019
6564 Clear 33 1003 24 10000 4 140 11:54 10.06.2019
6565 Clear 34 1003 24 10000 4 140 11:30 10.06.2019
6566 Clear 34 1003 24 10000 3 150 10:59 10.06.2019
6567 Clouds 34 1003 21 10000 2 0 10:40 10.06.2019
6568 Clear 34 1003 21 10000 2 0 10:18 10.06.2019
6569 Clear 34 1004 21 10000 2 0 09:50 10.06.2019
6570 Clear 34 1004 21 10000 2 0 09:29 10.06.2019
6571 Clear 34 1004 21 10000 2 0 09:29 10.06.2019
6572 Clear 33 1004 24 10000 2 0 08:48 10.06.2019
6573 Clear 32 1004 24 10000 2 0 08:26 10.06.2019
6574 Clear 32 1005 24 10000 3 180 07:40 10.06.2019
6575 Clear 32 1007 42 10000 1 0 04:42 10.06.2019
6576 Clear 26 1008 60 7000 2 10 02:29 10.06.2019
6577 Clear 27 1007 60 7000 1 0 01:49 10.06.2019
6578 Clear 26 1007 73 7000 1 0 01:19 10.06.2019
6579 Clear 24 1007 82 8000 1 360 00:37 10.06.2019
6580 Clear 22 1007 88 8000 2.17 307.535 23:46 09.06.2019
6581 Clear 22 1007 88 8000 1 0 23:22 09.06.2019
6582 Clear 22 1007 82 8000 1 0 22:47 09.06.2019
6583 Clear 22 1007 77 8000 1 0 22:26 09.06.2019
6584 Clear 23 1006 77 8000 2 90 21:48 09.06.2019
6585 Clear 23 1006 77 8000 2 90 21:29 09.06.2019
6586 Clear 24 1007 72 8000 2 70 20:59 09.06.2019
6587 Clear 24 1006 72 8000 2 100 20:41 09.06.2019
6588 Clear 24 1006 72 8000 2 80 20:21 09.06.2019
6589 Clear 24 1006 72 8000 2 80 20:21 09.06.2019
6590 Clear 24 1006 77 8000 3 100 19:43 09.06.2019
6591 Clear 22 1006 77 8000 3 100 19:43 09.06.2019
6592 Clear 24 1006 73 10000 3 90 19:18 09.06.2019
6593 Clear 23 1006 68 10000 3 90 18:43 09.06.2019
6594 Clear 25 1006 56 10000 3 100 18:25 09.06.2019
6595 Clear 26 1006 47 10000 3 80 17:56 09.06.2019
6596 Clear 25 1006 47 10000 3 80 17:30 09.06.2019
6597 Clear 26 1005 38 10000 2 200 16:59 09.06.2019
6598 Clear 26 1005 44 10000 2 190 16:40 09.06.2019
6599 Clear 25 1005 53 10000 2 170 16:20 09.06.2019
6600 Clear 26 1005 53 10000 1.23 278.774 15:50 09.06.2019
6601 Clear 26 1005 53 10000 1.23 278.774 15:29 09.06.2019
6602 Clear 27 1004 47 10000 1 0 14:55 09.06.2019
6603 Clear 26 1004 50 10000 1.67 65.328 14:36 09.06.2019
6604 Clear 26 1003 44 10000 1 80 14:18 09.06.2019
6605 Clear 28 1003 36 10000 1 110 13:44 09.06.2019
6606 Clear 30 1003 28 10000 2 100 12:56 09.06.2019
6607 Clear 30 1003 27 10000 3 100 12:34 09.06.2019
6608 Clear 30 1003 27 10000 3 100 12:34 09.06.2019
6609 Clear 31 1003 25 10000 3 100 11:51 09.06.2019
6610 Clear 31 1003 25 10000 3 100 11:30 09.06.2019
6611 Clear 31 1003 23 10000 3 0 10:59 09.06.2019
6612 -273 0 0 0 0 0 10:59 09.06.2019
6613 Clear 32 1003 23 10000 4 70 10:40 09.06.2019
6614 Clear 31 1003 25 10000 4 60 10:20 09.06.2019
6615 Clear 32 1004 27 10000 5 40 09:38 09.06.2019
6616 Clear 32 1004 25 10000 4 20 09:20 09.06.2019
6617 Clear 33 1004 24 10000 5 20 08:45 09.06.2019
6618 Clear 32 1005 27 10000 5 20 07:53 09.06.2019
6619 Clear 32 1005 30 10000 6 20 06:48 09.06.2019
6620 Clear 32 1005 30 10000 6 20 06:29 09.06.2019
6621 Clear 27 1005 34 10000 4 340 03:21 09.06.2019
6622 Clear 27 1005 44 10000 2 360 01:37 09.06.2019
6623 Clear 27 1005 44 10000 2 360 01:37 09.06.2019
6624 Clear 27 1005 43 10000 2 330 01:19 09.06.2019
6625 Clear 25 1005 63 10000 1 0 00:31 09.06.2019
6626 Clear 22 1004 52 10000 2 30 23:41 08.06.2019
6627 Clear 23 1004 43 10000 3 10 23:23 08.06.2019
6628 Clear 23 1004 43 10000 3 10 22:56 08.06.2019
6629 Clear 23 1003 38 10000 7 320 22:37 08.06.2019
6630 Clear 24 1003 36 10000 8 320 22:18 08.06.2019
6631 Clear 24 1003 36 10000 8 330 21:49 08.06.2019
6632 Clear 24 1003 33 10000 8 330 21:24 08.06.2019
6633 Clear 25 1002 33 10000 6 330 20:46 08.06.2019
6634 Clear 25 1002 31 10000 8 310 20:25 08.06.2019
6635 Clear 25 1002 31 10000 8 310 19:58 08.06.2019
6636 Clear 25 1002 31 10000 7 330 19:38 08.06.2019
6637 Clear 26 1002 29 10000 8 330 19:19 08.06.2019
6638 Clear 24 1002 43 10000 2 350 18:43 08.06.2019
6639 Clear 25 1002 43 10000 2 350 18:25 08.06.2019
6640 Clear 26 1002 38 10000 4 20 17:46 08.06.2019
6641 Clear 26 1002 38 10000 3 20 17:22 08.06.2019
6642 Clear 26 1002 36 10000 4 30 16:53 08.06.2019
6643 Clear 27 1002 36 10000 4 30 16:35 08.06.2019
6644 Clear 27 1001 31 10000 1 0 15:53 08.06.2019
6645 Clear 27 1001 31 10000 1 0 15:33 08.06.2019
6646 Clear 28 1000 24 10000 4 30 14:48 08.06.2019
6647 Clear 29 1000 24 10000 4 30 14:29 08.06.2019
6648 Clear 30 999 21 10000 5 30 13:51 08.06.2019
6649 Clear 32 998 19 10000 7 30 12:54 08.06.2019
6650 Clear 32 998 19 10000 7 30 12:35 08.06.2019
6651 Clear 34 997 24 10000 4 240 11:56 08.06.2019
6652 Clear 34 997 22 10000 7 220 11:37 08.06.2019
6653 Clear 34 997 21 10000 7 220 11:19 08.06.2019
6654 Clear 35 997 16 10000 6 220 10:42 08.06.2019
6655 Clear 35 997 16 10000 7 200 10:19 08.06.2019
6656 Clear 35 997 16 10000 7 190 09:33 08.06.2019
6657 Clear 35 998 16 10000 6 200 08:52 08.06.2019
6658 Clear 36 999 16 10000 6 210 08:22 08.06.2019
6659 Clear 35 999 17 10000 5 0 07:27 08.06.2019
6660 Clear 34 1001 17 10000 4 240 06:45 08.06.2019
6661 Clear 32 1004 45 10000 1 0 03:37 08.06.2019
6662 Clouds 27 1004 69 7000 1 0 02:20 08.06.2019
6663 Mist 25 1004 94 5000 3 350 00:31 08.06.2019
6664 Clouds 21 1004 93 6000 2 350 23:59 07.06.2019
6665 Clouds 21 1004 93 7000 1 350 23:21 07.06.2019
6666 Clouds 21 1004 93 7000 2 330 22:52 07.06.2019
6667 Clouds 21 1004 93 7000 2 330 22:33 07.06.2019
6668 Clouds 22 1004 88 7000 3 350 21:55 07.06.2019
6669 Clouds 22 1004 94 7000 2 340 21:37 07.06.2019
6670 Clouds 23 1004 88 7000 2.88 317.492 21:18 07.06.2019
6671 Clear 24 1004 88 10000 3 350 20:42 07.06.2019
6672 Clear 25 1004 83 10000 2 360 20:22 07.06.2019
6673 Clear 25 1004 83 10000 1 20 19:41 07.06.2019
6674 Clear 24 1004 78 10000 2 10 19:19 07.06.2019
6675 Clear 24 1004 78 10000 2 360 18:43 07.06.2019
6676 Clear 25 1004 78 10000 2 70 18:25 07.06.2019
6677 Clear 25 1004 78 10000 2 100 17:44 07.06.2019
6678 Clear 25 1004 83 10000 1 60 17:21 07.06.2019
6679 Clear 25 1004 83 10000 1 100 16:41 07.06.2019
6680 Clear 26 1004 83 10000 2 60 16:20 07.06.2019
6681 Clear 26 1004 78 10000 1 0 15:47 07.06.2019
6682 Clear 26 1004 69 10000 1 0 15:20 07.06.2019
6683 Clear 28 1004 61 10000 3 180 14:42 07.06.2019
6684 Clear 28 1003 57 10000 4 170 14:21 07.06.2019
6685 Clear 29 1003 58 10000 4 170 13:28 07.06.2019
6686 Clear 29 1003 58 10000 3 150 12:56 07.06.2019
6687 Clear 29 1003 54 10000 4 170 12:37 07.06.2019
6688 Clear 30 1003 54 10000 4 190 12:18 07.06.2019
6689 Clear 30 1003 51 10000 4 180 11:39 07.06.2019
6690 Clear 30 1003 51 10000 4 180 11:21 07.06.2019
6691 Clear 30 1003 51 10000 4 180 10:43 07.06.2019
6692 Clouds 30 1003 48 8000 4 190 10:21 07.06.2019
6693 Clouds 30 1003 48 7000 4 180 09:49 07.06.2019
6694 Clouds 31 1003 48 7000 4 180 09:27 07.06.2019
6695 Clouds 31 1004 51 6000 4 170 08:49 07.06.2019
6696 Clouds 30 1004 51 6000 4 170 08:28 07.06.2019
6697 Clouds 31 1004 48 6000 3 0 07:52 07.06.2019
6698 Clouds 30 1005 54 6000 3 0 07:22 07.06.2019
6699 Clouds 29 1005 54 6000 3 170 06:48 07.06.2019
6700 Clouds 29 1005 57 6000 2 0 06:24 07.06.2019
6701 Haze 28 1006 57 5000 2 0 05:45 07.06.2019
6702 Mist 24 1007 78 5000 3 150 02:46 07.06.2019
6703 Mist 23 1007 88 5000 4 170 01:39 07.06.2019
6704 Mist 23 1007 83 5000 4 170 00:48 07.06.2019
6705 Clouds 21 1007 88 6000 2 160 00:19 07.06.2019
6706 Clouds 20 1007 88 6000 3 140 23:38 06.06.2019
6707 Clouds 20 1007 88 7000 3 130 23:18 06.06.2019
6708 Clouds 20 1007 88 7000 2 140 22:37 06.06.2019
6709 Clouds 20 1007 88 7000 2 180 22:19 06.06.2019
6710 Clouds 21 1007 88 7000 2 140 21:46 06.06.2019
6711 Clouds 20 1007 93 7000 2 160 21:22 06.06.2019
6712 Clouds 20 1007 93 7000 2 160 20:57 06.06.2019
6713 Clouds 20 1007 88 7000 2 150 20:38 06.06.2019
6714 Clouds 20 1007 88 7000 2 150 20:38 06.06.2019
6715 Clouds 20 1007 93 8000 2 140 20:20 06.06.2019
6716 Clouds 20 1007 88 8000 2 140 19:37 06.06.2019
6717 Clouds 21 1007 88 8000 2 160 19:19 06.06.2019
6718 Clear 21 1007 88 10000 2 150 18:44 06.06.2019
6719 Clear 20 1008 93 10000 1 160 18:25 06.06.2019
6720 Clear 20 1008 93 10000 1 0 17:51 06.06.2019
6721 Clear 20 1008 93 10000 1 0 17:26 06.06.2019
6722 Clear 21 1008 88 10000 1 0 16:58 06.06.2019
6723 Clear 21 1008 82 10000 1 0 16:39 06.06.2019
6724 Clear 21 1008 82 10000 1 160 16:20 06.06.2019
6725 Clear 21 1008 82 10000 2 150 15:44 06.06.2019
6726 Clear 23 1008 77 10000 2 160 15:24 06.06.2019
6727 Clear 23 1008 73 10000 2 190 14:45 06.06.2019
6728 Clear 23 1008 73 10000 2 160 14:20 06.06.2019
6729 Clear 24 1008 69 10000 4 180 13:53 06.06.2019
6730 Clear 24 1008 69 10000 4 180 13:30 06.06.2019
6731 Clear 24 1008 73 10000 2 170 12:55 06.06.2019
6732 Clear 24 1008 73 10000 2 170 12:37 06.06.2019
6733 Clear 24 1008 73 10000 1 0 12:18 06.06.2019
6734 Clear 24 1008 73 10000 3 210 11:41 06.06.2019
6735 Clear 25 1008 69 10000 3 200 11:22 06.06.2019
6736 Clear 24 1009 73 10000 3 200 10:45 06.06.2019
6737 Clear 24 1009 73 10000 3 200 10:26 06.06.2019
6738 Clouds 24 1009 73 10000 3 180 09:45 06.06.2019
6739 Clouds 24 1009 73 10000 3 180 09:25 06.06.2019
6740 Rain 23 1010 78 7000 2 170 08:51 06.06.2019
6741 Rain 23 1010 78 7000 2 170 08:26 06.06.2019
6742 Rain 23 1010 83 4500 2 0 07:54 06.06.2019
6743 Rain 23 1010 83 4500 2 0 07:30 06.06.2019
6744 Rain 23 1010 83 5000 2 160 06:49 06.06.2019
6745 Rain 23 1009 73 6000 5 160 05:41 06.06.2019
6746 Mist 23 1009 73 2700 5 180 04:38 06.06.2019
6747 Mist 22 1009 83 2100 2 120 02:24 06.06.2019
6748 Mist 22 1009 83 2100 2 120 01:56 06.06.2019
6749 Mist 22 1008 88 2500 1 0 01:18 06.06.2019
6750 Mist 22 1008 83 3000 1 0 00:31 06.06.2019
6751 Mist 21 1008 88 3500 1 0 23:42 05.06.2019
6752 Mist 21 1008 83 5000 0.44 141.096 23:23 05.06.2019
6753 Mist 22 1008 83 5000 1 80 22:44 05.06.2019
6754 Rain 22 1008 77 7000 2 90 22:23 05.06.2019
6755 Rain 22 1008 77 7000 2 90 21:59 05.06.2019
6756 Rain 22 1008 77 8000 1 0 21:40 05.06.2019
6757 Clouds 22 1009 77 8000 1 0 21:22 05.06.2019
6758 Rain 22 1009 77 10000 2 120 20:44 05.06.2019
6759 Rain 22 1009 83 10000 1 90 20:25 05.06.2019
6760 Rain 23 1009 73 10000 1 0 19:44 05.06.2019
6761 Rain 23 1009 69 10000 2 100 19:20 05.06.2019
6762 Clear 23 1009 73 10000 2 80 18:47 05.06.2019
6763 Clear 23 1009 73 10000 2 80 18:28 05.06.2019
6764 Clear 23 1009 73 10000 2 140 17:50 05.06.2019
6765 Clear 23 1009 73 10000 1 140 17:25 05.06.2019
6766 Clear 24 1009 73 10000 2 130 16:44 05.06.2019
6767 Clear 25 1009 64 10000 2 170 16:20 05.06.2019
6768 Clear 24 1008 61 10000 3 180 15:55 05.06.2019
6769 Clear 25 1008 61 10000 3 180 15:36 05.06.2019
6770 Clear 25 1008 56 10000 2 150 15:18 05.06.2019
6771 Clear 25 1007 64 10000 1 120 14:39 05.06.2019
6772 Clear 26 1007 53 10000 1 160 14:20 05.06.2019
6773 Clear 26 1008 47 10000 2 150 13:45 05.06.2019
6774 Clear 27 1008 50 10000 1 150 13:22 05.06.2019
6775 Clear 27 1008 42 10000 2 160 12:51 05.06.2019
6776 Clear 28 1008 42 10000 2 160 12:28 05.06.2019
6777 Clear 27 1008 32 10000 2 170 11:59 05.06.2019
6778 Clear 28 1008 28 10000 2 170 11:40 05.06.2019
6779 Clear 28 1008 30 10000 1 0 11:20 05.06.2019
6780 Clear 28 1008 28 10000 2 120 10:44 05.06.2019
6781 Clear 29 1008 32 10000 2 130 10:23 05.06.2019
6782 Clear 30 1008 32 10000 2 150 09:46 05.06.2019
6783 Clear 30 1008 32 10000 2 130 09:24 05.06.2019
6784 Clear 31 1009 32 10000 3 0 08:47 05.06.2019
6785 Clear 29 1009 35 10000 3 140 07:55 05.06.2019
6786 Clear 31 1009 30 10000 4 160 07:18 05.06.2019
6787 Clear 31 1009 20 10000 2 80 06:39 05.06.2019
6788 Clear 29 1010 26 10000 3 10 05:50 05.06.2019
6789 Clear 28 1010 54 10000 4 350 03:45 05.06.2019
6790 Clouds 24 1010 64 7000 6 350 02:22 05.06.2019
6791 Clouds 24 1009 73 7000 3 350 01:29 05.06.2019